<?xml version='1.0' encoding='UTF-8'?><gpx version="1.1" creator="JPX - https://github.com/jenetics/jpx" xmlns="http://www.topografix.com/GPX/1/1"><trk><trkseg><trkpt lat="44.85129587305758" lon="7.91121716515463"><ele>284.0</ele><time>2026-04-08T16:35:06Z</time></trkpt><trkpt lat="44.85123594131336" lon="7.911284369850175"><ele>284.0</ele><time>2026-04-08T16:35:37Z</time></trkpt><trkpt lat="44.851188495020786" lon="7.911181138520009"><ele>284.0</ele><time>2026-04-08T16:35:53Z</time></trkpt><trkpt lat="44.85115400089673" lon="7.911081606383396"><ele>284.0</ele><time>2026-04-08T16:35:56Z</time></trkpt><trkpt lat="44.85107569490274" lon="7.911050327324118"><ele>284.0</ele><time>2026-04-08T16:35:59Z</time></trkpt><trkpt lat="44.85102340276927" lon="7.91099167812036"><ele>284.0</ele><time>2026-04-08T16:36:01Z</time></trkpt><trkpt lat="44.85103661439367" lon="7.911248972038188"><ele>284.0</ele><time>2026-04-08T16:36:13Z</time></trkpt><trkpt lat="44.851054731444194" lon="7.911334307598015"><ele>284.0</ele><time>2026-04-08T16:36:14Z</time></trkpt><trkpt lat="44.850986642195316" lon="7.91146038918687"><ele>284.0</ele><time>2026-04-08T16:36:16Z</time></trkpt><trkpt lat="44.850885535452996" lon="7.911533375788641"><ele>284.0</ele><time>2026-04-08T16:36:18.001Z</time></trkpt><trkpt lat="44.85076130646333" lon="7.911530406223733"><ele>284.0</ele><time>2026-04-08T16:36:20.001Z</time></trkpt><trkpt lat="44.85063390826939" lon="7.911517251661892"><ele>285.6666666666667</ele><time>2026-04-08T16:36:22.001Z</time></trkpt><trkpt lat="44.850569852760636" lon="7.911515405680761"><ele>287.33333333333337</ele><time>2026-04-08T16:36:23.001Z</time></trkpt><trkpt lat="44.85050659624254" lon="7.9115135827290635"><ele>289.0</ele><time>2026-04-08T16:36:24Z</time></trkpt><trkpt lat="44.85042126989327" lon="7.911512996978904"><ele>290.6666666666667</ele><time>2026-04-08T16:36:25Z</time></trkpt><trkpt lat="44.85034004851572" lon="7.911547756844905"><ele>292.3333333333333</ele><time>2026-04-08T16:36:26Z</time></trkpt><trkpt lat="44.850269539635676" lon="7.91154713602441"><ele>294.0</ele><time>2026-04-08T16:36:27Z</time></trkpt><trkpt lat="44.850194559841796" lon="7.911623236401361"><ele>294.0</ele><time>2026-04-08T16:36:28Z</time></trkpt><trkpt lat="44.850126231483195" lon="7.911718348871838"><ele>294.0</ele><time>2026-04-08T16:36:29Z</time></trkpt><trkpt lat="44.85006908724233" lon="7.911822618816726"><ele>294.0</ele><time>2026-04-08T16:36:30Z</time></trkpt><trkpt lat="44.85001386367532" lon="7.911942903344665"><ele>294.0</ele><time>2026-04-08T16:36:31Z</time></trkpt><trkpt lat="44.849955231612235" lon="7.912066601099594"><ele>294.0</ele><time>2026-04-08T16:36:32Z</time></trkpt><trkpt lat="44.84989949484405" lon="7.91218166922601"><ele>295.4</ele><time>2026-04-08T16:36:33Z</time></trkpt><trkpt lat="44.84984695916699" lon="7.912300729129008"><ele>296.79999999999995</ele><time>2026-04-08T16:36:34Z</time></trkpt><trkpt lat="44.849798005733874" lon="7.91242012445992"><ele>298.20000000000005</ele><time>2026-04-08T16:36:35Z</time></trkpt><trkpt lat="44.849754262619996" lon="7.912540220857729"><ele>299.6</ele><time>2026-04-08T16:36:36Z</time></trkpt><trkpt lat="44.849712911772066" lon="7.912673639078217"><ele>301.0</ele><time>2026-04-08T16:36:37Z</time></trkpt><trkpt lat="44.849669112242374" lon="7.912805141742819"><ele>301.6</ele><time>2026-04-08T16:36:38Z</time></trkpt><trkpt lat="44.849624893094635" lon="7.912937481672119"><ele>302.20000000000005</ele><time>2026-04-08T16:36:39Z</time></trkpt><trkpt lat="44.84958297097328" lon="7.9130712384557835"><ele>302.79999999999995</ele><time>2026-04-08T16:36:40Z</time></trkpt><trkpt lat="44.8495365093939" lon="7.913205814541338"><ele>303.4</ele><time>2026-04-08T16:36:41Z</time></trkpt><trkpt lat="44.84949299807901" lon="7.913344042430137"><ele>304.0</ele><time>2026-04-08T16:36:42Z</time></trkpt><trkpt lat="44.84944963324917" lon="7.913486351480433"><ele>304.0</ele><time>2026-04-08T16:36:43Z</time></trkpt><trkpt lat="44.84940205290846" lon="7.913625308773291"><ele>304.0</ele><time>2026-04-08T16:36:44Z</time></trkpt><trkpt lat="44.84935186869661" lon="7.913770210503208"><ele>304.0</ele><time>2026-04-08T16:36:45Z</time></trkpt><trkpt lat="44.84930535062052" lon="7.913904473029296"><ele>304.0</ele><time>2026-04-08T16:36:46Z</time></trkpt><trkpt lat="44.84923093213683" lon="7.914017383896706"><ele>304.0</ele><time>2026-04-08T16:36:47Z</time></trkpt><trkpt lat="44.849144288290574" lon="7.914103217548587"><ele>304.25</ele><time>2026-04-08T16:36:48Z</time></trkpt><trkpt lat="44.84903806380009" lon="7.914168522554258"><ele>304.5</ele><time>2026-04-08T16:36:49Z</time></trkpt><trkpt lat="44.848924420278735" lon="7.914205535118872"><ele>304.75</ele><time>2026-04-08T16:36:50Z</time></trkpt><trkpt lat="44.84880050708233" lon="7.914257748016268"><ele>305.0</ele><time>2026-04-08T16:36:51Z</time></trkpt><trkpt lat="44.84867194266834" lon="7.914313791659125"><ele>305.0</ele><time>2026-04-08T16:36:52Z</time></trkpt><trkpt lat="44.848543338538946" lon="7.914371606699185"><ele>305.0</ele><time>2026-04-08T16:36:53Z</time></trkpt><trkpt lat="44.84841137348763" lon="7.9144307944544385"><ele>305.0</ele><time>2026-04-08T16:36:54Z</time></trkpt><trkpt lat="44.84828035626197" lon="7.91448747221273"><ele>305.0</ele><time>2026-04-08T16:36:55Z</time></trkpt><trkpt lat="44.848152914627754" lon="7.914542603144455"><ele>306.5</ele><time>2026-04-08T16:36:56Z</time></trkpt><trkpt lat="44.8480270265933" lon="7.914596962803377"><ele>308.0</ele><time>2026-04-08T16:36:57Z</time></trkpt><trkpt lat="44.84790483091511" lon="7.914649573890895"><ele>309.5</ele><time>2026-04-08T16:36:58Z</time></trkpt><trkpt lat="44.84778608298539" lon="7.91471145923889"><ele>311.0</ele><time>2026-04-08T16:36:59Z</time></trkpt><trkpt lat="44.84768516634912" lon="7.914806917011758"><ele>311.75</ele><time>2026-04-08T16:37:00Z</time></trkpt><trkpt lat="44.84759376621385" lon="7.914910507843824"><ele>312.5</ele><time>2026-04-08T16:37:01Z</time></trkpt><trkpt lat="44.84753427393765" lon="7.915051148745723"><ele>313.25</ele><time>2026-04-08T16:37:02Z</time></trkpt><trkpt lat="44.847485703532634" lon="7.915219852527614"><ele>314.0</ele><time>2026-04-08T16:37:03Z</time></trkpt><trkpt lat="44.84744519587834" lon="7.9153890381059675"><ele>314.0</ele><time>2026-04-08T16:37:04Z</time></trkpt><trkpt lat="44.84740531610016" lon="7.9155403916893965"><ele>314.0</ele><time>2026-04-08T16:37:05Z</time></trkpt><trkpt lat="44.847366116505924" lon="7.915681306130019"><ele>314.0</ele><time>2026-04-08T16:37:06Z</time></trkpt><trkpt lat="44.84733288071495" lon="7.915801351381732"><ele>314.0</ele><time>2026-04-08T16:37:07Z</time></trkpt><trkpt lat="44.847303878782824" lon="7.9159302339942155"><ele>314.0</ele><time>2026-04-08T16:37:08Z</time></trkpt><trkpt lat="44.84727718375484" lon="7.916053158656747"><ele>314.0</ele><time>2026-04-08T16:37:09Z</time></trkpt><trkpt lat="44.84726025363799" lon="7.916174432554717"><ele>314.0</ele><time>2026-04-08T16:37:10Z</time></trkpt><trkpt lat="44.847242891958544" lon="7.916277492145273"><ele>314.0</ele><time>2026-04-08T16:37:11Z</time></trkpt><trkpt lat="44.84723391975643" lon="7.916370750939793"><ele>314.0</ele><time>2026-04-08T16:37:12Z</time></trkpt><trkpt lat="44.84722594763068" lon="7.916479151719979"><ele>314.0</ele><time>2026-04-08T16:37:13Z</time></trkpt><trkpt lat="44.847217903546294" lon="7.916582983406786"><ele>314.0</ele><time>2026-04-08T16:37:14Z</time></trkpt><trkpt lat="44.84717002587687" lon="7.916714284619347"><ele>314.0</ele><time>2026-04-08T16:37:16Z</time></trkpt><trkpt lat="44.847076758877755" lon="7.916696862596176"><ele>314.0</ele><time>2026-04-08T16:37:17Z</time></trkpt><trkpt lat="44.84698167093796" lon="7.916764607798129"><ele>314.0</ele><time>2026-04-08T16:37:18Z</time></trkpt><trkpt lat="44.846874444834256" lon="7.916838808778773"><ele>314.0</ele><time>2026-04-08T16:37:19Z</time></trkpt><trkpt lat="44.84676830610632" lon="7.916913976122895"><ele>314.0</ele><time>2026-04-08T16:37:20Z</time></trkpt><trkpt lat="44.84666517904694" lon="7.917002606296238"><ele>315.0</ele><time>2026-04-08T16:37:21Z</time></trkpt><trkpt lat="44.84656626322901" lon="7.917126832779574"><ele>316.0</ele><time>2026-04-08T16:37:22Z</time></trkpt><trkpt lat="44.846465161880225" lon="7.917306141052308"><ele>317.0</ele><time>2026-04-08T16:37:23Z</time></trkpt><trkpt lat="44.84638213565278" lon="7.917520585984036"><ele>316.33333333333337</ele><time>2026-04-08T16:37:24Z</time></trkpt><trkpt lat="44.84630451768188" lon="7.917733069683013"><ele>315.6666666666667</ele><time>2026-04-08T16:37:25Z</time></trkpt><trkpt lat="44.84621786817208" lon="7.9179417906706"><ele>315.0</ele><time>2026-04-08T16:37:26Z</time></trkpt><trkpt lat="44.846125121948376" lon="7.918155824433476"><ele>315.0</ele><time>2026-04-08T16:37:27Z</time></trkpt><trkpt lat="44.846064915140424" lon="7.918310059753263"><ele>315.0</ele><time>2026-04-08T16:37:28Z</time></trkpt><trkpt lat="44.84602039178695" lon="7.91837722684422"><ele>315.0</ele><time>2026-04-08T16:37:29Z</time></trkpt><trkpt lat="44.845972522475776" lon="7.918488411691184"><ele>315.0</ele><time>2026-04-08T16:37:34Z</time></trkpt><trkpt lat="44.84595988159233" lon="7.918578235662277"><ele>315.0</ele><time>2026-04-08T16:37:37Z</time></trkpt><trkpt lat="44.8462456986823" lon="7.918735711131991"><ele>314.8</ele><time>2026-04-08T16:37:40Z</time></trkpt><trkpt lat="44.84631957926653" lon="7.918736006989346"><ele>314.6</ele><time>2026-04-08T16:37:42Z</time></trkpt><trkpt lat="44.8463853605119" lon="7.918793178869881"><ele>314.4</ele><time>2026-04-08T16:37:44Z</time></trkpt><trkpt lat="44.84646589221415" lon="7.91887918765122"><ele>314.2</ele><time>2026-04-08T16:37:47Z</time></trkpt><trkpt lat="44.84651733395175" lon="7.919028414679136"><ele>314.0</ele><time>2026-04-08T16:37:49Z</time></trkpt><trkpt lat="44.84657373506963" lon="7.919110144849978"><ele>314.0</ele><time>2026-04-08T16:37:50Z</time></trkpt><trkpt lat="44.846700975377416" lon="7.919207978242994"><ele>314.0</ele><time>2026-04-08T16:37:52Z</time></trkpt><trkpt lat="44.84676524807749" lon="7.919239773884456"><ele>314.0</ele><time>2026-04-08T16:37:53Z</time></trkpt><trkpt lat="44.84683593464869" lon="7.919342103180469"><ele>314.0</ele><time>2026-04-08T16:37:55Z</time></trkpt><trkpt lat="44.84685083463924" lon="7.919436250124614"><ele>314.0</ele><time>2026-04-08T16:37:56Z</time></trkpt><trkpt lat="44.84694340058795" lon="7.9196512466976365"><ele>310.59999999999997</ele><time>2026-04-08T16:37:58Z</time></trkpt><trkpt lat="44.8470090754965" lon="7.919745784763113"><ele>307.2</ele><time>2026-04-08T16:37:59Z</time></trkpt><trkpt lat="44.84706464005319" lon="7.919809633677786"><ele>303.79999999999995</ele><time>2026-04-08T16:38:00Z</time></trkpt><trkpt lat="44.84717758612734" lon="7.91985198407778"><ele>300.4</ele><time>2026-04-08T16:38:02Z</time></trkpt><trkpt lat="44.84725843510715" lon="7.9198757921971845"><ele>297.0</ele><time>2026-04-08T16:38:03Z</time></trkpt><trkpt lat="44.84736019866507" lon="7.919901698921209"><ele>297.0</ele><time>2026-04-08T16:38:05Z</time></trkpt><trkpt lat="44.847419909009126" lon="7.919840037203841"><ele>297.0</ele><time>2026-04-08T16:38:07Z</time></trkpt><trkpt lat="44.84737653578919" lon="7.919984803158838"><ele>297.0</ele><time>2026-04-08T16:38:11Z</time></trkpt><trkpt lat="44.84731684359587" lon="7.920079013948243"><ele>297.0</ele><time>2026-04-08T16:38:12Z</time></trkpt><trkpt lat="44.84725628569277" lon="7.92019903430258"><ele>297.0</ele><time>2026-04-08T16:38:13Z</time></trkpt><trkpt lat="44.847206836413996" lon="7.920302866567585"><ele>296.6666666666667</ele><time>2026-04-08T16:38:14Z</time></trkpt><trkpt lat="44.84715173518179" lon="7.920416657476572"><ele>296.3333333333333</ele><time>2026-04-08T16:38:15Z</time></trkpt><trkpt lat="44.847085421749725" lon="7.920514444769227"><ele>296.0</ele><time>2026-04-08T16:38:16Z</time></trkpt><trkpt lat="44.84703273714009" lon="7.920581053497673"><ele>295.66666666666663</ele><time>2026-04-08T16:38:17Z</time></trkpt><trkpt lat="44.847010079128964" lon="7.920682562559407"><ele>295.3333333333333</ele><time>2026-04-08T16:38:18Z</time></trkpt><trkpt lat="44.847018137372814" lon="7.920779772090162"><ele>295.0</ele><time>2026-04-08T16:38:19Z</time></trkpt><trkpt lat="44.84709298426441" lon="7.9209076479613545"><ele>295.0</ele><time>2026-04-08T16:38:21Z</time></trkpt><trkpt lat="44.84716591687701" lon="7.9209533661525455"><ele>295.0</ele><time>2026-04-08T16:38:22Z</time></trkpt><trkpt lat="44.84721946253482" lon="7.921001295068785"><ele>295.0</ele><time>2026-04-08T16:38:23Z</time></trkpt><trkpt lat="44.84726360789868" lon="7.921131156777851"><ele>295.0</ele><time>2026-04-08T16:38:25Z</time></trkpt><trkpt lat="44.84725536524542" lon="7.92122145596281"><ele>295.0</ele><time>2026-04-08T16:38:26Z</time></trkpt><trkpt lat="44.8472216905958" lon="7.921327548252125"><ele>295.0</ele><time>2026-04-08T16:38:27Z</time></trkpt><trkpt lat="44.847137067535726" lon="7.921496236545805"><ele>295.0</ele><time>2026-04-08T16:38:29Z</time></trkpt><trkpt lat="44.847074484728836" lon="7.921589540751209"><ele>295.0</ele><time>2026-04-08T16:38:30Z</time></trkpt><trkpt lat="44.84706775625844" lon="7.921734301512944"><ele>295.0</ele><time>2026-04-08T16:38:31Z</time></trkpt><trkpt lat="44.847069270493655" lon="7.921867066795499"><ele>295.0</ele><time>2026-04-08T16:38:32Z</time></trkpt><trkpt lat="44.847059853043554" lon="7.922007027904711"><ele>295.0</ele><time>2026-04-08T16:38:33Z</time></trkpt><trkpt lat="44.84703823129509" lon="7.922139656574985"><ele>295.0</ele><time>2026-04-08T16:38:34Z</time></trkpt><trkpt lat="44.84702974697158" lon="7.922268883627544"><ele>295.0</ele><time>2026-04-08T16:38:35Z</time></trkpt><trkpt lat="44.847022206265706" lon="7.922390530708718"><ele>295.0</ele><time>2026-04-08T16:38:36Z</time></trkpt><trkpt lat="44.84698110743724" lon="7.922498415979338"><ele>295.0</ele><time>2026-04-08T16:38:37Z</time></trkpt><trkpt lat="44.8469074400458" lon="7.922601284508548"><ele>295.0</ele><time>2026-04-08T16:38:38Z</time></trkpt><trkpt lat="44.84685460480989" lon="7.922712444909432"><ele>296.0</ele><time>2026-04-08T16:38:39Z</time></trkpt><trkpt lat="44.84681637968628" lon="7.9228414993254885"><ele>297.0</ele><time>2026-04-08T16:38:40Z</time></trkpt><trkpt lat="44.84676992632431" lon="7.922957939569642"><ele>298.0</ele><time>2026-04-08T16:38:41Z</time></trkpt><trkpt lat="44.84672241772048" lon="7.9230929810939665"><ele>299.0</ele><time>2026-04-08T16:38:42Z</time></trkpt><trkpt lat="44.84667682757839" lon="7.9232151539917295"><ele>300.0</ele><time>2026-04-08T16:38:43Z</time></trkpt><trkpt lat="44.84664531912339" lon="7.923346483709033"><ele>299.5</ele><time>2026-04-08T16:38:44Z</time></trkpt><trkpt lat="44.846603313608774" lon="7.923450960557856"><ele>299.0</ele><time>2026-04-08T16:38:45Z</time></trkpt><trkpt lat="44.846570330815105" lon="7.923531313542305"><ele>298.5</ele><time>2026-04-08T16:38:46Z</time></trkpt><trkpt lat="44.84651738304706" lon="7.923604954846758"><ele>298.0</ele><time>2026-04-08T16:38:50Z</time></trkpt><trkpt lat="44.846450299656766" lon="7.923651474528248"><ele>297.5</ele><time>2026-04-08T16:38:52Z</time></trkpt><trkpt lat="44.84634581536115" lon="7.923793634340177"><ele>297.0</ele><time>2026-04-08T16:38:54Z</time></trkpt><trkpt lat="44.84628056480332" lon="7.923873335364169"><ele>297.0</ele><time>2026-04-08T16:38:55Z</time></trkpt><trkpt lat="44.84620865789242" lon="7.92391351389362"><ele>297.0</ele><time>2026-04-08T16:38:56Z</time></trkpt><trkpt lat="44.84614137441826" lon="7.923936400733309"><ele>297.0</ele><time>2026-04-08T16:38:57Z</time></trkpt><trkpt lat="44.846038398320594" lon="7.923951337815815"><ele>297.0</ele><time>2026-04-08T16:38:58Z</time></trkpt><trkpt lat="44.84597778322858" lon="7.923996429289943"><ele>297.0</ele><time>2026-04-08T16:38:59Z</time></trkpt><trkpt lat="44.84589561961256" lon="7.9240166404460455"><ele>297.0</ele><time>2026-04-08T16:39:00Z</time></trkpt><trkpt lat="44.84580144035894" lon="7.9240046134148985"><ele>298.6</ele><time>2026-04-08T16:39:01Z</time></trkpt><trkpt lat="44.84572388166467" lon="7.923874934505843"><ele>300.2</ele><time>2026-04-08T16:39:02Z</time></trkpt><trkpt lat="44.84564091148019" lon="7.9238847036874045"><ele>301.8</ele><time>2026-04-08T16:39:04Z</time></trkpt><trkpt lat="44.84558169164005" lon="7.924011421296356"><ele>303.4</ele><time>2026-04-08T16:39:06Z</time></trkpt><trkpt lat="44.84547889982097" lon="7.923978516978582"><ele>305.0</ele><time>2026-04-08T16:39:08Z</time></trkpt><trkpt lat="44.84545516824548" lon="7.92388772049861"><ele>305.0</ele><time>2026-04-08T16:39:09Z</time></trkpt><trkpt lat="44.845376714957524" lon="7.9239416578091175"><ele>305.0</ele><time>2026-04-08T16:39:13Z</time></trkpt><trkpt lat="44.845313997079636" lon="7.92389512309667"><ele>305.0</ele><time>2026-04-08T16:39:15Z</time></trkpt><trkpt lat="44.84530311741848" lon="7.9237551538371145"><ele>305.0</ele><time>2026-04-08T16:39:18Z</time></trkpt><trkpt lat="44.845249440923546" lon="7.923649416934219"><ele>305.0</ele><time>2026-04-08T16:39:21Z</time></trkpt><trkpt lat="44.84519114462144" lon="7.9235740786524165"><ele>305.0</ele><time>2026-04-08T16:39:24Z</time></trkpt><trkpt lat="44.84512996763222" lon="7.9236012015236765"><ele>305.5714285714286</ele><time>2026-04-08T16:39:26Z</time></trkpt><trkpt lat="44.845075716573945" lon="7.923682286113053"><ele>306.1428571428571</ele><time>2026-04-08T16:39:28Z</time></trkpt><trkpt lat="44.845060800970046" lon="7.923784425283031"><ele>306.7142857142857</ele><time>2026-04-08T16:39:30Z</time></trkpt><trkpt lat="44.84503162131759" lon="7.923879312653573"><ele>307.28571428571433</ele><time>2026-04-08T16:39:33Z</time></trkpt><trkpt lat="44.84498322883188" lon="7.923944336452031"><ele>307.8571428571429</ele><time>2026-04-08T16:39:36Z</time></trkpt><trkpt lat="44.84492620717013" lon="7.923995642986137"><ele>308.42857142857144</ele><time>2026-04-08T16:39:38Z</time></trkpt><trkpt lat="44.84486893529232" lon="7.924083688275812"><ele>309.0</ele><time>2026-04-08T16:39:41Z</time></trkpt><trkpt lat="44.844802070416584" lon="7.924175052765504"><ele>309.0</ele><time>2026-04-08T16:39:43Z</time></trkpt><trkpt lat="44.84473288705001" lon="7.924219214583592"><ele>309.0</ele><time>2026-04-08T16:39:44Z</time></trkpt><trkpt lat="44.84465159716967" lon="7.924265838370083"><ele>309.0</ele><time>2026-04-08T16:39:45Z</time></trkpt><trkpt lat="44.844561844331196" lon="7.924296910545855"><ele>309.0</ele><time>2026-04-08T16:39:46Z</time></trkpt><trkpt lat="44.84447089112251" lon="7.924327726848529"><ele>309.0</ele><time>2026-04-08T16:39:47Z</time></trkpt><trkpt lat="44.84441014637003" lon="7.924369749418707"><ele>309.0</ele><time>2026-04-08T16:39:49Z</time></trkpt><trkpt lat="44.8444816659245" lon="7.92441981897335"><ele>310.0</ele><time>2026-04-08T16:39:53Z</time></trkpt><trkpt lat="44.844594336586034" lon="7.9244696824091365"><ele>311.0</ele><time>2026-04-08T16:39:57Z</time></trkpt><trkpt lat="44.84466059612333" lon="7.924508667737692"><ele>312.0</ele><time>2026-04-08T16:39:58Z</time></trkpt><trkpt lat="44.84473531781896" lon="7.924544100200279"><ele>313.0</ele><time>2026-04-08T16:39:59Z</time></trkpt><trkpt lat="44.844807156916225" lon="7.924593808861948"><ele>314.0</ele><time>2026-04-08T16:40:02Z</time></trkpt><trkpt lat="44.84485240988152" lon="7.924667487741596"><ele>315.0</ele><time>2026-04-08T16:40:03Z</time></trkpt><trkpt lat="44.844917695288416" lon="7.924684714512543"><ele>315.0</ele><time>2026-04-08T16:40:05Z</time></trkpt><trkpt lat="44.84499844815629" lon="7.924718584625899"><ele>315.0</ele><time>2026-04-08T16:40:07Z</time></trkpt><trkpt lat="44.84498568083314" lon="7.92481935246545"><ele>315.0</ele><time>2026-04-08T16:40:08Z</time></trkpt><trkpt lat="44.84505996656941" lon="7.924886647447983"><ele>315.0</ele><time>2026-04-08T16:40:10Z</time></trkpt><trkpt lat="44.8451313153619" lon="7.92491157127852"><ele>315.0</ele><time>2026-04-08T16:40:11Z</time></trkpt><trkpt lat="44.84521792873313" lon="7.924879798764982"><ele>315.0</ele><time>2026-04-08T16:40:12Z</time></trkpt><trkpt lat="44.845303212347694" lon="7.92486856082901"><ele>315.3333333333333</ele><time>2026-04-08T16:40:13Z</time></trkpt><trkpt lat="44.84538932911632" lon="7.924880783298855"><ele>315.6666666666667</ele><time>2026-04-08T16:40:14Z</time></trkpt><trkpt lat="44.84546698142929" lon="7.924855336166061"><ele>316.0</ele><time>2026-04-08T16:40:15Z</time></trkpt><trkpt lat="44.84551382677551" lon="7.924752282111035"><ele>316.33333333333337</ele><time>2026-04-08T16:40:18Z</time></trkpt><trkpt lat="44.8456104318872" lon="7.924730602816641"><ele>316.6666666666667</ele><time>2026-04-08T16:40:21Z</time></trkpt><trkpt lat="44.845693508393005" lon="7.924678004045318"><ele>317.0</ele><time>2026-04-08T16:40:24Z</time></trkpt><trkpt lat="44.8457705666276" lon="7.924669134460627"><ele>317.0</ele><time>2026-04-08T16:40:26Z</time></trkpt><trkpt lat="44.84583175149717" lon="7.924721484324442"><ele>317.0</ele><time>2026-04-08T16:40:27Z</time></trkpt><trkpt lat="44.84594633986737" lon="7.924739099204207"><ele>317.0</ele><time>2026-04-08T16:40:29Z</time></trkpt><trkpt lat="44.8460265291808" lon="7.924635944409154"><ele>317.0</ele><time>2026-04-08T16:40:31Z</time></trkpt><trkpt lat="44.84612165735026" lon="7.924621743670276"><ele>317.0</ele><time>2026-04-08T16:40:33Z</time></trkpt><trkpt lat="44.846189752839145" lon="7.9246115934706625"><ele>315.83333333333337</ele><time>2026-04-08T16:40:35Z</time></trkpt><trkpt lat="44.84627125151037" lon="7.924588724273392"><ele>314.6666666666667</ele><time>2026-04-08T16:40:37Z</time></trkpt><trkpt lat="44.84633162659042" lon="7.9245470818678925"><ele>313.5</ele><time>2026-04-08T16:40:41Z</time></trkpt><trkpt lat="44.84644235487005" lon="7.92456932831218"><ele>312.3333333333333</ele><time>2026-04-08T16:40:45Z</time></trkpt><trkpt lat="44.84651333365616" lon="7.924492022144588"><ele>311.16666666666663</ele><time>2026-04-08T16:40:47Z</time></trkpt><trkpt lat="44.84654649766425" lon="7.92438912029094"><ele>310.0</ele><time>2026-04-08T16:40:49Z</time></trkpt><trkpt lat="44.84661374384682" lon="7.924340036805967"><ele>310.0</ele><time>2026-04-08T16:40:52Z</time></trkpt><trkpt lat="44.846709921683924" lon="7.924345157176439"><ele>310.0</ele><time>2026-04-08T16:40:55Z</time></trkpt><trkpt lat="44.846786015357" lon="7.92439114601834"><ele>310.0</ele><time>2026-04-08T16:40:57Z</time></trkpt><trkpt lat="44.84688049834743" lon="7.924580740602393"><ele>310.0</ele><time>2026-04-08T16:40:59Z</time></trkpt><trkpt lat="44.84690891922333" lon="7.9246773022810615"><ele>310.0</ele><time>2026-04-08T16:41:00Z</time></trkpt><trkpt lat="44.84692501667671" lon="7.924763845514913"><ele>308.6</ele><time>2026-04-08T16:41:01Z</time></trkpt><trkpt lat="44.84695632719923" lon="7.924878042415502"><ele>307.2</ele><time>2026-04-08T16:41:03Z</time></trkpt><trkpt lat="44.84698726592961" lon="7.924971496414799"><ele>305.8</ele><time>2026-04-08T16:41:07Z</time></trkpt><trkpt lat="44.84701362583252" lon="7.925065644299342"><ele>304.4</ele><time>2026-04-08T16:41:10Z</time></trkpt><trkpt lat="44.847073614347835" lon="7.925199026172859"><ele>303.0</ele><time>2026-04-08T16:41:13Z</time></trkpt><trkpt lat="44.847156399521836" lon="7.925300555210341"><ele>303.0</ele><time>2026-04-08T16:41:15Z</time></trkpt><trkpt lat="44.84722173031394" lon="7.925392268443625"><ele>303.0</ele><time>2026-04-08T16:41:17Z</time></trkpt><trkpt lat="44.84728559981053" lon="7.925492344607566"><ele>303.0</ele><time>2026-04-08T16:41:19Z</time></trkpt><trkpt lat="44.84733856645471" lon="7.925624307822041"><ele>303.0</ele><time>2026-04-08T16:41:21Z</time></trkpt><trkpt lat="44.847337609811156" lon="7.9257153144077614"><ele>303.0</ele><time>2026-04-08T16:41:23Z</time></trkpt><trkpt lat="44.847347896296476" lon="7.925810087866189"><ele>303.0</ele><time>2026-04-08T16:41:28Z</time></trkpt><trkpt lat="44.84741020613525" lon="7.9258321857623555"><ele>303.0</ele><time>2026-04-08T16:41:32Z</time></trkpt><trkpt lat="44.84746187394505" lon="7.925777056195534"><ele>303.0</ele><time>2026-04-08T16:41:33Z</time></trkpt><trkpt lat="44.84751896548698" lon="7.92569657332171"><ele>303.0</ele><time>2026-04-08T16:41:34Z</time></trkpt><trkpt lat="44.84758120289435" lon="7.925639753341624"><ele>303.0</ele><time>2026-04-08T16:41:36Z</time></trkpt><trkpt lat="44.84760032084845" lon="7.925790107618985"><ele>303.0</ele><time>2026-04-08T16:41:38Z</time></trkpt><trkpt lat="44.84763393875153" lon="7.925894419273327"><ele>303.0</ele><time>2026-04-08T16:41:39Z</time></trkpt><trkpt lat="44.847693058565234" lon="7.9259859074627"><ele>303.75</ele><time>2026-04-08T16:41:40Z</time></trkpt><trkpt lat="44.847791405320486" lon="7.926107930899319"><ele>304.5</ele><time>2026-04-08T16:41:41Z</time></trkpt><trkpt lat="44.8478564523317" lon="7.926220371837319"><ele>305.25</ele><time>2026-04-08T16:41:42Z</time></trkpt><trkpt lat="44.84792760348375" lon="7.92633834713252"><ele>306.0</ele><time>2026-04-08T16:41:43Z</time></trkpt><trkpt lat="44.84800815541011" lon="7.926438890376947"><ele>306.0</ele><time>2026-04-08T16:41:44Z</time></trkpt><trkpt lat="44.84809366084153" lon="7.926541934589425"><ele>306.0</ele><time>2026-04-08T16:41:45Z</time></trkpt><trkpt lat="44.84819413718571" lon="7.926596776660195"><ele>306.0</ele><time>2026-04-08T16:41:46Z</time></trkpt><trkpt lat="44.848251380893636" lon="7.926672677368809"><ele>306.0</ele><time>2026-04-08T16:41:47Z</time></trkpt><trkpt lat="44.84830140371471" lon="7.9267759232902675"><ele>306.0</ele><time>2026-04-08T16:41:48Z</time></trkpt><trkpt lat="44.84835119877425" lon="7.926852597805906"><ele>306.8</ele><time>2026-04-08T16:41:49Z</time></trkpt><trkpt lat="44.84836412073606" lon="7.926967459786418"><ele>307.6</ele><time>2026-04-08T16:41:50Z</time></trkpt><trkpt lat="44.848357963162975" lon="7.927099574956732"><ele>308.4</ele><time>2026-04-08T16:41:51Z</time></trkpt><trkpt lat="44.84837269945876" lon="7.92724813466291"><ele>309.2</ele><time>2026-04-08T16:41:52Z</time></trkpt><trkpt lat="44.848444120982236" lon="7.927356228758565"><ele>310.0</ele><time>2026-04-08T16:41:53Z</time></trkpt><trkpt lat="44.848526227882964" lon="7.927484738430676"><ele>311.0</ele><time>2026-04-08T16:41:54Z</time></trkpt><trkpt lat="44.84856962904625" lon="7.92757223791343"><ele>312.0</ele><time>2026-04-08T16:41:55Z</time></trkpt><trkpt lat="44.84859996633366" lon="7.927667689526697"><ele>313.0</ele><time>2026-04-08T16:41:56Z</time></trkpt><trkpt lat="44.8486307531351" lon="7.92781711226757"><ele>314.0</ele><time>2026-04-08T16:41:57Z</time></trkpt><trkpt lat="44.848659834499436" lon="7.927958716211922"><ele>315.0</ele><time>2026-04-08T16:41:58Z</time></trkpt><trkpt lat="44.848682776557325" lon="7.9280597501714825"><ele>316.0</ele><time>2026-04-08T16:41:59Z</time></trkpt><trkpt lat="44.84873482379122" lon="7.928153928594491"><ele>316.0</ele><time>2026-04-08T16:42:01Z</time></trkpt><trkpt lat="44.84879146168482" lon="7.928289927396959"><ele>316.0</ele><time>2026-04-08T16:42:02Z</time></trkpt><trkpt lat="44.84888108290422" lon="7.928395756098833"><ele>316.0</ele><time>2026-04-08T16:42:03Z</time></trkpt><trkpt lat="44.84893096235557" lon="7.928484828538188"><ele>316.0</ele><time>2026-04-08T16:42:04Z</time></trkpt><trkpt lat="44.848960075784134" lon="7.928573166473074"><ele>316.0</ele><time>2026-04-08T16:42:05Z</time></trkpt><trkpt lat="44.848940497875155" lon="7.928734987452153"><ele>316.0</ele><time>2026-04-08T16:42:08Z</time></trkpt><trkpt lat="44.848951214290125" lon="7.928859926792758"><ele>316.0</ele><time>2026-04-08T16:42:10Z</time></trkpt><trkpt lat="44.84891254970642" lon="7.928943295502555"><ele>316.0</ele><time>2026-04-08T16:42:11Z</time></trkpt><trkpt lat="44.84890986609382" lon="7.929086819702828"><ele>316.0</ele><time>2026-04-08T16:42:12Z</time></trkpt><trkpt lat="44.84890092325768" lon="7.929216029399348"><ele>316.0</ele><time>2026-04-08T16:42:13Z</time></trkpt><trkpt lat="44.84890064627953" lon="7.929345303481771"><ele>316.0</ele><time>2026-04-08T16:42:15Z</time></trkpt><trkpt lat="44.8489439470368" lon="7.929539417652591"><ele>316.0</ele><time>2026-04-08T16:42:17Z</time></trkpt><trkpt lat="44.848904043434395" lon="7.929678867704831"><ele>316.0</ele><time>2026-04-08T16:42:19Z</time></trkpt><trkpt lat="44.8488401681939" lon="7.929828957782285"><ele>316.0</ele><time>2026-04-08T16:42:21Z</time></trkpt><trkpt lat="44.8488645981281" lon="7.92998157574583"><ele>316.0</ele><time>2026-04-08T16:42:22Z</time></trkpt><trkpt lat="44.84889874681356" lon="7.930100291897644"><ele>316.0</ele><time>2026-04-08T16:42:23Z</time></trkpt><trkpt lat="44.84895531156621" lon="7.930198259582866"><ele>316.3333333333333</ele><time>2026-04-08T16:42:24Z</time></trkpt><trkpt lat="44.84897666273018" lon="7.930289132833237"><ele>316.66666666666663</ele><time>2026-04-08T16:42:25Z</time></trkpt><trkpt lat="44.848953172668445" lon="7.930381150420303"><ele>317.0</ele><time>2026-04-08T16:42:26Z</time></trkpt><trkpt lat="44.84892368210652" lon="7.930465050605958"><ele>317.3333333333333</ele><time>2026-04-08T16:42:27Z</time></trkpt><trkpt lat="44.84894615396507" lon="7.930611286275451"><ele>317.6666666666667</ele><time>2026-04-08T16:42:29Z</time></trkpt><trkpt lat="44.84895252334521" lon="7.930726701309305"><ele>318.0</ele><time>2026-04-08T16:42:30Z</time></trkpt><trkpt lat="44.848928816042445" lon="7.93085552497524"><ele>317.6666666666667</ele><time>2026-04-08T16:42:32Z</time></trkpt><trkpt lat="44.84890229162539" lon="7.930953254524806"><ele>317.3333333333333</ele><time>2026-04-08T16:42:33Z</time></trkpt><trkpt lat="44.84887516683228" lon="7.9310369252396935"><ele>317.0</ele><time>2026-04-08T16:42:34Z</time></trkpt><trkpt lat="44.8488547640533" lon="7.931134977033892"><ele>316.66666666666663</ele><time>2026-04-08T16:42:35Z</time></trkpt><trkpt lat="44.848823679804454" lon="7.931281714799556"><ele>316.3333333333333</ele><time>2026-04-08T16:42:37Z</time></trkpt><trkpt lat="44.84878587739956" lon="7.931441097651876"><ele>316.0</ele><time>2026-04-08T16:42:39Z</time></trkpt><trkpt lat="44.84869529028233" lon="7.931514074221405"><ele>316.0</ele><time>2026-04-08T16:42:41Z</time></trkpt><trkpt lat="44.84862195054771" lon="7.931552375329678"><ele>316.0</ele><time>2026-04-08T16:42:42Z</time></trkpt><trkpt lat="44.848570663295604" lon="7.93162100882038"><ele>316.0</ele><time>2026-04-08T16:42:43Z</time></trkpt><trkpt lat="44.848468272824135" lon="7.931630672499576"><ele>316.0</ele><time>2026-04-08T16:42:45Z</time></trkpt><trkpt lat="44.8484042944046" lon="7.931588554986896"><ele>316.0</ele><time>2026-04-08T16:42:46Z</time></trkpt><trkpt lat="44.84833553513808" lon="7.93158960147155"><ele>316.0</ele><time>2026-04-08T16:42:47Z</time></trkpt><trkpt lat="44.84822411536363" lon="7.931506867047373"><ele>316.0</ele><time>2026-04-08T16:42:49Z</time></trkpt><trkpt lat="44.84814246253339" lon="7.931434473017255"><ele>316.0</ele><time>2026-04-08T16:42:51Z</time></trkpt><trkpt lat="44.84822246697968" lon="7.931345367391167"><ele>316.0</ele><time>2026-04-08T16:42:53Z</time></trkpt><trkpt lat="44.848291555033605" lon="7.9311913868627775"><ele>316.0</ele><time>2026-04-08T16:42:55Z</time></trkpt><trkpt lat="44.84836746018169" lon="7.931116225772547"><ele>316.0</ele><time>2026-04-08T16:42:56Z</time></trkpt><trkpt lat="44.848430267438005" lon="7.931009179489482"><ele>316.0</ele><time>2026-04-08T16:42:58Z</time></trkpt><trkpt lat="44.84844527614703" lon="7.930904426069669"><ele>316.0</ele><time>2026-04-08T16:42:59Z</time></trkpt><trkpt lat="44.84845053125046" lon="7.930801364253245"><ele>316.0</ele><time>2026-04-08T16:43:00Z</time></trkpt><trkpt lat="44.84841584559483" lon="7.930705524104597"><ele>316.0</ele><time>2026-04-08T16:43:01Z</time></trkpt><trkpt lat="44.84835710972827" lon="7.930623131265253"><ele>316.0</ele><time>2026-04-08T16:43:02Z</time></trkpt><trkpt lat="44.84829165006134" lon="7.9305313579673715"><ele>316.0</ele><time>2026-04-08T16:43:04Z</time></trkpt><trkpt lat="44.8482652750477" lon="7.930448257973516"><ele>317.0</ele><time>2026-04-08T16:43:06Z</time></trkpt><trkpt lat="44.84826923927458" lon="7.930349260682389"><ele>318.0</ele><time>2026-04-08T16:43:07Z</time></trkpt><trkpt lat="44.84821583225032" lon="7.930233190203169"><ele>319.0</ele><time>2026-04-08T16:43:09Z</time></trkpt><trkpt lat="44.84811786551975" lon="7.930241569894612"><ele>320.0</ele><time>2026-04-08T16:43:11Z</time></trkpt><trkpt lat="44.848020937313656" lon="7.930275117072154"><ele>321.0</ele><time>2026-04-08T16:43:12Z</time></trkpt><trkpt lat="44.84795266338411" lon="7.930335582605428"><ele>322.0</ele><time>2026-04-08T16:43:13Z</time></trkpt><trkpt lat="44.847886024922815" lon="7.930385146103716"><ele>322.0</ele><time>2026-04-08T16:43:14Z</time></trkpt><trkpt lat="44.84781965626696" lon="7.930430499377523"><ele>322.0</ele><time>2026-04-08T16:43:15Z</time></trkpt><trkpt lat="44.84776418583832" lon="7.930474107362887"><ele>322.0</ele><time>2026-04-08T16:43:16Z</time></trkpt><trkpt lat="44.84773989784871" lon="7.9305602431385775"><ele>322.0</ele><time>2026-04-08T16:43:17Z</time></trkpt><trkpt lat="44.84768682543911" lon="7.9307034910100604"><ele>322.0</ele><time>2026-04-08T16:43:19Z</time></trkpt><trkpt lat="44.84762198572302" lon="7.93078974159008"><ele>322.0</ele><time>2026-04-08T16:43:20Z</time></trkpt><trkpt lat="44.84756842238619" lon="7.930841696491409"><ele>324.0</ele><time>2026-04-08T16:43:21Z</time></trkpt><trkpt lat="44.84749546568721" lon="7.930801018048758"><ele>326.0</ele><time>2026-04-08T16:43:23Z</time></trkpt><trkpt lat="44.84738671668697" lon="7.9307667515163045"><ele>328.0</ele><time>2026-04-08T16:43:24Z</time></trkpt><trkpt lat="44.84731151924526" lon="7.930780285968496"><ele>330.0</ele><time>2026-04-08T16:43:25Z</time></trkpt><trkpt lat="44.84724150325525" lon="7.930787110217074"><ele>332.0</ele><time>2026-04-08T16:43:26Z</time></trkpt><trkpt lat="44.847116473518376" lon="7.930758978371082"><ele>332.0</ele><time>2026-04-08T16:43:28Z</time></trkpt><trkpt lat="44.84703180006461" lon="7.930684987727391"><ele>332.0</ele><time>2026-04-08T16:43:29Z</time></trkpt><trkpt lat="44.84692821632948" lon="7.930632357638645"><ele>332.0</ele><time>2026-04-08T16:43:30Z</time></trkpt><trkpt lat="44.8468105347854" lon="7.930700502796764"><ele>332.0</ele><time>2026-04-08T16:43:32Z</time></trkpt><trkpt lat="44.84673905073454" lon="7.930716106584915"><ele>332.0</ele><time>2026-04-08T16:43:33Z</time></trkpt><trkpt lat="44.84669030247985" lon="7.930659769864701"><ele>333.33333333333337</ele><time>2026-04-08T16:43:34Z</time></trkpt><trkpt lat="44.846624789122636" lon="7.930568798815265"><ele>334.6666666666667</ele><time>2026-04-08T16:43:35Z</time></trkpt><trkpt lat="44.846579147225945" lon="7.930468006233438"><ele>336.0</ele><time>2026-04-08T16:43:36Z</time></trkpt><trkpt lat="44.84654498721575" lon="7.930388122880104"><ele>337.3333333333333</ele><time>2026-04-08T16:43:37Z</time></trkpt><trkpt lat="44.8464430034166" lon="7.930365885587839"><ele>338.66666666666663</ele><time>2026-04-08T16:43:39Z</time></trkpt><trkpt lat="44.846354832541095" lon="7.930402049003874"><ele>340.0</ele><time>2026-04-08T16:43:40Z</time></trkpt><trkpt lat="44.846276216042895" lon="7.930397296577666"><ele>340.0</ele><time>2026-04-08T16:43:41Z</time></trkpt><trkpt lat="44.84617940375539" lon="7.930364315341779"><ele>340.0</ele><time>2026-04-08T16:43:42Z</time></trkpt><trkpt lat="44.846085639094795" lon="7.930381236841068"><ele>340.0</ele><time>2026-04-08T16:43:43Z</time></trkpt><trkpt lat="44.845960495695266" lon="7.930430607576402"><ele>340.0</ele><time>2026-04-08T16:43:45Z</time></trkpt><trkpt lat="44.84586809894549" lon="7.930409813990193"><ele>340.0</ele><time>2026-04-08T16:43:47Z</time></trkpt><trkpt lat="44.84584985103194" lon="7.930501155439802"><ele>340.3333333333333</ele><time>2026-04-08T16:43:56Z</time></trkpt><trkpt lat="44.845785973223045" lon="7.93050413504164"><ele>340.66666666666663</ele><time>2026-04-08T16:44:05Z</time></trkpt><trkpt lat="44.84573751274511" lon="7.930418827195399"><ele>341.0</ele><time>2026-04-08T16:44:08Z</time></trkpt><trkpt lat="44.845661787442175" lon="7.930456244397929"><ele>341.3333333333333</ele><time>2026-04-08T16:44:10Z</time></trkpt><trkpt lat="44.84558447965658" lon="7.930421689850601"><ele>341.6666666666667</ele><time>2026-04-08T16:44:11Z</time></trkpt><trkpt lat="44.8454836615829" lon="7.93044635403933"><ele>342.0</ele><time>2026-04-08T16:44:12Z</time></trkpt><trkpt lat="44.84538422455625" lon="7.930455747804477"><ele>342.0</ele><time>2026-04-08T16:44:13Z</time></trkpt><trkpt lat="44.84529340070069" lon="7.930455715316369"><ele>342.0</ele><time>2026-04-08T16:44:14Z</time></trkpt><trkpt lat="44.845200469384615" lon="7.930452283681534"><ele>342.0</ele><time>2026-04-08T16:44:15Z</time></trkpt><trkpt lat="44.845100376328574" lon="7.930494215616363"><ele>342.0</ele><time>2026-04-08T16:44:16Z</time></trkpt><trkpt lat="44.84504262153314" lon="7.930594239743431"><ele>342.0</ele><time>2026-04-08T16:44:18Z</time></trkpt><trkpt lat="44.84498921978306" lon="7.930774878320523"><ele>341.0</ele><time>2026-04-08T16:44:20Z</time></trkpt><trkpt lat="44.84491377712587" lon="7.930905189749344"><ele>340.0</ele><time>2026-04-08T16:44:21Z</time></trkpt><trkpt lat="44.844783298275146" lon="7.931069250282523"><ele>339.0</ele><time>2026-04-08T16:44:22Z</time></trkpt><trkpt lat="44.844619114658876" lon="7.9311402323420905"><ele>339.0</ele><time>2026-04-08T16:44:23Z</time></trkpt><trkpt lat="44.84450513295115" lon="7.931277832530928"><ele>339.0</ele><time>2026-04-08T16:44:24Z</time></trkpt><trkpt lat="44.844360083572354" lon="7.931455894000542"><ele>339.0</ele><time>2026-04-08T16:44:25Z</time></trkpt><trkpt lat="44.8441879916575" lon="7.931669661077932"><ele>340.0</ele><time>2026-04-08T16:44:26Z</time></trkpt><trkpt lat="44.84400629147526" lon="7.931894304846741"><ele>341.0</ele><time>2026-04-08T16:44:27Z</time></trkpt><trkpt lat="44.84384252205675" lon="7.932083830886306"><ele>341.0</ele><time>2026-04-08T16:44:28Z</time></trkpt><trkpt lat="44.843662704906855" lon="7.93229007102776"><ele>341.0</ele><time>2026-04-08T16:44:29Z</time></trkpt><trkpt lat="44.84347258350189" lon="7.93254347249113"><ele>342.33333333333337</ele><time>2026-04-08T16:44:30Z</time></trkpt><trkpt lat="44.84328274542911" lon="7.93275169038325"><ele>343.6666666666667</ele><time>2026-04-08T16:44:31Z</time></trkpt><trkpt lat="44.84313492428197" lon="7.932936934672908"><ele>345.0</ele><time>2026-04-08T16:44:32Z</time></trkpt><trkpt lat="44.8429976994708" lon="7.933116596745328"><ele>345.0</ele><time>2026-04-08T16:44:33Z</time></trkpt><trkpt lat="44.84288231662204" lon="7.933275997238269"><ele>345.0</ele><time>2026-04-08T16:44:34Z</time></trkpt><trkpt lat="44.84278471867586" lon="7.9334347311295685"><ele>345.0</ele><time>2026-04-08T16:44:35Z</time></trkpt><trkpt lat="44.84267704397673" lon="7.933601479289577"><ele>345.5</ele><time>2026-04-08T16:44:36Z</time></trkpt><trkpt lat="44.84259357562464" lon="7.9337437450093296"><ele>346.0</ele><time>2026-04-08T16:44:37Z</time></trkpt><trkpt lat="44.84252715597594" lon="7.9338931758464675"><ele>346.5</ele><time>2026-04-08T16:44:38Z</time></trkpt><trkpt lat="44.842481816572366" lon="7.934034311075553"><ele>347.0</ele><time>2026-04-08T16:44:39Z</time></trkpt><trkpt lat="44.84245524627496" lon="7.934185708942969"><ele>346.8</ele><time>2026-04-08T16:44:40Z</time></trkpt><trkpt lat="44.84247706607043" lon="7.934329256936954"><ele>346.6</ele><time>2026-04-08T16:44:41Z</time></trkpt><trkpt lat="44.84249568279042" lon="7.934438128580621"><ele>346.40000000000003</ele><time>2026-04-08T16:44:42Z</time></trkpt><trkpt lat="44.842544240977546" lon="7.934524652751476"><ele>346.20000000000005</ele><time>2026-04-08T16:44:43Z</time></trkpt><trkpt lat="44.84261977690967" lon="7.934663772096888"><ele>346.0</ele><time>2026-04-08T16:44:44Z</time></trkpt><trkpt lat="44.84269260911251" lon="7.934822752734226"><ele>346.0</ele><time>2026-04-08T16:44:45Z</time></trkpt><trkpt lat="44.84275835732437" lon="7.934930080722746"><ele>346.0</ele><time>2026-04-08T16:44:46Z</time></trkpt><trkpt lat="44.842794543205116" lon="7.9350087799801825"><ele>346.0</ele><time>2026-04-08T16:44:47Z</time></trkpt><trkpt lat="44.84289133403009" lon="7.93504244640355"><ele>346.0</ele><time>2026-04-08T16:44:50Z</time></trkpt><trkpt lat="44.8429774231791" lon="7.935006055332799"><ele>346.0</ele><time>2026-04-08T16:44:51Z</time></trkpt><trkpt lat="44.84307842936612" lon="7.935011672740644"><ele>346.0</ele><time>2026-04-08T16:44:52Z</time></trkpt><trkpt lat="44.84319345429195" lon="7.9350093174117236"><ele>346.0</ele><time>2026-04-08T16:44:53Z</time></trkpt><trkpt lat="44.84329390942513" lon="7.935001038419487"><ele>346.0</ele><time>2026-04-08T16:44:54Z</time></trkpt><trkpt lat="44.843403466590985" lon="7.935002041730243"><ele>346.0</ele><time>2026-04-08T16:44:55Z</time></trkpt><trkpt lat="44.84351242197821" lon="7.935038037359993"><ele>346.0</ele><time>2026-04-08T16:44:56Z</time></trkpt><trkpt lat="44.84361206943954" lon="7.935040271618687"><ele>346.0</ele><time>2026-04-08T16:44:57Z</time></trkpt><trkpt lat="44.843702520364815" lon="7.93501823175016"><ele>346.0</ele><time>2026-04-08T16:44:58Z</time></trkpt><trkpt lat="44.84379860346516" lon="7.9349780819954345"><ele>346.0</ele><time>2026-04-08T16:44:59Z</time></trkpt><trkpt lat="44.84390177303878" lon="7.934950351219831"><ele>346.0</ele><time>2026-04-08T16:45:00Z</time></trkpt><trkpt lat="44.84400774861956" lon="7.934984691579711"><ele>346.0</ele><time>2026-04-08T16:45:01Z</time></trkpt><trkpt lat="44.84410647590394" lon="7.935005201774921"><ele>346.0</ele><time>2026-04-08T16:45:02Z</time></trkpt><trkpt lat="44.84419800994779" lon="7.93504018326893"><ele>346.0</ele><time>2026-04-08T16:45:03Z</time></trkpt><trkpt lat="44.84429172538922" lon="7.935071930220519"><ele>346.0</ele><time>2026-04-08T16:45:04Z</time></trkpt><trkpt lat="44.844374200154476" lon="7.935062448286488"><ele>346.0</ele><time>2026-04-08T16:45:05Z</time></trkpt><trkpt lat="44.84448861145233" lon="7.934991273002002"><ele>346.0</ele><time>2026-04-08T16:45:07Z</time></trkpt><trkpt lat="44.84457048141871" lon="7.934932053177069"><ele>346.8</ele><time>2026-04-08T16:45:08Z</time></trkpt><trkpt lat="44.84466873701317" lon="7.93488843064875"><ele>347.6</ele><time>2026-04-08T16:45:09Z</time></trkpt><trkpt lat="44.84477018154996" lon="7.934904749707967"><ele>348.4</ele><time>2026-04-08T16:45:10Z</time></trkpt><trkpt lat="44.844873021715216" lon="7.934910719157073"><ele>349.2</ele><time>2026-04-08T16:45:11Z</time></trkpt><trkpt lat="44.84497006596292" lon="7.934914458780247"><ele>350.0</ele><time>2026-04-08T16:45:12Z</time></trkpt><trkpt lat="44.84505872690243" lon="7.934890921915831"><ele>350.0</ele><time>2026-04-08T16:45:13Z</time></trkpt><trkpt lat="44.84512818680219" lon="7.934839277400065"><ele>350.0</ele><time>2026-04-08T16:45:14Z</time></trkpt><trkpt lat="44.84519614347053" lon="7.93475130838477"><ele>350.0</ele><time>2026-04-08T16:45:15Z</time></trkpt><trkpt lat="44.8452915098185" lon="7.93468123409652"><ele>350.0</ele><time>2026-04-08T16:45:16Z</time></trkpt><trkpt lat="44.84537893631308" lon="7.934643014272453"><ele>350.0</ele><time>2026-04-08T16:45:17Z</time></trkpt><trkpt lat="44.84546694819776" lon="7.934615144368958"><ele>348.83333333333337</ele><time>2026-04-08T16:45:18Z</time></trkpt><trkpt lat="44.845533846776256" lon="7.934605716248667"><ele>347.6666666666667</ele><time>2026-04-08T16:45:19Z</time></trkpt><trkpt lat="44.84559913106034" lon="7.934647271190916"><ele>346.5</ele><time>2026-04-08T16:45:20Z</time></trkpt><trkpt lat="44.845673801567024" lon="7.9347229940993"><ele>345.3333333333333</ele><time>2026-04-08T16:45:21Z</time></trkpt><trkpt lat="44.84574112472673" lon="7.934799553205763"><ele>344.16666666666663</ele><time>2026-04-08T16:45:22Z</time></trkpt><trkpt lat="44.84581540647475" lon="7.934896431429266"><ele>343.0</ele><time>2026-04-08T16:45:24Z</time></trkpt><trkpt lat="44.84582185016821" lon="7.934989855896804"><ele>342.8333333333333</ele><time>2026-04-08T16:45:25Z</time></trkpt><trkpt lat="44.84583760406298" lon="7.935097026644984"><ele>342.66666666666663</ele><time>2026-04-08T16:45:26Z</time></trkpt><trkpt lat="44.845898747585196" lon="7.935159848650741"><ele>342.5</ele><time>2026-04-08T16:45:27Z</time></trkpt><trkpt lat="44.845974911798066" lon="7.935240334776262"><ele>342.3333333333333</ele><time>2026-04-08T16:45:28Z</time></trkpt><trkpt lat="44.84603572631217" lon="7.935324540301716"><ele>342.1666666666667</ele><time>2026-04-08T16:45:29Z</time></trkpt><trkpt lat="44.84607523998637" lon="7.9354167289252056"><ele>342.0</ele><time>2026-04-08T16:45:31Z</time></trkpt><trkpt lat="44.84611274207362" lon="7.93551978205808"><ele>342.0</ele><time>2026-04-08T16:45:33Z</time></trkpt><trkpt lat="44.84614479970533" lon="7.935624418790326"><ele>342.0</ele><time>2026-04-08T16:45:35Z</time></trkpt><trkpt lat="44.84610420148206" lon="7.9357356894168545"><ele>342.0</ele><time>2026-04-08T16:45:37Z</time></trkpt><trkpt lat="44.84606912099469" lon="7.935839078605618"><ele>342.0</ele><time>2026-04-08T16:45:38Z</time></trkpt><trkpt lat="44.84601619827704" lon="7.935949283190056"><ele>342.0</ele><time>2026-04-08T16:45:39Z</time></trkpt><trkpt lat="44.84595356889058" lon="7.93607920294814"><ele>340.8333333333333</ele><time>2026-04-08T16:45:40Z</time></trkpt><trkpt lat="44.84592037451589" lon="7.93617060461063"><ele>339.6666666666667</ele><time>2026-04-08T16:45:41Z</time></trkpt><trkpt lat="44.84589873167521" lon="7.936257801624943"><ele>338.5</ele><time>2026-04-08T16:45:42Z</time></trkpt><trkpt lat="44.845905456290424" lon="7.93635251194067"><ele>337.33333333333337</ele><time>2026-04-08T16:45:43Z</time></trkpt><trkpt lat="44.84591649187726" lon="7.936444595052885"><ele>336.1666666666667</ele><time>2026-04-08T16:45:44Z</time></trkpt><trkpt lat="44.84592925102844" lon="7.936576855444389"><ele>335.0</ele><time>2026-04-08T16:45:45Z</time></trkpt><trkpt lat="44.84595122105722" lon="7.936693453465817"><ele>334.1666666666667</ele><time>2026-04-08T16:45:46Z</time></trkpt><trkpt lat="44.845957890325835" lon="7.9367958321889684"><ele>333.33333333333337</ele><time>2026-04-08T16:45:47Z</time></trkpt><trkpt lat="44.8459666792574" lon="7.936904131477184"><ele>332.5</ele><time>2026-04-08T16:45:48Z</time></trkpt><trkpt lat="44.84595143521785" lon="7.937055512625307"><ele>331.6666666666667</ele><time>2026-04-08T16:45:50Z</time></trkpt><trkpt lat="44.84596198310132" lon="7.937143476392279"><ele>330.8333333333333</ele><time>2026-04-08T16:45:51Z</time></trkpt><trkpt lat="44.846004524441796" lon="7.937296412750624"><ele>330.0</ele><time>2026-04-08T16:45:53Z</time></trkpt><trkpt lat="44.84601054743627" lon="7.937441670040164"><ele>329.8333333333333</ele><time>2026-04-08T16:45:54Z</time></trkpt><trkpt lat="44.84601089567352" lon="7.937569436061604"><ele>329.6666666666667</ele><time>2026-04-08T16:45:55Z</time></trkpt><trkpt lat="44.84602473982375" lon="7.937675461149931"><ele>329.5</ele><time>2026-04-08T16:45:56Z</time></trkpt><trkpt lat="44.84604486129315" lon="7.937762065476357"><ele>329.33333333333337</ele><time>2026-04-08T16:45:57Z</time></trkpt><trkpt lat="44.8460382089117" lon="7.93789723299967"><ele>329.1666666666667</ele><time>2026-04-08T16:45:59Z</time></trkpt><trkpt lat="44.845988869822136" lon="7.937985864026034"><ele>329.0</ele><time>2026-04-08T16:46:01Z</time></trkpt><trkpt lat="44.845920844227756" lon="7.938017886968394"><ele>329.0</ele><time>2026-04-08T16:46:02Z</time></trkpt><trkpt lat="44.84584191950741" lon="7.938040973977707"><ele>329.0</ele><time>2026-04-08T16:46:03Z</time></trkpt><trkpt lat="44.845762490096746" lon="7.938072010611429"><ele>329.0</ele><time>2026-04-08T16:46:04Z</time></trkpt><trkpt lat="44.845691231105604" lon="7.9381268163188174"><ele>329.0</ele><time>2026-04-08T16:46:05Z</time></trkpt><trkpt lat="44.8456101638007" lon="7.938212363892115"><ele>329.0</ele><time>2026-04-08T16:46:06Z</time></trkpt><trkpt lat="44.84554495546644" lon="7.938259076733415"><ele>329.0</ele><time>2026-04-08T16:46:07Z</time></trkpt><trkpt lat="44.84553557383588" lon="7.938365562009229"><ele>330.6666666666667</ele><time>2026-04-08T16:46:09Z</time></trkpt><trkpt lat="44.84553264787017" lon="7.938465326182259"><ele>332.3333333333333</ele><time>2026-04-08T16:46:12Z</time></trkpt><trkpt lat="44.84560221680646" lon="7.938482820417398"><ele>334.0</ele><time>2026-04-08T16:46:15Z</time></trkpt><trkpt lat="44.84558735865969" lon="7.9392012719034835"><ele>334.0</ele><time>2026-04-08T16:46:16Z</time></trkpt><trkpt lat="44.84571343137543" lon="7.939146001763053"><ele>334.0</ele><time>2026-04-08T16:46:17Z</time></trkpt><trkpt lat="44.84573001687208" lon="7.939246896769675"><ele>334.0</ele><time>2026-04-08T16:46:18Z</time></trkpt><trkpt lat="44.84569593825399" lon="7.939387811600878"><ele>334.0</ele><time>2026-04-08T16:46:19Z</time></trkpt><trkpt lat="44.845708556112264" lon="7.939515608331152"><ele>334.0</ele><time>2026-04-08T16:46:20Z</time></trkpt><trkpt lat="44.84573188179862" lon="7.939607862785503"><ele>335.2</ele><time>2026-04-08T16:46:21Z</time></trkpt><trkpt lat="44.84579711849988" lon="7.939735225013051"><ele>336.4</ele><time>2026-04-08T16:46:23Z</time></trkpt><trkpt lat="44.84590124797461" lon="7.939796367483596"><ele>337.6</ele><time>2026-04-08T16:46:25Z</time></trkpt><trkpt lat="44.845967078360694" lon="7.939669473488785"><ele>338.8</ele><time>2026-04-08T16:46:27Z</time></trkpt><trkpt lat="44.84602959965419" lon="7.939593726318528"><ele>340.0</ele><time>2026-04-08T16:46:29Z</time></trkpt><trkpt lat="44.8461014524828" lon="7.939515089999139"><ele>340.66666666666663</ele><time>2026-04-08T16:46:31Z</time></trkpt><trkpt lat="44.846056799463284" lon="7.939392345910315"><ele>341.3333333333333</ele><time>2026-04-08T16:46:33Z</time></trkpt><trkpt lat="44.846089138505576" lon="7.939301855507014"><ele>342.0</ele><time>2026-04-08T16:46:34Z</time></trkpt><trkpt lat="44.84616298205298" lon="7.939259870264837"><ele>342.6666666666667</ele><time>2026-04-08T16:46:35Z</time></trkpt><trkpt lat="44.84623038509338" lon="7.939252967107623"><ele>343.33333333333337</ele><time>2026-04-08T16:46:36Z</time></trkpt><trkpt lat="44.84628291498767" lon="7.939320430176751"><ele>344.0</ele><time>2026-04-08T16:46:38Z</time></trkpt><trkpt lat="44.846275961902755" lon="7.9394370714267115"><ele>344.0</ele><time>2026-04-08T16:46:44Z</time></trkpt><trkpt lat="44.846348333026825" lon="7.939509958677017"><ele>344.0</ele><time>2026-04-08T16:46:47Z</time></trkpt><trkpt lat="44.84639398873246" lon="7.939606312937967"><ele>344.0</ele><time>2026-04-08T16:46:49Z</time></trkpt><trkpt lat="44.846557099539815" lon="7.9398830045433755"><ele>344.0</ele><time>2026-04-08T16:46:51Z</time></trkpt><trkpt lat="44.84652890922367" lon="7.940046367856504"><ele>344.0</ele><time>2026-04-08T16:46:54Z</time></trkpt><trkpt lat="44.846511302386034" lon="7.940234546716804"><ele>344.0</ele><time>2026-04-08T16:46:55Z</time></trkpt><trkpt lat="44.846498320650944" lon="7.940352465963311"><ele>344.0</ele><time>2026-04-08T16:46:56Z</time></trkpt><trkpt lat="44.84648535543442" lon="7.940533652831471"><ele>344.0</ele><time>2026-04-08T16:46:57Z</time></trkpt><trkpt lat="44.846463283116485" lon="7.9406178982105695"><ele>344.0</ele><time>2026-04-08T16:46:58Z</time></trkpt><trkpt lat="44.846356987165976" lon="7.940736764510672"><ele>344.0</ele><time>2026-04-08T16:47:00Z</time></trkpt><trkpt lat="44.84627997058973" lon="7.940778063533049"><ele>344.0</ele><time>2026-04-08T16:47:01Z</time></trkpt><trkpt lat="44.846194363600326" lon="7.940790075270859"><ele>344.0</ele><time>2026-04-08T16:47:02Z</time></trkpt><trkpt lat="44.846105180213506" lon="7.940825710319288"><ele>344.0</ele><time>2026-04-08T16:47:03Z</time></trkpt><trkpt lat="44.84600103223451" lon="7.940915575257731"><ele>344.0</ele><time>2026-04-08T16:47:04Z</time></trkpt><trkpt lat="44.84589707165716" lon="7.940962246645804"><ele>344.6</ele><time>2026-04-08T16:47:05Z</time></trkpt><trkpt lat="44.845796121296274" lon="7.9410108655722285"><ele>345.2</ele><time>2026-04-08T16:47:06Z</time></trkpt><trkpt lat="44.845695107195475" lon="7.941050076126998"><ele>345.8</ele><time>2026-04-08T16:47:07Z</time></trkpt><trkpt lat="44.845610236758716" lon="7.941095789553074"><ele>346.40000000000003</ele><time>2026-04-08T16:47:08Z</time></trkpt><trkpt lat="44.84552963570509" lon="7.9411193203379655"><ele>347.0</ele><time>2026-04-08T16:47:09Z</time></trkpt><trkpt lat="44.84543365029897" lon="7.941135851358731"><ele>347.0</ele><time>2026-04-08T16:47:10Z</time></trkpt><trkpt lat="44.84535145144655" lon="7.941152913908649"><ele>347.0</ele><time>2026-04-08T16:47:11Z</time></trkpt><trkpt lat="44.8452754419341" lon="7.941116533578667"><ele>347.0</ele><time>2026-04-08T16:47:12Z</time></trkpt><trkpt lat="44.84518664859682" lon="7.941053831006156"><ele>347.0</ele><time>2026-04-08T16:47:13Z</time></trkpt><trkpt lat="44.845100068860404" lon="7.941010511274758"><ele>347.0</ele><time>2026-04-08T16:47:14Z</time></trkpt><trkpt lat="44.84500882120836" lon="7.940957021680615"><ele>347.20000000000005</ele><time>2026-04-08T16:47:15Z</time></trkpt><trkpt lat="44.84491628190477" lon="7.940912932861817"><ele>347.4</ele><time>2026-04-08T16:47:16Z</time></trkpt><trkpt lat="44.84485578124384" lon="7.9408520470281045"><ele>347.6</ele><time>2026-04-08T16:47:17Z</time></trkpt><trkpt lat="44.8447548990411" lon="7.940789975816328"><ele>347.79999999999995</ele><time>2026-04-08T16:47:19Z</time></trkpt><trkpt lat="44.84462331664219" lon="7.940768948642417"><ele>348.0</ele><time>2026-04-08T16:47:21Z</time></trkpt><trkpt lat="44.84455977538975" lon="7.9407459700536425"><ele>348.2</ele><time>2026-04-08T16:47:22Z</time></trkpt><trkpt lat="44.84449287072901" lon="7.940720332140582"><ele>348.4</ele><time>2026-04-08T16:47:23Z</time></trkpt><trkpt lat="44.84442214438816" lon="7.94070474365085"><ele>348.59999999999997</ele><time>2026-04-08T16:47:24Z</time></trkpt><trkpt lat="44.84432843785702" lon="7.940681688191907"><ele>348.79999999999995</ele><time>2026-04-08T16:47:25Z</time></trkpt><trkpt lat="44.84421623623045" lon="7.940658230958407"><ele>349.0</ele><time>2026-04-08T16:47:26Z</time></trkpt><trkpt lat="44.84408880507021" lon="7.940627088736921"><ele>349.0</ele><time>2026-04-08T16:47:27Z</time></trkpt><trkpt lat="44.84396607688509" lon="7.94059955063621"><ele>349.0</ele><time>2026-04-08T16:47:28Z</time></trkpt><trkpt lat="44.843842964407635" lon="7.9405644038617185"><ele>349.0</ele><time>2026-04-08T16:47:29Z</time></trkpt><trkpt lat="44.84373048602258" lon="7.940536168382744"><ele>349.0</ele><time>2026-04-08T16:47:30Z</time></trkpt><trkpt lat="44.843636346379284" lon="7.940509100022065"><ele>349.0</ele><time>2026-04-08T16:47:31Z</time></trkpt><trkpt lat="44.84356403962706" lon="7.940524776754463"><ele>349.0</ele><time>2026-04-08T16:47:33Z</time></trkpt><trkpt lat="44.84353417871096" lon="7.940610937646343"><ele>349.0</ele><time>2026-04-08T16:47:35Z</time></trkpt><trkpt lat="44.84349670366173" lon="7.940797597316911"><ele>349.0</ele><time>2026-04-08T16:47:37Z</time></trkpt><trkpt lat="44.843449625459115" lon="7.940914421162221"><ele>349.0</ele><time>2026-04-08T16:47:38Z</time></trkpt><trkpt lat="44.843379716105545" lon="7.941021763325565"><ele>349.25</ele><time>2026-04-08T16:47:39Z</time></trkpt><trkpt lat="44.843280501670364" lon="7.941123941420631"><ele>349.5</ele><time>2026-04-08T16:47:40Z</time></trkpt><trkpt lat="44.84315433307262" lon="7.941218965209428"><ele>349.75</ele><time>2026-04-08T16:47:41Z</time></trkpt><trkpt lat="44.84301106516742" lon="7.941301760176996"><ele>350.0</ele><time>2026-04-08T16:47:42Z</time></trkpt><trkpt lat="44.84288479619989" lon="7.941394535025323"><ele>350.0</ele><time>2026-04-08T16:47:43Z</time></trkpt><trkpt lat="44.842755838167854" lon="7.941502473227091"><ele>350.0</ele><time>2026-04-08T16:47:44Z</time></trkpt><trkpt lat="44.842646051730334" lon="7.941619922463847"><ele>350.0</ele><time>2026-04-08T16:47:45Z</time></trkpt><trkpt lat="44.84255872050791" lon="7.9417158522516"><ele>350.0</ele><time>2026-04-08T16:47:46Z</time></trkpt><trkpt lat="44.842490863022654" lon="7.941790624847589"><ele>349.2</ele><time>2026-04-08T16:47:47Z</time></trkpt><trkpt lat="44.842441282168885" lon="7.941848109932376"><ele>348.4</ele><time>2026-04-08T16:47:48Z</time></trkpt><trkpt lat="44.84237153261123" lon="7.941882121385319"><ele>347.6</ele><time>2026-04-08T16:47:49Z</time></trkpt><trkpt lat="44.84228177638013" lon="7.94197464756651"><ele>346.8</ele><time>2026-04-08T16:47:51Z</time></trkpt><trkpt lat="44.84222891538375" lon="7.942027843168533"><ele>346.0</ele><time>2026-04-08T16:47:55Z</time></trkpt><trkpt lat="44.84229064973761" lon="7.942232385196095"><ele>346.0</ele><time>2026-04-08T16:47:57Z</time></trkpt><trkpt lat="44.84231140493136" lon="7.942328175579342"><ele>346.0</ele><time>2026-04-08T16:47:58Z</time></trkpt><trkpt lat="44.84233394145169" lon="7.9424192301637975"><ele>346.0</ele><time>2026-04-08T16:47:59Z</time></trkpt><trkpt lat="44.84236890874069" lon="7.942579527602953"><ele>346.0</ele><time>2026-04-08T16:48:01Z</time></trkpt><trkpt lat="44.842399613111965" lon="7.942659505058133"><ele>346.0</ele><time>2026-04-08T16:48:02Z</time></trkpt><trkpt lat="44.8424345130315" lon="7.942734410866994"><ele>346.0</ele><time>2026-04-08T16:48:03Z</time></trkpt><trkpt lat="44.84247146517394" lon="7.9428078084438"><ele>345.0</ele><time>2026-04-08T16:48:04Z</time></trkpt><trkpt lat="44.84249644392685" lon="7.942935572338076"><ele>344.0</ele><time>2026-04-08T16:48:06Z</time></trkpt><trkpt lat="44.84266649226561" lon="7.9431174005553675"><ele>343.0</ele><time>2026-04-08T16:48:13Z</time></trkpt><trkpt lat="44.842746903201444" lon="7.943164117709269"><ele>342.0</ele><time>2026-04-08T16:48:15Z</time></trkpt><trkpt lat="44.84283394820554" lon="7.943251192445909"><ele>342.0</ele><time>2026-04-08T16:48:18Z</time></trkpt><trkpt lat="44.84307549737728" lon="7.943283736018123"><ele>342.0</ele><time>2026-04-08T16:48:27Z</time></trkpt><trkpt lat="44.84317761587249" lon="7.943341785465485"><ele>342.0</ele><time>2026-04-08T16:48:29Z</time></trkpt><trkpt lat="44.84326647920992" lon="7.943360746644062"><ele>342.0</ele><time>2026-04-08T16:48:31Z</time></trkpt><trkpt lat="44.84341443786659" lon="7.943165614957568"><ele>342.0</ele><time>2026-04-08T16:48:37Z</time></trkpt><trkpt lat="44.84348485922505" lon="7.9430257413405005"><ele>342.0</ele><time>2026-04-08T16:48:39Z</time></trkpt><trkpt lat="44.843494775937984" lon="7.942927315247533"><ele>342.0</ele><time>2026-04-08T16:48:41Z</time></trkpt><trkpt lat="44.843435308368804" lon="7.9428075164739305"><ele>342.0</ele><time>2026-04-08T16:48:49Z</time></trkpt><trkpt lat="44.8434570726567" lon="7.942907404611459"><ele>342.0</ele><time>2026-04-08T16:48:54Z</time></trkpt><trkpt lat="44.8434722028262" lon="7.943009781633998"><ele>342.0</ele><time>2026-04-08T16:48:56Z</time></trkpt><trkpt lat="44.843433408156024" lon="7.943119028733281"><ele>342.0</ele><time>2026-04-08T16:48:58Z</time></trkpt><trkpt lat="44.84338640124677" lon="7.943319322955801"><ele>342.0</ele><time>2026-04-08T16:49:00Z</time></trkpt><trkpt lat="44.843329135876296" lon="7.943413171351451"><ele>342.0</ele><time>2026-04-08T16:49:03Z</time></trkpt><trkpt lat="44.843372649314254" lon="7.943575458921534"><ele>342.0</ele><time>2026-04-08T16:49:05Z</time></trkpt><trkpt lat="44.84340364166916" lon="7.943656180454306"><ele>342.0</ele><time>2026-04-08T16:49:06Z</time></trkpt><trkpt lat="44.84345682443029" lon="7.9437714707504705"><ele>339.8333333333333</ele><time>2026-04-08T16:49:08Z</time></trkpt><trkpt lat="44.8434969010376" lon="7.943847822099239"><ele>337.6666666666667</ele><time>2026-04-08T16:49:12Z</time></trkpt><trkpt lat="44.84357328658257" lon="7.943847195765689"><ele>335.5</ele><time>2026-04-08T16:49:16Z</time></trkpt><trkpt lat="44.84350542778346" lon="7.9437279877562075"><ele>333.33333333333337</ele><time>2026-04-08T16:49:19Z</time></trkpt><trkpt lat="44.843429660220565" lon="7.943641925201517"><ele>331.1666666666667</ele><time>2026-04-08T16:49:21Z</time></trkpt><trkpt lat="44.8433779105741" lon="7.943560087759271"><ele>329.0</ele><time>2026-04-08T16:49:22Z</time></trkpt><trkpt lat="44.84336248435827" lon="7.943455863663288"><ele>330.1666666666667</ele><time>2026-04-08T16:49:23Z</time></trkpt><trkpt lat="44.84334503573708" lon="7.9433638478754744"><ele>331.33333333333337</ele><time>2026-04-08T16:49:24Z</time></trkpt><trkpt lat="44.84333943871305" lon="7.9432475806834075"><ele>332.5</ele><time>2026-04-08T16:49:26Z</time></trkpt><trkpt lat="44.84339442162209" lon="7.943174971685218"><ele>333.6666666666667</ele><time>2026-04-08T16:49:28Z</time></trkpt><trkpt lat="44.84344441717247" lon="7.943051127917917"><ele>334.8333333333333</ele><time>2026-04-08T16:49:29Z</time></trkpt><trkpt lat="44.843491333251215" lon="7.942981068502274"><ele>336.0</ele><time>2026-04-08T16:49:30Z</time></trkpt><trkpt lat="44.84351416426156" lon="7.942865174924723"><ele>337.20000000000005</ele><time>2026-04-08T16:49:32Z</time></trkpt><trkpt lat="44.84343414170739" lon="7.942726856989299"><ele>338.40000000000003</ele><time>2026-04-08T16:49:34Z</time></trkpt><trkpt lat="44.84337503792261" lon="7.942621737701428"><ele>339.6</ele><time>2026-04-08T16:49:35Z</time></trkpt><trkpt lat="44.84332187111942" lon="7.942530048916125"><ele>340.8</ele><time>2026-04-08T16:49:36Z</time></trkpt><trkpt lat="44.8432648848989" lon="7.942442581963335"><ele>342.0</ele><time>2026-04-08T16:49:37Z</time></trkpt><trkpt lat="44.84316579962458" lon="7.942337042873002"><ele>343.20000000000005</ele><time>2026-04-08T16:49:38Z</time></trkpt><trkpt lat="44.843099004765854" lon="7.9422118148016"><ele>344.4</ele><time>2026-04-08T16:49:39Z</time></trkpt><trkpt lat="44.84302281080686" lon="7.9420699442152225"><ele>345.6</ele><time>2026-04-08T16:49:40Z</time></trkpt><trkpt lat="44.84295370199152" lon="7.941944551047407"><ele>346.79999999999995</ele><time>2026-04-08T16:49:41Z</time></trkpt><trkpt lat="44.842892830790895" lon="7.941847840642179"><ele>348.0</ele><time>2026-04-08T16:49:42Z</time></trkpt><trkpt lat="44.84284966065814" lon="7.941771049781056"><ele>348.3333333333333</ele><time>2026-04-08T16:49:43Z</time></trkpt><trkpt lat="44.84281019734696" lon="7.941692724914377"><ele>348.6666666666667</ele><time>2026-04-08T16:49:44Z</time></trkpt><trkpt lat="44.842737233068036" lon="7.94160962685665"><ele>349.0</ele><time>2026-04-08T16:49:46Z</time></trkpt><trkpt lat="44.84270657844197" lon="7.941519813626743"><ele>349.33333333333337</ele><time>2026-04-08T16:49:50Z</time></trkpt><trkpt lat="44.84279462135576" lon="7.941458617271017"><ele>349.6666666666667</ele><time>2026-04-08T16:49:53Z</time></trkpt><trkpt lat="44.84285554398343" lon="7.941399398681222"><ele>350.0</ele><time>2026-04-08T16:49:54Z</time></trkpt><trkpt lat="44.84293811372431" lon="7.941343921044276"><ele>350.0</ele><time>2026-04-08T16:49:56Z</time></trkpt><trkpt lat="44.84312890265075" lon="7.941227298961845"><ele>350.0</ele><time>2026-04-08T16:49:57Z</time></trkpt><trkpt lat="44.84321072099202" lon="7.941167443951498"><ele>350.0</ele><time>2026-04-08T16:49:58Z</time></trkpt><trkpt lat="44.843295149266" lon="7.941123890444724"><ele>350.0</ele><time>2026-04-08T16:49:59Z</time></trkpt><trkpt lat="44.843387260602896" lon="7.941021690747579"><ele>350.0</ele><time>2026-04-08T16:50:01Z</time></trkpt><trkpt lat="44.843447198187775" lon="7.9409629535896356"><ele>350.0</ele><time>2026-04-08T16:50:05Z</time></trkpt><trkpt lat="44.843486454807056" lon="7.940887031403902"><ele>350.0</ele><time>2026-04-08T16:50:06Z</time></trkpt><trkpt lat="44.8435463064103" lon="7.940737942977577"><ele>350.0</ele><time>2026-04-08T16:50:08Z</time></trkpt><trkpt lat="44.843566407411515" lon="7.940628615742578"><ele>350.0</ele><time>2026-04-08T16:50:09Z</time></trkpt><trkpt lat="44.84358001943795" lon="7.940517270109096"><ele>350.0</ele><time>2026-04-08T16:50:11Z</time></trkpt><trkpt lat="44.8435278372019" lon="7.940691862463814"><ele>350.0</ele><time>2026-04-08T16:50:18Z</time></trkpt><trkpt lat="44.84350122200823" lon="7.94080127392372"><ele>350.0</ele><time>2026-04-08T16:50:19Z</time></trkpt><trkpt lat="44.843450934413866" lon="7.940911306778057"><ele>350.0</ele><time>2026-04-08T16:50:20Z</time></trkpt><trkpt lat="44.843378117091774" lon="7.941030230814998"><ele>350.0</ele><time>2026-04-08T16:50:21Z</time></trkpt><trkpt lat="44.84328944884909" lon="7.941143470685245"><ele>350.0</ele><time>2026-04-08T16:50:22Z</time></trkpt><trkpt lat="44.84320050503887" lon="7.941227248424127"><ele>350.0</ele><time>2026-04-08T16:50:23Z</time></trkpt><trkpt lat="44.84306219804812" lon="7.9413063605916365"><ele>350.0</ele><time>2026-04-08T16:50:24Z</time></trkpt><trkpt lat="44.842954995726046" lon="7.941366407483859"><ele>350.0</ele><time>2026-04-08T16:50:25Z</time></trkpt><trkpt lat="44.84287031974183" lon="7.941424390939336"><ele>350.0</ele><time>2026-04-08T16:50:26Z</time></trkpt><trkpt lat="44.84278850550928" lon="7.9414886255754"><ele>350.0</ele><time>2026-04-08T16:50:27Z</time></trkpt><trkpt lat="44.84271554628104" lon="7.941556922936423"><ele>350.0</ele><time>2026-04-08T16:50:28Z</time></trkpt><trkpt lat="44.8427859922171" lon="7.941707937531088"><ele>350.0</ele><time>2026-04-08T16:50:43Z</time></trkpt><trkpt lat="44.84284024922262" lon="7.941784451828275"><ele>350.0</ele><time>2026-04-08T16:50:44Z</time></trkpt><trkpt lat="44.842900855687695" lon="7.941883339513378"><ele>350.0</ele><time>2026-04-08T16:50:45Z</time></trkpt><trkpt lat="44.84296566490518" lon="7.94199430371965"><ele>349.6</ele><time>2026-04-08T16:50:46Z</time></trkpt><trkpt lat="44.843039035491316" lon="7.942115966959671"><ele>349.2</ele><time>2026-04-08T16:50:47Z</time></trkpt><trkpt lat="44.84311147748104" lon="7.942247452820618"><ele>348.79999999999995</ele><time>2026-04-08T16:50:48Z</time></trkpt><trkpt lat="44.8431872760693" lon="7.94237573788377"><ele>348.4</ele><time>2026-04-08T16:50:49Z</time></trkpt><trkpt lat="44.84324471356105" lon="7.942476437017425"><ele>348.0</ele><time>2026-04-08T16:50:50Z</time></trkpt><trkpt lat="44.84329536067394" lon="7.942570101846288"><ele>347.0</ele><time>2026-04-08T16:50:51Z</time></trkpt><trkpt lat="44.843342295172334" lon="7.942657896921325"><ele>346.0</ele><time>2026-04-08T16:50:52Z</time></trkpt><trkpt lat="44.84338271419091" lon="7.942738996469811"><ele>345.0</ele><time>2026-04-08T16:50:53Z</time></trkpt><trkpt lat="44.84341858533105" lon="7.942817822306098"><ele>344.0</ele><time>2026-04-08T16:50:54Z</time></trkpt><trkpt lat="44.84346445384481" lon="7.94292406490392"><ele>343.0</ele><time>2026-04-08T16:50:56Z</time></trkpt><trkpt lat="44.84352711252531" lon="7.94302446025653"><ele>342.0</ele><time>2026-04-08T16:51:03Z</time></trkpt><trkpt lat="44.84358576137887" lon="7.943095182324536"><ele>340.8</ele><time>2026-04-08T16:51:05Z</time></trkpt><trkpt lat="44.84367371926165" lon="7.943234623189442"><ele>339.6</ele><time>2026-04-08T16:51:06Z</time></trkpt><trkpt lat="44.84371135072127" lon="7.943327359799535"><ele>338.40000000000003</ele><time>2026-04-08T16:51:07Z</time></trkpt><trkpt lat="44.84377358008259" lon="7.943434330372531"><ele>337.20000000000005</ele><time>2026-04-08T16:51:09Z</time></trkpt><trkpt lat="44.84382645711105" lon="7.943511967591526"><ele>336.0</ele><time>2026-04-08T16:51:11Z</time></trkpt><trkpt lat="44.84370501710533" lon="7.943631208477163"><ele>337.20000000000005</ele><time>2026-04-08T16:51:17Z</time></trkpt><trkpt lat="44.84361368011309" lon="7.943686047480701"><ele>338.40000000000003</ele><time>2026-04-08T16:51:19Z</time></trkpt><trkpt lat="44.843527002434435" lon="7.943734069264171"><ele>339.6</ele><time>2026-04-08T16:51:21Z</time></trkpt><trkpt lat="44.84339219696394" lon="7.9435572951647595"><ele>340.8</ele><time>2026-04-08T16:51:34Z</time></trkpt><trkpt lat="44.84335645281573" lon="7.943474407450865"><ele>342.0</ele><time>2026-04-08T16:51:35Z</time></trkpt><trkpt lat="44.84332266830594" lon="7.943323028301699"><ele>342.0</ele><time>2026-04-08T16:51:37Z</time></trkpt><trkpt lat="44.843247209543904" lon="7.943325027676754"><ele>342.0</ele><time>2026-04-08T16:51:51Z</time></trkpt><trkpt lat="44.84315657121474" lon="7.9432957632149215"><ele>342.0</ele><time>2026-04-08T16:51:53Z</time></trkpt><trkpt lat="44.84307747337811" lon="7.9432406651139456"><ele>342.0</ele><time>2026-04-08T16:51:55Z</time></trkpt><trkpt lat="44.84301041027277" lon="7.943190704582807"><ele>342.0</ele><time>2026-04-08T16:51:56Z</time></trkpt><trkpt lat="44.84291360811492" lon="7.94311099520933"><ele>342.0</ele><time>2026-04-08T16:51:58Z</time></trkpt><trkpt lat="44.84284989052522" lon="7.943055385193818"><ele>341.99999999999994</ele><time>2026-04-08T16:52:01Z</time></trkpt><trkpt lat="44.84280167314762" lon="7.942979555151835"><ele>342.0</ele><time>2026-04-08T16:52:03Z</time></trkpt><trkpt lat="44.842740067325565" lon="7.942917200064074"><ele>342.0</ele><time>2026-04-08T16:52:05Z</time></trkpt><trkpt lat="44.84267919052924" lon="7.942867194478548"><ele>342.0</ele><time>2026-04-08T16:52:07Z</time></trkpt><trkpt lat="44.842612699727894" lon="7.942834741978323"><ele>342.0</ele><time>2026-04-08T16:52:09Z</time></trkpt><trkpt lat="44.842534985510085" lon="7.942797148553416"><ele>341.99999999999994</ele><time>2026-04-08T16:52:12Z</time></trkpt><trkpt lat="44.84248188882231" lon="7.942748415901638"><ele>342.0</ele><time>2026-04-08T16:52:14Z</time></trkpt><trkpt lat="44.8424370350135" lon="7.942681566621385"><ele>341.85714285714283</ele><time>2026-04-08T16:52:15Z</time></trkpt><trkpt lat="44.84240097574468" lon="7.942605426756617"><ele>341.7142857142857</ele><time>2026-04-08T16:52:16Z</time></trkpt><trkpt lat="44.842370815226964" lon="7.942516950702135"><ele>341.57142857142856</ele><time>2026-04-08T16:52:17Z</time></trkpt><trkpt lat="44.84234986365087" lon="7.942424256696322"><ele>341.42857142857144</ele><time>2026-04-08T16:52:18Z</time></trkpt><trkpt lat="44.842340737474004" lon="7.9423272849368285"><ele>341.2857142857143</ele><time>2026-04-08T16:52:19Z</time></trkpt><trkpt lat="44.84231913632653" lon="7.942236057725867"><ele>341.1428571428571</ele><time>2026-04-08T16:52:20Z</time></trkpt><trkpt lat="44.84229347671016" lon="7.942137691596981"><ele>341.0</ele><time>2026-04-08T16:52:21Z</time></trkpt><trkpt lat="44.842255460887145" lon="7.942063409475802"><ele>342.0</ele><time>2026-04-08T16:52:23Z</time></trkpt><trkpt lat="44.842180184881656" lon="7.942082864353461"><ele>343.0</ele><time>2026-04-08T16:52:27Z</time></trkpt><trkpt lat="44.84208819404185" lon="7.942110932898819"><ele>344.0</ele><time>2026-04-08T16:52:28Z</time></trkpt><trkpt lat="44.841981368281864" lon="7.942141653261215"><ele>345.0</ele><time>2026-04-08T16:52:29Z</time></trkpt><trkpt lat="44.8418728668627" lon="7.942199468716429"><ele>346.0</ele><time>2026-04-08T16:52:30Z</time></trkpt><trkpt lat="44.84174800002649" lon="7.942260490430496"><ele>346.4</ele><time>2026-04-08T16:52:31Z</time></trkpt><trkpt lat="44.841653282403946" lon="7.942312022889009"><ele>346.8</ele><time>2026-04-08T16:52:32Z</time></trkpt><trkpt lat="44.84157796330545" lon="7.942381536107165"><ele>347.2</ele><time>2026-04-08T16:52:33Z</time></trkpt><trkpt lat="44.84155742237719" lon="7.942491755365205"><ele>347.59999999999997</ele><time>2026-04-08T16:52:34Z</time></trkpt><trkpt lat="44.841512115280516" lon="7.942631979183126"><ele>348.0</ele><time>2026-04-08T16:52:35Z</time></trkpt><trkpt lat="44.84147696981754" lon="7.942775895711545"><ele>348.0</ele><time>2026-04-08T16:52:36Z</time></trkpt><trkpt lat="44.84144687375819" lon="7.942894570898904"><ele>348.0</ele><time>2026-04-08T16:52:37Z</time></trkpt><trkpt lat="44.84141196989931" lon="7.943011051936158"><ele>348.0</ele><time>2026-04-08T16:52:38Z</time></trkpt><trkpt lat="44.84134467532745" lon="7.943100541986653"><ele>348.0</ele><time>2026-04-08T16:52:39Z</time></trkpt><trkpt lat="44.8412654880485" lon="7.94318960680332"><ele>348.0</ele><time>2026-04-08T16:52:40Z</time></trkpt><trkpt lat="44.84116862886896" lon="7.943238393162431"><ele>348.0</ele><time>2026-04-08T16:52:41Z</time></trkpt><trkpt lat="44.84104530357447" lon="7.943295082049873"><ele>348.0</ele><time>2026-04-08T16:52:42Z</time></trkpt><trkpt lat="44.84095034433944" lon="7.943338152317445"><ele>348.0</ele><time>2026-04-08T16:52:43Z</time></trkpt><trkpt lat="44.840880207493" lon="7.943369964100066"><ele>348.0</ele><time>2026-04-08T16:52:44Z</time></trkpt><trkpt lat="44.840797911466225" lon="7.943412053306742"><ele>348.0</ele><time>2026-04-08T16:52:45Z</time></trkpt><trkpt lat="44.840721585346756" lon="7.943466821921708"><ele>348.0</ele><time>2026-04-08T16:52:46Z</time></trkpt><trkpt lat="44.840649781014065" lon="7.94352081019761"><ele>348.0</ele><time>2026-04-08T16:52:47Z</time></trkpt><trkpt lat="44.84057715502388" lon="7.943584272452604"><ele>348.0</ele><time>2026-04-08T16:52:48Z</time></trkpt><trkpt lat="44.84048787391224" lon="7.943685022704532"><ele>348.0</ele><time>2026-04-08T16:52:49Z</time></trkpt><trkpt lat="44.840429670946165" lon="7.943770885199346"><ele>348.0</ele><time>2026-04-08T16:52:50Z</time></trkpt><trkpt lat="44.84040254727031" lon="7.943885183670554"><ele>348.0</ele><time>2026-04-08T16:52:51Z</time></trkpt><trkpt lat="44.84036731276938" lon="7.943991554233238"><ele>348.0</ele><time>2026-04-08T16:52:52Z</time></trkpt><trkpt lat="44.8403337923966" lon="7.944079042684221"><ele>348.0</ele><time>2026-04-08T16:52:53Z</time></trkpt><trkpt lat="44.84026952370991" lon="7.944181660489372"><ele>348.0</ele><time>2026-04-08T16:52:55Z</time></trkpt><trkpt lat="44.840353872448944" lon="7.944322629697371"><ele>348.0</ele><time>2026-04-08T16:52:58Z</time></trkpt><trkpt lat="44.84044854247349" lon="7.944399286796519"><ele>348.5</ele><time>2026-04-08T16:53:00Z</time></trkpt><trkpt lat="44.84044803220565" lon="7.944644513128823"><ele>349.0</ele><time>2026-04-08T16:53:08Z</time></trkpt><trkpt lat="44.840443384511275" lon="7.9447447303160486"><ele>349.5</ele><time>2026-04-08T16:53:09Z</time></trkpt><trkpt lat="44.8404607920409" lon="7.944905455039735"><ele>350.0</ele><time>2026-04-08T16:53:11Z</time></trkpt><trkpt lat="44.84048853415383" lon="7.945061379457445"><ele>350.0</ele><time>2026-04-08T16:53:13Z</time></trkpt><trkpt lat="44.84056204109559" lon="7.945138045518853"><ele>350.0</ele><time>2026-04-08T16:53:15Z</time></trkpt><trkpt lat="44.84069373258515" lon="7.94513808305739"><ele>350.0</ele><time>2026-04-08T16:53:18Z</time></trkpt><trkpt lat="44.84082035370062" lon="7.945118628634913"><ele>350.0</ele><time>2026-04-08T16:53:20Z</time></trkpt><trkpt lat="44.84092246563066" lon="7.94511007744937"><ele>348.1666666666667</ele><time>2026-04-08T16:53:22Z</time></trkpt><trkpt lat="44.840986840403765" lon="7.945099335211689"><ele>346.33333333333337</ele><time>2026-04-08T16:53:23Z</time></trkpt><trkpt lat="44.84109549208703" lon="7.945100133799749"><ele>344.5</ele><time>2026-04-08T16:53:25Z</time></trkpt><trkpt lat="44.841210757197494" lon="7.945119070273338"><ele>342.6666666666667</ele><time>2026-04-08T16:53:27Z</time></trkpt><trkpt lat="44.8412792901305" lon="7.945107531546606"><ele>340.8333333333333</ele><time>2026-04-08T16:53:28Z</time></trkpt><trkpt lat="44.84134130317995" lon="7.945091157448844"><ele>339.0</ele><time>2026-04-08T16:53:29Z</time></trkpt><trkpt lat="44.841463146554425" lon="7.945105379344845"><ele>339.0</ele><time>2026-04-08T16:53:31Z</time></trkpt><trkpt lat="44.84157761405991" lon="7.945102175442234"><ele>339.0</ele><time>2026-04-08T16:53:33Z</time></trkpt><trkpt lat="44.84168057415631" lon="7.945137411529303"><ele>339.0</ele><time>2026-04-08T16:53:35Z</time></trkpt><trkpt lat="44.84175349825408" lon="7.945195906966364"><ele>339.0</ele><time>2026-04-08T16:53:37Z</time></trkpt><trkpt lat="44.84182224611488" lon="7.945208825868841"><ele>339.0</ele><time>2026-04-08T16:53:40Z</time></trkpt><trkpt lat="44.84200164356435" lon="7.9453024133130254"><ele>337.1666666666667</ele><time>2026-04-08T16:53:42Z</time></trkpt><trkpt lat="44.84211455526601" lon="7.9453730243748195"><ele>335.3333333333333</ele><time>2026-04-08T16:53:44Z</time></trkpt><trkpt lat="44.842188513448924" lon="7.94541015519232"><ele>333.5</ele><time>2026-04-08T16:53:45Z</time></trkpt><trkpt lat="44.84224557727528" lon="7.945447827274312"><ele>331.66666666666663</ele><time>2026-04-08T16:53:46Z</time></trkpt><trkpt lat="44.84232502342323" lon="7.945515756367002"><ele>329.8333333333333</ele><time>2026-04-08T16:53:48Z</time></trkpt><trkpt lat="44.842381810668584" lon="7.945586455585576"><ele>328.0</ele><time>2026-04-08T16:53:50Z</time></trkpt><trkpt lat="44.842444318213026" lon="7.9456597988682045"><ele>328.0</ele><time>2026-04-08T16:53:52Z</time></trkpt><trkpt lat="44.8425069422104" lon="7.945624129601921"><ele>328.0</ele><time>2026-04-08T16:53:54Z</time></trkpt><trkpt lat="44.84256441920686" lon="7.945548718975237"><ele>328.0</ele><time>2026-04-08T16:53:58Z</time></trkpt><trkpt lat="44.84262335151481" lon="7.945510100990907"><ele>328.0</ele><time>2026-04-08T16:53:59Z</time></trkpt><trkpt lat="44.842674964359965" lon="7.9454495171487585"><ele>328.0</ele><time>2026-04-08T16:54:01Z</time></trkpt><trkpt lat="44.84273924158945" lon="7.945352436588062"><ele>328.0</ele><time>2026-04-08T16:54:04Z</time></trkpt><trkpt lat="44.84282317660985" lon="7.945313094314583"><ele>327.8333333333333</ele><time>2026-04-08T16:54:06Z</time></trkpt><trkpt lat="44.84290958550966" lon="7.945245291538125"><ele>327.66666666666663</ele><time>2026-04-08T16:54:08Z</time></trkpt><trkpt lat="44.84298454045964" lon="7.945196891817107"><ele>327.5</ele><time>2026-04-08T16:54:11Z</time></trkpt><trkpt lat="44.84305045507477" lon="7.945154812443779"><ele>327.3333333333333</ele><time>2026-04-08T16:54:14Z</time></trkpt><trkpt lat="44.84311265459031" lon="7.945117834783026"><ele>327.1666666666667</ele><time>2026-04-08T16:54:16Z</time></trkpt><trkpt lat="44.843177546221554" lon="7.945101035727383"><ele>327.0</ele><time>2026-04-08T16:54:18Z</time></trkpt><trkpt lat="44.84327628184064" lon="7.9451632731558774"><ele>327.0</ele><time>2026-04-08T16:54:21Z</time></trkpt><trkpt lat="44.843406979055175" lon="7.945259857322196"><ele>327.0</ele><time>2026-04-08T16:54:23Z</time></trkpt><trkpt lat="44.84346895416789" lon="7.9454118731419"><ele>327.0</ele><time>2026-04-08T16:54:24Z</time></trkpt><trkpt lat="44.84350944982938" lon="7.94552573722931"><ele>327.0</ele><time>2026-04-08T16:54:25Z</time></trkpt><trkpt lat="44.84354939962357" lon="7.945650072092574"><ele>329.5</ele><time>2026-04-08T16:54:26Z</time></trkpt><trkpt lat="44.843582896501765" lon="7.945823363811271"><ele>332.0</ele><time>2026-04-08T16:54:27Z</time></trkpt><trkpt lat="44.843627817625965" lon="7.945945602372102"><ele>334.5</ele><time>2026-04-08T16:54:28Z</time></trkpt><trkpt lat="44.84368427915174" lon="7.946095910914785"><ele>337.0</ele><time>2026-04-08T16:54:29Z</time></trkpt><trkpt lat="44.84372891227068" lon="7.946230827794495"><ele>337.8333333333333</ele><time>2026-04-08T16:54:30Z</time></trkpt><trkpt lat="44.843770348043726" lon="7.946351571447628"><ele>338.66666666666663</ele><time>2026-04-08T16:54:31Z</time></trkpt><trkpt lat="44.84380337132559" lon="7.946445280265571"><ele>339.5</ele><time>2026-04-08T16:54:32Z</time></trkpt><trkpt lat="44.84384072109495" lon="7.946528654948119"><ele>340.3333333333333</ele><time>2026-04-08T16:54:33Z</time></trkpt><trkpt lat="44.84389720726404" lon="7.946625200474013"><ele>341.1666666666667</ele><time>2026-04-08T16:54:34Z</time></trkpt><trkpt lat="44.84395214687297" lon="7.946749527477104"><ele>342.0</ele><time>2026-04-08T16:54:35Z</time></trkpt><trkpt lat="44.844006784664096" lon="7.94688460512379"><ele>342.0</ele><time>2026-04-08T16:54:36Z</time></trkpt><trkpt lat="44.844056691363996" lon="7.947019762739491"><ele>342.0</ele><time>2026-04-08T16:54:37Z</time></trkpt><trkpt lat="44.84411172043956" lon="7.947161365357406"><ele>342.0</ele><time>2026-04-08T16:54:38Z</time></trkpt><trkpt lat="44.844155894515914" lon="7.947272728284773"><ele>342.0</ele><time>2026-04-08T16:54:39Z</time></trkpt><trkpt lat="44.8442152066336" lon="7.947415966955787"><ele>342.0</ele><time>2026-04-08T16:54:41Z</time></trkpt><trkpt lat="44.84428312424945" lon="7.947433931622333"><ele>343.0</ele><time>2026-04-08T16:54:43Z</time></trkpt><trkpt lat="44.84434603268157" lon="7.947333559179236"><ele>344.0</ele><time>2026-04-08T16:54:44Z</time></trkpt><trkpt lat="44.844407301976496" lon="7.9472564381228095"><ele>345.0</ele><time>2026-04-08T16:54:45Z</time></trkpt><trkpt lat="44.84449048842944" lon="7.947243782847762"><ele>346.0</ele><time>2026-04-08T16:54:46Z</time></trkpt><trkpt lat="44.84457040491584" lon="7.94728057549898"><ele>347.0</ele><time>2026-04-08T16:54:47Z</time></trkpt><trkpt lat="44.844644425373716" lon="7.947266643984456"><ele>348.0</ele><time>2026-04-08T16:54:48Z</time></trkpt><trkpt lat="44.84471039035279" lon="7.9472337206385015"><ele>348.0</ele><time>2026-04-08T16:54:49Z</time></trkpt><trkpt lat="44.84481325534189" lon="7.94720046884503"><ele>348.0</ele><time>2026-04-08T16:54:51Z</time></trkpt><trkpt lat="44.844897475669114" lon="7.947228973653258"><ele>348.0</ele><time>2026-04-08T16:54:53Z</time></trkpt><trkpt lat="44.84495339711827" lon="7.947288959654071"><ele>348.0</ele><time>2026-04-08T16:54:54Z</time></trkpt><trkpt lat="44.84501081894424" lon="7.947412700021683"><ele>348.0</ele><time>2026-04-08T16:54:56Z</time></trkpt><trkpt lat="44.845021804869326" lon="7.947504266239096"><ele>348.0</ele><time>2026-04-08T16:54:57Z</time></trkpt><trkpt lat="44.84500915476237" lon="7.947618616662507"><ele>348.5</ele><time>2026-04-08T16:54:58Z</time></trkpt><trkpt lat="44.845005469973756" lon="7.947727813417258"><ele>349.0</ele><time>2026-04-08T16:54:59Z</time></trkpt><trkpt lat="44.845022839303574" lon="7.947832078245372"><ele>349.5</ele><time>2026-04-08T16:55:00Z</time></trkpt><trkpt lat="44.845043538350936" lon="7.9479392132884525"><ele>350.0</ele><time>2026-04-08T16:55:01Z</time></trkpt><trkpt lat="44.84507537448799" lon="7.94804633694478"><ele>350.5</ele><time>2026-04-08T16:55:02Z</time></trkpt><trkpt lat="44.84510521572945" lon="7.948145335856137"><ele>351.0</ele><time>2026-04-08T16:55:03Z</time></trkpt><trkpt lat="44.84511305406668" lon="7.948291402737657"><ele>351.5</ele><time>2026-04-08T16:55:04Z</time></trkpt><trkpt lat="44.845112912881426" lon="7.948462191374885"><ele>352.0</ele><time>2026-04-08T16:55:05Z</time></trkpt><trkpt lat="44.84511405428865" lon="7.948639917920735"><ele>352.5</ele><time>2026-04-08T16:55:06Z</time></trkpt><trkpt lat="44.8451177510561" lon="7.948821161939852"><ele>353.0</ele><time>2026-04-08T16:55:07Z</time></trkpt><trkpt lat="44.845111997614836" lon="7.949010702425464"><ele>353.0</ele><time>2026-04-08T16:55:08Z</time></trkpt><trkpt lat="44.845101864376346" lon="7.94916199458458"><ele>353.0</ele><time>2026-04-08T16:55:09Z</time></trkpt><trkpt lat="44.845089037363806" lon="7.949285459403539"><ele>353.0</ele><time>2026-04-08T16:55:10Z</time></trkpt><trkpt lat="44.84506722197568" lon="7.949386098967942"><ele>353.0</ele><time>2026-04-08T16:55:11Z</time></trkpt><trkpt lat="44.84505335786737" lon="7.9494742708520665"><ele>353.0</ele><time>2026-04-08T16:55:12Z</time></trkpt><trkpt lat="44.84524016038542" lon="7.949431885760163"><ele>352.85714285714283</ele><time>2026-04-08T16:55:18Z</time></trkpt><trkpt lat="44.8452993153359" lon="7.949374198334969"><ele>352.7142857142857</ele><time>2026-04-08T16:55:19Z</time></trkpt><trkpt lat="44.84536852095203" lon="7.949321134809235"><ele>352.57142857142856</ele><time>2026-04-08T16:55:20Z</time></trkpt><trkpt lat="44.845426479679865" lon="7.949260167303566"><ele>352.42857142857144</ele><time>2026-04-08T16:55:21Z</time></trkpt><trkpt lat="44.845478218408445" lon="7.949195643083551"><ele>352.2857142857143</ele><time>2026-04-08T16:55:22Z</time></trkpt><trkpt lat="44.84553375084664" lon="7.949137980911807"><ele>352.14285714285717</ele><time>2026-04-08T16:55:23Z</time></trkpt><trkpt lat="44.84558596278448" lon="7.949078794593519"><ele>352.0</ele><time>2026-04-08T16:55:24Z</time></trkpt><trkpt lat="44.84564532630394" lon="7.949034025593822"><ele>352.0</ele><time>2026-04-08T16:55:25Z</time></trkpt><trkpt lat="44.84570940625704" lon="7.949002304633983"><ele>352.0</ele><time>2026-04-08T16:55:26Z</time></trkpt><trkpt lat="44.845776696994356" lon="7.948979060790925"><ele>352.0</ele><time>2026-04-08T16:55:27Z</time></trkpt><trkpt lat="44.84587113310245" lon="7.9489755606629435"><ele>352.0</ele><time>2026-04-08T16:55:29Z</time></trkpt><trkpt lat="44.845986872906394" lon="7.9490660822120285"><ele>352.0</ele><time>2026-04-08T16:55:31Z</time></trkpt><trkpt lat="44.84604827168023" lon="7.949139652992335"><ele>352.0</ele><time>2026-04-08T16:55:32Z</time></trkpt><trkpt lat="44.8461225826781" lon="7.949180152753632"><ele>351.0</ele><time>2026-04-08T16:55:33Z</time></trkpt><trkpt lat="44.84617872798843" lon="7.949238523122456"><ele>350.0</ele><time>2026-04-08T16:55:34Z</time></trkpt><trkpt lat="44.84621567380919" lon="7.9493234959633545"><ele>349.0</ele><time>2026-04-08T16:55:35Z</time></trkpt><trkpt lat="44.846258447765116" lon="7.9494136878043475"><ele>348.0</ele><time>2026-04-08T16:55:36Z</time></trkpt><trkpt lat="44.84630334640928" lon="7.949512550593341"><ele>347.0</ele><time>2026-04-08T16:55:37Z</time></trkpt><trkpt lat="44.84635913797207" lon="7.949577093621477"><ele>346.0</ele><time>2026-04-08T16:55:38Z</time></trkpt><trkpt lat="44.84642752787981" lon="7.949613890221374"><ele>345.0</ele><time>2026-04-08T16:55:39Z</time></trkpt><trkpt lat="44.8465237914984" lon="7.949697410043985"><ele>345.0</ele><time>2026-04-08T16:55:40Z</time></trkpt><trkpt lat="44.84661213921083" lon="7.949779662650161"><ele>345.0</ele><time>2026-04-08T16:55:41Z</time></trkpt><trkpt lat="44.84670544358932" lon="7.9498634269075135"><ele>345.0</ele><time>2026-04-08T16:55:42Z</time></trkpt><trkpt lat="44.84679940919632" lon="7.949962691158163"><ele>345.0</ele><time>2026-04-08T16:55:43Z</time></trkpt><trkpt lat="44.84688409615877" lon="7.950031533244939"><ele>345.0</ele><time>2026-04-08T16:55:44Z</time></trkpt><trkpt lat="44.84696583790984" lon="7.950095199377988"><ele>344.0</ele><time>2026-04-08T16:55:45Z</time></trkpt><trkpt lat="44.84702759483474" lon="7.950145156703103"><ele>343.0</ele><time>2026-04-08T16:55:46Z</time></trkpt><trkpt lat="44.84704263786103" lon="7.950274255589572"><ele>342.0</ele><time>2026-04-08T16:55:49Z</time></trkpt><trkpt lat="44.84703799471706" lon="7.950367181840075"><ele>341.0</ele><time>2026-04-08T16:55:50Z</time></trkpt><trkpt lat="44.84703172098164" lon="7.950478090097428"><ele>340.0</ele><time>2026-04-08T16:55:51Z</time></trkpt><trkpt lat="44.84702464464838" lon="7.95058545837907"><ele>339.0</ele><time>2026-04-08T16:55:52Z</time></trkpt><trkpt lat="44.84701792093378" lon="7.950677198843796"><ele>339.0</ele><time>2026-04-08T16:55:53Z</time></trkpt><trkpt lat="44.847005410373654" lon="7.950834758232024"><ele>339.0</ele><time>2026-04-08T16:55:55Z</time></trkpt><trkpt lat="44.84701913304781" lon="7.950941347769342"><ele>339.0</ele><time>2026-04-08T16:55:58Z</time></trkpt><trkpt lat="44.847057987354" lon="7.951049859671338"><ele>339.0</ele><time>2026-04-08T16:56:01Z</time></trkpt><trkpt lat="44.84714644008306" lon="7.951051150673605"><ele>339.0</ele><time>2026-04-08T16:56:03Z</time></trkpt><trkpt lat="44.84722115441578" lon="7.951090692256675"><ele>339.0</ele><time>2026-04-08T16:56:05Z</time></trkpt><trkpt lat="44.84729658748658" lon="7.951022592778738"><ele>339.0</ele><time>2026-04-08T16:56:09Z</time></trkpt><trkpt lat="44.847346925655174" lon="7.950958532980206"><ele>339.0</ele><time>2026-04-08T16:56:12Z</time></trkpt><trkpt lat="44.84728361427046" lon="7.950945554180332"><ele>339.0</ele><time>2026-04-08T16:56:20Z</time></trkpt><trkpt lat="44.847190293614204" lon="7.950935392271027"><ele>339.0</ele><time>2026-04-08T16:56:22Z</time></trkpt><trkpt lat="44.84709420316404" lon="7.950898535720143"><ele>339.0</ele><time>2026-04-08T16:56:24Z</time></trkpt><trkpt lat="44.847018746468386" lon="7.950851159565696"><ele>339.0</ele><time>2026-04-08T16:56:34Z</time></trkpt><trkpt lat="44.847017989546146" lon="7.950710650817763"><ele>339.0</ele><time>2026-04-08T16:56:36Z</time></trkpt><trkpt lat="44.84703774010396" lon="7.950560183636658"><ele>339.0</ele><time>2026-04-08T16:56:38Z</time></trkpt><trkpt lat="44.84703588462566" lon="7.950412758103966"><ele>339.0</ele><time>2026-04-08T16:56:40Z</time></trkpt><trkpt lat="44.84703582707336" lon="7.950303344541887"><ele>339.0</ele><time>2026-04-08T16:56:42Z</time></trkpt><trkpt lat="44.84704832893437" lon="7.950186251684889"><ele>339.0</ele><time>2026-04-08T16:56:44Z</time></trkpt><trkpt lat="44.846964064480446" lon="7.9500649612589225"><ele>339.3333333333333</ele><time>2026-04-08T16:56:51Z</time></trkpt><trkpt lat="44.84690266479771" lon="7.950021579647936"><ele>339.6666666666667</ele><time>2026-04-08T16:56:52Z</time></trkpt><trkpt lat="44.8468441720267" lon="7.949974862643663"><ele>340.0</ele><time>2026-04-08T16:56:53Z</time></trkpt><trkpt lat="44.84679497881829" lon="7.949909677022635"><ele>340.33333333333337</ele><time>2026-04-08T16:56:56Z</time></trkpt><trkpt lat="44.846732914812385" lon="7.9498630026489705"><ele>340.6666666666667</ele><time>2026-04-08T16:56:57Z</time></trkpt><trkpt lat="44.846664841696736" lon="7.949782545804883"><ele>341.0</ele><time>2026-04-08T16:56:58Z</time></trkpt><trkpt lat="44.846578049464476" lon="7.949701332539868"><ele>341.6666666666667</ele><time>2026-04-08T16:56:59Z</time></trkpt><trkpt lat="44.84649659147206" lon="7.949628495856238"><ele>342.33333333333337</ele><time>2026-04-08T16:57:00Z</time></trkpt><trkpt lat="44.846424232499444" lon="7.949561116270694"><ele>343.0</ele><time>2026-04-08T16:57:01Z</time></trkpt><trkpt lat="44.846363875033845" lon="7.949506253034564"><ele>343.6666666666667</ele><time>2026-04-08T16:57:02Z</time></trkpt><trkpt lat="44.846310399572616" lon="7.94945901470521"><ele>344.3333333333333</ele><time>2026-04-08T16:57:03Z</time></trkpt><trkpt lat="44.84626258647203" lon="7.949340098959817"><ele>345.0</ele><time>2026-04-08T16:57:05Z</time></trkpt><trkpt lat="44.84621589015939" lon="7.94924945515974"><ele>345.5</ele><time>2026-04-08T16:57:08Z</time></trkpt><trkpt lat="44.84613548593306" lon="7.949122167074084"><ele>346.0</ele><time>2026-04-08T16:57:10Z</time></trkpt><trkpt lat="44.846077129475454" lon="7.949080781909278"><ele>346.5</ele><time>2026-04-08T16:57:11Z</time></trkpt><trkpt lat="44.84601743465116" lon="7.949039431902785"><ele>347.0</ele><time>2026-04-08T16:57:12Z</time></trkpt><trkpt lat="44.84595565786095" lon="7.948985510275918"><ele>347.5</ele><time>2026-04-08T16:57:13Z</time></trkpt><trkpt lat="44.845854920796185" lon="7.948935188874604"><ele>348.0</ele><time>2026-04-08T16:57:15Z</time></trkpt><trkpt lat="44.84578935263727" lon="7.948964836844388"><ele>348.0</ele><time>2026-04-08T16:57:16Z</time></trkpt><trkpt lat="44.84566976302628" lon="7.94901774190761"><ele>348.0</ele><time>2026-04-08T16:57:18Z</time></trkpt><trkpt lat="44.845604044687235" lon="7.949077629093175"><ele>348.0</ele><time>2026-04-08T16:57:19Z</time></trkpt><trkpt lat="44.845539498845405" lon="7.949134471899275"><ele>348.0</ele><time>2026-04-08T16:57:20Z</time></trkpt><trkpt lat="44.84548643194536" lon="7.949193827703035"><ele>348.0</ele><time>2026-04-08T16:57:21Z</time></trkpt><trkpt lat="44.845435388944054" lon="7.949247739032641"><ele>348.0</ele><time>2026-04-08T16:57:22Z</time></trkpt><trkpt lat="44.84533566776708" lon="7.9493531165152005"><ele>348.0</ele><time>2026-04-08T16:57:24Z</time></trkpt><trkpt lat="44.845274131498144" lon="7.949395536215155"><ele>348.0</ele><time>2026-04-08T16:57:25Z</time></trkpt><trkpt lat="44.84521525291904" lon="7.949442213605845"><ele>348.0</ele><time>2026-04-08T16:57:26Z</time></trkpt><trkpt lat="44.84515799834178" lon="7.949495231295789"><ele>348.0</ele><time>2026-04-08T16:57:27Z</time></trkpt><trkpt lat="44.84508294183818" lon="7.9495774711750125"><ele>348.0</ele><time>2026-04-08T16:57:29Z</time></trkpt><trkpt lat="44.84501888567364" lon="7.94962195580263"><ele>348.0</ele><time>2026-04-08T16:57:31Z</time></trkpt><trkpt lat="44.84491261795882" lon="7.949767702350397"><ele>348.0</ele><time>2026-04-08T16:57:33Z</time></trkpt><trkpt lat="44.84483570361984" lon="7.9498554913494806"><ele>348.0</ele><time>2026-04-08T16:57:34Z</time></trkpt><trkpt lat="44.84475476254642" lon="7.949977424945164"><ele>348.0</ele><time>2026-04-08T16:57:35Z</time></trkpt><trkpt lat="44.84466236865438" lon="7.950113578550205"><ele>348.0</ele><time>2026-04-08T16:57:36Z</time></trkpt><trkpt lat="44.84456437345106" lon="7.950257986485795"><ele>348.0</ele><time>2026-04-08T16:57:37Z</time></trkpt><trkpt lat="44.84447902978062" lon="7.950420896111405"><ele>348.0</ele><time>2026-04-08T16:57:38Z</time></trkpt><trkpt lat="44.844374998022694" lon="7.95057393574174"><ele>348.0</ele><time>2026-04-08T16:57:39Z</time></trkpt><trkpt lat="44.844279804943234" lon="7.9507159302574655"><ele>348.0</ele><time>2026-04-08T16:57:40Z</time></trkpt><trkpt lat="44.84417421310825" lon="7.950838492680472"><ele>349.25</ele><time>2026-04-08T16:57:41Z</time></trkpt><trkpt lat="44.84407077513015" lon="7.9509702091131995"><ele>350.5</ele><time>2026-04-08T16:57:42Z</time></trkpt><trkpt lat="44.84395336627224" lon="7.951098464352151"><ele>351.75</ele><time>2026-04-08T16:57:43Z</time></trkpt><trkpt lat="44.84381527609659" lon="7.951196227888541"><ele>353.0</ele><time>2026-04-08T16:57:44Z</time></trkpt><trkpt lat="44.84366542740374" lon="7.951295320614229"><ele>353.0</ele><time>2026-04-08T16:57:45Z</time></trkpt><trkpt lat="44.843504467102214" lon="7.951396859031371"><ele>353.0</ele><time>2026-04-08T16:57:46Z</time></trkpt><trkpt lat="44.843348707805696" lon="7.951515534677591"><ele>353.0</ele><time>2026-04-08T16:57:47Z</time></trkpt><trkpt lat="44.84318354117892" lon="7.951619055797208"><ele>352.33333333333337</ele><time>2026-04-08T16:57:48Z</time></trkpt><trkpt lat="44.843005716659064" lon="7.951705108105657"><ele>351.6666666666667</ele><time>2026-04-08T16:57:49Z</time></trkpt><trkpt lat="44.84283767002581" lon="7.951810118788513"><ele>351.0</ele><time>2026-04-08T16:57:50Z</time></trkpt><trkpt lat="44.84266885211167" lon="7.9519159240693265"><ele>354.0</ele><time>2026-04-08T16:57:51Z</time></trkpt><trkpt lat="44.842499044507335" lon="7.952041615841"><ele>357.0</ele><time>2026-04-08T16:57:52Z</time></trkpt><trkpt lat="44.84232236467767" lon="7.952151017629915"><ele>360.0</ele><time>2026-04-08T16:57:53Z</time></trkpt><trkpt lat="44.842144520546384" lon="7.9522632808244635"><ele>360.0</ele><time>2026-04-08T16:57:54Z</time></trkpt><trkpt lat="44.84196583248753" lon="7.952377063241971"><ele>360.0</ele><time>2026-04-08T16:57:55Z</time></trkpt><trkpt lat="44.841787023508566" lon="7.952486400805985"><ele>360.0</ele><time>2026-04-08T16:57:56Z</time></trkpt><trkpt lat="44.84160922562393" lon="7.952600546169409"><ele>360.6666666666667</ele><time>2026-04-08T16:57:57Z</time></trkpt><trkpt lat="44.84143083030633" lon="7.952714194261747"><ele>361.33333333333337</ele><time>2026-04-08T16:57:58Z</time></trkpt><trkpt lat="44.84125911229017" lon="7.9528244357640006"><ele>362.0</ele><time>2026-04-08T16:57:59Z</time></trkpt><trkpt lat="44.841082671976366" lon="7.952933450856076"><ele>362.6666666666667</ele><time>2026-04-08T16:58:00Z</time></trkpt><trkpt lat="44.840905385874514" lon="7.953039159664712"><ele>363.3333333333333</ele><time>2026-04-08T16:58:01Z</time></trkpt><trkpt lat="44.840725810690614" lon="7.953146851906001"><ele>364.0</ele><time>2026-04-08T16:58:02Z</time></trkpt><trkpt lat="44.84054862415848" lon="7.953258508245473"><ele>364.0</ele><time>2026-04-08T16:58:03Z</time></trkpt><trkpt lat="44.840369615526285" lon="7.953370824776558"><ele>364.0</ele><time>2026-04-08T16:58:04Z</time></trkpt><trkpt lat="44.840205286183746" lon="7.953476930570154"><ele>364.0</ele><time>2026-04-08T16:58:05Z</time></trkpt><trkpt lat="44.840061491302215" lon="7.953576565336892"><ele>364.66666666666663</ele><time>2026-04-08T16:58:06Z</time></trkpt><trkpt lat="44.83992622973211" lon="7.953678709718127"><ele>365.3333333333333</ele><time>2026-04-08T16:58:07Z</time></trkpt><trkpt lat="44.83979025450403" lon="7.953805718973461"><ele>366.0</ele><time>2026-04-08T16:58:08Z</time></trkpt><trkpt lat="44.83965480038961" lon="7.953949189729854"><ele>366.0</ele><time>2026-04-08T16:58:09Z</time></trkpt><trkpt lat="44.83951749312007" lon="7.9541129323641835"><ele>366.0</ele><time>2026-04-08T16:58:10Z</time></trkpt><trkpt lat="44.83937586246555" lon="7.954268705961332"><ele>366.0</ele><time>2026-04-08T16:58:11Z</time></trkpt><trkpt lat="44.8392302311992" lon="7.954411680270567"><ele>366.3333333333333</ele><time>2026-04-08T16:58:12Z</time></trkpt><trkpt lat="44.83908713710421" lon="7.954567600835805"><ele>366.66666666666663</ele><time>2026-04-08T16:58:13Z</time></trkpt><trkpt lat="44.838950508650726" lon="7.954738628241883"><ele>367.0</ele><time>2026-04-08T16:58:14Z</time></trkpt><trkpt lat="44.83881442685699" lon="7.954919203047298"><ele>366.66666666666663</ele><time>2026-04-08T16:58:15Z</time></trkpt><trkpt lat="44.83867331305515" lon="7.955107072848227"><ele>366.3333333333333</ele><time>2026-04-08T16:58:16Z</time></trkpt><trkpt lat="44.8385438497899" lon="7.9552973897714825"><ele>366.0</ele><time>2026-04-08T16:58:17Z</time></trkpt><trkpt lat="44.838406795238065" lon="7.955477759932907"><ele>366.0</ele><time>2026-04-08T16:58:18Z</time></trkpt><trkpt lat="44.83829206716924" lon="7.955671814666238"><ele>366.0</ele><time>2026-04-08T16:58:19Z</time></trkpt><trkpt lat="44.83817700106376" lon="7.955812026876294"><ele>366.0</ele><time>2026-04-08T16:58:20Z</time></trkpt><trkpt lat="44.83807721894201" lon="7.955951234176529"><ele>364.5</ele><time>2026-04-08T16:58:21Z</time></trkpt><trkpt lat="44.83796228152888" lon="7.956043993858789"><ele>363.0</ele><time>2026-04-08T16:58:22Z</time></trkpt><trkpt lat="44.83785909107176" lon="7.956131293037573"><ele>361.5</ele><time>2026-04-08T16:58:23Z</time></trkpt><trkpt lat="44.83775799662293" lon="7.956192080505668"><ele>360.0</ele><time>2026-04-08T16:58:24Z</time></trkpt><trkpt lat="44.83766193197555" lon="7.956230938563687"><ele>360.5</ele><time>2026-04-08T16:58:25Z</time></trkpt><trkpt lat="44.83756560795312" lon="7.956245032722229"><ele>361.0</ele><time>2026-04-08T16:58:26Z</time></trkpt><trkpt lat="44.837457187384814" lon="7.956237084279853"><ele>361.5</ele><time>2026-04-08T16:58:27Z</time></trkpt><trkpt lat="44.83732893206173" lon="7.956249682513838"><ele>362.0</ele><time>2026-04-08T16:58:28Z</time></trkpt><trkpt lat="44.83720014295227" lon="7.956244805844887"><ele>362.0</ele><time>2026-04-08T16:58:29Z</time></trkpt><trkpt lat="44.83707177912538" lon="7.956239650366226"><ele>362.0</ele><time>2026-04-08T16:58:30Z</time></trkpt><trkpt lat="44.83695109377692" lon="7.956219389331097"><ele>362.0</ele><time>2026-04-08T16:58:31Z</time></trkpt><trkpt lat="44.836836351037185" lon="7.956217331611041"><ele>362.0</ele><time>2026-04-08T16:58:32Z</time></trkpt><trkpt lat="44.836739034690574" lon="7.95620494975489"><ele>360.6</ele><time>2026-04-08T16:58:33Z</time></trkpt><trkpt lat="44.836665054436196" lon="7.956176182719848"><ele>359.20000000000005</ele><time>2026-04-08T16:58:34Z</time></trkpt><trkpt lat="44.83659609110601" lon="7.956147711424936"><ele>357.8</ele><time>2026-04-08T16:58:35Z</time></trkpt><trkpt lat="44.836489519771824" lon="7.956251840564199"><ele>356.4</ele><time>2026-04-08T16:58:36Z</time></trkpt><trkpt lat="44.83637975908319" lon="7.956274363866504"><ele>355.0</ele><time>2026-04-08T16:58:37Z</time></trkpt><trkpt lat="44.83625635670911" lon="7.956294402273825"><ele>355.0</ele><time>2026-04-08T16:58:38Z</time></trkpt><trkpt lat="44.83611707690352" lon="7.956306529830951"><ele>355.0</ele><time>2026-04-08T16:58:39Z</time></trkpt><trkpt lat="44.835964324536135" lon="7.956319514769634"><ele>355.0</ele><time>2026-04-08T16:58:40Z</time></trkpt><trkpt lat="44.83581790159545" lon="7.956332120998127"><ele>355.0</ele><time>2026-04-08T16:58:41Z</time></trkpt><trkpt lat="44.835644505355916" lon="7.956347047173636"><ele>354.75</ele><time>2026-04-08T16:58:42Z</time></trkpt><trkpt lat="44.83548981055985" lon="7.95636438526722"><ele>354.5</ele><time>2026-04-08T16:58:43Z</time></trkpt><trkpt lat="44.83535145993005" lon="7.956399864808681"><ele>354.25</ele><time>2026-04-08T16:58:44Z</time></trkpt><trkpt lat="44.83523172466202" lon="7.956500972712588"><ele>354.0</ele><time>2026-04-08T16:58:45Z</time></trkpt><trkpt lat="44.83509865547335" lon="7.956574452006133"><ele>354.0</ele><time>2026-04-08T16:58:46Z</time></trkpt><trkpt lat="44.83498067245192" lon="7.9566967773411905"><ele>354.0</ele><time>2026-04-08T16:58:47Z</time></trkpt><trkpt lat="44.83484166060172" lon="7.956782637624697"><ele>354.0</ele><time>2026-04-08T16:58:48Z</time></trkpt><trkpt lat="44.83472995203749" lon="7.956907029845686"><ele>354.0</ele><time>2026-04-08T16:58:49Z</time></trkpt><trkpt lat="44.83461991995417" lon="7.95702503005791"><ele>349.6666666666667</ele><time>2026-04-08T16:58:50Z</time></trkpt><trkpt lat="44.83452081083217" lon="7.957183059686236"><ele>345.33333333333337</ele><time>2026-04-08T16:58:51Z</time></trkpt><trkpt lat="44.83442824264354" lon="7.957373926501191"><ele>341.0</ele><time>2026-04-08T16:58:52Z</time></trkpt><trkpt lat="44.83435085244355" lon="7.957591164871926"><ele>344.0</ele><time>2026-04-08T16:58:53Z</time></trkpt><trkpt lat="44.834272928980646" lon="7.957808887687051"><ele>347.0</ele><time>2026-04-08T16:58:54Z</time></trkpt><trkpt lat="44.83417557897597" lon="7.958005350292132"><ele>350.0</ele><time>2026-04-08T16:58:55Z</time></trkpt><trkpt lat="44.834078719055235" lon="7.958181800349391"><ele>350.0</ele><time>2026-04-08T16:58:56Z</time></trkpt><trkpt lat="44.83397915883979" lon="7.95832362602578"><ele>350.0</ele><time>2026-04-08T16:58:57Z</time></trkpt><trkpt lat="44.83388743602644" lon="7.958486361605511"><ele>350.0</ele><time>2026-04-08T16:58:58Z</time></trkpt><trkpt lat="44.833789433473136" lon="7.95864508348952"><ele>350.0</ele><time>2026-04-08T16:58:59Z</time></trkpt><trkpt lat="44.833701838128796" lon="7.958843376405978"><ele>349.0</ele><time>2026-04-08T16:59:00Z</time></trkpt><trkpt lat="44.833610986732694" lon="7.959059043786547"><ele>348.0</ele><time>2026-04-08T16:59:01Z</time></trkpt><trkpt lat="44.833525343994765" lon="7.959267241945746"><ele>347.0</ele><time>2026-04-08T16:59:02Z</time></trkpt><trkpt lat="44.833427300793474" lon="7.959465371316527"><ele>346.75</ele><time>2026-04-08T16:59:03Z</time></trkpt><trkpt lat="44.833344260705005" lon="7.959640455373087"><ele>346.5</ele><time>2026-04-08T16:59:04Z</time></trkpt><trkpt lat="44.8332740439591" lon="7.9597922627419875"><ele>346.25</ele><time>2026-04-08T16:59:05Z</time></trkpt><trkpt lat="44.833215598961644" lon="7.9599229852056945"><ele>346.0</ele><time>2026-04-08T16:59:06Z</time></trkpt><trkpt lat="44.833166427068825" lon="7.960030334828672"><ele>343.25</ele><time>2026-04-08T16:59:07Z</time></trkpt><trkpt lat="44.83315914497769" lon="7.9601743118647565"><ele>340.5</ele><time>2026-04-08T16:59:09Z</time></trkpt><trkpt lat="44.83300580554959" lon="7.960116420768153"><ele>337.75</ele><time>2026-04-08T16:59:10Z</time></trkpt><trkpt lat="44.832934875055884" lon="7.960137262823667"><ele>335.0</ele><time>2026-04-08T16:59:11Z</time></trkpt><trkpt lat="44.83282479854266" lon="7.96019068790376"><ele>335.0</ele><time>2026-04-08T16:59:12Z</time></trkpt><trkpt lat="44.83271585059527" lon="7.960241783090297"><ele>335.0</ele><time>2026-04-08T16:59:13Z</time></trkpt><trkpt lat="44.832612843728924" lon="7.960340209537874"><ele>335.0</ele><time>2026-04-08T16:59:14Z</time></trkpt><trkpt lat="44.83254361262617" lon="7.9604103984059105"><ele>335.0</ele><time>2026-04-08T16:59:15Z</time></trkpt><trkpt lat="44.832486704187914" lon="7.960490622650344"><ele>335.0</ele><time>2026-04-08T16:59:16Z</time></trkpt><trkpt lat="44.83244225128032" lon="7.960598426815704"><ele>337.2</ele><time>2026-04-08T16:59:17Z</time></trkpt><trkpt lat="44.832389242516996" lon="7.9607273288068585"><ele>339.4</ele><time>2026-04-08T16:59:18Z</time></trkpt><trkpt lat="44.83232652299299" lon="7.960851815354555"><ele>341.6</ele><time>2026-04-08T16:59:19Z</time></trkpt><trkpt lat="44.83227893921348" lon="7.960986847937622"><ele>343.8</ele><time>2026-04-08T16:59:20Z</time></trkpt><trkpt lat="44.83225696244717" lon="7.961116020164881"><ele>346.0</ele><time>2026-04-08T16:59:21Z</time></trkpt><trkpt lat="44.8322350892667" lon="7.96122295642585"><ele>346.0</ele><time>2026-04-08T16:59:22Z</time></trkpt><trkpt lat="44.83221732413765" lon="7.961337275300664"><ele>346.0</ele><time>2026-04-08T16:59:23Z</time></trkpt><trkpt lat="44.83219781184366" lon="7.961466946156061"><ele>346.0</ele><time>2026-04-08T16:59:24Z</time></trkpt><trkpt lat="44.83217988587908" lon="7.961614316966607"><ele>346.0</ele><time>2026-04-08T16:59:25Z</time></trkpt><trkpt lat="44.832155366071845" lon="7.961774918697877"><ele>346.0</ele><time>2026-04-08T16:59:26Z</time></trkpt><trkpt lat="44.83211896755634" lon="7.961947900831161"><ele>346.0</ele><time>2026-04-08T16:59:27Z</time></trkpt><trkpt lat="44.83208353455981" lon="7.962127491466544"><ele>346.0</ele><time>2026-04-08T16:59:28Z</time></trkpt><trkpt lat="44.8320527773799" lon="7.962319288493285"><ele>346.0</ele><time>2026-04-08T16:59:29Z</time></trkpt><trkpt lat="44.83202192358124" lon="7.962517936998915"><ele>346.0</ele><time>2026-04-08T16:59:30Z</time></trkpt><trkpt lat="44.83199346521628" lon="7.962719820244272"><ele>346.0</ele><time>2026-04-08T16:59:31Z</time></trkpt><trkpt lat="44.831975843379176" lon="7.962910342463458"><ele>346.0</ele><time>2026-04-08T16:59:32Z</time></trkpt><trkpt lat="44.83193038852454" lon="7.9630633848141015"><ele>346.0</ele><time>2026-04-08T16:59:33Z</time></trkpt><trkpt lat="44.83190676558105" lon="7.963189750280147"><ele>346.0</ele><time>2026-04-08T16:59:34Z</time></trkpt><trkpt lat="44.83186421441045" lon="7.963322824161649"><ele>348.0</ele><time>2026-04-08T16:59:35Z</time></trkpt><trkpt lat="44.83181555664532" lon="7.963488117935671"><ele>350.0</ele><time>2026-04-08T16:59:36Z</time></trkpt><trkpt lat="44.831764530048574" lon="7.963624975770924"><ele>352.0</ele><time>2026-04-08T16:59:37Z</time></trkpt><trkpt lat="44.83167999850484" lon="7.963758112892314"><ele>354.0</ele><time>2026-04-08T16:59:38Z</time></trkpt><trkpt lat="44.831605778133685" lon="7.963895250388792"><ele>354.0</ele><time>2026-04-08T16:59:39Z</time></trkpt><trkpt lat="44.83157714011663" lon="7.963998345330755"><ele>354.0</ele><time>2026-04-08T16:59:40Z</time></trkpt><trkpt lat="44.83154575564908" lon="7.964190213129598"><ele>354.0</ele><time>2026-04-08T16:59:42Z</time></trkpt><trkpt lat="44.83150219883031" lon="7.964342687666467"><ele>354.0</ele><time>2026-04-08T16:59:43Z</time></trkpt><trkpt lat="44.83146417140798" lon="7.964498436210475"><ele>354.0</ele><time>2026-04-08T16:59:44Z</time></trkpt><trkpt lat="44.831462075099964" lon="7.96465214562588"><ele>354.0</ele><time>2026-04-08T16:59:45Z</time></trkpt><trkpt lat="44.831471505709196" lon="7.964788826730984"><ele>354.0</ele><time>2026-04-08T16:59:46Z</time></trkpt><trkpt lat="44.83149170479233" lon="7.964907002263716"><ele>354.0</ele><time>2026-04-08T16:59:47Z</time></trkpt><trkpt lat="44.83153467896184" lon="7.965006786239619"><ele>354.0</ele><time>2026-04-08T16:59:48Z</time></trkpt><trkpt lat="44.831573060230774" lon="7.965113443822412"><ele>354.0</ele><time>2026-04-08T16:59:49Z</time></trkpt><trkpt lat="44.831607771862956" lon="7.965209988213195"><ele>354.0</ele><time>2026-04-08T16:59:50Z</time></trkpt><trkpt lat="44.83161286452309" lon="7.96530840938361"><ele>354.0</ele><time>2026-04-08T16:59:51Z</time></trkpt><trkpt lat="44.83163847878001" lon="7.965470281354309"><ele>354.0</ele><time>2026-04-08T16:59:53Z</time></trkpt><trkpt lat="44.83165680777815" lon="7.965605038985562"><ele>354.0</ele><time>2026-04-08T16:59:54Z</time></trkpt><trkpt lat="44.83165907014422" lon="7.965744114294782"><ele>353.4</ele><time>2026-04-08T16:59:55Z</time></trkpt><trkpt lat="44.831658612692536" lon="7.965887131638179"><ele>352.79999999999995</ele><time>2026-04-08T16:59:56Z</time></trkpt><trkpt lat="44.83166132553139" lon="7.966030120596741"><ele>352.20000000000005</ele><time>2026-04-08T16:59:57Z</time></trkpt><trkpt lat="44.831651670115974" lon="7.966169703319966"><ele>351.6</ele><time>2026-04-08T16:59:58Z</time></trkpt><trkpt lat="44.83164281742459" lon="7.9663176578542005"><ele>351.0</ele><time>2026-04-08T16:59:59Z</time></trkpt><trkpt lat="44.831634229190016" lon="7.966456155492275"><ele>351.0</ele><time>2026-04-08T17:00:00Z</time></trkpt><trkpt lat="44.83162458918712" lon="7.966590229245156"><ele>351.0</ele><time>2026-04-08T17:00:01Z</time></trkpt><trkpt lat="44.83161460535645" lon="7.966737427040458"><ele>351.0</ele><time>2026-04-08T17:00:02Z</time></trkpt><trkpt lat="44.83161340992713" lon="7.966877564724595"><ele>351.0</ele><time>2026-04-08T17:00:03Z</time></trkpt><trkpt lat="44.83159286948246" lon="7.96698636327053"><ele>351.0</ele><time>2026-04-08T17:00:04Z</time></trkpt><trkpt lat="44.83156783626093" lon="7.967095024676343"><ele>350.4</ele><time>2026-04-08T17:00:05Z</time></trkpt><trkpt lat="44.831516049395724" lon="7.967194174756168"><ele>349.8</ele><time>2026-04-08T17:00:06Z</time></trkpt><trkpt lat="44.831421869257404" lon="7.96725901296179"><ele>349.2</ele><time>2026-04-08T17:00:07Z</time></trkpt><trkpt lat="44.83134512123578" lon="7.9673704428821415"><ele>348.59999999999997</ele><time>2026-04-08T17:00:08Z</time></trkpt><trkpt lat="44.831283450646914" lon="7.967463137059446"><ele>348.0</ele><time>2026-04-08T17:00:09Z</time></trkpt><trkpt lat="44.831237538717644" lon="7.967543392739558"><ele>348.0</ele><time>2026-04-08T17:00:10Z</time></trkpt><trkpt lat="44.83121359333091" lon="7.9676837474940765"><ele>348.0</ele><time>2026-04-08T17:00:11Z</time></trkpt><trkpt lat="44.83117270634893" lon="7.967822794809696"><ele>348.0</ele><time>2026-04-08T17:00:12Z</time></trkpt><trkpt lat="44.83110509809312" lon="7.967923610636525"><ele>348.0</ele><time>2026-04-08T17:00:13Z</time></trkpt><trkpt lat="44.83105607624546" lon="7.96800347410408"><ele>348.0</ele><time>2026-04-08T17:00:14Z</time></trkpt><trkpt lat="44.83098158390017" lon="7.968080153413152"><ele>350.0</ele><time>2026-04-08T17:00:16Z</time></trkpt><trkpt lat="44.83086988975446" lon="7.968146667287074"><ele>352.0</ele><time>2026-04-08T17:00:18Z</time></trkpt><trkpt lat="44.8308268024003" lon="7.96825552369449"><ele>354.0</ele><time>2026-04-08T17:00:19Z</time></trkpt><trkpt lat="44.830811188077874" lon="7.968422636542143"><ele>356.0</ele><time>2026-04-08T17:00:21Z</time></trkpt><trkpt lat="44.83081140447951" lon="7.968525168742474"><ele>358.0</ele><time>2026-04-08T17:00:22Z</time></trkpt><trkpt lat="44.83130724788908" lon="7.968673754521648"><ele>358.8333333333333</ele><time>2026-04-08T17:00:24Z</time></trkpt><trkpt lat="44.83139244692526" lon="7.968658069942731"><ele>359.66666666666663</ele><time>2026-04-08T17:00:25Z</time></trkpt><trkpt lat="44.83150073769963" lon="7.968676658597773"><ele>360.5</ele><time>2026-04-08T17:00:26Z</time></trkpt><trkpt lat="44.831596376301135" lon="7.9687020378075415"><ele>361.3333333333333</ele><time>2026-04-08T17:00:27Z</time></trkpt><trkpt lat="44.83167655158636" lon="7.968727205088834"><ele>362.1666666666667</ele><time>2026-04-08T17:00:28Z</time></trkpt><trkpt lat="44.831732312129446" lon="7.968771309027478"><ele>363.0</ele><time>2026-04-08T17:00:29Z</time></trkpt><trkpt lat="44.83180238582275" lon="7.968927456126116"><ele>361.0</ele><time>2026-04-08T17:00:31Z</time></trkpt><trkpt lat="44.83181991542669" lon="7.969056783282461"><ele>359.0</ele><time>2026-04-08T17:00:32Z</time></trkpt><trkpt lat="44.83183905254628" lon="7.9691729165911624"><ele>357.0</ele><time>2026-04-08T17:00:33Z</time></trkpt><trkpt lat="44.831874424841054" lon="7.969262999379895"><ele>355.0</ele><time>2026-04-08T17:00:34Z</time></trkpt><trkpt lat="44.831937297343536" lon="7.96933398959694"><ele>353.0</ele><time>2026-04-08T17:00:35Z</time></trkpt><trkpt lat="44.832037880105446" lon="7.969387911030606"><ele>351.0</ele><time>2026-04-08T17:00:36Z</time></trkpt><trkpt lat="44.83214425858104" lon="7.969427421691766"><ele>351.0</ele><time>2026-04-08T17:00:37Z</time></trkpt><trkpt lat="44.832230119098206" lon="7.969468627379446"><ele>351.0</ele><time>2026-04-08T17:00:38Z</time></trkpt><trkpt lat="44.83229369975146" lon="7.969501752902257"><ele>351.0</ele><time>2026-04-08T17:00:39Z</time></trkpt><trkpt lat="44.83236614920123" lon="7.969515704196268"><ele>351.0</ele><time>2026-04-08T17:00:40Z</time></trkpt><trkpt lat="44.8324481193716" lon="7.9694811342834715"><ele>351.0</ele><time>2026-04-08T17:00:41Z</time></trkpt><trkpt lat="44.83251618576554" lon="7.969471245358484"><ele>351.0</ele><time>2026-04-08T17:00:42Z</time></trkpt><trkpt lat="44.83259657095886" lon="7.969474703024712"><ele>350.0</ele><time>2026-04-08T17:00:43Z</time></trkpt><trkpt lat="44.83269162045595" lon="7.969492862274498"><ele>349.0</ele><time>2026-04-08T17:00:44Z</time></trkpt><trkpt lat="44.83279168597629" lon="7.969527530264152"><ele>348.0</ele><time>2026-04-08T17:00:45Z</time></trkpt><trkpt lat="44.83288644273733" lon="7.96957578015816"><ele>347.0</ele><time>2026-04-08T17:00:46Z</time></trkpt><trkpt lat="44.832967514853706" lon="7.969618499341797"><ele>346.0</ele><time>2026-04-08T17:00:47Z</time></trkpt><trkpt lat="44.8330435180941" lon="7.969646277533748"><ele>346.0</ele><time>2026-04-08T17:00:48Z</time></trkpt><trkpt lat="44.83312169317033" lon="7.969659876937369"><ele>346.0</ele><time>2026-04-08T17:00:49Z</time></trkpt><trkpt lat="44.83319769439749" lon="7.96966790019336"><ele>346.0</ele><time>2026-04-08T17:00:50Z</time></trkpt><trkpt lat="44.83327053325689" lon="7.969677773090312"><ele>346.0</ele><time>2026-04-08T17:00:51Z</time></trkpt><trkpt lat="44.83333546647038" lon="7.969689643154537"><ele>346.0</ele><time>2026-04-08T17:00:52Z</time></trkpt><trkpt lat="44.83345946978957" lon="7.969649443164148"><ele>346.0</ele><time>2026-04-08T17:00:54Z</time></trkpt><trkpt lat="44.833536059520206" lon="7.969595637136513"><ele>343.6</ele><time>2026-04-08T17:00:55Z</time></trkpt><trkpt lat="44.8336048269079" lon="7.9695463473111445"><ele>341.20000000000005</ele><time>2026-04-08T17:00:56Z</time></trkpt><trkpt lat="44.833664391292395" lon="7.969498316457486"><ele>338.79999999999995</ele><time>2026-04-08T17:00:57Z</time></trkpt><trkpt lat="44.833772884757636" lon="7.969428219868461"><ele>336.4</ele><time>2026-04-08T17:00:59Z</time></trkpt><trkpt lat="44.83386973122771" lon="7.9694437284009485"><ele>334.0</ele><time>2026-04-08T17:01:01Z</time></trkpt><trkpt lat="44.83397393017561" lon="7.96944559958723"><ele>334.0</ele><time>2026-04-08T17:01:03Z</time></trkpt><trkpt lat="44.83411306396479" lon="7.969417055850251"><ele>334.0</ele><time>2026-04-08T17:01:05Z</time></trkpt><trkpt lat="44.83418469398044" lon="7.969380581352073"><ele>334.0</ele><time>2026-04-08T17:01:06Z</time></trkpt><trkpt lat="44.83426348660039" lon="7.969362410105283"><ele>334.0</ele><time>2026-04-08T17:01:07Z</time></trkpt><trkpt lat="44.83440898403548" lon="7.969347899266767"><ele>334.0</ele><time>2026-04-08T17:01:09Z</time></trkpt><trkpt lat="44.83449316018396" lon="7.969378542727639"><ele>331.6</ele><time>2026-04-08T17:01:10Z</time></trkpt><trkpt lat="44.83460228232655" lon="7.969387928970898"><ele>329.2</ele><time>2026-04-08T17:01:11Z</time></trkpt><trkpt lat="44.83469031723575" lon="7.969377788236341"><ele>326.8</ele><time>2026-04-08T17:01:12Z</time></trkpt><trkpt lat="44.83479672599846" lon="7.969362093219016"><ele>324.40000000000003</ele><time>2026-04-08T17:01:14Z</time></trkpt><trkpt lat="44.83487059095984" lon="7.969337156226543"><ele>322.0</ele><time>2026-04-08T17:01:15Z</time></trkpt><trkpt lat="44.834938766665324" lon="7.969318238526451"><ele>322.0</ele><time>2026-04-08T17:01:16Z</time></trkpt><trkpt lat="44.835049511626565" lon="7.969352380787848"><ele>322.0</ele><time>2026-04-08T17:01:18Z</time></trkpt><trkpt lat="44.835146375646346" lon="7.969402874045384"><ele>322.0</ele><time>2026-04-08T17:01:19Z</time></trkpt><trkpt lat="44.835241502364234" lon="7.969448839634307"><ele>322.0</ele><time>2026-04-08T17:01:20Z</time></trkpt><trkpt lat="44.83531962058601" lon="7.969477842031466"><ele>322.0</ele><time>2026-04-08T17:01:21Z</time></trkpt><trkpt lat="44.83542333042104" lon="7.969493527647589"><ele>320.5</ele><time>2026-04-08T17:01:23Z</time></trkpt><trkpt lat="44.83551851401435" lon="7.9694614853387"><ele>319.0</ele><time>2026-04-08T17:01:25Z</time></trkpt><trkpt lat="44.8355894222151" lon="7.969433866123787"><ele>317.5</ele><time>2026-04-08T17:01:26Z</time></trkpt><trkpt lat="44.83565549269132" lon="7.96941327706284"><ele>316.0</ele><time>2026-04-08T17:01:27Z</time></trkpt><trkpt lat="44.835726165592995" lon="7.969380850098451"><ele>314.5</ele><time>2026-04-08T17:01:29Z</time></trkpt><trkpt lat="44.83582708095166" lon="7.969345249413871"><ele>313.0</ele><time>2026-04-08T17:01:31Z</time></trkpt><trkpt lat="44.8359433975664" lon="7.969331901005751"><ele>311.66666666666663</ele><time>2026-04-08T17:01:33Z</time></trkpt><trkpt lat="44.83600707450093" lon="7.96929984191405"><ele>310.3333333333333</ele><time>2026-04-08T17:01:34Z</time></trkpt><trkpt lat="44.83610857163523" lon="7.969253057372203"><ele>309.0</ele><time>2026-04-08T17:01:36Z</time></trkpt><trkpt lat="44.836219622061535" lon="7.969212969162164"><ele>307.6666666666667</ele><time>2026-04-08T17:01:38Z</time></trkpt><trkpt lat="44.83629485587918" lon="7.969182476707251"><ele>306.33333333333337</ele><time>2026-04-08T17:01:39Z</time></trkpt><trkpt lat="44.836355696090976" lon="7.969150094930972"><ele>305.0</ele><time>2026-04-08T17:01:40Z</time></trkpt><trkpt lat="44.83644469116148" lon="7.969080905121055"><ele>305.0</ele><time>2026-04-08T17:01:42Z</time></trkpt><trkpt lat="44.836519046925794" lon="7.969063547295142"><ele>305.0</ele><time>2026-04-08T17:01:44Z</time></trkpt><trkpt lat="44.83667139280383" lon="7.969185715250139"><ele>305.0</ele><time>2026-04-08T17:01:48Z</time></trkpt><trkpt lat="44.836856973028674" lon="7.969226878669086"><ele>305.0</ele><time>2026-04-08T17:01:52Z</time></trkpt><trkpt lat="44.83696890604739" lon="7.9692238697812385"><ele>302.0</ele><time>2026-04-08T17:01:54Z</time></trkpt><trkpt lat="44.83708002690488" lon="7.969181910387879"><ele>299.0</ele><time>2026-04-08T17:01:56Z</time></trkpt><trkpt lat="44.83718776317722" lon="7.96912181301543"><ele>296.0</ele><time>2026-04-08T17:01:58Z</time></trkpt><trkpt lat="44.83726274349052" lon="7.969086291097929"><ele>293.0</ele><time>2026-04-08T17:01:59Z</time></trkpt><trkpt lat="44.83732347028164" lon="7.969048931018994"><ele>290.0</ele><time>2026-04-08T17:02:00Z</time></trkpt><trkpt lat="44.837392385757916" lon="7.968994616724032"><ele>290.0</ele><time>2026-04-08T17:02:01Z</time></trkpt><trkpt lat="44.83745610871338" lon="7.9689558240866525"><ele>290.0</ele><time>2026-04-08T17:02:02Z</time></trkpt><trkpt lat="44.837572250412194" lon="7.968891576148415"><ele>290.0</ele><time>2026-04-08T17:02:04Z</time></trkpt><trkpt lat="44.83764739284133" lon="7.968839576052718"><ele>290.0</ele><time>2026-04-08T17:02:05Z</time></trkpt><trkpt lat="44.837732469004884" lon="7.9687687177491995"><ele>290.0</ele><time>2026-04-08T17:02:06Z</time></trkpt><trkpt lat="44.837807064588866" lon="7.968697289110676"><ele>288.0</ele><time>2026-04-08T17:02:07Z</time></trkpt><trkpt lat="44.837883039364" lon="7.968656901090344"><ele>286.0</ele><time>2026-04-08T17:02:08Z</time></trkpt><trkpt lat="44.837996394286044" lon="7.96862929806887"><ele>284.0</ele><time>2026-04-08T17:02:10Z</time></trkpt><trkpt lat="44.83806076028684" lon="7.968602079162168"><ele>282.0</ele><time>2026-04-08T17:02:12Z</time></trkpt><trkpt lat="44.838145832421546" lon="7.968610695861514"><ele>280.0</ele><time>2026-04-08T17:02:15Z</time></trkpt><trkpt lat="44.83826867593052" lon="7.968678529171099"><ele>280.0</ele><time>2026-04-08T17:02:17Z</time></trkpt><trkpt lat="44.8383567006318" lon="7.968745553969788"><ele>280.0</ele><time>2026-04-08T17:02:18Z</time></trkpt><trkpt lat="44.838427577608044" lon="7.968796432649015"><ele>280.0</ele><time>2026-04-08T17:02:19Z</time></trkpt><trkpt lat="44.838556028791906" lon="7.968902802378369"><ele>280.0</ele><time>2026-04-08T17:02:21Z</time></trkpt><trkpt lat="44.83861839999591" lon="7.968936740447815"><ele>280.0</ele><time>2026-04-08T17:02:22Z</time></trkpt><trkpt lat="44.83869182408493" lon="7.968986562885681"><ele>279.8333333333333</ele><time>2026-04-08T17:02:23Z</time></trkpt><trkpt lat="44.83876198552102" lon="7.969049873298579"><ele>279.66666666666663</ele><time>2026-04-08T17:02:24Z</time></trkpt><trkpt lat="44.83882666780041" lon="7.969115921078184"><ele>279.5</ele><time>2026-04-08T17:02:25Z</time></trkpt><trkpt lat="44.838887820142844" lon="7.96916743303614"><ele>279.3333333333333</ele><time>2026-04-08T17:02:26Z</time></trkpt><trkpt lat="44.83895275644826" lon="7.969224265275887"><ele>279.1666666666667</ele><time>2026-04-08T17:02:27Z</time></trkpt><trkpt lat="44.83901780625064" lon="7.969284778741336"><ele>279.0</ele><time>2026-04-08T17:02:28Z</time></trkpt><trkpt lat="44.83907080101874" lon="7.969339498192152"><ele>280.4</ele><time>2026-04-08T17:02:29Z</time></trkpt><trkpt lat="44.839128988634215" lon="7.969373830967231"><ele>281.79999999999995</ele><time>2026-04-08T17:02:30Z</time></trkpt><trkpt lat="44.83921840835007" lon="7.969412551706331"><ele>283.20000000000005</ele><time>2026-04-08T17:02:32Z</time></trkpt><trkpt lat="44.83930873972315" lon="7.96935263617369"><ele>284.6</ele><time>2026-04-08T17:02:34Z</time></trkpt><trkpt lat="44.83942659443775" lon="7.969290746022595"><ele>286.0</ele><time>2026-04-08T17:02:36Z</time></trkpt><trkpt lat="44.8395158684143" lon="7.969212909137126"><ele>285.40000000000003</ele><time>2026-04-08T17:02:37Z</time></trkpt><trkpt lat="44.83961198506434" lon="7.9691691967441365"><ele>284.8</ele><time>2026-04-08T17:02:38Z</time></trkpt><trkpt lat="44.83970491613249" lon="7.969124807784955"><ele>284.20000000000005</ele><time>2026-04-08T17:02:39Z</time></trkpt><trkpt lat="44.83979987969985" lon="7.969088334602884"><ele>283.6</ele><time>2026-04-08T17:02:40Z</time></trkpt><trkpt lat="44.83989322293529" lon="7.969071182458043"><ele>283.0</ele><time>2026-04-08T17:02:41Z</time></trkpt><trkpt lat="44.83998364170609" lon="7.969051675884177"><ele>283.0</ele><time>2026-04-08T17:02:42Z</time></trkpt><trkpt lat="44.84008295213328" lon="7.969035200429421"><ele>283.0</ele><time>2026-04-08T17:02:43Z</time></trkpt><trkpt lat="44.84017646569212" lon="7.969024285446565"><ele>283.0</ele><time>2026-04-08T17:02:44Z</time></trkpt><trkpt lat="44.84027171403465" lon="7.968989651858855"><ele>283.0</ele><time>2026-04-08T17:02:45Z</time></trkpt><trkpt lat="44.84037262097947" lon="7.9689547400369225"><ele>283.0</ele><time>2026-04-08T17:02:46Z</time></trkpt><trkpt lat="44.84047736915329" lon="7.96892152673926"><ele>281.6</ele><time>2026-04-08T17:02:47Z</time></trkpt><trkpt lat="44.840571224823464" lon="7.968881533475551"><ele>280.20000000000005</ele><time>2026-04-08T17:02:48Z</time></trkpt><trkpt lat="44.840667163897045" lon="7.968837463158199"><ele>278.8</ele><time>2026-04-08T17:02:49Z</time></trkpt><trkpt lat="44.840743475341256" lon="7.968791343629546"><ele>277.40000000000003</ele><time>2026-04-08T17:02:50Z</time></trkpt><trkpt lat="44.84085124465262" lon="7.968703980819347"><ele>276.0</ele><time>2026-04-08T17:02:52Z</time></trkpt><trkpt lat="44.84092345491837" lon="7.968686040080905"><ele>275.8333333333333</ele><time>2026-04-08T17:02:53Z</time></trkpt><trkpt lat="44.84100121441329" lon="7.968677812347087"><ele>275.6666666666667</ele><time>2026-04-08T17:02:54Z</time></trkpt><trkpt lat="44.84106804983132" lon="7.968654250218949"><ele>275.5</ele><time>2026-04-08T17:02:55Z</time></trkpt><trkpt lat="44.84114613405528" lon="7.96863378624279"><ele>275.33333333333337</ele><time>2026-04-08T17:02:56Z</time></trkpt><trkpt lat="44.841237493876896" lon="7.968594730801185"><ele>275.1666666666667</ele><time>2026-04-08T17:02:57Z</time></trkpt><trkpt lat="44.84131284836109" lon="7.968589617884875"><ele>275.0</ele><time>2026-04-08T17:02:58Z</time></trkpt><trkpt lat="44.84144804422733" lon="7.968592387083521"><ele>275.0</ele><time>2026-04-08T17:03:00Z</time></trkpt><trkpt lat="44.84151528125147" lon="7.968571348699795"><ele>275.0</ele><time>2026-04-08T17:03:01Z</time></trkpt><trkpt lat="44.84158504744001" lon="7.968547058949101"><ele>275.0</ele><time>2026-04-08T17:03:02Z</time></trkpt><trkpt lat="44.8416823217861" lon="7.968487103930411"><ele>275.0</ele><time>2026-04-08T17:03:03Z</time></trkpt><trkpt lat="44.84175676354747" lon="7.96843840411237"><ele>275.0</ele><time>2026-04-08T17:03:04Z</time></trkpt><trkpt lat="44.84181640443069" lon="7.968408286320515"><ele>275.0</ele><time>2026-04-08T17:03:05Z</time></trkpt><trkpt lat="44.84187813548333" lon="7.968369150809174"><ele>274.75</ele><time>2026-04-08T17:03:07Z</time></trkpt><trkpt lat="44.84199043050871" lon="7.9686133855149786"><ele>274.5</ele><time>2026-04-08T17:03:16Z</time></trkpt><trkpt lat="44.842078786754485" lon="7.96878313750002"><ele>274.25</ele><time>2026-04-08T17:03:18Z</time></trkpt><trkpt lat="44.842105566867644" lon="7.968889439071496"><ele>274.0</ele><time>2026-04-08T17:03:19Z</time></trkpt><trkpt lat="44.84213891088761" lon="7.96899624205605"><ele>274.0</ele><time>2026-04-08T17:03:20Z</time></trkpt><trkpt lat="44.84217040767838" lon="7.9690741525077415"><ele>274.0</ele><time>2026-04-08T17:03:21Z</time></trkpt><trkpt lat="44.84224103021215" lon="7.969199492901127"><ele>274.0</ele><time>2026-04-08T17:03:23Z</time></trkpt><trkpt lat="44.84231005875663" lon="7.96929063498842"><ele>274.0</ele><time>2026-04-08T17:03:25Z</time></trkpt><trkpt lat="44.84239372571011" lon="7.9693559273085635"><ele>274.0</ele><time>2026-04-08T17:03:27Z</time></trkpt><trkpt lat="44.842496020861525" lon="7.96940558727803"><ele>274.59999999999997</ele><time>2026-04-08T17:03:29Z</time></trkpt><trkpt lat="44.842569050567505" lon="7.969427422552763"><ele>275.2</ele><time>2026-04-08T17:03:31Z</time></trkpt><trkpt lat="44.842634122130775" lon="7.96943467603182"><ele>275.79999999999995</ele><time>2026-04-08T17:03:34Z</time></trkpt><trkpt lat="44.8428283143756" lon="7.969354517152285"><ele>276.4</ele><time>2026-04-08T17:07:05Z</time></trkpt><trkpt lat="44.842895251919686" lon="7.969311384979189"><ele>277.0</ele><time>2026-04-08T17:07:06Z</time></trkpt><trkpt lat="44.84298366826641" lon="7.969252434440643"><ele>276.5</ele><time>2026-04-08T17:07:07Z</time></trkpt><trkpt lat="44.84308008107568" lon="7.9692250308099215"><ele>276.0</ele><time>2026-04-08T17:07:08Z</time></trkpt><trkpt lat="44.843185149421636" lon="7.9691843523090675"><ele>275.5</ele><time>2026-04-08T17:07:09Z</time></trkpt><trkpt lat="44.84331450315971" lon="7.969167136630593"><ele>275.0</ele><time>2026-04-08T17:07:10Z</time></trkpt><trkpt lat="44.84344357418134" lon="7.969148057984166"><ele>279.25</ele><time>2026-04-08T17:07:11Z</time></trkpt><trkpt lat="44.843583174132554" lon="7.969192643062518"><ele>283.5</ele><time>2026-04-08T17:07:12Z</time></trkpt><trkpt lat="44.843728394535134" lon="7.96921962062592"><ele>287.75</ele><time>2026-04-08T17:07:13Z</time></trkpt><trkpt lat="44.8438614314543" lon="7.969244334873276"><ele>292.0</ele><time>2026-04-08T17:07:14Z</time></trkpt><trkpt lat="44.843977494582745" lon="7.969243809019106"><ele>292.0</ele><time>2026-04-08T17:07:15Z</time></trkpt><trkpt lat="44.84408350145347" lon="7.969274898460058"><ele>292.0</ele><time>2026-04-08T17:07:16Z</time></trkpt><trkpt lat="44.84416719286914" lon="7.969285077691558"><ele>292.0</ele><time>2026-04-08T17:07:17Z</time></trkpt><trkpt lat="44.844247340044234" lon="7.969293996033182"><ele>292.0</ele><time>2026-04-08T17:07:18Z</time></trkpt><trkpt lat="44.84433291152137" lon="7.9693006908188"><ele>292.0</ele><time>2026-04-08T17:07:19Z</time></trkpt><trkpt lat="44.844425058442106" lon="7.969297765127094"><ele>288.0</ele><time>2026-04-08T17:07:21Z</time></trkpt><trkpt lat="44.84446034125368" lon="7.968966148008438"><ele>284.0</ele><time>2026-04-08T17:07:23Z</time></trkpt><trkpt lat="44.84445063644316" lon="7.968848171689386"><ele>280.0</ele><time>2026-04-08T17:07:24Z</time></trkpt><trkpt lat="44.84445890775264" lon="7.968673334245391"><ele>276.0</ele><time>2026-04-08T17:07:25Z</time></trkpt><trkpt lat="44.84448013436368" lon="7.968499053208918"><ele>274.0</ele><time>2026-04-08T17:07:26Z</time></trkpt><trkpt lat="44.84448874193732" lon="7.968325336169376"><ele>272.0</ele><time>2026-04-08T17:07:27Z</time></trkpt><trkpt lat="44.844505513165984" lon="7.968101186197115"><ele>270.0</ele><time>2026-04-08T17:07:28Z</time></trkpt><trkpt lat="44.84452536899168" lon="7.967892076807169"><ele>268.0</ele><time>2026-04-08T17:07:29Z</time></trkpt><trkpt lat="44.84454772562863" lon="7.9676567632460005"><ele>269.5</ele><time>2026-04-08T17:07:30Z</time></trkpt><trkpt lat="44.844552920181485" lon="7.967434899869575"><ele>271.0</ele><time>2026-04-08T17:07:31Z</time></trkpt><trkpt lat="44.844540006467" lon="7.96723580929974"><ele>272.5</ele><time>2026-04-08T17:07:32Z</time></trkpt><trkpt lat="44.844531276388224" lon="7.9670611489379874"><ele>274.0</ele><time>2026-04-08T17:07:33Z</time></trkpt><trkpt lat="44.84453922484521" lon="7.96690700313578"><ele>274.0</ele><time>2026-04-08T17:07:34Z</time></trkpt><trkpt lat="44.84454053884729" lon="7.966790929708123"><ele>274.0</ele><time>2026-04-08T17:07:35Z</time></trkpt><trkpt lat="44.84455208775706" lon="7.966683747524331"><ele>274.0</ele><time>2026-04-08T17:07:36Z</time></trkpt><trkpt lat="44.84455783498634" lon="7.966573914004668"><ele>274.0</ele><time>2026-04-08T17:07:37Z</time></trkpt><trkpt lat="44.84460548034939" lon="7.96648468632302"><ele>274.0</ele><time>2026-04-08T17:07:38Z</time></trkpt><trkpt lat="44.84472425314232" lon="7.96641576284112"><ele>274.0</ele><time>2026-04-08T17:07:40Z</time></trkpt><trkpt lat="44.84481821649696" lon="7.966431097823976"><ele>276.25</ele><time>2026-04-08T17:07:41Z</time></trkpt><trkpt lat="44.844896022838704" lon="7.966500848312832"><ele>278.5</ele><time>2026-04-08T17:07:42Z</time></trkpt><trkpt lat="44.845001798068715" lon="7.966582448019875"><ele>280.75</ele><time>2026-04-08T17:07:43Z</time></trkpt><trkpt lat="44.84511686878027" lon="7.966660186419743"><ele>283.0</ele><time>2026-04-08T17:07:44Z</time></trkpt><trkpt lat="44.84523744077756" lon="7.966743940442314"><ele>284.75</ele><time>2026-04-08T17:07:45Z</time></trkpt><trkpt lat="44.84536579515367" lon="7.966827508047682"><ele>286.5</ele><time>2026-04-08T17:07:46Z</time></trkpt><trkpt lat="44.845476236508674" lon="7.966880192947305"><ele>288.25</ele><time>2026-04-08T17:07:47Z</time></trkpt><trkpt lat="44.845557568672874" lon="7.966964120916368"><ele>290.0</ele><time>2026-04-08T17:07:48Z</time></trkpt><trkpt lat="44.8456118933233" lon="7.967112739706033"><ele>290.0</ele><time>2026-04-08T17:07:49Z</time></trkpt><trkpt lat="44.845690025021455" lon="7.9672622083089255"><ele>290.0</ele><time>2026-04-08T17:07:50Z</time></trkpt><trkpt lat="44.845781505123" lon="7.967380170364789"><ele>290.0</ele><time>2026-04-08T17:07:51Z</time></trkpt><trkpt lat="44.845885911088324" lon="7.967471389552797"><ele>290.0</ele><time>2026-04-08T17:07:52Z</time></trkpt><trkpt lat="44.84596217439975" lon="7.967518451161172"><ele>288.25</ele><time>2026-04-08T17:07:53Z</time></trkpt><trkpt lat="44.84621456302991" lon="7.967435664826099"><ele>286.5</ele><time>2026-04-08T17:07:56Z</time></trkpt><trkpt lat="44.846265299727634" lon="7.967324133499191"><ele>284.75</ele><time>2026-04-08T17:07:57Z</time></trkpt><trkpt lat="44.8462537071752" lon="7.96719926296772"><ele>283.0</ele><time>2026-04-08T17:07:58Z</time></trkpt><trkpt lat="44.84621075258188" lon="7.967101370064183"><ele>283.0</ele><time>2026-04-08T17:07:59Z</time></trkpt><trkpt lat="44.8461503663874" lon="7.966966242449962"><ele>283.0</ele><time>2026-04-08T17:08:00Z</time></trkpt><trkpt lat="44.846088110084374" lon="7.966825029675854"><ele>283.0</ele><time>2026-04-08T17:08:01Z</time></trkpt><trkpt lat="44.846023833173845" lon="7.966654015981373"><ele>283.0</ele><time>2026-04-08T17:08:02Z</time></trkpt><trkpt lat="44.84595767811301" lon="7.966490701247939"><ele>286.75</ele><time>2026-04-08T17:08:03Z</time></trkpt><trkpt lat="44.8458916049786" lon="7.966324589222707"><ele>290.5</ele><time>2026-04-08T17:08:04Z</time></trkpt><trkpt lat="44.845837802492134" lon="7.966167994722042"><ele>294.25</ele><time>2026-04-08T17:08:05Z</time></trkpt><trkpt lat="44.84581451518908" lon="7.9660069765186385"><ele>298.0</ele><time>2026-04-08T17:08:06Z</time></trkpt><trkpt lat="44.845802689114755" lon="7.965865160069542"><ele>301.0</ele><time>2026-04-08T17:08:07Z</time></trkpt><trkpt lat="44.84582204483138" lon="7.965721594460439"><ele>304.0</ele><time>2026-04-08T17:08:08Z</time></trkpt><trkpt lat="44.84585653246527" lon="7.965563193489253"><ele>307.0</ele><time>2026-04-08T17:08:09Z</time></trkpt><trkpt lat="44.84588892953604" lon="7.96539396022353"><ele>310.0</ele><time>2026-04-08T17:08:10Z</time></trkpt><trkpt lat="44.84590376391589" lon="7.965209277646703"><ele>310.0</ele><time>2026-04-08T17:08:11Z</time></trkpt><trkpt lat="44.84591527987837" lon="7.965059841349362"><ele>310.0</ele><time>2026-04-08T17:08:12Z</time></trkpt><trkpt lat="44.84591387386555" lon="7.9649189439678505"><ele>310.0</ele><time>2026-04-08T17:08:13Z</time></trkpt><trkpt lat="44.84591365999684" lon="7.964762035754639"><ele>310.0</ele><time>2026-04-08T17:08:14Z</time></trkpt><trkpt lat="44.845906645092505" lon="7.964612024768798"><ele>310.0</ele><time>2026-04-08T17:08:15Z</time></trkpt><trkpt lat="44.845904946492055" lon="7.9644465288432045"><ele>313.0</ele><time>2026-04-08T17:08:16Z</time></trkpt><trkpt lat="44.84590206214165" lon="7.96426451768457"><ele>316.0</ele><time>2026-04-08T17:08:17Z</time></trkpt><trkpt lat="44.845887373435524" lon="7.964072269646524"><ele>319.0</ele><time>2026-04-08T17:08:18Z</time></trkpt><trkpt lat="44.84586980302344" lon="7.96388796534958"><ele>322.0</ele><time>2026-04-08T17:08:19Z</time></trkpt><trkpt lat="44.84584944005038" lon="7.96372095658479"><ele>323.0</ele><time>2026-04-08T17:08:20Z</time></trkpt><trkpt lat="44.845830555304865" lon="7.9636031042994935"><ele>324.0</ele><time>2026-04-08T17:08:21Z</time></trkpt><trkpt lat="44.84580361123557" lon="7.9634403753703005"><ele>325.0</ele><time>2026-04-08T17:08:23Z</time></trkpt><trkpt lat="44.84580338387104" lon="7.9633497002229205"><ele>326.0</ele><time>2026-04-08T17:08:25Z</time></trkpt><trkpt lat="44.845776298040796" lon="7.963237087746709"><ele>327.0</ele><time>2026-04-08T17:08:26Z</time></trkpt><trkpt lat="44.8457629749302" lon="7.963133392964983"><ele>328.0</ele><time>2026-04-08T17:08:27Z</time></trkpt><trkpt lat="44.84574712905835" lon="7.963030933794614"><ele>329.0</ele><time>2026-04-08T17:08:28Z</time></trkpt><trkpt lat="44.84571979384098" lon="7.962918927770987"><ele>330.0</ele><time>2026-04-08T17:08:29Z</time></trkpt><trkpt lat="44.845693083934435" lon="7.962818266981904"><ele>331.0</ele><time>2026-04-08T17:08:30Z</time></trkpt><trkpt lat="44.84568397084631" lon="7.962727677147577"><ele>332.0</ele><time>2026-04-08T17:08:33Z</time></trkpt><trkpt lat="44.84554351143162" lon="7.962717147371178"><ele>333.0</ele><time>2026-04-08T17:08:38Z</time></trkpt><trkpt lat="44.84544523000941" lon="7.9627866533615315"><ele>333.0</ele><time>2026-04-08T17:08:40Z</time></trkpt><trkpt lat="44.84533049908962" lon="7.96284258006963"><ele>333.0</ele><time>2026-04-08T17:08:42Z</time></trkpt><trkpt lat="44.84525686673554" lon="7.962885127526866"><ele>333.0</ele><time>2026-04-08T17:08:43Z</time></trkpt><trkpt lat="44.84516904511443" lon="7.962936192858528"><ele>333.0</ele><time>2026-04-08T17:08:44Z</time></trkpt><trkpt lat="44.84507970092587" lon="7.962983919235599"><ele>333.0</ele><time>2026-04-08T17:08:45Z</time></trkpt><trkpt lat="44.84499589008111" lon="7.9630345675343515"><ele>334.4</ele><time>2026-04-08T17:08:46Z</time></trkpt><trkpt lat="44.844930033005" lon="7.963067597201543"><ele>335.79999999999995</ele><time>2026-04-08T17:08:47Z</time></trkpt><trkpt lat="44.84484610681127" lon="7.9630995837886696"><ele>337.2</ele><time>2026-04-08T17:08:48Z</time></trkpt><trkpt lat="44.84475533342828" lon="7.963124935903432"><ele>338.6</ele><time>2026-04-08T17:08:49Z</time></trkpt><trkpt lat="44.844657294030256" lon="7.963140147725182"><ele>340.0</ele><time>2026-04-08T17:08:50Z</time></trkpt><trkpt lat="44.844549107849296" lon="7.963152600924625"><ele>340.0</ele><time>2026-04-08T17:08:51Z</time></trkpt><trkpt lat="44.84442059619572" lon="7.963153929261434"><ele>340.0</ele><time>2026-04-08T17:08:52Z</time></trkpt><trkpt lat="44.84430093228099" lon="7.963161086736285"><ele>340.0</ele><time>2026-04-08T17:08:53Z</time></trkpt><trkpt lat="44.8441652709847" lon="7.9631543097792665"><ele>340.0</ele><time>2026-04-08T17:08:54Z</time></trkpt><trkpt lat="44.84403723553457" lon="7.963155487042591"><ele>338.5</ele><time>2026-04-08T17:08:55Z</time></trkpt><trkpt lat="44.84391088216297" lon="7.9631711995163235"><ele>337.0</ele><time>2026-04-08T17:08:56Z</time></trkpt><trkpt lat="44.843786775182856" lon="7.963204245522436"><ele>335.5</ele><time>2026-04-08T17:08:57Z</time></trkpt><trkpt lat="44.84364587958421" lon="7.963262923687814"><ele>334.0</ele><time>2026-04-08T17:08:58Z</time></trkpt><trkpt lat="44.84352047762224" lon="7.963307283071191"><ele>332.79999999999995</ele><time>2026-04-08T17:08:59Z</time></trkpt><trkpt lat="44.84340134478948" lon="7.963332574860732"><ele>331.59999999999997</ele><time>2026-04-08T17:09:00Z</time></trkpt><trkpt lat="44.84329169832031" lon="7.963352216403068"><ele>330.4</ele><time>2026-04-08T17:09:01Z</time></trkpt><trkpt lat="44.84319401100495" lon="7.963359539618615"><ele>329.2</ele><time>2026-04-08T17:09:02Z</time></trkpt><trkpt lat="44.843102128253186" lon="7.963323638812155"><ele>328.0</ele><time>2026-04-08T17:09:03Z</time></trkpt><trkpt lat="44.84301611268505" lon="7.963299958080478"><ele>328.0</ele><time>2026-04-08T17:09:04Z</time></trkpt><trkpt lat="44.84292062860082" lon="7.963258161607702"><ele>328.0</ele><time>2026-04-08T17:09:05Z</time></trkpt><trkpt lat="44.84281996163645" lon="7.963188011387194"><ele>328.0</ele><time>2026-04-08T17:09:06Z</time></trkpt><trkpt lat="44.84270299650973" lon="7.963127706980424"><ele>328.0</ele><time>2026-04-08T17:09:07Z</time></trkpt><trkpt lat="44.8425801068038" lon="7.963033781894238"><ele>329.0</ele><time>2026-04-08T17:09:08Z</time></trkpt><trkpt lat="44.8424554315309" lon="7.962943914716243"><ele>330.0</ele><time>2026-04-08T17:09:09Z</time></trkpt><trkpt lat="44.84234168648673" lon="7.962862370017333"><ele>331.0</ele><time>2026-04-08T17:09:10Z</time></trkpt><trkpt lat="44.84225396935359" lon="7.9627706491571955"><ele>332.0</ele><time>2026-04-08T17:09:11Z</time></trkpt><trkpt lat="44.84216417387466" lon="7.9627218493643115"><ele>332.0</ele><time>2026-04-08T17:09:12Z</time></trkpt><trkpt lat="44.84207696148803" lon="7.962643767064659"><ele>332.0</ele><time>2026-04-08T17:09:13Z</time></trkpt><trkpt lat="44.84197900091651" lon="7.962549328869493"><ele>332.0</ele><time>2026-04-08T17:09:14Z</time></trkpt><trkpt lat="44.841871686967266" lon="7.96245069703095"><ele>332.0</ele><time>2026-04-08T17:09:15Z</time></trkpt><trkpt lat="44.841773508422364" lon="7.9623574979738825"><ele>332.40000000000003</ele><time>2026-04-08T17:09:16Z</time></trkpt><trkpt lat="44.84172049470578" lon="7.962248301404527"><ele>332.8</ele><time>2026-04-08T17:09:17Z</time></trkpt><trkpt lat="44.84167951088337" lon="7.96214833984533"><ele>333.2</ele><time>2026-04-08T17:09:18Z</time></trkpt><trkpt lat="44.84166061933893" lon="7.962049171660216"><ele>333.6</ele><time>2026-04-08T17:09:19Z</time></trkpt><trkpt lat="44.84163976276866" lon="7.961920382332761"><ele>334.0</ele><time>2026-04-08T17:09:20Z</time></trkpt><trkpt lat="44.84167874796929" lon="7.961766069138381"><ele>334.5</ele><time>2026-04-08T17:09:21Z</time></trkpt><trkpt lat="44.84169850152492" lon="7.9615847851426516"><ele>335.0</ele><time>2026-04-08T17:09:22Z</time></trkpt><trkpt lat="44.84175762837768" lon="7.961414534895801"><ele>335.5</ele><time>2026-04-08T17:09:23Z</time></trkpt><trkpt lat="44.84180915623" lon="7.961237423361579"><ele>336.0</ele><time>2026-04-08T17:09:24Z</time></trkpt><trkpt lat="44.841860587511306" lon="7.9610499193414475"><ele>333.8</ele><time>2026-04-08T17:09:25Z</time></trkpt><trkpt lat="44.84189140167385" lon="7.960877769461501"><ele>331.6</ele><time>2026-04-08T17:09:26Z</time></trkpt><trkpt lat="44.84191593591591" lon="7.960714489096319"><ele>329.4</ele><time>2026-04-08T17:09:27Z</time></trkpt><trkpt lat="44.841914323350224" lon="7.960571095788968"><ele>327.2</ele><time>2026-04-08T17:09:28Z</time></trkpt><trkpt lat="44.84189283349371" lon="7.96044387851476"><ele>325.0</ele><time>2026-04-08T17:09:29Z</time></trkpt><trkpt lat="44.84184886140261" lon="7.960320339966428"><ele>325.0</ele><time>2026-04-08T17:09:30Z</time></trkpt><trkpt lat="44.84180098403555" lon="7.960199540143913"><ele>325.0</ele><time>2026-04-08T17:09:31Z</time></trkpt><trkpt lat="44.84174034607438" lon="7.960071388264843"><ele>325.0</ele><time>2026-04-08T17:09:32Z</time></trkpt><trkpt lat="44.84166359566184" lon="7.959943482987647"><ele>325.0</ele><time>2026-04-08T17:09:33Z</time></trkpt><trkpt lat="44.84157947616275" lon="7.959829292004439"><ele>325.0</ele><time>2026-04-08T17:09:34Z</time></trkpt><trkpt lat="44.84147856831454" lon="7.9597332193767745"><ele>327.0</ele><time>2026-04-08T17:09:35Z</time></trkpt><trkpt lat="44.841400956472995" lon="7.959645919753115"><ele>329.0</ele><time>2026-04-08T17:09:36Z</time></trkpt><trkpt lat="44.84133611867598" lon="7.959546175955905"><ele>331.0</ele><time>2026-04-08T17:09:37Z</time></trkpt><trkpt lat="44.841282881216586" lon="7.9594332077922285"><ele>333.0</ele><time>2026-04-08T17:09:38Z</time></trkpt><trkpt lat="44.84128539022909" lon="7.959292913246415"><ele>335.0</ele><time>2026-04-08T17:09:39Z</time></trkpt><trkpt lat="44.841299679392044" lon="7.959169603022961"><ele>335.0</ele><time>2026-04-08T17:09:40Z</time></trkpt><trkpt lat="44.84132551132778" lon="7.959023009785395"><ele>335.0</ele><time>2026-04-08T17:09:41Z</time></trkpt><trkpt lat="44.84136524793116" lon="7.958869546807455"><ele>335.0</ele><time>2026-04-08T17:09:42Z</time></trkpt><trkpt lat="44.841415381500084" lon="7.958719284902229"><ele>335.0</ele><time>2026-04-08T17:09:43Z</time></trkpt><trkpt lat="44.84148212299162" lon="7.9585837234750745"><ele>335.0</ele><time>2026-04-08T17:09:44Z</time></trkpt><trkpt lat="44.84155742031519" lon="7.958431576435177"><ele>335.0</ele><time>2026-04-08T17:09:45Z</time></trkpt><trkpt lat="44.84162373174036" lon="7.95826764685583"><ele>335.0</ele><time>2026-04-08T17:09:46Z</time></trkpt><trkpt lat="44.84165175509173" lon="7.958086379966027"><ele>335.0</ele><time>2026-04-08T17:09:47Z</time></trkpt><trkpt lat="44.841698387784724" lon="7.957909479063245"><ele>335.5</ele><time>2026-04-08T17:09:48Z</time></trkpt><trkpt lat="44.8417254829568" lon="7.957729834508846"><ele>336.0</ele><time>2026-04-08T17:09:49Z</time></trkpt><trkpt lat="44.8417529713257" lon="7.9575436783105316"><ele>336.5</ele><time>2026-04-08T17:09:50Z</time></trkpt><trkpt lat="44.84177891875333" lon="7.9573679576772385"><ele>337.0</ele><time>2026-04-08T17:09:51Z</time></trkpt><trkpt lat="44.84180444633099" lon="7.957199673268998"><ele>338.6</ele><time>2026-04-08T17:09:52Z</time></trkpt><trkpt lat="44.84182846119869" lon="7.957058446035274"><ele>340.20000000000005</ele><time>2026-04-08T17:09:53Z</time></trkpt><trkpt lat="44.8418558977622" lon="7.956904424421946"><ele>341.8</ele><time>2026-04-08T17:09:54Z</time></trkpt><trkpt lat="44.84186764111587" lon="7.956743838177279"><ele>343.4</ele><time>2026-04-08T17:09:55Z</time></trkpt><trkpt lat="44.84188717022834" lon="7.956619690849393"><ele>345.0</ele><time>2026-04-08T17:09:56Z</time></trkpt><trkpt lat="44.841897852202905" lon="7.9565078799835876"><ele>345.0</ele><time>2026-04-08T17:09:57Z</time></trkpt><trkpt lat="44.8419182415979" lon="7.956380349854161"><ele>345.0</ele><time>2026-04-08T17:09:59Z</time></trkpt><trkpt lat="44.84210163841037" lon="7.956237271059903"><ele>345.0</ele><time>2026-04-08T17:10:04Z</time></trkpt><trkpt lat="44.842214736408046" lon="7.95618669366889"><ele>345.0</ele><time>2026-04-08T17:10:05Z</time></trkpt><trkpt lat="44.842335809150086" lon="7.956123475865614"><ele>345.0</ele><time>2026-04-08T17:10:06Z</time></trkpt><trkpt lat="44.84246523267491" lon="7.956054784890779"><ele>345.0</ele><time>2026-04-08T17:10:07Z</time></trkpt><trkpt lat="44.8425981429188" lon="7.955981675931365"><ele>345.0</ele><time>2026-04-08T17:10:08Z</time></trkpt><trkpt lat="44.8427463268139" lon="7.955905993025438"><ele>345.0</ele><time>2026-04-08T17:10:09Z</time></trkpt><trkpt lat="44.842895970566936" lon="7.955828892779331"><ele>346.25</ele><time>2026-04-08T17:10:10Z</time></trkpt><trkpt lat="44.843051056291515" lon="7.955751541592243"><ele>347.5</ele><time>2026-04-08T17:10:11Z</time></trkpt><trkpt lat="44.843177779963504" lon="7.955687586145287"><ele>348.75</ele><time>2026-04-08T17:10:12Z</time></trkpt><trkpt lat="44.843302311705095" lon="7.955627162501038"><ele>350.0</ele><time>2026-04-08T17:10:13Z</time></trkpt><trkpt lat="44.84341023217675" lon="7.955574720733439"><ele>350.0</ele><time>2026-04-08T17:10:14Z</time></trkpt><trkpt lat="44.8435039342769" lon="7.955529850714142"><ele>350.0</ele><time>2026-04-08T17:10:15Z</time></trkpt><trkpt lat="44.84357085461091" lon="7.955498876576743"><ele>350.0</ele><time>2026-04-08T17:10:16Z</time></trkpt><trkpt lat="44.843655072491025" lon="7.95545308746155"><ele>350.0</ele><time>2026-04-08T17:10:18Z</time></trkpt><trkpt lat="44.84379695245274" lon="7.955383379863383"><ele>350.0</ele><time>2026-04-08T17:10:31Z</time></trkpt><trkpt lat="44.84388042115719" lon="7.955342076247669"><ele>350.0</ele><time>2026-04-08T17:10:32Z</time></trkpt><trkpt lat="44.84398032137172" lon="7.955291845896305"><ele>350.0</ele><time>2026-04-08T17:10:33Z</time></trkpt><trkpt lat="44.84409258984279" lon="7.95523371883378"><ele>350.0</ele><time>2026-04-08T17:10:34Z</time></trkpt><trkpt lat="44.84421948695131" lon="7.955167323003075"><ele>350.0</ele><time>2026-04-08T17:10:35Z</time></trkpt><trkpt lat="44.84435166762312" lon="7.955099216460711"><ele>348.0</ele><time>2026-04-08T17:10:36Z</time></trkpt><trkpt lat="44.84449272604823" lon="7.955028990743056"><ele>346.0</ele><time>2026-04-08T17:10:37Z</time></trkpt><trkpt lat="44.844644729620455" lon="7.954957704173194"><ele>344.0</ele><time>2026-04-08T17:10:38Z</time></trkpt><trkpt lat="44.844803990027046" lon="7.954891498351449"><ele>344.0</ele><time>2026-04-08T17:10:39Z</time></trkpt><trkpt lat="44.844957613061574" lon="7.954835634600272"><ele>344.0</ele><time>2026-04-08T17:10:40Z</time></trkpt><trkpt lat="44.8451193568722" lon="7.954774015232207"><ele>344.0</ele><time>2026-04-08T17:10:41Z</time></trkpt><trkpt lat="44.84527625025702" lon="7.954723506866516"><ele>344.0</ele><time>2026-04-08T17:10:42Z</time></trkpt><trkpt lat="44.84542732426057" lon="7.954679975256926"><ele>344.0</ele><time>2026-04-08T17:10:43Z</time></trkpt><trkpt lat="44.8455790546113" lon="7.954637428023571"><ele>344.0</ele><time>2026-04-08T17:10:44Z</time></trkpt><trkpt lat="44.84572731663506" lon="7.954598039612925"><ele>344.0</ele><time>2026-04-08T17:10:45Z</time></trkpt><trkpt lat="44.845872583173225" lon="7.954566007748944"><ele>344.0</ele><time>2026-04-08T17:10:46Z</time></trkpt><trkpt lat="44.846009139789366" lon="7.95454473957822"><ele>344.0</ele><time>2026-04-08T17:10:47Z</time></trkpt><trkpt lat="44.8461467207939" lon="7.954526891792916"><ele>344.0</ele><time>2026-04-08T17:10:48Z</time></trkpt><trkpt lat="44.84628263575783" lon="7.9545179660271685"><ele>345.25</ele><time>2026-04-08T17:10:49Z</time></trkpt><trkpt lat="44.84641871144972" lon="7.954514086283012"><ele>346.5</ele><time>2026-04-08T17:10:50Z</time></trkpt><trkpt lat="44.84656794839599" lon="7.95449945553691"><ele>347.75</ele><time>2026-04-08T17:10:51Z</time></trkpt><trkpt lat="44.84671645710788" lon="7.954493491316983"><ele>349.0</ele><time>2026-04-08T17:10:52Z</time></trkpt><trkpt lat="44.84686303392713" lon="7.954479473605894"><ele>349.0</ele><time>2026-04-08T17:10:53Z</time></trkpt><trkpt lat="44.84700985706013" lon="7.954466715832556"><ele>349.0</ele><time>2026-04-08T17:10:54Z</time></trkpt><trkpt lat="44.847152676318565" lon="7.954462511533988"><ele>349.0</ele><time>2026-04-08T17:10:55Z</time></trkpt><trkpt lat="44.84729896440068" lon="7.9544605909266615"><ele>349.0</ele><time>2026-04-08T17:10:56Z</time></trkpt><trkpt lat="44.84744706512758" lon="7.954451689831102"><ele>349.0</ele><time>2026-04-08T17:10:57Z</time></trkpt><trkpt lat="44.84759580668167" lon="7.954444134598164"><ele>349.0</ele><time>2026-04-08T17:10:58Z</time></trkpt><trkpt lat="44.847748662836096" lon="7.954438270078135"><ele>349.0</ele><time>2026-04-08T17:10:59Z</time></trkpt><trkpt lat="44.847907882599294" lon="7.954422146533395"><ele>346.0</ele><time>2026-04-08T17:11:00Z</time></trkpt><trkpt lat="44.84806323796501" lon="7.954396220836461"><ele>343.0</ele><time>2026-04-08T17:11:01Z</time></trkpt><trkpt lat="44.848215215128285" lon="7.954369883080142"><ele>340.0</ele><time>2026-04-08T17:11:02Z</time></trkpt><trkpt lat="44.84836768120889" lon="7.954329329378748"><ele>339.66666666666663</ele><time>2026-04-08T17:11:03Z</time></trkpt><trkpt lat="44.84851693919362" lon="7.954288373800656"><ele>339.3333333333333</ele><time>2026-04-08T17:11:04Z</time></trkpt><trkpt lat="44.848666560085476" lon="7.954232575486754"><ele>339.0</ele><time>2026-04-08T17:11:05Z</time></trkpt><trkpt lat="44.84881494557542" lon="7.954173263790094"><ele>339.0</ele><time>2026-04-08T17:11:06Z</time></trkpt><trkpt lat="44.8489629927711" lon="7.95411227795124"><ele>339.0</ele><time>2026-04-08T17:11:07Z</time></trkpt><trkpt lat="44.84910581274697" lon="7.95404510162308"><ele>339.0</ele><time>2026-04-08T17:11:08Z</time></trkpt><trkpt lat="44.84924920836576" lon="7.953972252725701"><ele>338.75</ele><time>2026-04-08T17:11:09Z</time></trkpt><trkpt lat="44.849393637737535" lon="7.953907067530528"><ele>338.5</ele><time>2026-04-08T17:11:10Z</time></trkpt><trkpt lat="44.849536890187345" lon="7.953847288638254"><ele>338.25</ele><time>2026-04-08T17:11:11Z</time></trkpt><trkpt lat="44.849668969779486" lon="7.953808044634826"><ele>338.0</ele><time>2026-04-08T17:11:12Z</time></trkpt><trkpt lat="44.8497962476802" lon="7.953792884993808"><ele>338.0</ele><time>2026-04-08T17:11:13Z</time></trkpt><trkpt lat="44.84992325674219" lon="7.9538044196721405"><ele>338.0</ele><time>2026-04-08T17:11:14Z</time></trkpt><trkpt lat="44.85004715354017" lon="7.95384149029932"><ele>338.0</ele><time>2026-04-08T17:11:15Z</time></trkpt><trkpt lat="44.850173244963045" lon="7.953899860441898"><ele>338.0</ele><time>2026-04-08T17:11:16Z</time></trkpt><trkpt lat="44.85029786918008" lon="7.953970413664432"><ele>338.25</ele><time>2026-04-08T17:11:17Z</time></trkpt><trkpt lat="44.85042770950581" lon="7.95405377379785"><ele>338.5</ele><time>2026-04-08T17:11:18Z</time></trkpt><trkpt lat="44.85056452965511" lon="7.9541392471509695"><ele>338.75</ele><time>2026-04-08T17:11:19Z</time></trkpt><trkpt lat="44.850700242508545" lon="7.9542228039172596"><ele>339.0</ele><time>2026-04-08T17:11:20Z</time></trkpt><trkpt lat="44.85083754652632" lon="7.954305158285502"><ele>338.75</ele><time>2026-04-08T17:11:21Z</time></trkpt><trkpt lat="44.85096769611683" lon="7.954383298504686"><ele>338.5</ele><time>2026-04-08T17:11:22Z</time></trkpt><trkpt lat="44.851088100426004" lon="7.95446101418652"><ele>338.25</ele><time>2026-04-08T17:11:23Z</time></trkpt><trkpt lat="44.85119976581919" lon="7.9545301946991165"><ele>338.0</ele><time>2026-04-08T17:11:24Z</time></trkpt><trkpt lat="44.85130362592357" lon="7.954595448196818"><ele>338.0</ele><time>2026-04-08T17:11:25Z</time></trkpt><trkpt lat="44.85140215113792" lon="7.954660619230697"><ele>338.0</ele><time>2026-04-08T17:11:26Z</time></trkpt><trkpt lat="44.8515032274723" lon="7.954727032810327"><ele>338.0</ele><time>2026-04-08T17:11:27Z</time></trkpt><trkpt lat="44.8516024983814" lon="7.954785737028482"><ele>338.0</ele><time>2026-04-08T17:11:28Z</time></trkpt><trkpt lat="44.85169455419513" lon="7.954841519175331"><ele>338.0</ele><time>2026-04-08T17:11:29Z</time></trkpt><trkpt lat="44.851780907633156" lon="7.95489233961212"><ele>337.59999999999997</ele><time>2026-04-08T17:11:30Z</time></trkpt><trkpt lat="44.851868374451186" lon="7.954943601026817"><ele>337.2</ele><time>2026-04-08T17:11:31Z</time></trkpt><trkpt lat="44.8519584218907" lon="7.954995407313888"><ele>336.8</ele><time>2026-04-08T17:11:32Z</time></trkpt><trkpt lat="44.85205315356318" lon="7.955052051292464"><ele>336.4</ele><time>2026-04-08T17:11:33Z</time></trkpt><trkpt lat="44.85214896826278" lon="7.955117237279278"><ele>336.0</ele><time>2026-04-08T17:11:34Z</time></trkpt><trkpt lat="44.85224773191079" lon="7.955184056589614"><ele>336.0</ele><time>2026-04-08T17:11:35Z</time></trkpt><trkpt lat="44.852355036102544" lon="7.955252200559742"><ele>336.0</ele><time>2026-04-08T17:11:36Z</time></trkpt><trkpt lat="44.85247078725306" lon="7.95531704251925"><ele>336.0</ele><time>2026-04-08T17:11:37Z</time></trkpt><trkpt lat="44.85259475316637" lon="7.955388038688893"><ele>336.0</ele><time>2026-04-08T17:11:38Z</time></trkpt><trkpt lat="44.85271206591596" lon="7.955465032494128"><ele>336.25</ele><time>2026-04-08T17:11:39Z</time></trkpt><trkpt lat="44.852837332435044" lon="7.95555011871881"><ele>336.5</ele><time>2026-04-08T17:11:40Z</time></trkpt><trkpt lat="44.85296773760724" lon="7.955643414039458"><ele>336.75</ele><time>2026-04-08T17:11:41Z</time></trkpt><trkpt lat="44.85309019828582" lon="7.955754886527292"><ele>337.0</ele><time>2026-04-08T17:11:42Z</time></trkpt><trkpt lat="44.85321227971156" lon="7.9558742806260865"><ele>337.3333333333333</ele><time>2026-04-08T17:11:43Z</time></trkpt><trkpt lat="44.85333321857224" lon="7.955994353406226"><ele>337.6666666666667</ele><time>2026-04-08T17:11:44Z</time></trkpt><trkpt lat="44.85345876525545" lon="7.956114737604201"><ele>338.0</ele><time>2026-04-08T17:11:45Z</time></trkpt><trkpt lat="44.85358805023785" lon="7.956235580280177"><ele>338.0</ele><time>2026-04-08T17:11:46Z</time></trkpt><trkpt lat="44.85370319612181" lon="7.956346403926163"><ele>338.0</ele><time>2026-04-08T17:11:47Z</time></trkpt><trkpt lat="44.85381059136416" lon="7.956448073847472"><ele>338.0</ele><time>2026-04-08T17:11:48Z</time></trkpt><trkpt lat="44.85392273852808" lon="7.956545262729038"><ele>338.0</ele><time>2026-04-08T17:11:49Z</time></trkpt><trkpt lat="44.85404276528807" lon="7.95664561355151"><ele>336.75</ele><time>2026-04-08T17:11:50Z</time></trkpt><trkpt lat="44.85416215032505" lon="7.956756814506197"><ele>335.5</ele><time>2026-04-08T17:11:51Z</time></trkpt><trkpt lat="44.85427837712724" lon="7.956868738320838"><ele>334.25</ele><time>2026-04-08T17:11:52Z</time></trkpt><trkpt lat="44.85439885808269" lon="7.956979221510793"><ele>333.0</ele><time>2026-04-08T17:11:53Z</time></trkpt><trkpt lat="44.85452044831965" lon="7.957087156792685"><ele>333.0</ele><time>2026-04-08T17:11:54Z</time></trkpt><trkpt lat="44.854645186324625" lon="7.957192976697091"><ele>333.0</ele><time>2026-04-08T17:11:55Z</time></trkpt><trkpt lat="44.85477545174412" lon="7.95728415662979"><ele>333.0</ele><time>2026-04-08T17:11:56Z</time></trkpt><trkpt lat="44.85488911150002" lon="7.95736175357546"><ele>333.0</ele><time>2026-04-08T17:11:57Z</time></trkpt><trkpt lat="44.85498182528622" lon="7.957456255769029"><ele>331.75</ele><time>2026-04-08T17:11:58Z</time></trkpt><trkpt lat="44.855078069990135" lon="7.957567388697547"><ele>330.5</ele><time>2026-04-08T17:11:59Z</time></trkpt><trkpt lat="44.85517268338646" lon="7.957701536816601"><ele>329.25</ele><time>2026-04-08T17:12:00Z</time></trkpt><trkpt lat="44.85526339594664" lon="7.957852491446081"><ele>328.0</ele><time>2026-04-08T17:12:01Z</time></trkpt><trkpt lat="44.85534616233313" lon="7.9580100678918955"><ele>328.0</ele><time>2026-04-08T17:12:02Z</time></trkpt><trkpt lat="44.85543246885647" lon="7.9581672653428015"><ele>328.0</ele><time>2026-04-08T17:12:03Z</time></trkpt><trkpt lat="44.855536630673576" lon="7.958313632154558"><ele>328.0</ele><time>2026-04-08T17:12:04Z</time></trkpt><trkpt lat="44.85564208949762" lon="7.958462852265573"><ele>328.0</ele><time>2026-04-08T17:12:05Z</time></trkpt><trkpt lat="44.855743219295455" lon="7.958593723341938"><ele>326.66666666666663</ele><time>2026-04-08T17:12:06Z</time></trkpt><trkpt lat="44.85584925702032" lon="7.958723720027665"><ele>325.3333333333333</ele><time>2026-04-08T17:12:07Z</time></trkpt><trkpt lat="44.85596622192486" lon="7.958871250595427"><ele>324.0</ele><time>2026-04-08T17:12:08Z</time></trkpt><trkpt lat="44.85608635549212" lon="7.959021413289367"><ele>323.5</ele><time>2026-04-08T17:12:09Z</time></trkpt><trkpt lat="44.8562050184304" lon="7.959170458228576"><ele>323.0</ele><time>2026-04-08T17:12:10Z</time></trkpt><trkpt lat="44.85631742324849" lon="7.959313353565646"><ele>322.5</ele><time>2026-04-08T17:12:11Z</time></trkpt><trkpt lat="44.85642270606361" lon="7.959436649372589"><ele>322.0</ele><time>2026-04-08T17:12:12Z</time></trkpt><trkpt lat="44.85653308029732" lon="7.959537846480633"><ele>321.75</ele><time>2026-04-08T17:12:13Z</time></trkpt><trkpt lat="44.856655185460305" lon="7.9596165201898605"><ele>321.5</ele><time>2026-04-08T17:12:14Z</time></trkpt><trkpt lat="44.85679299497959" lon="7.959663437512167"><ele>321.25</ele><time>2026-04-08T17:12:15Z</time></trkpt><trkpt lat="44.85691901385341" lon="7.95969286088474"><ele>321.0</ele><time>2026-04-08T17:12:16Z</time></trkpt><trkpt lat="44.85702980096946" lon="7.959713713329157"><ele>321.0</ele><time>2026-04-08T17:12:17Z</time></trkpt><trkpt lat="44.85713591748784" lon="7.9597246516335165"><ele>321.0</ele><time>2026-04-08T17:12:18Z</time></trkpt><trkpt lat="44.85724625817872" lon="7.959755982336739"><ele>321.0</ele><time>2026-04-08T17:12:19Z</time></trkpt><trkpt lat="44.857359801934585" lon="7.95977024948528"><ele>321.0</ele><time>2026-04-08T17:12:20Z</time></trkpt><trkpt lat="44.85748145749807" lon="7.959762544742106"><ele>321.0</ele><time>2026-04-08T17:12:21Z</time></trkpt><trkpt lat="44.85760616225204" lon="7.959791011407417"><ele>321.0</ele><time>2026-04-08T17:12:22Z</time></trkpt><trkpt lat="44.85774813156477" lon="7.959833243706265"><ele>321.0</ele><time>2026-04-08T17:12:23Z</time></trkpt><trkpt lat="44.857880316112414" lon="7.959876486499151"><ele>321.0</ele><time>2026-04-08T17:12:24Z</time></trkpt><trkpt lat="44.85800926671697" lon="7.95993330156226"><ele>321.0</ele><time>2026-04-08T17:12:25Z</time></trkpt><trkpt lat="44.858130593397135" lon="7.959990672622273"><ele>321.0</ele><time>2026-04-08T17:12:26Z</time></trkpt><trkpt lat="44.858236328804075" lon="7.960056674800439"><ele>321.0</ele><time>2026-04-08T17:12:27Z</time></trkpt><trkpt lat="44.858317875542056" lon="7.960100938581725"><ele>321.0</ele><time>2026-04-08T17:12:28Z</time></trkpt><trkpt lat="44.85836725102768" lon="7.960158468049998"><ele>321.0</ele><time>2026-04-08T17:12:29Z</time></trkpt><trkpt lat="44.8583012539996" lon="7.960081031844509"><ele>321.0</ele><time>2026-04-08T17:12:39Z</time></trkpt><trkpt lat="44.858232769788856" lon="7.960040693512689"><ele>321.0</ele><time>2026-04-08T17:12:40Z</time></trkpt><trkpt lat="44.858148862184294" lon="7.959973849138231"><ele>321.0</ele><time>2026-04-08T17:12:41Z</time></trkpt><trkpt lat="44.858049625982076" lon="7.959920696950793"><ele>321.0</ele><time>2026-04-08T17:12:42Z</time></trkpt><trkpt lat="44.85792919654163" lon="7.959874487154965"><ele>321.0</ele><time>2026-04-08T17:12:43Z</time></trkpt><trkpt lat="44.85781496645122" lon="7.959826338870077"><ele>321.0</ele><time>2026-04-08T17:12:44Z</time></trkpt><trkpt lat="44.857693804477464" lon="7.95978384963161"><ele>321.0</ele><time>2026-04-08T17:12:45Z</time></trkpt><trkpt lat="44.85756885273976" lon="7.95975291778468"><ele>321.0</ele><time>2026-04-08T17:12:46Z</time></trkpt><trkpt lat="44.8574344020455" lon="7.959735911084113"><ele>321.0</ele><time>2026-04-08T17:12:47Z</time></trkpt><trkpt lat="44.85728840662888" lon="7.959721666463426"><ele>321.0</ele><time>2026-04-08T17:12:48Z</time></trkpt><trkpt lat="44.85714443269751" lon="7.95970452585801"><ele>321.0</ele><time>2026-04-08T17:12:49Z</time></trkpt><trkpt lat="44.85700706525425" lon="7.95968883525892"><ele>321.0</ele><time>2026-04-08T17:12:50Z</time></trkpt><trkpt lat="44.85686366322249" lon="7.959669606799915"><ele>321.0</ele><time>2026-04-08T17:12:51Z</time></trkpt><trkpt lat="44.85674306770521" lon="7.959630444960431"><ele>320.75</ele><time>2026-04-08T17:12:52Z</time></trkpt><trkpt lat="44.85662319362222" lon="7.959574917200488"><ele>320.5</ele><time>2026-04-08T17:12:53Z</time></trkpt><trkpt lat="44.85649878852401" lon="7.959498276042334"><ele>320.25</ele><time>2026-04-08T17:12:54Z</time></trkpt><trkpt lat="44.85639723317574" lon="7.959361511133365"><ele>320.0</ele><time>2026-04-08T17:12:55Z</time></trkpt><trkpt lat="44.85628138969354" lon="7.959218955067953"><ele>320.6666666666667</ele><time>2026-04-08T17:12:56Z</time></trkpt><trkpt lat="44.85616386494821" lon="7.959065868627774"><ele>321.3333333333333</ele><time>2026-04-08T17:12:57Z</time></trkpt><trkpt lat="44.856047701346355" lon="7.958914925260912"><ele>322.0</ele><time>2026-04-08T17:12:58Z</time></trkpt><trkpt lat="44.855926868083294" lon="7.958760559385201"><ele>322.66666666666663</ele><time>2026-04-08T17:12:59Z</time></trkpt><trkpt lat="44.85580137753527" lon="7.958627040908631"><ele>323.3333333333333</ele><time>2026-04-08T17:13:00Z</time></trkpt><trkpt lat="44.85568528882716" lon="7.958455452125023"><ele>324.0</ele><time>2026-04-08T17:13:01Z</time></trkpt><trkpt lat="44.85557247940512" lon="7.958304620055696"><ele>325.3333333333333</ele><time>2026-04-08T17:13:02Z</time></trkpt><trkpt lat="44.85547402931711" lon="7.958149656612414"><ele>326.66666666666663</ele><time>2026-04-08T17:13:03Z</time></trkpt><trkpt lat="44.8553828420204" lon="7.9579878968495485"><ele>328.0</ele><time>2026-04-08T17:13:04Z</time></trkpt><trkpt lat="44.8552887954528" lon="7.957811966478901"><ele>328.0</ele><time>2026-04-08T17:13:05Z</time></trkpt><trkpt lat="44.85518944610449" lon="7.957648486790333"><ele>328.0</ele><time>2026-04-08T17:13:06Z</time></trkpt><trkpt lat="44.855075361331814" lon="7.9575046434359775"><ele>328.0</ele><time>2026-04-08T17:13:07Z</time></trkpt><trkpt lat="44.854956100356496" lon="7.957372418862895"><ele>329.66666666666663</ele><time>2026-04-08T17:13:08Z</time></trkpt><trkpt lat="44.854830884696156" lon="7.957258004739241"><ele>331.3333333333333</ele><time>2026-04-08T17:13:09Z</time></trkpt><trkpt lat="44.854694810063165" lon="7.957157448687346"><ele>333.0</ele><time>2026-04-08T17:13:10Z</time></trkpt><trkpt lat="44.854541276187334" lon="7.957058230422429"><ele>333.0</ele><time>2026-04-08T17:13:11Z</time></trkpt><trkpt lat="44.85440220445319" lon="7.956942888166894"><ele>333.0</ele><time>2026-04-08T17:13:12Z</time></trkpt><trkpt lat="44.85426568792387" lon="7.956814880684304"><ele>333.0</ele><time>2026-04-08T17:13:13Z</time></trkpt><trkpt lat="44.85413404353949" lon="7.956688878295082"><ele>334.6666666666667</ele><time>2026-04-08T17:13:14Z</time></trkpt><trkpt lat="44.8539942101926" lon="7.956566950405872"><ele>336.33333333333337</ele><time>2026-04-08T17:13:15Z</time></trkpt><trkpt lat="44.85385607894068" lon="7.956441679241021"><ele>338.0</ele><time>2026-04-08T17:13:16Z</time></trkpt><trkpt lat="44.85372102963892" lon="7.956302160167306"><ele>338.0</ele><time>2026-04-08T17:13:17Z</time></trkpt><trkpt lat="44.85358087273638" lon="7.956176359777713"><ele>338.0</ele><time>2026-04-08T17:13:18Z</time></trkpt><trkpt lat="44.85343876690604" lon="7.956046695451395"><ele>338.0</ele><time>2026-04-08T17:13:19Z</time></trkpt><trkpt lat="44.8533166846912" lon="7.95592845866482"><ele>337.75</ele><time>2026-04-08T17:13:20Z</time></trkpt><trkpt lat="44.85319576540225" lon="7.955825571699507"><ele>337.5</ele><time>2026-04-08T17:13:21Z</time></trkpt><trkpt lat="44.853067987077594" lon="7.955707769560768"><ele>337.25</ele><time>2026-04-08T17:13:22Z</time></trkpt><trkpt lat="44.85293707327501" lon="7.955594609885445"><ele>337.0</ele><time>2026-04-08T17:13:23Z</time></trkpt><trkpt lat="44.852797969317095" lon="7.955486702604489"><ele>337.0</ele><time>2026-04-08T17:13:24Z</time></trkpt><trkpt lat="44.852666373234335" lon="7.955401750361096"><ele>337.0</ele><time>2026-04-08T17:13:25Z</time></trkpt><trkpt lat="44.85255078955282" lon="7.955328388880153"><ele>337.0</ele><time>2026-04-08T17:13:26Z</time></trkpt><trkpt lat="44.85246112893916" lon="7.955271954030332"><ele>337.0</ele><time>2026-04-08T17:13:27Z</time></trkpt><trkpt lat="44.852380732783864" lon="7.955217232320546"><ele>336.8333333333333</ele><time>2026-04-08T17:13:28Z</time></trkpt><trkpt lat="44.85230376751546" lon="7.955162001566623"><ele>336.66666666666663</ele><time>2026-04-08T17:13:29Z</time></trkpt><trkpt lat="44.85223291350391" lon="7.9551184611263945"><ele>336.5</ele><time>2026-04-08T17:13:30Z</time></trkpt><trkpt lat="44.852174826495" lon="7.955076979819118"><ele>336.3333333333333</ele><time>2026-04-08T17:13:31Z</time></trkpt><trkpt lat="44.85211763993214" lon="7.955038026629765"><ele>336.1666666666667</ele><time>2026-04-08T17:13:32Z</time></trkpt><trkpt lat="44.85205394507265" lon="7.955005227735952"><ele>336.0</ele><time>2026-04-08T17:13:34Z</time></trkpt><trkpt lat="44.85214353804525" lon="7.955065887976217"><ele>336.0</ele><time>2026-04-08T17:13:40Z</time></trkpt><trkpt lat="44.85221190945242" lon="7.955151221833448"><ele>336.0</ele><time>2026-04-08T17:13:41Z</time></trkpt><trkpt lat="44.85228462416265" lon="7.955198778267148"><ele>336.0</ele><time>2026-04-08T17:13:42Z</time></trkpt><trkpt lat="44.85236932968623" lon="7.955242059231559"><ele>336.0</ele><time>2026-04-08T17:13:43Z</time></trkpt><trkpt lat="44.85245765038046" lon="7.955295962827903"><ele>336.0</ele><time>2026-04-08T17:13:44Z</time></trkpt><trkpt lat="44.85254753478528" lon="7.9553539857327"><ele>336.20000000000005</ele><time>2026-04-08T17:13:45Z</time></trkpt><trkpt lat="44.8526442658273" lon="7.955417870135378"><ele>336.40000000000003</ele><time>2026-04-08T17:13:46Z</time></trkpt><trkpt lat="44.852733406302434" lon="7.955475330952463"><ele>336.6</ele><time>2026-04-08T17:13:47Z</time></trkpt><trkpt lat="44.85282971874468" lon="7.95553770400295"><ele>336.8</ele><time>2026-04-08T17:13:48Z</time></trkpt><trkpt lat="44.85292778706633" lon="7.955607520221263"><ele>337.0</ele><time>2026-04-08T17:13:49Z</time></trkpt><trkpt lat="44.853021197649106" lon="7.955691741528359"><ele>337.0</ele><time>2026-04-08T17:13:50Z</time></trkpt><trkpt lat="44.85310971908759" lon="7.95578113058586"><ele>337.0</ele><time>2026-04-08T17:13:51Z</time></trkpt><trkpt lat="44.8531936742482" lon="7.95586655571639"><ele>337.0</ele><time>2026-04-08T17:13:52Z</time></trkpt><trkpt lat="44.85327525670297" lon="7.955946437050531"><ele>337.0</ele><time>2026-04-08T17:13:53Z</time></trkpt><trkpt lat="44.85335221776904" lon="7.956019829112103"><ele>337.0</ele><time>2026-04-08T17:13:54Z</time></trkpt><trkpt lat="44.85342806482377" lon="7.956080331121685"><ele>337.16666666666663</ele><time>2026-04-08T17:13:55Z</time></trkpt><trkpt lat="44.85348251747926" lon="7.956126299582173"><ele>337.3333333333333</ele><time>2026-04-08T17:13:56Z</time></trkpt><trkpt lat="44.853543440743934" lon="7.956185779965154"><ele>337.5</ele><time>2026-04-08T17:13:57Z</time></trkpt><trkpt lat="44.85361029320078" lon="7.95625089035245"><ele>337.6666666666667</ele><time>2026-04-08T17:13:58Z</time></trkpt><trkpt lat="44.85368985885089" lon="7.956318525482679"><ele>337.83333333333337</ele><time>2026-04-08T17:13:59Z</time></trkpt><trkpt lat="44.85377231916424" lon="7.956394571656562"><ele>338.0</ele><time>2026-04-08T17:14:00Z</time></trkpt><trkpt lat="44.853857401165115" lon="7.956476046628937"><ele>338.0</ele><time>2026-04-08T17:14:01Z</time></trkpt><trkpt lat="44.85394253089792" lon="7.956557525240711"><ele>338.0</ele><time>2026-04-08T17:14:02Z</time></trkpt><trkpt lat="44.85403243849676" lon="7.956634500938201"><ele>338.0</ele><time>2026-04-08T17:14:03Z</time></trkpt><trkpt lat="44.85411627247275" lon="7.956715698780805"><ele>338.0</ele><time>2026-04-08T17:14:04Z</time></trkpt><trkpt lat="44.85419956103363" lon="7.956792924333093"><ele>338.0</ele><time>2026-04-08T17:14:05Z</time></trkpt><trkpt lat="44.85428408041857" lon="7.956874350325993"><ele>336.75</ele><time>2026-04-08T17:14:06Z</time></trkpt><trkpt lat="44.85437183314761" lon="7.956952671881758"><ele>335.5</ele><time>2026-04-08T17:14:07Z</time></trkpt><trkpt lat="44.85446594598177" lon="7.957036156500522"><ele>334.25</ele><time>2026-04-08T17:14:08Z</time></trkpt><trkpt lat="44.85456737108178" lon="7.957130559288462"><ele>333.0</ele><time>2026-04-08T17:14:09Z</time></trkpt><trkpt lat="44.8546672041154" lon="7.957206039415033"><ele>333.0</ele><time>2026-04-08T17:14:10Z</time></trkpt><trkpt lat="44.854771752309944" lon="7.957284176041589"><ele>333.0</ele><time>2026-04-08T17:14:11Z</time></trkpt><trkpt lat="44.85487308411191" lon="7.957359929999081"><ele>333.0</ele><time>2026-04-08T17:14:12Z</time></trkpt><trkpt lat="44.85496296036801" lon="7.95743070469584"><ele>333.0</ele><time>2026-04-08T17:14:13Z</time></trkpt><trkpt lat="44.85504069940898" lon="7.957511724845975"><ele>333.0</ele><time>2026-04-08T17:14:14Z</time></trkpt><trkpt lat="44.855120722943646" lon="7.9576130246420576"><ele>332.0</ele><time>2026-04-08T17:14:15Z</time></trkpt><trkpt lat="44.85520095112761" lon="7.957731559981838"><ele>331.0</ele><time>2026-04-08T17:14:16Z</time></trkpt><trkpt lat="44.85527084073083" lon="7.957858459436965"><ele>330.0</ele><time>2026-04-08T17:14:17Z</time></trkpt><trkpt lat="44.85532916691923" lon="7.957979791051813"><ele>329.0</ele><time>2026-04-08T17:14:18Z</time></trkpt><trkpt lat="44.855389284035674" lon="7.958090860569691"><ele>328.0</ele><time>2026-04-08T17:14:19Z</time></trkpt><trkpt lat="44.85544962790125" lon="7.95819115102822"><ele>328.0</ele><time>2026-04-08T17:14:20Z</time></trkpt><trkpt lat="44.85550788926113" lon="7.95829008456673"><ele>328.0</ele><time>2026-04-08T17:14:21Z</time></trkpt><trkpt lat="44.8555759223384" lon="7.958371363666267"><ele>328.0</ele><time>2026-04-08T17:14:22Z</time></trkpt><trkpt lat="44.85564086239011" lon="7.958457509302995"><ele>328.0</ele><time>2026-04-08T17:14:23Z</time></trkpt><trkpt lat="44.855705201670624" lon="7.958537424419458"><ele>328.0</ele><time>2026-04-08T17:14:24Z</time></trkpt><trkpt lat="44.85576772015081" lon="7.958628028537588"><ele>328.0</ele><time>2026-04-08T17:14:25Z</time></trkpt><trkpt lat="44.85583425432252" lon="7.958710460966191"><ele>327.0</ele><time>2026-04-08T17:14:26Z</time></trkpt><trkpt lat="44.855914517781166" lon="7.958812141780553"><ele>326.0</ele><time>2026-04-08T17:14:27Z</time></trkpt><trkpt lat="44.856006237579045" lon="7.9589237121156335"><ele>325.0</ele><time>2026-04-08T17:14:28Z</time></trkpt><trkpt lat="44.85609592323165" lon="7.959045480557671"><ele>324.0</ele><time>2026-04-08T17:14:29Z</time></trkpt><trkpt lat="44.85619766922883" lon="7.959173877158122"><ele>323.0</ele><time>2026-04-08T17:14:30Z</time></trkpt><trkpt lat="44.85630396780047" lon="7.959310014645036"><ele>322.0</ele><time>2026-04-08T17:14:31Z</time></trkpt><trkpt lat="44.856415166510374" lon="7.9594455294095"><ele>321.0</ele><time>2026-04-08T17:14:32Z</time></trkpt><trkpt lat="44.85651877889308" lon="7.959557730551217"><ele>320.0</ele><time>2026-04-08T17:14:33Z</time></trkpt><trkpt lat="44.856640085630744" lon="7.959629753978642"><ele>320.0</ele><time>2026-04-08T17:14:34Z</time></trkpt><trkpt lat="44.85675675360579" lon="7.959676952550548"><ele>320.0</ele><time>2026-04-08T17:14:35Z</time></trkpt><trkpt lat="44.85688280888069" lon="7.959705429805688"><ele>320.0</ele><time>2026-04-08T17:14:36Z</time></trkpt><trkpt lat="44.85702008902568" lon="7.9597185078885255"><ele>320.0</ele><time>2026-04-08T17:14:37Z</time></trkpt><trkpt lat="44.85716285188724" lon="7.959731511491398"><ele>320.25</ele><time>2026-04-08T17:14:38Z</time></trkpt><trkpt lat="44.857307465363036" lon="7.959743817785413"><ele>320.5</ele><time>2026-04-08T17:14:39Z</time></trkpt><trkpt lat="44.857450456100565" lon="7.959763480966463"><ele>320.75</ele><time>2026-04-08T17:14:40Z</time></trkpt><trkpt lat="44.857601740096946" lon="7.959792216507078"><ele>321.0</ele><time>2026-04-08T17:14:41Z</time></trkpt><trkpt lat="44.85775094851928" lon="7.959827904185009"><ele>321.0</ele><time>2026-04-08T17:14:42Z</time></trkpt><trkpt lat="44.857896536761935" lon="7.95990110136548"><ele>321.0</ele><time>2026-04-08T17:14:43Z</time></trkpt><trkpt lat="44.85804522825198" lon="7.959963936844562"><ele>321.0</ele><time>2026-04-08T17:14:44Z</time></trkpt><trkpt lat="44.85818449532403" lon="7.960011321153733"><ele>320.8</ele><time>2026-04-08T17:14:45Z</time></trkpt><trkpt lat="44.85828777974559" lon="7.960080186644797"><ele>320.6</ele><time>2026-04-08T17:14:46Z</time></trkpt><trkpt lat="44.858381585130616" lon="7.960153120076853"><ele>320.4</ele><time>2026-04-08T17:14:47Z</time></trkpt><trkpt lat="44.85845745857545" lon="7.96024468864979"><ele>320.2</ele><time>2026-04-08T17:14:48Z</time></trkpt><trkpt lat="44.85850918296769" lon="7.960379409361127"><ele>320.0</ele><time>2026-04-08T17:14:49Z</time></trkpt><trkpt lat="44.8585389113429" lon="7.960527435806326"><ele>321.75</ele><time>2026-04-08T17:14:50Z</time></trkpt><trkpt lat="44.85855126355431" lon="7.960699521658014"><ele>323.5</ele><time>2026-04-08T17:14:51Z</time></trkpt><trkpt lat="44.85855349483143" lon="7.960883016075745"><ele>325.25</ele><time>2026-04-08T17:14:52Z</time></trkpt><trkpt lat="44.85855486874083" lon="7.961068726235197"><ele>327.0</ele><time>2026-04-08T17:14:53Z</time></trkpt><trkpt lat="44.85856102603258" lon="7.961254929641325"><ele>327.0</ele><time>2026-04-08T17:14:54Z</time></trkpt><trkpt lat="44.85857208837864" lon="7.961427681322861"><ele>327.0</ele><time>2026-04-08T17:14:55Z</time></trkpt><trkpt lat="44.85859556429842" lon="7.9615655555078435"><ele>327.0</ele><time>2026-04-08T17:14:56Z</time></trkpt><trkpt lat="44.858646799175375" lon="7.961692599129645"><ele>327.0</ele><time>2026-04-08T17:14:57Z</time></trkpt><trkpt lat="44.85872437323048" lon="7.96179303596159"><ele>327.0</ele><time>2026-04-08T17:14:58Z</time></trkpt><trkpt lat="44.85881151704011" lon="7.961869339888059"><ele>324.25</ele><time>2026-04-08T17:14:59Z</time></trkpt><trkpt lat="44.85891036312307" lon="7.961922550163659"><ele>321.5</ele><time>2026-04-08T17:15:00Z</time></trkpt><trkpt lat="44.85901991488414" lon="7.961936119166632"><ele>318.75</ele><time>2026-04-08T17:15:01Z</time></trkpt><trkpt lat="44.859141351703386" lon="7.961927915835175"><ele>316.0</ele><time>2026-04-08T17:15:02Z</time></trkpt><trkpt lat="44.85926068575791" lon="7.961923991638042"><ele>317.25</ele><time>2026-04-08T17:15:03Z</time></trkpt><trkpt lat="44.85938905181562" lon="7.9619312395168365"><ele>318.5</ele><time>2026-04-08T17:15:04Z</time></trkpt><trkpt lat="44.85952088016862" lon="7.961922177749471"><ele>319.75</ele><time>2026-04-08T17:15:05Z</time></trkpt><trkpt lat="44.8596590736433" lon="7.961919220471054"><ele>321.0</ele><time>2026-04-08T17:15:06Z</time></trkpt><trkpt lat="44.859786936474634" lon="7.9619227317533765"><ele>321.0</ele><time>2026-04-08T17:15:07Z</time></trkpt><trkpt lat="44.85992142340028" lon="7.9619145853855935"><ele>321.0</ele><time>2026-04-08T17:15:08Z</time></trkpt><trkpt lat="44.86004401411245" lon="7.961904439263235"><ele>321.0</ele><time>2026-04-08T17:15:09Z</time></trkpt><trkpt lat="44.860164241149185" lon="7.961896673213425"><ele>321.0</ele><time>2026-04-08T17:15:10Z</time></trkpt><trkpt lat="44.86028243746528" lon="7.961887216289424"><ele>319.75</ele><time>2026-04-08T17:15:11Z</time></trkpt><trkpt lat="44.86041240937833" lon="7.9618715162552745"><ele>318.5</ele><time>2026-04-08T17:15:12Z</time></trkpt><trkpt lat="44.86053591410008" lon="7.9618785593407715"><ele>317.25</ele><time>2026-04-08T17:15:13Z</time></trkpt><trkpt lat="44.860667846287285" lon="7.961876244310553"><ele>316.0</ele><time>2026-04-08T17:15:14Z</time></trkpt><trkpt lat="44.86078816346288" lon="7.9618504172143565"><ele>316.0</ele><time>2026-04-08T17:15:15Z</time></trkpt><trkpt lat="44.860909769971656" lon="7.961801860377043"><ele>316.0</ele><time>2026-04-08T17:15:16Z</time></trkpt><trkpt lat="44.86102926011545" lon="7.96174688827619"><ele>316.0</ele><time>2026-04-08T17:15:17Z</time></trkpt><trkpt lat="44.86114275617483" lon="7.961708644565436"><ele>316.0</ele><time>2026-04-08T17:15:18Z</time></trkpt><trkpt lat="44.861259375956855" lon="7.961667689443561"><ele>315.5</ele><time>2026-04-08T17:15:19Z</time></trkpt><trkpt lat="44.8613784040398" lon="7.961631733002648"><ele>315.0</ele><time>2026-04-08T17:15:20Z</time></trkpt><trkpt lat="44.86149821294107" lon="7.961653478132029"><ele>314.5</ele><time>2026-04-08T17:15:21Z</time></trkpt><trkpt lat="44.86162359434696" lon="7.961690796146332"><ele>314.0</ele><time>2026-04-08T17:15:22Z</time></trkpt><trkpt lat="44.86174512730516" lon="7.961731774271619"><ele>314.0</ele><time>2026-04-08T17:15:23Z</time></trkpt><trkpt lat="44.86185445371997" lon="7.961752786065809"><ele>314.0</ele><time>2026-04-08T17:15:24Z</time></trkpt><trkpt lat="44.861961264988416" lon="7.96180409530219"><ele>314.0</ele><time>2026-04-08T17:15:25Z</time></trkpt><trkpt lat="44.86206648217045" lon="7.961839657877117"><ele>314.0</ele><time>2026-04-08T17:15:26Z</time></trkpt><trkpt lat="44.86215617835072" lon="7.961870278101865"><ele>314.0</ele><time>2026-04-08T17:15:27Z</time></trkpt><trkpt lat="44.862241604072814" lon="7.961880957700826"><ele>314.0</ele><time>2026-04-08T17:15:28Z</time></trkpt><trkpt lat="44.86231103708909" lon="7.961907308226308"><ele>314.0</ele><time>2026-04-08T17:15:29Z</time></trkpt><trkpt lat="44.862380508693256" lon="7.961929672075479"><ele>314.0</ele><time>2026-04-08T17:15:31Z</time></trkpt><trkpt lat="44.86245449140088" lon="7.96176654800739"><ele>314.0</ele><time>2026-04-08T17:15:34Z</time></trkpt><trkpt lat="44.86250257813346" lon="7.961659460190893"><ele>314.0</ele><time>2026-04-08T17:15:35Z</time></trkpt><trkpt lat="44.86256864890129" lon="7.961512323017207"><ele>314.1666666666667</ele><time>2026-04-08T17:15:37Z</time></trkpt><trkpt lat="44.86260760310812" lon="7.961424977687125"><ele>314.33333333333337</ele><time>2026-04-08T17:15:38Z</time></trkpt><trkpt lat="44.86265120669294" lon="7.961320930853214"><ele>314.5</ele><time>2026-04-08T17:15:39Z</time></trkpt><trkpt lat="44.86269291111743" lon="7.961221153105981"><ele>314.6666666666667</ele><time>2026-04-08T17:15:40Z</time></trkpt><trkpt lat="44.86274711895527" lon="7.961094956084589"><ele>314.8333333333333</ele><time>2026-04-08T17:15:41Z</time></trkpt><trkpt lat="44.862800816895344" lon="7.960982962225719"><ele>315.0</ele><time>2026-04-08T17:15:42Z</time></trkpt><trkpt lat="44.86285965144587" lon="7.96087551444226"><ele>315.5</ele><time>2026-04-08T17:15:43Z</time></trkpt><trkpt lat="44.86290132719836" lon="7.960746948197709"><ele>316.0</ele><time>2026-04-08T17:15:44Z</time></trkpt><trkpt lat="44.86296257870615" lon="7.960647752176238"><ele>316.5</ele><time>2026-04-08T17:15:45Z</time></trkpt><trkpt lat="44.86300286460142" lon="7.960550791164002"><ele>317.0</ele><time>2026-04-08T17:15:46Z</time></trkpt><trkpt lat="44.86303750885392" lon="7.960459314875821"><ele>317.5</ele><time>2026-04-08T17:15:47Z</time></trkpt><trkpt lat="44.86306656892871" lon="7.960352005008949"><ele>318.0</ele><time>2026-04-08T17:15:48Z</time></trkpt><trkpt lat="44.863119349209285" lon="7.960289767335881"><ele>318.0</ele><time>2026-04-08T17:15:49Z</time></trkpt><trkpt lat="44.863166516712" lon="7.960211778325228"><ele>318.0</ele><time>2026-04-08T17:15:50Z</time></trkpt><trkpt lat="44.863200345178434" lon="7.960123207538677"><ele>318.0</ele><time>2026-04-08T17:15:51Z</time></trkpt><trkpt lat="44.86325437207849" lon="7.960015804794455"><ele>318.0</ele><time>2026-04-08T17:15:53Z</time></trkpt><trkpt lat="44.86315708286425" lon="7.960025515058017"><ele>318.0</ele><time>2026-04-08T17:16:01Z</time></trkpt><trkpt lat="44.86315354653655" lon="7.96021131395689"><ele>318.0</ele><time>2026-04-08T17:16:02Z</time></trkpt><trkpt lat="44.86311333651495" lon="7.960285560949056"><ele>318.0</ele><time>2026-04-08T17:16:03Z</time></trkpt><trkpt lat="44.863047559082474" lon="7.96037367834603"><ele>318.0</ele><time>2026-04-08T17:16:05Z</time></trkpt><trkpt lat="44.862987469248615" lon="7.960473882943615"><ele>318.0</ele><time>2026-04-08T17:16:07Z</time></trkpt><trkpt lat="44.86294052822721" lon="7.960644797953814"><ele>318.0</ele><time>2026-04-08T17:16:09Z</time></trkpt><trkpt lat="44.862904365585415" lon="7.960719043893546"><ele>318.0</ele><time>2026-04-08T17:16:10Z</time></trkpt><trkpt lat="44.862869445952725" lon="7.960798019609528"><ele>317.4</ele><time>2026-04-08T17:16:11Z</time></trkpt><trkpt lat="44.862799091222286" lon="7.960942891025997"><ele>316.8</ele><time>2026-04-08T17:16:13Z</time></trkpt><trkpt lat="44.8627359318489" lon="7.961105909564755"><ele>316.2</ele><time>2026-04-08T17:16:15Z</time></trkpt><trkpt lat="44.862691827112485" lon="7.961190782782073"><ele>315.6</ele><time>2026-04-08T17:16:16Z</time></trkpt><trkpt lat="44.86264961564319" lon="7.961282610431726"><ele>315.0</ele><time>2026-04-08T17:16:17Z</time></trkpt><trkpt lat="44.86260391329555" lon="7.961378569445165"><ele>314.8333333333333</ele><time>2026-04-08T17:16:18Z</time></trkpt><trkpt lat="44.862562719143746" lon="7.9614744300151985"><ele>314.6666666666667</ele><time>2026-04-08T17:16:19Z</time></trkpt><trkpt lat="44.86252965812922" lon="7.961553631825457"><ele>314.5</ele><time>2026-04-08T17:16:20Z</time></trkpt><trkpt lat="44.86245360370432" lon="7.9616948865887816"><ele>314.33333333333337</ele><time>2026-04-08T17:16:22Z</time></trkpt><trkpt lat="44.86242374598662" lon="7.961776208623358"><ele>314.1666666666667</ele><time>2026-04-08T17:16:23Z</time></trkpt><trkpt lat="44.86237407819995" lon="7.961831953796223"><ele>314.0</ele><time>2026-04-08T17:16:25Z</time></trkpt><trkpt lat="44.862511956106395" lon="7.961981058151484"><ele>314.0</ele><time>2026-04-08T17:16:32Z</time></trkpt><trkpt lat="44.86259240684693" lon="7.962006042930506"><ele>314.0</ele><time>2026-04-08T17:16:33Z</time></trkpt><trkpt lat="44.86267416920667" lon="7.962030120192461"><ele>314.0</ele><time>2026-04-08T17:16:34Z</time></trkpt><trkpt lat="44.86275183278227" lon="7.962051455630521"><ele>314.0</ele><time>2026-04-08T17:16:35Z</time></trkpt><trkpt lat="44.8628662829769" lon="7.962082740361109"><ele>314.0</ele><time>2026-04-08T17:16:37Z</time></trkpt><trkpt lat="44.86297806269005" lon="7.962118486161188"><ele>316.0</ele><time>2026-04-08T17:16:39Z</time></trkpt><trkpt lat="44.863144385676286" lon="7.962175079034666"><ele>318.0</ele><time>2026-04-08T17:16:44Z</time></trkpt><trkpt lat="44.86330423905158" lon="7.96190177205711"><ele>320.0</ele><time>2026-04-08T17:16:46Z</time></trkpt><trkpt lat="44.8633700641162" lon="7.961818285652055"><ele>320.0</ele><time>2026-04-08T17:16:47Z</time></trkpt><trkpt lat="44.86343577337632" lon="7.961728981683433"><ele>320.0</ele><time>2026-04-08T17:16:48Z</time></trkpt><trkpt lat="44.86350994470299" lon="7.961643198329659"><ele>320.0</ele><time>2026-04-08T17:16:49Z</time></trkpt><trkpt lat="44.86357914957709" lon="7.961565558061069"><ele>320.0</ele><time>2026-04-08T17:16:50Z</time></trkpt><trkpt lat="44.86363955902643" lon="7.9614909744941365"><ele>320.0</ele><time>2026-04-08T17:16:51Z</time></trkpt><trkpt lat="44.8636958659011" lon="7.9614297335944215"><ele>320.0</ele><time>2026-04-08T17:16:52Z</time></trkpt><trkpt lat="44.86375451491138" lon="7.961377170885596"><ele>319.1666666666667</ele><time>2026-04-08T17:16:53Z</time></trkpt><trkpt lat="44.863814601819364" lon="7.9613205006969405"><ele>318.33333333333337</ele><time>2026-04-08T17:16:54Z</time></trkpt><trkpt lat="44.86387440492922" lon="7.9612560965970465"><ele>317.5</ele><time>2026-04-08T17:16:55Z</time></trkpt><trkpt lat="44.8639269311786" lon="7.961199903935174"><ele>316.6666666666667</ele><time>2026-04-08T17:16:56Z</time></trkpt><trkpt lat="44.86402801665493" lon="7.961150826360102"><ele>315.8333333333333</ele><time>2026-04-08T17:16:58Z</time></trkpt><trkpt lat="44.86410052196501" lon="7.961120027079178"><ele>315.0</ele><time>2026-04-08T17:16:59Z</time></trkpt><trkpt lat="44.86421557230066" lon="7.961073062220165"><ele>315.0</ele><time>2026-04-08T17:17:01Z</time></trkpt><trkpt lat="44.86431198902778" lon="7.960955566014789"><ele>315.0</ele><time>2026-04-08T17:17:03Z</time></trkpt><trkpt lat="44.86436419125431" lon="7.960883591241577"><ele>315.0</ele><time>2026-04-08T17:17:04Z</time></trkpt><trkpt lat="44.864417490636356" lon="7.960817467368055"><ele>315.0</ele><time>2026-04-08T17:17:05Z</time></trkpt><trkpt lat="44.86447715073503" lon="7.960735144524553"><ele>315.0</ele><time>2026-04-08T17:17:06Z</time></trkpt><trkpt lat="44.864549565165305" lon="7.9606333738588715"><ele>313.8333333333333</ele><time>2026-04-08T17:17:07Z</time></trkpt><trkpt lat="44.86462608706141" lon="7.9605360203677975"><ele>312.6666666666667</ele><time>2026-04-08T17:17:08Z</time></trkpt><trkpt lat="44.86468350962995" lon="7.960442389134661"><ele>311.5</ele><time>2026-04-08T17:17:09Z</time></trkpt><trkpt lat="44.86474239929391" lon="7.960370402653055"><ele>310.33333333333337</ele><time>2026-04-08T17:17:10Z</time></trkpt><trkpt lat="44.864791965838926" lon="7.960279597568716"><ele>309.1666666666667</ele><time>2026-04-08T17:17:11Z</time></trkpt><trkpt lat="44.86483379677355" lon="7.96018839946174"><ele>308.0</ele><time>2026-04-08T17:17:12Z</time></trkpt><trkpt lat="44.864870464740726" lon="7.960094301583856"><ele>307.5</ele><time>2026-04-08T17:17:13Z</time></trkpt><trkpt lat="44.864903577564434" lon="7.960011574833067"><ele>307.0</ele><time>2026-04-08T17:17:14Z</time></trkpt><trkpt lat="44.864965330836355" lon="7.959825128696585"><ele>306.5</ele><time>2026-04-08T17:17:16Z</time></trkpt><trkpt lat="44.86499507112085" lon="7.959726830584326"><ele>306.0</ele><time>2026-04-08T17:17:17Z</time></trkpt><trkpt lat="44.86502315175198" lon="7.959622329226365"><ele>305.5</ele><time>2026-04-08T17:17:18Z</time></trkpt><trkpt lat="44.86505271840601" lon="7.959517098424358"><ele>305.0</ele><time>2026-04-08T17:17:19Z</time></trkpt><trkpt lat="44.86508275759393" lon="7.9594257502456305"><ele>305.0</ele><time>2026-04-08T17:17:20Z</time></trkpt><trkpt lat="44.86510099520564" lon="7.9593389476869465"><ele>305.0</ele><time>2026-04-08T17:17:21Z</time></trkpt><trkpt lat="44.86508626673687" lon="7.9592306647758955"><ele>305.0</ele><time>2026-04-08T17:17:23Z</time></trkpt><trkpt lat="44.86500444062472" lon="7.959135339261491"><ele>305.0</ele><time>2026-04-08T17:17:26Z</time></trkpt><trkpt lat="44.864985735548395" lon="7.958968674910068"><ele>305.0</ele><time>2026-04-08T17:17:28Z</time></trkpt><trkpt lat="44.86499712745966" lon="7.958856094122869"><ele>305.0</ele><time>2026-04-08T17:17:29Z</time></trkpt><trkpt lat="44.86501550251963" lon="7.958766713658092"><ele>304.6</ele><time>2026-04-08T17:17:30Z</time></trkpt><trkpt lat="44.86506651341022" lon="7.958626879602001"><ele>304.2</ele><time>2026-04-08T17:17:32Z</time></trkpt><trkpt lat="44.865076248194335" lon="7.9585198957118735"><ele>303.8</ele><time>2026-04-08T17:17:33Z</time></trkpt><trkpt lat="44.86508653875222" lon="7.958402756736814"><ele>303.4</ele><time>2026-04-08T17:17:34Z</time></trkpt><trkpt lat="44.86513638939213" lon="7.9582564303234085"><ele>303.0</ele><time>2026-04-08T17:17:36Z</time></trkpt><trkpt lat="44.86524788589733" lon="7.958201504491084"><ele>302.6666666666667</ele><time>2026-04-08T17:17:38Z</time></trkpt><trkpt lat="44.86531617726649" lon="7.958161461233352"><ele>302.3333333333333</ele><time>2026-04-08T17:17:40Z</time></trkpt><trkpt lat="44.86531010036567" lon="7.958022370123026"><ele>302.0</ele><time>2026-04-08T17:17:46Z</time></trkpt><trkpt lat="44.86532348738007" lon="7.957846563917776"><ele>301.66666666666663</ele><time>2026-04-08T17:17:48Z</time></trkpt><trkpt lat="44.865330208280135" lon="7.957732438397743"><ele>301.3333333333333</ele><time>2026-04-08T17:17:49Z</time></trkpt><trkpt lat="44.865332973549975" lon="7.957636150384467"><ele>301.0</ele><time>2026-04-08T17:17:50Z</time></trkpt><trkpt lat="44.865332278174876" lon="7.95752925197194"><ele>302.0</ele><time>2026-04-08T17:17:51Z</time></trkpt><trkpt lat="44.86533853084046" lon="7.957440517775722"><ele>303.0</ele><time>2026-04-08T17:17:52Z</time></trkpt><trkpt lat="44.8653762411421" lon="7.957295738501509"><ele>304.0</ele><time>2026-04-08T17:17:54Z</time></trkpt><trkpt lat="44.865450660000995" lon="7.957170323418172"><ele>305.0</ele><time>2026-04-08T17:17:56Z</time></trkpt><trkpt lat="44.86549804175551" lon="7.9570925287390235"><ele>306.0</ele><time>2026-04-08T17:17:57Z</time></trkpt><trkpt lat="44.865536150673094" lon="7.957006919621331"><ele>307.0</ele><time>2026-04-08T17:17:58Z</time></trkpt><trkpt lat="44.86555453131406" lon="7.956858819616992"><ele>307.0</ele><time>2026-04-08T17:18:00Z</time></trkpt><trkpt lat="44.8655721624825" lon="7.956736483913398"><ele>307.0</ele><time>2026-04-08T17:18:02Z</time></trkpt><trkpt lat="44.86557426454614" lon="7.956599213514078"><ele>307.0</ele><time>2026-04-08T17:18:04Z</time></trkpt><trkpt lat="44.86556092434318" lon="7.956437827113477"><ele>307.0</ele><time>2026-04-08T17:18:06Z</time></trkpt><trkpt lat="44.86555986427037" lon="7.956339765260845"><ele>307.0</ele><time>2026-04-08T17:18:08Z</time></trkpt><trkpt lat="44.86555434305471" lon="7.956211997561668"><ele>308.5</ele><time>2026-04-08T17:18:10Z</time></trkpt><trkpt lat="44.865540337550364" lon="7.956034433754933"><ele>310.0</ele><time>2026-04-08T17:18:12Z</time></trkpt><trkpt lat="44.86552839141009" lon="7.955936284293421"><ele>311.5</ele><time>2026-04-08T17:18:13Z</time></trkpt><trkpt lat="44.86551916256703" lon="7.955835901075361"><ele>313.0</ele><time>2026-04-08T17:18:14Z</time></trkpt><trkpt lat="44.8655092058187" lon="7.955719315075966"><ele>314.5</ele><time>2026-04-08T17:18:16Z</time></trkpt><trkpt lat="44.86559024131007" lon="7.955646370396277"><ele>316.0</ele><time>2026-04-08T17:18:20Z</time></trkpt><trkpt lat="44.86563985258496" lon="7.955561512522866"><ele>316.2</ele><time>2026-04-08T17:18:21Z</time></trkpt><trkpt lat="44.86570707932996" lon="7.955486277534974"><ele>316.40000000000003</ele><time>2026-04-08T17:18:22Z</time></trkpt><trkpt lat="44.86578292644635" lon="7.955392416697907"><ele>316.6</ele><time>2026-04-08T17:18:23Z</time></trkpt><trkpt lat="44.86586431379244" lon="7.955321727180517"><ele>316.8</ele><time>2026-04-08T17:18:24Z</time></trkpt><trkpt lat="44.86594106326472" lon="7.955227227085334"><ele>317.0</ele><time>2026-04-08T17:18:25Z</time></trkpt><trkpt lat="44.86601732689099" lon="7.955131156220697"><ele>316.6</ele><time>2026-04-08T17:18:26Z</time></trkpt><trkpt lat="44.86609626148374" lon="7.95503172081073"><ele>316.2</ele><time>2026-04-08T17:18:27Z</time></trkpt><trkpt lat="44.8661732408507" lon="7.954934748454925"><ele>315.8</ele><time>2026-04-08T17:18:28Z</time></trkpt><trkpt lat="44.86625289838689" lon="7.9548344023381725"><ele>315.4</ele><time>2026-04-08T17:18:29Z</time></trkpt><trkpt lat="44.86632671769203" lon="7.954741410726957"><ele>315.0</ele><time>2026-04-08T17:18:30Z</time></trkpt><trkpt lat="44.86640342238201" lon="7.954644784385376"><ele>315.0</ele><time>2026-04-08T17:18:31Z</time></trkpt><trkpt lat="44.86648861834386" lon="7.954537461398512"><ele>315.0</ele><time>2026-04-08T17:18:32Z</time></trkpt><trkpt lat="44.8665769907059" lon="7.95442581641463"><ele>315.0</ele><time>2026-04-08T17:18:33Z</time></trkpt><trkpt lat="44.86665485023789" lon="7.954293557580503"><ele>315.0</ele><time>2026-04-08T17:18:34Z</time></trkpt><trkpt lat="44.86676214198477" lon="7.954180648805193"><ele>314.0</ele><time>2026-04-08T17:18:35Z</time></trkpt><trkpt lat="44.866859137439405" lon="7.95403358980735"><ele>313.0</ele><time>2026-04-08T17:18:36Z</time></trkpt><trkpt lat="44.86694997993054" lon="7.953887093636811"><ele>312.0</ele><time>2026-04-08T17:18:37Z</time></trkpt><trkpt lat="44.867039087486106" lon="7.953756457901846"><ele>311.0</ele><time>2026-04-08T17:18:38Z</time></trkpt><trkpt lat="44.86713795038617" lon="7.953645941118414"><ele>311.0</ele><time>2026-04-08T17:18:39Z</time></trkpt><trkpt lat="44.86725642632176" lon="7.953554217833924"><ele>311.0</ele><time>2026-04-08T17:18:40Z</time></trkpt><trkpt lat="44.867383451827465" lon="7.953489341037737"><ele>311.0</ele><time>2026-04-08T17:18:41Z</time></trkpt><trkpt lat="44.86751827577386" lon="7.953437564779931"><ele>311.0</ele><time>2026-04-08T17:18:42Z</time></trkpt><trkpt lat="44.86764027606993" lon="7.953423054744545"><ele>310.25</ele><time>2026-04-08T17:18:43Z</time></trkpt><trkpt lat="44.867749979689194" lon="7.953400399596859"><ele>309.5</ele><time>2026-04-08T17:18:44Z</time></trkpt><trkpt lat="44.86785700244495" lon="7.953412486782688"><ele>308.75</ele><time>2026-04-08T17:18:45Z</time></trkpt><trkpt lat="44.86797172192372" lon="7.95345415452285"><ele>308.0</ele><time>2026-04-08T17:18:46Z</time></trkpt><trkpt lat="44.86808357857551" lon="7.953524676868577"><ele>308.0</ele><time>2026-04-08T17:18:47Z</time></trkpt><trkpt lat="44.86820125533755" lon="7.9536115822957205"><ele>308.0</ele><time>2026-04-08T17:18:48Z</time></trkpt><trkpt lat="44.86832223077322" lon="7.953673029246833"><ele>308.0</ele><time>2026-04-08T17:18:49Z</time></trkpt><trkpt lat="44.868448075485404" lon="7.953714958694619"><ele>308.0</ele><time>2026-04-08T17:18:50Z</time></trkpt><trkpt lat="44.8685768005985" lon="7.953738439322094"><ele>308.5</ele><time>2026-04-08T17:18:51Z</time></trkpt><trkpt lat="44.86869070966934" lon="7.953749198863637"><ele>309.0</ele><time>2026-04-08T17:18:52Z</time></trkpt><trkpt lat="44.86877098140072" lon="7.95376066606676"><ele>309.5</ele><time>2026-04-08T17:18:53Z</time></trkpt><trkpt lat="44.868852644980684" lon="7.953762550902455"><ele>310.0</ele><time>2026-04-08T17:18:55Z</time></trkpt><trkpt lat="44.86891054217021" lon="7.953798378927012"><ele>310.5</ele><time>2026-04-08T17:18:57Z</time></trkpt><trkpt lat="44.86896375054601" lon="7.953725750180688"><ele>311.0</ele><time>2026-04-08T17:18:59Z</time></trkpt><trkpt lat="44.869086587759995" lon="7.95379824121801"><ele>311.0</ele><time>2026-04-08T17:19:03Z</time></trkpt><trkpt lat="44.869163490441906" lon="7.953829279891252"><ele>311.0</ele><time>2026-04-08T17:19:05Z</time></trkpt><trkpt lat="44.8692578025431" lon="7.9541435521242"><ele>311.0</ele><time>2026-04-08T17:19:06Z</time></trkpt><trkpt lat="44.86933738899614" lon="7.95414250317763"><ele>311.0</ele><time>2026-04-08T17:19:08Z</time></trkpt><trkpt lat="44.86941322830886" lon="7.954112569820384"><ele>310.6</ele><time>2026-04-08T17:19:11Z</time></trkpt><trkpt lat="44.86948032405454" lon="7.954201485423458"><ele>310.20000000000005</ele><time>2026-04-08T17:19:14Z</time></trkpt><trkpt lat="44.86954727980374" lon="7.954345717838473"><ele>309.79999999999995</ele><time>2026-04-08T17:19:16Z</time></trkpt><trkpt lat="44.86958608029654" lon="7.954447785969971"><ele>309.4</ele><time>2026-04-08T17:19:17Z</time></trkpt><trkpt lat="44.869626798889776" lon="7.954572267805097"><ele>309.0</ele><time>2026-04-08T17:19:18Z</time></trkpt><trkpt lat="44.86966703701046" lon="7.954685573876507"><ele>307.8333333333333</ele><time>2026-04-08T17:19:19Z</time></trkpt><trkpt lat="44.869702228399944" lon="7.954782891563233"><ele>306.6666666666667</ele><time>2026-04-08T17:19:20Z</time></trkpt><trkpt lat="44.86973020136375" lon="7.954877920952877"><ele>305.5</ele><time>2026-04-08T17:19:21Z</time></trkpt><trkpt lat="44.86975882274624" lon="7.954974659257911"><ele>304.33333333333337</ele><time>2026-04-08T17:19:22Z</time></trkpt><trkpt lat="44.8697806928134" lon="7.955066689487071"><ele>303.1666666666667</ele><time>2026-04-08T17:19:23Z</time></trkpt><trkpt lat="44.86981410614054" lon="7.955229281823984"><ele>302.0</ele><time>2026-04-08T17:19:25Z</time></trkpt><trkpt lat="44.869852022650406" lon="7.9553734344675195"><ele>301.33333333333337</ele><time>2026-04-08T17:19:27Z</time></trkpt><trkpt lat="44.86988451983015" lon="7.955503965126221"><ele>300.6666666666667</ele><time>2026-04-08T17:19:29Z</time></trkpt><trkpt lat="44.869914718148976" lon="7.9556242186339725"><ele>300.0</ele><time>2026-04-08T17:19:31Z</time></trkpt><trkpt lat="44.869976306714385" lon="7.9557658338952715"><ele>299.3333333333333</ele><time>2026-04-08T17:19:33Z</time></trkpt><trkpt lat="44.87001264741411" lon="7.95584763721626"><ele>298.66666666666663</ele><time>2026-04-08T17:19:34Z</time></trkpt><trkpt lat="44.8700350093066" lon="7.955931505950154"><ele>298.0</ele><time>2026-04-08T17:19:35Z</time></trkpt><trkpt lat="44.870047014622294" lon="7.956021917508337"><ele>297.0</ele><time>2026-04-08T17:19:36Z</time></trkpt><trkpt lat="44.87005494935717" lon="7.956117209417623"><ele>296.0</ele><time>2026-04-08T17:19:37Z</time></trkpt><trkpt lat="44.8700680276423" lon="7.956264018990252"><ele>295.0</ele><time>2026-04-08T17:19:39Z</time></trkpt><trkpt lat="44.87013795536239" lon="7.956308445808336"><ele>294.0</ele><time>2026-04-08T17:19:42Z</time></trkpt><trkpt lat="44.870144758038506" lon="7.956445168370494"><ele>293.0</ele><time>2026-04-08T17:19:45Z</time></trkpt><trkpt lat="44.87017848854421" lon="7.956607887255007"><ele>292.6</ele><time>2026-04-08T17:19:48Z</time></trkpt><trkpt lat="44.87017764940594" lon="7.95671912160345"><ele>292.20000000000005</ele><time>2026-04-08T17:19:50Z</time></trkpt><trkpt lat="44.870202096006985" lon="7.956896022830896"><ele>291.8</ele><time>2026-04-08T17:19:52Z</time></trkpt><trkpt lat="44.87021928786551" lon="7.956993859286976"><ele>291.40000000000003</ele><time>2026-04-08T17:19:53Z</time></trkpt><trkpt lat="44.87024664217515" lon="7.95715641487201"><ele>291.0</ele><time>2026-04-08T17:19:55Z</time></trkpt><trkpt lat="44.870242907306285" lon="7.957262293454557"><ele>291.0</ele><time>2026-04-08T17:19:57Z</time></trkpt><trkpt lat="44.870193119883574" lon="7.957332436715863"><ele>291.0</ele><time>2026-04-08T17:19:59Z</time></trkpt><trkpt lat="44.87007557730199" lon="7.957365782524262"><ele>291.0</ele><time>2026-04-08T17:20:01Z</time></trkpt><trkpt lat="44.86998901338735" lon="7.957436071324017"><ele>291.0</ele><time>2026-04-08T17:20:03Z</time></trkpt><trkpt lat="44.86994818448293" lon="7.957551156779604"><ele>291.0</ele><time>2026-04-08T17:20:05Z</time></trkpt><trkpt lat="44.86995517621109" lon="7.957707263183965"><ele>291.8</ele><time>2026-04-08T17:20:07Z</time></trkpt><trkpt lat="44.8699433649397" lon="7.957800705271818"><ele>292.6</ele><time>2026-04-08T17:20:09Z</time></trkpt><trkpt lat="44.86996147757312" lon="7.957901959736164"><ele>293.4</ele><time>2026-04-08T17:20:13Z</time></trkpt><trkpt lat="44.86998805926246" lon="7.958016289303328"><ele>294.2</ele><time>2026-04-08T17:20:15Z</time></trkpt><trkpt lat="44.87004628118682" lon="7.958216832267857"><ele>295.0</ele><time>2026-04-08T17:20:17Z</time></trkpt><trkpt lat="44.870075141288694" lon="7.958313567225839"><ele>296.5</ele><time>2026-04-08T17:20:18Z</time></trkpt><trkpt lat="44.87011195821107" lon="7.958415041952904"><ele>298.0</ele><time>2026-04-08T17:20:19Z</time></trkpt><trkpt lat="44.8701542193609" lon="7.958515448591525"><ele>299.5</ele><time>2026-04-08T17:20:20Z</time></trkpt><trkpt lat="44.870169225663965" lon="7.958607060968366"><ele>301.0</ele><time>2026-04-08T17:20:21Z</time></trkpt><trkpt lat="44.87019069012232" lon="7.958715168028425"><ele>302.5</ele><time>2026-04-08T17:20:22Z</time></trkpt><trkpt lat="44.870207743283096" lon="7.958808589449295"><ele>304.0</ele><time>2026-04-08T17:20:23Z</time></trkpt><trkpt lat="44.870227897357125" lon="7.958987022673522"><ele>304.0</ele><time>2026-04-08T17:20:25Z</time></trkpt><trkpt lat="44.8702168724897" lon="7.959079926446145"><ele>304.0</ele><time>2026-04-08T17:20:26Z</time></trkpt><trkpt lat="44.87018717388571" lon="7.959166290596868"><ele>304.0</ele><time>2026-04-08T17:20:27Z</time></trkpt><trkpt lat="44.87016969415257" lon="7.959271378800406"><ele>304.0</ele><time>2026-04-08T17:20:28Z</time></trkpt><trkpt lat="44.8701108052599" lon="7.959366847786571"><ele>304.0</ele><time>2026-04-08T17:20:29Z</time></trkpt><trkpt lat="44.87002322622637" lon="7.9594629090686615"><ele>304.0</ele><time>2026-04-08T17:20:31Z</time></trkpt><trkpt lat="44.869989173515016" lon="7.959639396948372"><ele>303.5</ele><time>2026-04-08T17:20:33Z</time></trkpt><trkpt lat="44.86998163103145" lon="7.959757485053813"><ele>303.0</ele><time>2026-04-08T17:20:34Z</time></trkpt><trkpt lat="44.8699753894288" lon="7.959857402299573"><ele>302.5</ele><time>2026-04-08T17:20:35Z</time></trkpt><trkpt lat="44.86997920389139" lon="7.959959871966565"><ele>302.0</ele><time>2026-04-08T17:20:36Z</time></trkpt><trkpt lat="44.869976430198285" lon="7.9600742251562755"><ele>301.5</ele><time>2026-04-08T17:20:37Z</time></trkpt><trkpt lat="44.869970881397286" lon="7.9602023056414835"><ele>301.0</ele><time>2026-04-08T17:20:38Z</time></trkpt><trkpt lat="44.86997180267611" lon="7.960335065312411"><ele>301.0</ele><time>2026-04-08T17:20:39Z</time></trkpt><trkpt lat="44.86996961038779" lon="7.9604538648675955"><ele>301.0</ele><time>2026-04-08T17:20:40Z</time></trkpt><trkpt lat="44.86997916163072" lon="7.960561114616948"><ele>301.0</ele><time>2026-04-08T17:20:41Z</time></trkpt><trkpt lat="44.86998735113919" lon="7.9606843416069335"><ele>301.0</ele><time>2026-04-08T17:20:42Z</time></trkpt><trkpt lat="44.86999612928891" lon="7.96080417595771"><ele>301.0</ele><time>2026-04-08T17:20:43Z</time></trkpt><trkpt lat="44.8699952175891" lon="7.960929693060766"><ele>301.0</ele><time>2026-04-08T17:20:44Z</time></trkpt><trkpt lat="44.869995504278634" lon="7.96106096361755"><ele>302.2</ele><time>2026-04-08T17:20:45Z</time></trkpt><trkpt lat="44.86998484601541" lon="7.961181366224234"><ele>303.40000000000003</ele><time>2026-04-08T17:20:46Z</time></trkpt><trkpt lat="44.86996007552324" lon="7.961309062864838"><ele>304.6</ele><time>2026-04-08T17:20:47Z</time></trkpt><trkpt lat="44.86992960512734" lon="7.96143337523842"><ele>305.8</ele><time>2026-04-08T17:20:48Z</time></trkpt><trkpt lat="44.86991294129838" lon="7.961553848381218"><ele>307.0</ele><time>2026-04-08T17:20:49Z</time></trkpt><trkpt lat="44.86990841583356" lon="7.961683802583049"><ele>308.2</ele><time>2026-04-08T17:20:50Z</time></trkpt><trkpt lat="44.86991232870836" lon="7.961807641773974"><ele>309.4</ele><time>2026-04-08T17:20:51Z</time></trkpt><trkpt lat="44.86988780802942" lon="7.961931934322954"><ele>310.6</ele><time>2026-04-08T17:20:52Z</time></trkpt><trkpt lat="44.86988930022548" lon="7.962054903335315"><ele>311.8</ele><time>2026-04-08T17:20:53Z</time></trkpt><trkpt lat="44.86986464270298" lon="7.962195927070149"><ele>313.0</ele><time>2026-04-08T17:20:54Z</time></trkpt><trkpt lat="44.86985496639456" lon="7.962348742771519"><ele>313.0</ele><time>2026-04-08T17:20:55Z</time></trkpt><trkpt lat="44.86985628161332" lon="7.9624715933750645"><ele>313.0</ele><time>2026-04-08T17:20:56Z</time></trkpt><trkpt lat="44.86986528557607" lon="7.962580275115905"><ele>313.0</ele><time>2026-04-08T17:20:57Z</time></trkpt><trkpt lat="44.86984797555432" lon="7.962687043542707"><ele>313.0</ele><time>2026-04-08T17:20:58Z</time></trkpt><trkpt lat="44.869840644555744" lon="7.9628203037128715"><ele>313.0</ele><time>2026-04-08T17:21:00Z</time></trkpt><trkpt lat="44.870053394514706" lon="7.9628661593151"><ele>312.0</ele><time>2026-04-08T17:21:06Z</time></trkpt><trkpt lat="44.87014308826952" lon="7.962855649735194"><ele>311.0</ele><time>2026-04-08T17:21:07Z</time></trkpt><trkpt lat="44.87028302000335" lon="7.96285548412947"><ele>310.0</ele><time>2026-04-08T17:21:08Z</time></trkpt><trkpt lat="44.870411533382374" lon="7.962838282294429"><ele>309.0</ele><time>2026-04-08T17:21:09Z</time></trkpt><trkpt lat="44.870562798951866" lon="7.9627975444464365"><ele>309.0</ele><time>2026-04-08T17:21:10Z</time></trkpt><trkpt lat="44.87070255496398" lon="7.962697825609608"><ele>309.0</ele><time>2026-04-08T17:21:11Z</time></trkpt><trkpt lat="44.87083901418393" lon="7.962583397608178"><ele>309.0</ele><time>2026-04-08T17:21:12Z</time></trkpt><trkpt lat="44.87097030859156" lon="7.962476958256689"><ele>310.0</ele><time>2026-04-08T17:21:13Z</time></trkpt><trkpt lat="44.87110511006351" lon="7.962363535176094"><ele>311.0</ele><time>2026-04-08T17:21:14Z</time></trkpt><trkpt lat="44.871239560162984" lon="7.962260500311691"><ele>312.0</ele><time>2026-04-08T17:21:15Z</time></trkpt><trkpt lat="44.8713762477443" lon="7.962164631730791"><ele>312.0</ele><time>2026-04-08T17:21:16Z</time></trkpt><trkpt lat="44.87150114819676" lon="7.962053135310155"><ele>312.0</ele><time>2026-04-08T17:21:17Z</time></trkpt><trkpt lat="44.87162683337287" lon="7.961964184623193"><ele>312.0</ele><time>2026-04-08T17:21:18Z</time></trkpt><trkpt lat="44.87175436715507" lon="7.961896491213947"><ele>312.0</ele><time>2026-04-08T17:21:19Z</time></trkpt><trkpt lat="44.8718786115314" lon="7.9618082695213275"><ele>312.5</ele><time>2026-04-08T17:21:20Z</time></trkpt><trkpt lat="44.87198149360019" lon="7.961708749541367"><ele>313.0</ele><time>2026-04-08T17:21:21Z</time></trkpt><trkpt lat="44.87208848180001" lon="7.961638009723139"><ele>313.5</ele><time>2026-04-08T17:21:22Z</time></trkpt><trkpt lat="44.872192956236844" lon="7.961568203630708"><ele>314.0</ele><time>2026-04-08T17:21:23Z</time></trkpt><trkpt lat="44.872299205512334" lon="7.961492730665508"><ele>314.0</ele><time>2026-04-08T17:21:24Z</time></trkpt><trkpt lat="44.87240650773825" lon="7.961412261194433"><ele>314.0</ele><time>2026-04-08T17:21:25Z</time></trkpt><trkpt lat="44.87251618935147" lon="7.96132679630822"><ele>314.0</ele><time>2026-04-08T17:21:26Z</time></trkpt><trkpt lat="44.87262994064636" lon="7.961237432629692"><ele>314.0</ele><time>2026-04-08T17:21:27Z</time></trkpt><trkpt lat="44.87274562909268" lon="7.961172052483922"><ele>314.0</ele><time>2026-04-08T17:21:28Z</time></trkpt><trkpt lat="44.872846588098064" lon="7.961068175205934"><ele>314.0</ele><time>2026-04-08T17:21:29Z</time></trkpt><trkpt lat="44.87297087613664" lon="7.961005525525317"><ele>314.0</ele><time>2026-04-08T17:21:30Z</time></trkpt><trkpt lat="44.87309551184393" lon="7.960936080879474"><ele>314.0</ele><time>2026-04-08T17:21:31Z</time></trkpt><trkpt lat="44.87322523578791" lon="7.9608684904559315"><ele>313.5</ele><time>2026-04-08T17:21:32Z</time></trkpt><trkpt lat="44.87335845566589" lon="7.9607996473567475"><ele>313.0</ele><time>2026-04-08T17:21:33Z</time></trkpt><trkpt lat="44.87349089816964" lon="7.960710691322215"><ele>312.5</ele><time>2026-04-08T17:21:34Z</time></trkpt><trkpt lat="44.87363199269538" lon="7.960639612568886"><ele>312.0</ele><time>2026-04-08T17:21:35Z</time></trkpt><trkpt lat="44.87377379355376" lon="7.960594087803709"><ele>310.5</ele><time>2026-04-08T17:21:36Z</time></trkpt><trkpt lat="44.87391591989925" lon="7.960523876289128"><ele>309.0</ele><time>2026-04-08T17:21:37Z</time></trkpt><trkpt lat="44.8740465639446" lon="7.960462244195987"><ele>307.5</ele><time>2026-04-08T17:21:38Z</time></trkpt><trkpt lat="44.874154961537606" lon="7.960418908600202"><ele>306.0</ele><time>2026-04-08T17:21:39Z</time></trkpt><trkpt lat="44.87429238364311" lon="7.9603899768250015"><ele>305.25</ele><time>2026-04-08T17:21:40Z</time></trkpt><trkpt lat="44.87443575620877" lon="7.960398559567165"><ele>304.5</ele><time>2026-04-08T17:21:41Z</time></trkpt><trkpt lat="44.87457282914145" lon="7.960449382489778"><ele>303.75</ele><time>2026-04-08T17:21:42Z</time></trkpt><trkpt lat="44.87470505921258" lon="7.9605272185094185"><ele>303.0</ele><time>2026-04-08T17:21:43Z</time></trkpt><trkpt lat="44.874837524764764" lon="7.960611633922701"><ele>303.0</ele><time>2026-04-08T17:21:44Z</time></trkpt><trkpt lat="44.874977472047085" lon="7.960706192312493"><ele>303.0</ele><time>2026-04-08T17:21:45Z</time></trkpt><trkpt lat="44.875111738307446" lon="7.960773385650395"><ele>303.0</ele><time>2026-04-08T17:21:46Z</time></trkpt><trkpt lat="44.87523178760463" lon="7.960849865660891"><ele>303.0</ele><time>2026-04-08T17:21:47Z</time></trkpt><trkpt lat="44.87533566854309" lon="7.960914802354631"><ele>303.5</ele><time>2026-04-08T17:21:48Z</time></trkpt><trkpt lat="44.875440774295" lon="7.960963718734771"><ele>304.0</ele><time>2026-04-08T17:21:49Z</time></trkpt><trkpt lat="44.87555857289559" lon="7.960982832346353"><ele>304.5</ele><time>2026-04-08T17:21:50Z</time></trkpt><trkpt lat="44.87568763504029" lon="7.960983592004672"><ele>305.0</ele><time>2026-04-08T17:21:51Z</time></trkpt><trkpt lat="44.87582906367188" lon="7.960977425351114"><ele>304.6666666666667</ele><time>2026-04-08T17:21:52Z</time></trkpt><trkpt lat="44.875975739972915" lon="7.960998939131169"><ele>304.3333333333333</ele><time>2026-04-08T17:21:53Z</time></trkpt><trkpt lat="44.87613597096716" lon="7.960982253380112"><ele>304.0</ele><time>2026-04-08T17:21:54Z</time></trkpt><trkpt lat="44.876301996319" lon="7.960982802732063"><ele>304.0</ele><time>2026-04-08T17:21:55Z</time></trkpt><trkpt lat="44.876462079686725" lon="7.960983818473845"><ele>304.0</ele><time>2026-04-08T17:21:56Z</time></trkpt><trkpt lat="44.87661664971046" lon="7.96098207948648"><ele>304.0</ele><time>2026-04-08T17:21:57Z</time></trkpt><trkpt lat="44.876740211220756" lon="7.960970284629139"><ele>304.0</ele><time>2026-04-08T17:21:58Z</time></trkpt><trkpt lat="44.876858786418836" lon="7.960927647987912"><ele>304.0</ele><time>2026-04-08T17:21:59Z</time></trkpt><trkpt lat="44.876969084771474" lon="7.96084430176801"><ele>304.0</ele><time>2026-04-08T17:22:00Z</time></trkpt><trkpt lat="44.87707845431876" lon="7.960714922572272"><ele>304.0</ele><time>2026-04-08T17:22:01Z</time></trkpt><trkpt lat="44.87718848925096" lon="7.960560764014855"><ele>304.0</ele><time>2026-04-08T17:22:02Z</time></trkpt><trkpt lat="44.877302038182165" lon="7.960405428610535"><ele>304.0</ele><time>2026-04-08T17:22:03Z</time></trkpt><trkpt lat="44.87742238912048" lon="7.960249039211549"><ele>304.0</ele><time>2026-04-08T17:22:04Z</time></trkpt><trkpt lat="44.87755151369694" lon="7.960087307739328"><ele>304.0</ele><time>2026-04-08T17:22:05Z</time></trkpt><trkpt lat="44.87767854551858" lon="7.959927477991796"><ele>303.0</ele><time>2026-04-08T17:22:06Z</time></trkpt><trkpt lat="44.8778065044" lon="7.959764811861919"><ele>302.0</ele><time>2026-04-08T17:22:07Z</time></trkpt><trkpt lat="44.87793980050309" lon="7.9595831110221225"><ele>301.0</ele><time>2026-04-08T17:22:08Z</time></trkpt><trkpt lat="44.87809027711563" lon="7.959425125303152"><ele>301.0</ele><time>2026-04-08T17:22:09Z</time></trkpt><trkpt lat="44.87822049867681" lon="7.959261067332992"><ele>301.0</ele><time>2026-04-08T17:22:10Z</time></trkpt><trkpt lat="44.87833551071414" lon="7.959116170801239"><ele>301.0</ele><time>2026-04-08T17:22:11Z</time></trkpt><trkpt lat="44.87843569241034" lon="7.958990382761737"><ele>300.5</ele><time>2026-04-08T17:22:12Z</time></trkpt><trkpt lat="44.878521251219205" lon="7.9588861935146085"><ele>300.0</ele><time>2026-04-08T17:22:13Z</time></trkpt><trkpt lat="44.87858996602858" lon="7.958808456806542"><ele>299.5</ele><time>2026-04-08T17:22:14Z</time></trkpt><trkpt lat="44.87865495163095" lon="7.958739125318859"><ele>299.0</ele><time>2026-04-08T17:22:15Z</time></trkpt><trkpt lat="44.878717026978016" lon="7.9586908031274515"><ele>298.5</ele><time>2026-04-08T17:22:16Z</time></trkpt><trkpt lat="44.87878492195541" lon="7.9586522635512615"><ele>298.0</ele><time>2026-04-08T17:22:17Z</time></trkpt><trkpt lat="44.878873301414934" lon="7.958671042136083"><ele>298.0</ele><time>2026-04-08T17:22:18Z</time></trkpt><trkpt lat="44.878965392091246" lon="7.958733353025449"><ele>298.0</ele><time>2026-04-08T17:22:19Z</time></trkpt><trkpt lat="44.87905452810317" lon="7.9588181181610045"><ele>298.0</ele><time>2026-04-08T17:22:20Z</time></trkpt><trkpt lat="44.87914318727324" lon="7.958912543291472"><ele>298.0</ele><time>2026-04-08T17:22:21Z</time></trkpt><trkpt lat="44.8792442359408" lon="7.959026541730979"><ele>298.0</ele><time>2026-04-08T17:22:22Z</time></trkpt><trkpt lat="44.87935122465643" lon="7.959137236294824"><ele>298.0</ele><time>2026-04-08T17:22:23Z</time></trkpt><trkpt lat="44.87947120850754" lon="7.959249309821378"><ele>298.0</ele><time>2026-04-08T17:22:24Z</time></trkpt><trkpt lat="44.87958003584153" lon="7.9593430831809675"><ele>298.0</ele><time>2026-04-08T17:22:25Z</time></trkpt><trkpt lat="44.87969853866105" lon="7.9594540503706295"><ele>298.0</ele><time>2026-04-08T17:22:26Z</time></trkpt><trkpt lat="44.8798074552933" lon="7.9595568454564125"><ele>298.0</ele><time>2026-04-08T17:22:27Z</time></trkpt><trkpt lat="44.879911934040315" lon="7.959657105527493"><ele>298.0</ele><time>2026-04-08T17:22:28Z</time></trkpt><trkpt lat="44.88002183523093" lon="7.959752738299067"><ele>298.0</ele><time>2026-04-08T17:22:29Z</time></trkpt><trkpt lat="44.8801319558292" lon="7.959838046483918"><ele>296.75</ele><time>2026-04-08T17:22:30Z</time></trkpt><trkpt lat="44.88025875177323" lon="7.959902973995827"><ele>295.5</ele><time>2026-04-08T17:22:31Z</time></trkpt><trkpt lat="44.880398703248424" lon="7.959954145420266"><ele>294.25</ele><time>2026-04-08T17:22:32Z</time></trkpt><trkpt lat="44.88054142011508" lon="7.959995746821222"><ele>293.0</ele><time>2026-04-08T17:22:33Z</time></trkpt><trkpt lat="44.88068487191154" lon="7.960032311218831"><ele>293.0</ele><time>2026-04-08T17:22:34Z</time></trkpt><trkpt lat="44.88083495543155" lon="7.960078659321536"><ele>293.0</ele><time>2026-04-08T17:22:35Z</time></trkpt><trkpt lat="44.8809783474534" lon="7.9601383237633"><ele>293.0</ele><time>2026-04-08T17:22:36Z</time></trkpt><trkpt lat="44.88113396314905" lon="7.96022714806567"><ele>293.0</ele><time>2026-04-08T17:22:37Z</time></trkpt><trkpt lat="44.88125522063764" lon="7.960359582613075"><ele>293.0</ele><time>2026-04-08T17:22:38Z</time></trkpt><trkpt lat="44.88140148289339" lon="7.960476602810131"><ele>293.0</ele><time>2026-04-08T17:22:39Z</time></trkpt><trkpt lat="44.88155470398421" lon="7.960523135602882"><ele>293.0</ele><time>2026-04-08T17:22:40Z</time></trkpt><trkpt lat="44.88170430317817" lon="7.960563247385307"><ele>293.0</ele><time>2026-04-08T17:22:41Z</time></trkpt><trkpt lat="44.88184069954517" lon="7.960591840561944"><ele>293.0</ele><time>2026-04-08T17:22:42Z</time></trkpt><trkpt lat="44.88198085984414" lon="7.960612032883933"><ele>293.0</ele><time>2026-04-08T17:22:43Z</time></trkpt><trkpt lat="44.882127227659154" lon="7.960641088219927"><ele>293.33333333333337</ele><time>2026-04-08T17:22:44Z</time></trkpt><trkpt lat="44.88228341088017" lon="7.960665975743629"><ele>293.6666666666667</ele><time>2026-04-08T17:22:45Z</time></trkpt><trkpt lat="44.882431113971265" lon="7.960691195809985"><ele>294.0</ele><time>2026-04-08T17:22:46Z</time></trkpt><trkpt lat="44.88258203577772" lon="7.9607010941601315"><ele>294.0</ele><time>2026-04-08T17:22:47Z</time></trkpt><trkpt lat="44.88273976831671" lon="7.960735131867974"><ele>294.0</ele><time>2026-04-08T17:22:48Z</time></trkpt><trkpt lat="44.88289650734801" lon="7.960768636567775"><ele>294.0</ele><time>2026-04-08T17:22:49Z</time></trkpt><trkpt lat="44.883050378080476" lon="7.960791374987553"><ele>294.0</ele><time>2026-04-08T17:22:50Z</time></trkpt><trkpt lat="44.883206704346456" lon="7.960805180387925"><ele>294.0</ele><time>2026-04-08T17:22:51Z</time></trkpt><trkpt lat="44.88336274881887" lon="7.960819402657743"><ele>294.0</ele><time>2026-04-08T17:22:52Z</time></trkpt><trkpt lat="44.88352565127429" lon="7.960828095837216"><ele>293.25</ele><time>2026-04-08T17:22:53Z</time></trkpt><trkpt lat="44.88368175920487" lon="7.960834056681984"><ele>292.5</ele><time>2026-04-08T17:22:54Z</time></trkpt><trkpt lat="44.88382983731161" lon="7.960831571719935"><ele>291.75</ele><time>2026-04-08T17:22:55Z</time></trkpt><trkpt lat="44.88396677578806" lon="7.96082859605035"><ele>291.0</ele><time>2026-04-08T17:22:56Z</time></trkpt><trkpt lat="44.88409266001953" lon="7.9608105251999675"><ele>291.0</ele><time>2026-04-08T17:22:57Z</time></trkpt><trkpt lat="44.884208544484906" lon="7.960791427318877"><ele>291.0</ele><time>2026-04-08T17:22:58Z</time></trkpt><trkpt lat="44.88431340368202" lon="7.9607626587127855"><ele>291.0</ele><time>2026-04-08T17:22:59Z</time></trkpt><trkpt lat="44.88441855217906" lon="7.960718224033896"><ele>291.0</ele><time>2026-04-08T17:23:00Z</time></trkpt><trkpt lat="44.88452461306242" lon="7.96066063138196"><ele>291.0</ele><time>2026-04-08T17:23:01Z</time></trkpt><trkpt lat="44.88463416583918" lon="7.960577717930855"><ele>290.6</ele><time>2026-04-08T17:23:02Z</time></trkpt><trkpt lat="44.88473142054213" lon="7.9604779316814165"><ele>290.20000000000005</ele><time>2026-04-08T17:23:03Z</time></trkpt><trkpt lat="44.88480671861842" lon="7.9603836695620975"><ele>289.79999999999995</ele><time>2026-04-08T17:23:04Z</time></trkpt><trkpt lat="44.884878049798054" lon="7.960296193924372"><ele>289.4</ele><time>2026-04-08T17:23:05Z</time></trkpt><trkpt lat="44.88495131935284" lon="7.960205120355973"><ele>289.0</ele><time>2026-04-08T17:23:06Z</time></trkpt><trkpt lat="44.88502858199026" lon="7.96014052174514"><ele>289.0</ele><time>2026-04-08T17:23:07Z</time></trkpt><trkpt lat="44.885119402618656" lon="7.9601119604571275"><ele>289.0</ele><time>2026-04-08T17:23:08Z</time></trkpt><trkpt lat="44.88520724734449" lon="7.960125141155619"><ele>289.0</ele><time>2026-04-08T17:23:09Z</time></trkpt><trkpt lat="44.885296573931164" lon="7.9601694313687075"><ele>289.0</ele><time>2026-04-08T17:23:10Z</time></trkpt><trkpt lat="44.88539727472367" lon="7.960252345653717"><ele>289.0</ele><time>2026-04-08T17:23:11Z</time></trkpt><trkpt lat="44.88549348547403" lon="7.9603590930116805"><ele>289.0</ele><time>2026-04-08T17:23:12Z</time></trkpt><trkpt lat="44.885586363535104" lon="7.960472291838646"><ele>289.0</ele><time>2026-04-08T17:23:13Z</time></trkpt><trkpt lat="44.885679975372" lon="7.96056782020849"><ele>289.0</ele><time>2026-04-08T17:23:14Z</time></trkpt><trkpt lat="44.88578279466156" lon="7.9606646373919725"><ele>289.0</ele><time>2026-04-08T17:23:15Z</time></trkpt><trkpt lat="44.88589522915594" lon="7.96075714678686"><ele>289.0</ele><time>2026-04-08T17:23:16Z</time></trkpt><trkpt lat="44.88601232615841" lon="7.960822370415668"><ele>289.0</ele><time>2026-04-08T17:23:17Z</time></trkpt><trkpt lat="44.88613283067617" lon="7.960872567738197"><ele>289.0</ele><time>2026-04-08T17:23:18Z</time></trkpt><trkpt lat="44.88625013823255" lon="7.9609215484687965"><ele>289.0</ele><time>2026-04-08T17:23:19Z</time></trkpt><trkpt lat="44.88636581478508" lon="7.960965157450684"><ele>287.25</ele><time>2026-04-08T17:23:20Z</time></trkpt><trkpt lat="44.88648943508645" lon="7.961002803393951"><ele>285.5</ele><time>2026-04-08T17:23:21Z</time></trkpt><trkpt lat="44.88661102108555" lon="7.961025633468291"><ele>283.75</ele><time>2026-04-08T17:23:22Z</time></trkpt><trkpt lat="44.88673420793907" lon="7.961045086869498"><ele>282.0</ele><time>2026-04-08T17:23:23Z</time></trkpt><trkpt lat="44.886854179227434" lon="7.961063655061135"><ele>281.75</ele><time>2026-04-08T17:23:24Z</time></trkpt><trkpt lat="44.88697423943236" lon="7.961084816414051"><ele>281.5</ele><time>2026-04-08T17:23:25Z</time></trkpt><trkpt lat="44.88709045156954" lon="7.961107152017968"><ele>281.25</ele><time>2026-04-08T17:23:26Z</time></trkpt><trkpt lat="44.88720130739465" lon="7.961111637089089"><ele>281.0</ele><time>2026-04-08T17:23:27Z</time></trkpt><trkpt lat="44.88731795280029" lon="7.961130464541421"><ele>281.0</ele><time>2026-04-08T17:23:28Z</time></trkpt><trkpt lat="44.88744151824894" lon="7.961148522787956"><ele>281.0</ele><time>2026-04-08T17:23:29Z</time></trkpt><trkpt lat="44.88756765015493" lon="7.9611543508671"><ele>281.0</ele><time>2026-04-08T17:23:30Z</time></trkpt><trkpt lat="44.88769216543825" lon="7.961149491126625"><ele>281.0</ele><time>2026-04-08T17:23:31Z</time></trkpt><trkpt lat="44.88781565886582" lon="7.9611385745700165"><ele>281.25</ele><time>2026-04-08T17:23:32Z</time></trkpt><trkpt lat="44.88793797818007" lon="7.961134249621056"><ele>281.5</ele><time>2026-04-08T17:23:33Z</time></trkpt><trkpt lat="44.88805737209042" lon="7.961122870882014"><ele>281.75</ele><time>2026-04-08T17:23:34Z</time></trkpt><trkpt lat="44.888172577689616" lon="7.9611215621893985"><ele>282.0</ele><time>2026-04-08T17:23:35Z</time></trkpt><trkpt lat="44.88827382955243" lon="7.96112013150144"><ele>282.0</ele><time>2026-04-08T17:23:36Z</time></trkpt><trkpt lat="44.88836873147482" lon="7.961104367481254"><ele>282.0</ele><time>2026-04-08T17:23:37Z</time></trkpt><trkpt lat="44.88843592409681" lon="7.961078135401597"><ele>282.0</ele><time>2026-04-08T17:23:38Z</time></trkpt><trkpt lat="44.888505488240796" lon="7.961040088596636"><ele>282.0</ele><time>2026-04-08T17:23:39Z</time></trkpt><trkpt lat="44.8885621346272" lon="7.960995379394532"><ele>282.0</ele><time>2026-04-08T17:23:40Z</time></trkpt><trkpt lat="44.88861692286949" lon="7.960933398211738"><ele>282.0</ele><time>2026-04-08T17:23:41Z</time></trkpt><trkpt lat="44.888664382862906" lon="7.960863368294838"><ele>282.0</ele><time>2026-04-08T17:23:42Z</time></trkpt><trkpt lat="44.88871297435721" lon="7.960792410977947"><ele>282.4</ele><time>2026-04-08T17:23:43Z</time></trkpt><trkpt lat="44.88878406793417" lon="7.960708707779612"><ele>282.79999999999995</ele><time>2026-04-08T17:23:44Z</time></trkpt><trkpt lat="44.888873045578926" lon="7.960639484139599"><ele>283.2</ele><time>2026-04-08T17:23:45Z</time></trkpt><trkpt lat="44.88898589645827" lon="7.960591102743506"><ele>283.59999999999997</ele><time>2026-04-08T17:23:46Z</time></trkpt><trkpt lat="44.88910756216083" lon="7.960564876992503"><ele>284.0</ele><time>2026-04-08T17:23:47Z</time></trkpt><trkpt lat="44.88923482147985" lon="7.960529166154577"><ele>284.0</ele><time>2026-04-08T17:23:48Z</time></trkpt><trkpt lat="44.88937040237" lon="7.960490692223435"><ele>284.0</ele><time>2026-04-08T17:23:49Z</time></trkpt><trkpt lat="44.88951551418771" lon="7.9604543670736545"><ele>284.0</ele><time>2026-04-08T17:23:50Z</time></trkpt><trkpt lat="44.8896552113745" lon="7.960413806427963"><ele>284.0</ele><time>2026-04-08T17:23:51Z</time></trkpt><trkpt lat="44.88980457158596" lon="7.960361392399129"><ele>284.0</ele><time>2026-04-08T17:23:52Z</time></trkpt><trkpt lat="44.889954071495765" lon="7.960294009780011"><ele>284.0</ele><time>2026-04-08T17:23:53Z</time></trkpt><trkpt lat="44.890094575270886" lon="7.960226921298586"><ele>284.0</ele><time>2026-04-08T17:23:54Z</time></trkpt><trkpt lat="44.89022881735803" lon="7.960150041007382"><ele>283.6666666666667</ele><time>2026-04-08T17:23:55Z</time></trkpt><trkpt lat="44.89037238216173" lon="7.960070419060615"><ele>283.3333333333333</ele><time>2026-04-08T17:23:56Z</time></trkpt><trkpt lat="44.890518786242495" lon="7.959993622917624"><ele>283.0</ele><time>2026-04-08T17:23:57Z</time></trkpt><trkpt lat="44.89066799543714" lon="7.9599144532484525"><ele>283.0</ele><time>2026-04-08T17:23:58Z</time></trkpt><trkpt lat="44.8908217216129" lon="7.959834472394225"><ele>283.0</ele><time>2026-04-08T17:23:59Z</time></trkpt><trkpt lat="44.890972804617626" lon="7.959748073063182"><ele>283.0</ele><time>2026-04-08T17:24:00Z</time></trkpt><trkpt lat="44.89112552076866" lon="7.95966284524022"><ele>283.0</ele><time>2026-04-08T17:24:01Z</time></trkpt><trkpt lat="44.891276971163215" lon="7.959577415851074"><ele>283.0</ele><time>2026-04-08T17:24:02Z</time></trkpt><trkpt lat="44.89143006194089" lon="7.959490986232677"><ele>283.0</ele><time>2026-04-08T17:24:03Z</time></trkpt><trkpt lat="44.89158439103794" lon="7.959397413033915"><ele>283.0</ele><time>2026-04-08T17:24:04Z</time></trkpt><trkpt lat="44.89173113201153" lon="7.959311034776703"><ele>283.0</ele><time>2026-04-08T17:24:05Z</time></trkpt><trkpt lat="44.89188225389697" lon="7.95922221832225"><ele>283.0</ele><time>2026-04-08T17:24:06Z</time></trkpt><trkpt lat="44.89203409348756" lon="7.9591289080397445"><ele>282.3333333333333</ele><time>2026-04-08T17:24:07Z</time></trkpt><trkpt lat="44.8921640862766" lon="7.959035055537014"><ele>281.6666666666667</ele><time>2026-04-08T17:24:08Z</time></trkpt><trkpt lat="44.89232143680852" lon="7.958958272607913"><ele>281.0</ele><time>2026-04-08T17:24:09Z</time></trkpt><trkpt lat="44.892468904623584" lon="7.958861162374512"><ele>280.0</ele><time>2026-04-08T17:24:10Z</time></trkpt><trkpt lat="44.89261767396353" lon="7.958761401062152"><ele>279.0</ele><time>2026-04-08T17:24:11Z</time></trkpt><trkpt lat="44.892756457146284" lon="7.958634946874757"><ele>278.0</ele><time>2026-04-08T17:24:12Z</time></trkpt><trkpt lat="44.89290386499009" lon="7.958534704728028"><ele>278.0</ele><time>2026-04-08T17:24:13Z</time></trkpt><trkpt lat="44.89304923737399" lon="7.958430125940791"><ele>278.0</ele><time>2026-04-08T17:24:14Z</time></trkpt><trkpt lat="44.89319139799489" lon="7.958325582278872"><ele>278.0</ele><time>2026-04-08T17:24:15Z</time></trkpt><trkpt lat="44.89333795006881" lon="7.9582250678171995"><ele>279.0</ele><time>2026-04-08T17:24:16Z</time></trkpt><trkpt lat="44.89348087196405" lon="7.958123316725504"><ele>280.0</ele><time>2026-04-08T17:24:17Z</time></trkpt><trkpt lat="44.89362776296846" lon="7.958015000147866"><ele>281.0</ele><time>2026-04-08T17:24:18Z</time></trkpt><trkpt lat="44.89378003873305" lon="7.95791526830498"><ele>281.0</ele><time>2026-04-08T17:24:19Z</time></trkpt><trkpt lat="44.89392858868097" lon="7.957826819181972"><ele>281.0</ele><time>2026-04-08T17:24:20Z</time></trkpt><trkpt lat="44.89407256295847" lon="7.9577108853680185"><ele>281.0</ele><time>2026-04-08T17:24:21Z</time></trkpt><trkpt lat="44.89422091660684" lon="7.957607847711057"><ele>280.5</ele><time>2026-04-08T17:24:22Z</time></trkpt><trkpt lat="44.89436360528763" lon="7.957513969736358"><ele>280.0</ele><time>2026-04-08T17:24:23Z</time></trkpt><trkpt lat="44.894496224841255" lon="7.957417662111188"><ele>279.5</ele><time>2026-04-08T17:24:24Z</time></trkpt><trkpt lat="44.89462225584411" lon="7.957331626901312"><ele>279.0</ele><time>2026-04-08T17:24:25Z</time></trkpt><trkpt lat="44.894730896970344" lon="7.957258727883084"><ele>279.0</ele><time>2026-04-08T17:24:26Z</time></trkpt><trkpt lat="44.89481518327231" lon="7.957205346398188"><ele>279.0</ele><time>2026-04-08T17:24:27Z</time></trkpt><trkpt lat="44.89488089989492" lon="7.95716622153962"><ele>279.0</ele><time>2026-04-08T17:24:28Z</time></trkpt><trkpt lat="44.89497089055284" lon="7.957133397452871"><ele>279.0</ele><time>2026-04-08T17:24:30Z</time></trkpt><trkpt lat="44.89503616013467" lon="7.957123263820388"><ele>279.0</ele><time>2026-04-08T17:24:41Z</time></trkpt><trkpt lat="44.89505516186785" lon="7.956943937395041"><ele>279.0</ele><time>2026-04-08T17:24:49Z</time></trkpt><trkpt lat="44.89482484655836" lon="7.957158721808819"><ele>279.0</ele><time>2026-04-08T17:24:50Z</time></trkpt><trkpt lat="44.89473489944698" lon="7.957225722630892"><ele>279.0</ele><time>2026-04-08T17:24:51Z</time></trkpt><trkpt lat="44.894635026524654" lon="7.957282138090796"><ele>279.0</ele><time>2026-04-08T17:24:52Z</time></trkpt><trkpt lat="44.89451766955361" lon="7.95735772849155"><ele>279.0</ele><time>2026-04-08T17:24:53Z</time></trkpt><trkpt lat="44.89440326028674" lon="7.957437600520008"><ele>279.0</ele><time>2026-04-08T17:24:54Z</time></trkpt><trkpt lat="44.894279643290524" lon="7.957522174690556"><ele>279.0</ele><time>2026-04-08T17:24:55Z</time></trkpt><trkpt lat="44.89414456540988" lon="7.957615305335041"><ele>279.6666666666667</ele><time>2026-04-08T17:24:56Z</time></trkpt><trkpt lat="44.89399183797911" lon="7.957718113843405"><ele>280.33333333333337</ele><time>2026-04-08T17:24:57Z</time></trkpt><trkpt lat="44.893851719305445" lon="7.957815435720342"><ele>281.0</ele><time>2026-04-08T17:24:58Z</time></trkpt><trkpt lat="44.893707306590834" lon="7.957916611600906"><ele>281.0</ele><time>2026-04-08T17:24:59Z</time></trkpt><trkpt lat="44.8935751023066" lon="7.958011996145314"><ele>281.0</ele><time>2026-04-08T17:25:00Z</time></trkpt><trkpt lat="44.89345786314812" lon="7.958096041608336"><ele>281.0</ele><time>2026-04-08T17:25:01Z</time></trkpt><trkpt lat="44.893338969083594" lon="7.958178558718861"><ele>281.0</ele><time>2026-04-08T17:25:02Z</time></trkpt><trkpt lat="44.89321115588594" lon="7.958267740575054"><ele>280.6666666666667</ele><time>2026-04-08T17:25:03Z</time></trkpt><trkpt lat="44.893078266963556" lon="7.958366832304597"><ele>280.3333333333333</ele><time>2026-04-08T17:25:04Z</time></trkpt><trkpt lat="44.892937240070104" lon="7.958467102643403"><ele>280.0</ele><time>2026-04-08T17:25:05Z</time></trkpt><trkpt lat="44.89279781659383" lon="7.958566680840827"><ele>280.25</ele><time>2026-04-08T17:25:06Z</time></trkpt><trkpt lat="44.89266622428309" lon="7.958660160112504"><ele>280.5</ele><time>2026-04-08T17:25:07Z</time></trkpt><trkpt lat="44.892530904310135" lon="7.9587549126703"><ele>280.75</ele><time>2026-04-08T17:25:08Z</time></trkpt><trkpt lat="44.892397829414236" lon="7.95884340646483"><ele>281.0</ele><time>2026-04-08T17:25:09Z</time></trkpt><trkpt lat="44.892259075089974" lon="7.958933955868255"><ele>281.0</ele><time>2026-04-08T17:25:10Z</time></trkpt><trkpt lat="44.89212257764971" lon="7.959026089028528"><ele>281.0</ele><time>2026-04-08T17:25:11Z</time></trkpt><trkpt lat="44.891983568333686" lon="7.959107452771253"><ele>281.0</ele><time>2026-04-08T17:25:12Z</time></trkpt><trkpt lat="44.89184411552044" lon="7.959187941282865"><ele>281.6666666666667</ele><time>2026-04-08T17:25:13Z</time></trkpt><trkpt lat="44.89170462123123" lon="7.959269864255705"><ele>282.3333333333333</ele><time>2026-04-08T17:25:14Z</time></trkpt><trkpt lat="44.89156310196095" lon="7.959352889903175"><ele>283.0</ele><time>2026-04-08T17:25:15Z</time></trkpt><trkpt lat="44.89142513781999" lon="7.959429228893214"><ele>283.0</ele><time>2026-04-08T17:25:16Z</time></trkpt><trkpt lat="44.89128426541132" lon="7.959509299429535"><ele>283.0</ele><time>2026-04-08T17:25:17Z</time></trkpt><trkpt lat="44.89114611347805" lon="7.959582433473875"><ele>283.0</ele><time>2026-04-08T17:25:18Z</time></trkpt><trkpt lat="44.891012173285965" lon="7.959654185555536"><ele>283.0</ele><time>2026-04-08T17:25:19Z</time></trkpt><trkpt lat="44.89088144970431" lon="7.959725456306145"><ele>283.5</ele><time>2026-04-08T17:25:20Z</time></trkpt><trkpt lat="44.89075331571009" lon="7.959795681711604"><ele>284.0</ele><time>2026-04-08T17:25:21Z</time></trkpt><trkpt lat="44.89062633980624" lon="7.9598577304999205"><ele>284.5</ele><time>2026-04-08T17:25:22Z</time></trkpt><trkpt lat="44.89050348720072" lon="7.959930732178906"><ele>285.0</ele><time>2026-04-08T17:25:23Z</time></trkpt><trkpt lat="44.890379910736975" lon="7.959997469470856"><ele>284.75</ele><time>2026-04-08T17:25:24Z</time></trkpt><trkpt lat="44.89025413282933" lon="7.960067056756755"><ele>284.5</ele><time>2026-04-08T17:25:25Z</time></trkpt><trkpt lat="44.89012483996684" lon="7.960137636547546"><ele>284.25</ele><time>2026-04-08T17:25:26Z</time></trkpt><trkpt lat="44.889998022902354" lon="7.960199379308714"><ele>284.0</ele><time>2026-04-08T17:25:27Z</time></trkpt><trkpt lat="44.88987802644239" lon="7.9602596571314415"><ele>284.0</ele><time>2026-04-08T17:25:28Z</time></trkpt><trkpt lat="44.88976060247139" lon="7.960308705433818"><ele>284.0</ele><time>2026-04-08T17:25:29Z</time></trkpt><trkpt lat="44.88963817528552" lon="7.960344138764584"><ele>284.0</ele><time>2026-04-08T17:25:30Z</time></trkpt><trkpt lat="44.88951304569718" lon="7.960379015287991"><ele>284.0</ele><time>2026-04-08T17:25:31Z</time></trkpt><trkpt lat="44.8893845818733" lon="7.960411918186716"><ele>284.0</ele><time>2026-04-08T17:25:32Z</time></trkpt><trkpt lat="44.88925255001567" lon="7.960449342253344"><ele>284.0</ele><time>2026-04-08T17:25:33Z</time></trkpt><trkpt lat="44.88912192105442" lon="7.960487503777129"><ele>284.0</ele><time>2026-04-08T17:25:34Z</time></trkpt><trkpt lat="44.88899644873291" lon="7.960531217835924"><ele>284.0</ele><time>2026-04-08T17:25:35Z</time></trkpt><trkpt lat="44.88888674613008" lon="7.9605739759940555"><ele>284.0</ele><time>2026-04-08T17:25:36Z</time></trkpt><trkpt lat="44.88878760430656" lon="7.960627285978512"><ele>284.0</ele><time>2026-04-08T17:25:37Z</time></trkpt><trkpt lat="44.888703416177854" lon="7.960703586828171"><ele>284.0</ele><time>2026-04-08T17:25:38Z</time></trkpt><trkpt lat="44.88863845685178" lon="7.960786242952691"><ele>284.0</ele><time>2026-04-08T17:25:39Z</time></trkpt><trkpt lat="44.88858983448343" lon="7.960860314982743"><ele>284.0</ele><time>2026-04-08T17:25:40Z</time></trkpt><trkpt lat="44.88851153782694" lon="7.960963443059487"><ele>283.6666666666667</ele><time>2026-04-08T17:25:42Z</time></trkpt><trkpt lat="44.88843273561752" lon="7.961009405526164"><ele>283.33333333333337</ele><time>2026-04-08T17:25:44Z</time></trkpt><trkpt lat="44.888329570516085" lon="7.961050276391941"><ele>283.0</ele><time>2026-04-08T17:25:46Z</time></trkpt><trkpt lat="44.88825945026909" lon="7.961063309261477"><ele>282.6666666666667</ele><time>2026-04-08T17:25:47Z</time></trkpt><trkpt lat="44.88818930843646" lon="7.961078703843285"><ele>282.3333333333333</ele><time>2026-04-08T17:25:48Z</time></trkpt><trkpt lat="44.88809628407262" lon="7.961092444752005"><ele>282.0</ele><time>2026-04-08T17:25:49Z</time></trkpt><trkpt lat="44.88800149006686" lon="7.961096888200743"><ele>282.0</ele><time>2026-04-08T17:25:50Z</time></trkpt><trkpt lat="44.88790804574276" lon="7.961109910625428"><ele>282.0</ele><time>2026-04-08T17:25:51Z</time></trkpt><trkpt lat="44.88780977029462" lon="7.961115070512067"><ele>282.0</ele><time>2026-04-08T17:25:52Z</time></trkpt><trkpt lat="44.887704032046045" lon="7.961115463619058"><ele>282.0</ele><time>2026-04-08T17:25:53Z</time></trkpt><trkpt lat="44.88760161095347" lon="7.961116188655924"><ele>282.0</ele><time>2026-04-08T17:25:54Z</time></trkpt><trkpt lat="44.88749651320113" lon="7.961122117094142"><ele>281.8</ele><time>2026-04-08T17:25:55Z</time></trkpt><trkpt lat="44.887415872927896" lon="7.961099476365583"><ele>281.6</ele><time>2026-04-08T17:25:56Z</time></trkpt><trkpt lat="44.887320454910295" lon="7.961099606573761"><ele>281.40000000000003</ele><time>2026-04-08T17:25:57Z</time></trkpt><trkpt lat="44.88723032390929" lon="7.961086925885495"><ele>281.2</ele><time>2026-04-08T17:25:58Z</time></trkpt><trkpt lat="44.88713876514235" lon="7.961076224027591"><ele>281.0</ele><time>2026-04-08T17:25:59Z</time></trkpt><trkpt lat="44.88704512659156" lon="7.961066460196779"><ele>281.0</ele><time>2026-04-08T17:26:00Z</time></trkpt><trkpt lat="44.886951278442794" lon="7.961052869671872"><ele>281.0</ele><time>2026-04-08T17:26:01Z</time></trkpt><trkpt lat="44.88685293317624" lon="7.961034734702729"><ele>281.0</ele><time>2026-04-08T17:26:02Z</time></trkpt><trkpt lat="44.88675543035867" lon="7.961027937307188"><ele>281.0</ele><time>2026-04-08T17:26:03Z</time></trkpt><trkpt lat="44.88665383257894" lon="7.9610069040144715"><ele>281.0</ele><time>2026-04-08T17:26:04Z</time></trkpt><trkpt lat="44.88655499461473" lon="7.960985753488146"><ele>281.2</ele><time>2026-04-08T17:26:05Z</time></trkpt><trkpt lat="44.88646145645001" lon="7.9609640573801554"><ele>281.40000000000003</ele><time>2026-04-08T17:26:06Z</time></trkpt><trkpt lat="44.886368366058164" lon="7.960936282502482"><ele>281.6</ele><time>2026-04-08T17:26:07Z</time></trkpt><trkpt lat="44.88626694406954" lon="7.96087924642658"><ele>281.8</ele><time>2026-04-08T17:26:08Z</time></trkpt><trkpt lat="44.88616574458906" lon="7.960856700250333"><ele>282.0</ele><time>2026-04-08T17:26:09Z</time></trkpt><trkpt lat="44.88605934979116" lon="7.960801347954958"><ele>283.4</ele><time>2026-04-08T17:26:10Z</time></trkpt><trkpt lat="44.88595975545201" lon="7.960750357187684"><ele>284.79999999999995</ele><time>2026-04-08T17:26:11Z</time></trkpt><trkpt lat="44.885856921298064" lon="7.960683721351419"><ele>286.2</ele><time>2026-04-08T17:26:12Z</time></trkpt><trkpt lat="44.8857601251674" lon="7.960589456824594"><ele>287.59999999999997</ele><time>2026-04-08T17:26:13Z</time></trkpt><trkpt lat="44.88567108021016" lon="7.960497146129987"><ele>289.0</ele><time>2026-04-08T17:26:14Z</time></trkpt><trkpt lat="44.885588611303625" lon="7.960408342250974"><ele>289.0</ele><time>2026-04-08T17:26:15Z</time></trkpt><trkpt lat="44.885500741814354" lon="7.960341380104948"><ele>289.0</ele><time>2026-04-08T17:26:16Z</time></trkpt><trkpt lat="44.88543469524861" lon="7.960263808053949"><ele>289.0</ele><time>2026-04-08T17:26:17Z</time></trkpt><trkpt lat="44.885363024104954" lon="7.9601989545568985"><ele>289.0</ele><time>2026-04-08T17:26:18Z</time></trkpt><trkpt lat="44.88527288204729" lon="7.960144587026811"><ele>289.0</ele><time>2026-04-08T17:26:19Z</time></trkpt><trkpt lat="44.885172871924865" lon="7.9600945105800935"><ele>289.0</ele><time>2026-04-08T17:26:20Z</time></trkpt><trkpt lat="44.88508524919023" lon="7.960082289233323"><ele>289.0</ele><time>2026-04-08T17:26:21Z</time></trkpt><trkpt lat="44.884988811358426" lon="7.960108990573157"><ele>289.0</ele><time>2026-04-08T17:26:22Z</time></trkpt><trkpt lat="44.88489677561096" lon="7.960172887106516"><ele>289.0</ele><time>2026-04-08T17:26:23Z</time></trkpt><trkpt lat="44.88482196192029" lon="7.9602794443566465"><ele>289.0</ele><time>2026-04-08T17:26:24Z</time></trkpt><trkpt lat="44.88475549813154" lon="7.960394904580189"><ele>289.0</ele><time>2026-04-08T17:26:25Z</time></trkpt><trkpt lat="44.88467192233933" lon="7.960486699615343"><ele>289.0</ele><time>2026-04-08T17:26:26Z</time></trkpt><trkpt lat="44.88458727180023" lon="7.96056936009401"><ele>289.0</ele><time>2026-04-08T17:26:27Z</time></trkpt><trkpt lat="44.8845026991426" lon="7.960626706505638"><ele>289.0</ele><time>2026-04-08T17:26:28Z</time></trkpt><trkpt lat="44.88441147783171" lon="7.9606825462915225"><ele>289.0</ele><time>2026-04-08T17:26:29Z</time></trkpt><trkpt lat="44.884319724181914" lon="7.960721138832477"><ele>289.3333333333333</ele><time>2026-04-08T17:26:30Z</time></trkpt><trkpt lat="44.88423349060815" lon="7.960741779976833"><ele>289.66666666666663</ele><time>2026-04-08T17:26:31Z</time></trkpt><trkpt lat="44.88415534955649" lon="7.960755515421303"><ele>290.0</ele><time>2026-04-08T17:26:32Z</time></trkpt><trkpt lat="44.884070919870084" lon="7.960770239239461"><ele>290.3333333333333</ele><time>2026-04-08T17:26:33Z</time></trkpt><trkpt lat="44.88397728299065" lon="7.960764801184515"><ele>290.6666666666667</ele><time>2026-04-08T17:26:34Z</time></trkpt><trkpt lat="44.88388420311122" lon="7.960780788189279"><ele>291.0</ele><time>2026-04-08T17:26:35Z</time></trkpt><trkpt lat="44.88378198314217" lon="7.960784935342446"><ele>291.0</ele><time>2026-04-08T17:26:36Z</time></trkpt><trkpt lat="44.88367541889198" lon="7.960790069098783"><ele>291.0</ele><time>2026-04-08T17:26:37Z</time></trkpt><trkpt lat="44.88358052493368" lon="7.960786613052468"><ele>291.0</ele><time>2026-04-08T17:26:38Z</time></trkpt><trkpt lat="44.883498316416755" lon="7.960780357094668"><ele>291.0</ele><time>2026-04-08T17:26:39Z</time></trkpt><trkpt lat="44.88341121638633" lon="7.9607759336837844"><ele>291.0</ele><time>2026-04-08T17:26:40Z</time></trkpt><trkpt lat="44.88333079207079" lon="7.960771458206202"><ele>291.5</ele><time>2026-04-08T17:26:41Z</time></trkpt><trkpt lat="44.88326519249911" lon="7.96076618914891"><ele>292.0</ele><time>2026-04-08T17:26:42Z</time></trkpt><trkpt lat="44.883201878480904" lon="7.960760054339237"><ele>292.5</ele><time>2026-04-08T17:26:43Z</time></trkpt><trkpt lat="44.883138665080246" lon="7.960760696441194"><ele>293.0</ele><time>2026-04-08T17:26:44Z</time></trkpt><trkpt lat="44.88306030287768" lon="7.960750063187147"><ele>293.5</ele><time>2026-04-08T17:26:45Z</time></trkpt><trkpt lat="44.882970204531496" lon="7.960743675313121"><ele>294.0</ele><time>2026-04-08T17:26:46Z</time></trkpt><trkpt lat="44.88287569399519" lon="7.960731321002591"><ele>294.0</ele><time>2026-04-08T17:26:47Z</time></trkpt><trkpt lat="44.88277929231223" lon="7.960709727457525"><ele>294.0</ele><time>2026-04-08T17:26:48Z</time></trkpt><trkpt lat="44.882684470246524" lon="7.960688702180906"><ele>294.0</ele><time>2026-04-08T17:26:49Z</time></trkpt><trkpt lat="44.88258624581172" lon="7.960671697080681"><ele>294.0</ele><time>2026-04-08T17:26:50Z</time></trkpt><trkpt lat="44.88250311890144" lon="7.960657093935591"><ele>294.0</ele><time>2026-04-08T17:26:51Z</time></trkpt><trkpt lat="44.88242635454777" lon="7.960646099657667"><ele>294.0</ele><time>2026-04-08T17:26:52Z</time></trkpt><trkpt lat="44.88235408166313" lon="7.960637123423443"><ele>294.0</ele><time>2026-04-08T17:26:53Z</time></trkpt><trkpt lat="44.882289480269726" lon="7.960617866694545"><ele>294.0</ele><time>2026-04-08T17:26:54Z</time></trkpt><trkpt lat="44.882219668509826" lon="7.960603261226295"><ele>294.0</ele><time>2026-04-08T17:26:55Z</time></trkpt><trkpt lat="44.882139096458545" lon="7.960595552892787"><ele>294.0</ele><time>2026-04-08T17:26:56Z</time></trkpt><trkpt lat="44.88204651511408" lon="7.9605816790962205"><ele>294.0</ele><time>2026-04-08T17:26:57Z</time></trkpt><trkpt lat="44.88195284622193" lon="7.960564467969771"><ele>294.0</ele><time>2026-04-08T17:26:58Z</time></trkpt><trkpt lat="44.88185489058932" lon="7.960552332870222"><ele>294.0</ele><time>2026-04-08T17:26:59Z</time></trkpt><trkpt lat="44.88175608041891" lon="7.960544279429201"><ele>294.0</ele><time>2026-04-08T17:27:00Z</time></trkpt><trkpt lat="44.881657212387466" lon="7.960527206215094"><ele>294.0</ele><time>2026-04-08T17:27:01Z</time></trkpt><trkpt lat="44.88155756106043" lon="7.960508154655377"><ele>294.0</ele><time>2026-04-08T17:27:02Z</time></trkpt><trkpt lat="44.8814662549396" lon="7.960480085755242"><ele>293.8333333333333</ele><time>2026-04-08T17:27:03Z</time></trkpt><trkpt lat="44.88139085313587" lon="7.960429349160015"><ele>293.6666666666667</ele><time>2026-04-08T17:27:04Z</time></trkpt><trkpt lat="44.88131498100289" lon="7.960374255247345"><ele>293.5</ele><time>2026-04-08T17:27:05Z</time></trkpt><trkpt lat="44.88124719465325" lon="7.960310210176739"><ele>293.33333333333337</ele><time>2026-04-08T17:27:06Z</time></trkpt><trkpt lat="44.88117182654018" lon="7.96023997894387"><ele>293.1666666666667</ele><time>2026-04-08T17:27:07Z</time></trkpt><trkpt lat="44.8810853430956" lon="7.960177724862156"><ele>293.0</ele><time>2026-04-08T17:27:08Z</time></trkpt><trkpt lat="44.88098582499429" lon="7.960127095035248"><ele>293.0</ele><time>2026-04-08T17:27:09Z</time></trkpt><trkpt lat="44.88088634361729" lon="7.960081521497441"><ele>293.0</ele><time>2026-04-08T17:27:10Z</time></trkpt><trkpt lat="44.880783524712115" lon="7.960037821751244"><ele>293.0</ele><time>2026-04-08T17:27:11Z</time></trkpt><trkpt lat="44.88067982109419" lon="7.960008245252433"><ele>293.0</ele><time>2026-04-08T17:27:12Z</time></trkpt><trkpt lat="44.88058036488275" lon="7.959977207936414"><ele>293.0</ele><time>2026-04-08T17:27:13Z</time></trkpt><trkpt lat="44.88047849681955" lon="7.959946324647872"><ele>293.0</ele><time>2026-04-08T17:27:14Z</time></trkpt><trkpt lat="44.880369909371886" lon="7.959919244713396"><ele>293.0</ele><time>2026-04-08T17:27:15Z</time></trkpt><trkpt lat="44.880273454995596" lon="7.95987863336458"><ele>293.0</ele><time>2026-04-08T17:27:16Z</time></trkpt><trkpt lat="44.88017577395767" lon="7.959827960184254"><ele>293.0</ele><time>2026-04-08T17:27:17Z</time></trkpt><trkpt lat="44.880080729010665" lon="7.959743891658579"><ele>293.0</ele><time>2026-04-08T17:27:18Z</time></trkpt><trkpt lat="44.879986376101655" lon="7.95966793900882"><ele>293.83333333333337</ele><time>2026-04-08T17:27:19Z</time></trkpt><trkpt lat="44.87988767452247" lon="7.959606470870581"><ele>294.6666666666667</ele><time>2026-04-08T17:27:20Z</time></trkpt><trkpt lat="44.8798178859598" lon="7.959534183233947"><ele>295.5</ele><time>2026-04-08T17:27:21Z</time></trkpt><trkpt lat="44.87974489031346" lon="7.9594678666895105"><ele>296.3333333333333</ele><time>2026-04-08T17:27:22Z</time></trkpt><trkpt lat="44.87968952097838" lon="7.9594089506354395"><ele>297.16666666666663</ele><time>2026-04-08T17:27:23Z</time></trkpt><trkpt lat="44.8796295023611" lon="7.959352028826428"><ele>298.0</ele><time>2026-04-08T17:27:24Z</time></trkpt><trkpt lat="44.879560436017584" lon="7.959288412589817"><ele>298.0</ele><time>2026-04-08T17:27:25Z</time></trkpt><trkpt lat="44.87948924824728" lon="7.95922212158861"><ele>298.0</ele><time>2026-04-08T17:27:26Z</time></trkpt><trkpt lat="44.87941179914404" lon="7.959149405216468"><ele>298.0</ele><time>2026-04-08T17:27:27Z</time></trkpt><trkpt lat="44.8793344504036" lon="7.9590712552612946"><ele>298.0</ele><time>2026-04-08T17:27:28Z</time></trkpt><trkpt lat="44.879260574980705" lon="7.958996496464005"><ele>298.0</ele><time>2026-04-08T17:27:29Z</time></trkpt><trkpt lat="44.879189783408144" lon="7.958922936449424"><ele>298.0</ele><time>2026-04-08T17:27:30Z</time></trkpt><trkpt lat="44.879121757120544" lon="7.958857737547595"><ele>298.0</ele><time>2026-04-08T17:27:31Z</time></trkpt><trkpt lat="44.879056712785044" lon="7.958789442338457"><ele>298.0</ele><time>2026-04-08T17:27:32Z</time></trkpt><trkpt lat="44.878991069897474" lon="7.958730609108439"><ele>298.0</ele><time>2026-04-08T17:27:33Z</time></trkpt><trkpt lat="44.878933869936" lon="7.958680032282971"><ele>298.0</ele><time>2026-04-08T17:27:34Z</time></trkpt><trkpt lat="44.878858089576234" lon="7.9586073698624915"><ele>298.0</ele><time>2026-04-08T17:27:36Z</time></trkpt><trkpt lat="44.878786698527605" lon="7.958596981319327"><ele>298.0</ele><time>2026-04-08T17:27:39Z</time></trkpt><trkpt lat="44.87870544421764" lon="7.958617283204015"><ele>298.0</ele><time>2026-04-08T17:27:42Z</time></trkpt><trkpt lat="44.87865672035931" lon="7.958676729611795"><ele>298.0</ele><time>2026-04-08T17:27:43Z</time></trkpt><trkpt lat="44.87858988690635" lon="7.95874271525382"><ele>298.0</ele><time>2026-04-08T17:27:44Z</time></trkpt><trkpt lat="44.878524044321225" lon="7.958809679283368"><ele>298.0</ele><time>2026-04-08T17:27:45Z</time></trkpt><trkpt lat="44.87845895092401" lon="7.958898291648895"><ele>298.0</ele><time>2026-04-08T17:27:46Z</time></trkpt><trkpt lat="44.87838324275804" lon="7.958985044611419"><ele>298.6</ele><time>2026-04-08T17:27:47Z</time></trkpt><trkpt lat="44.87830737900486" lon="7.959076946986411"><ele>299.20000000000005</ele><time>2026-04-08T17:27:48Z</time></trkpt><trkpt lat="44.878248053384574" lon="7.959149921550468"><ele>299.8</ele><time>2026-04-08T17:27:49Z</time></trkpt><trkpt lat="44.878152860801954" lon="7.9592696236836185"><ele>300.40000000000003</ele><time>2026-04-08T17:27:51Z</time></trkpt><trkpt lat="44.87809664467219" lon="7.959336156635731"><ele>301.0</ele><time>2026-04-08T17:27:52Z</time></trkpt><trkpt lat="44.87803448002003" lon="7.959412881643561"><ele>301.0</ele><time>2026-04-08T17:27:53Z</time></trkpt><trkpt lat="44.877967301114296" lon="7.959497151971007"><ele>301.0</ele><time>2026-04-08T17:27:54Z</time></trkpt><trkpt lat="44.87790481404848" lon="7.959575141838054"><ele>301.0</ele><time>2026-04-08T17:27:55Z</time></trkpt><trkpt lat="44.877845056720155" lon="7.959646878869906"><ele>301.0</ele><time>2026-04-08T17:27:56Z</time></trkpt><trkpt lat="44.87778889882677" lon="7.959707843425522"><ele>301.0</ele><time>2026-04-08T17:27:57Z</time></trkpt><trkpt lat="44.877731122952376" lon="7.959780121781589"><ele>301.0</ele><time>2026-04-08T17:27:58Z</time></trkpt><trkpt lat="44.87767022677046" lon="7.959865091836114"><ele>301.0</ele><time>2026-04-08T17:27:59Z</time></trkpt><trkpt lat="44.877604063069235" lon="7.959954233103219"><ele>301.0</ele><time>2026-04-08T17:28:00Z</time></trkpt><trkpt lat="44.87752644846767" lon="7.960045904784933"><ele>301.0</ele><time>2026-04-08T17:28:01Z</time></trkpt><trkpt lat="44.87744742041116" lon="7.960142967060594"><ele>301.0</ele><time>2026-04-08T17:28:02Z</time></trkpt><trkpt lat="44.8773654849238" lon="7.960252189679406"><ele>301.0</ele><time>2026-04-08T17:28:03Z</time></trkpt><trkpt lat="44.877280192774954" lon="7.960361719947581"><ele>301.6</ele><time>2026-04-08T17:28:04Z</time></trkpt><trkpt lat="44.8771996119073" lon="7.960471546865153"><ele>302.20000000000005</ele><time>2026-04-08T17:28:05Z</time></trkpt><trkpt lat="44.87710867191683" lon="7.960579942054538"><ele>302.79999999999995</ele><time>2026-04-08T17:28:06Z</time></trkpt><trkpt lat="44.87702964944049" lon="7.960684964533324"><ele>303.4</ele><time>2026-04-08T17:28:07Z</time></trkpt><trkpt lat="44.87695232499115" lon="7.960774367981565"><ele>304.0</ele><time>2026-04-08T17:28:08Z</time></trkpt><trkpt lat="44.87687198232506" lon="7.96085453581216"><ele>304.0</ele><time>2026-04-08T17:28:09Z</time></trkpt><trkpt lat="44.87679039401383" lon="7.960907592442542"><ele>304.0</ele><time>2026-04-08T17:28:10Z</time></trkpt><trkpt lat="44.876700917578226" lon="7.96093226272638"><ele>304.0</ele><time>2026-04-08T17:28:11Z</time></trkpt><trkpt lat="44.876602459679816" lon="7.960932729051146"><ele>304.0</ele><time>2026-04-08T17:28:12Z</time></trkpt><trkpt lat="44.87649173096035" lon="7.960945785369338"><ele>304.0</ele><time>2026-04-08T17:28:13Z</time></trkpt><trkpt lat="44.87637532304871" lon="7.9609465559290955"><ele>304.0</ele><time>2026-04-08T17:28:14Z</time></trkpt><trkpt lat="44.87625647779869" lon="7.960944061397146"><ele>304.0</ele><time>2026-04-08T17:28:15Z</time></trkpt><trkpt lat="44.87613590950486" lon="7.960941096105479"><ele>304.0</ele><time>2026-04-08T17:28:16Z</time></trkpt><trkpt lat="44.87601687759185" lon="7.960937631808001"><ele>304.0</ele><time>2026-04-08T17:28:17Z</time></trkpt><trkpt lat="44.87589608779252" lon="7.960934859722303"><ele>304.2</ele><time>2026-04-08T17:28:18Z</time></trkpt><trkpt lat="44.87577499507294" lon="7.960932813294207"><ele>304.4</ele><time>2026-04-08T17:28:19Z</time></trkpt><trkpt lat="44.875658681857885" lon="7.960931173919136"><ele>304.6</ele><time>2026-04-08T17:28:20Z</time></trkpt><trkpt lat="44.87555851843378" lon="7.960928157766843"><ele>304.8</ele><time>2026-04-08T17:28:21Z</time></trkpt><trkpt lat="44.87546827082027" lon="7.960914422247052"><ele>305.0</ele><time>2026-04-08T17:28:22Z</time></trkpt><trkpt lat="44.875385732006684" lon="7.960896919014514"><ele>305.0</ele><time>2026-04-08T17:28:23Z</time></trkpt><trkpt lat="44.87530712648021" lon="7.960864208841334"><ele>305.0</ele><time>2026-04-08T17:28:24Z</time></trkpt><trkpt lat="44.875226825629106" lon="7.960819750261962"><ele>305.0</ele><time>2026-04-08T17:28:25Z</time></trkpt><trkpt lat="44.87515126851893" lon="7.960773648916983"><ele>305.0</ele><time>2026-04-08T17:28:26Z</time></trkpt><trkpt lat="44.87507358834155" lon="7.96071529765848"><ele>305.0</ele><time>2026-04-08T17:28:27Z</time></trkpt><trkpt lat="44.87499619975742" lon="7.9606514823922385"><ele>305.0</ele><time>2026-04-08T17:28:28Z</time></trkpt><trkpt lat="44.87489956575999" lon="7.960592185631915"><ele>304.6</ele><time>2026-04-08T17:28:29Z</time></trkpt><trkpt lat="44.87478925201163" lon="7.9605278578817655"><ele>304.2</ele><time>2026-04-08T17:28:30Z</time></trkpt><trkpt lat="44.87468304234956" lon="7.960462592634973"><ele>303.8</ele><time>2026-04-08T17:28:31Z</time></trkpt><trkpt lat="44.87458020384539" lon="7.960407541800532"><ele>303.4</ele><time>2026-04-08T17:28:32Z</time></trkpt><trkpt lat="44.87449443689155" lon="7.960357106770558"><ele>303.0</ele><time>2026-04-08T17:28:33Z</time></trkpt><trkpt lat="44.87439600322298" lon="7.960320280468655"><ele>303.0</ele><time>2026-04-08T17:28:34Z</time></trkpt><trkpt lat="44.87430088685118" lon="7.960317457754491"><ele>303.0</ele><time>2026-04-08T17:28:35Z</time></trkpt><trkpt lat="44.8741919369769" lon="7.960337569816731"><ele>303.0</ele><time>2026-04-08T17:28:36Z</time></trkpt><trkpt lat="44.87408583521657" lon="7.960377350781352"><ele>303.0</ele><time>2026-04-08T17:28:37Z</time></trkpt><trkpt lat="44.87398030842177" lon="7.960422538468362"><ele>303.0</ele><time>2026-04-08T17:28:38Z</time></trkpt><trkpt lat="44.873874582479715" lon="7.960475555597334"><ele>303.75</ele><time>2026-04-08T17:28:39Z</time></trkpt><trkpt lat="44.873758203228554" lon="7.960533996818349"><ele>304.5</ele><time>2026-04-08T17:28:40Z</time></trkpt><trkpt lat="44.873645287723036" lon="7.96058674287812"><ele>305.25</ele><time>2026-04-08T17:28:41Z</time></trkpt><trkpt lat="44.87353515665141" lon="7.960645053809795"><ele>306.0</ele><time>2026-04-08T17:28:42Z</time></trkpt><trkpt lat="44.873424165483165" lon="7.960709670653585"><ele>307.2</ele><time>2026-04-08T17:28:43Z</time></trkpt><trkpt lat="44.87331071939711" lon="7.960769937506838"><ele>308.40000000000003</ele><time>2026-04-08T17:28:44Z</time></trkpt><trkpt lat="44.87318717630173" lon="7.960827274127198"><ele>309.6</ele><time>2026-04-08T17:28:45Z</time></trkpt><trkpt lat="44.873109438186276" lon="7.960873333435171"><ele>310.8</ele><time>2026-04-08T17:28:46Z</time></trkpt><trkpt lat="44.87301752911779" lon="7.960927375783508"><ele>312.0</ele><time>2026-04-08T17:28:47Z</time></trkpt><trkpt lat="44.87291034263505" lon="7.960992283402043"><ele>312.4</ele><time>2026-04-08T17:28:48Z</time></trkpt><trkpt lat="44.87281107003459" lon="7.961065891166529"><ele>312.79999999999995</ele><time>2026-04-08T17:28:49Z</time></trkpt><trkpt lat="44.87272887006308" lon="7.96113692653459"><ele>313.2</ele><time>2026-04-08T17:28:50Z</time></trkpt><trkpt lat="44.87263309443373" lon="7.961213665229203"><ele>313.59999999999997</ele><time>2026-04-08T17:28:51Z</time></trkpt><trkpt lat="44.87253669624037" lon="7.961287794590558"><ele>314.0</ele><time>2026-04-08T17:28:52Z</time></trkpt><trkpt lat="44.87244854203932" lon="7.961348061722126"><ele>314.0</ele><time>2026-04-08T17:28:53Z</time></trkpt><trkpt lat="44.872370941918696" lon="7.961408902544343"><ele>314.0</ele><time>2026-04-08T17:28:54Z</time></trkpt><trkpt lat="44.87231186143513" lon="7.961447453772172"><ele>314.0</ele><time>2026-04-08T17:28:55Z</time></trkpt><trkpt lat="44.87223368313593" lon="7.961495916320539"><ele>314.0</ele><time>2026-04-08T17:28:57Z</time></trkpt><trkpt lat="44.8723606229167" lon="7.961591296419218"><ele>314.0</ele><time>2026-04-08T17:29:04Z</time></trkpt><trkpt lat="44.87243659472817" lon="7.961555406235938"><ele>314.0</ele><time>2026-04-08T17:29:05Z</time></trkpt><trkpt lat="44.87252973938224" lon="7.961511403595632"><ele>314.0</ele><time>2026-04-08T17:29:06Z</time></trkpt><trkpt lat="44.87263466713429" lon="7.9614618355765705"><ele>314.0</ele><time>2026-04-08T17:29:07Z</time></trkpt><trkpt lat="44.87274596342957" lon="7.961409259109577"><ele>314.0</ele><time>2026-04-08T17:29:08Z</time></trkpt><trkpt lat="44.87295210043676" lon="7.961566801261905"><ele>314.0</ele><time>2026-04-08T17:29:09Z</time></trkpt><trkpt lat="44.87309311305622" lon="7.961449508999995"><ele>314.0</ele><time>2026-04-08T17:29:10Z</time></trkpt><trkpt lat="44.87320273676852" lon="7.961358224335281"><ele>314.0</ele><time>2026-04-08T17:29:11Z</time></trkpt><trkpt lat="44.873315351597654" lon="7.961264449985959"><ele>314.0</ele><time>2026-04-08T17:29:12Z</time></trkpt><trkpt lat="44.87341376323441" lon="7.961182502629096"><ele>311.33333333333337</ele><time>2026-04-08T17:29:13Z</time></trkpt><trkpt lat="44.8735112872924" lon="7.961079022389655"><ele>308.6666666666667</ele><time>2026-04-08T17:29:14Z</time></trkpt><trkpt lat="44.87350462689869" lon="7.9606941231124955"><ele>306.0</ele><time>2026-04-08T17:29:15Z</time></trkpt><trkpt lat="44.87363579169666" lon="7.960615349339682"><ele>306.0</ele><time>2026-04-08T17:29:16Z</time></trkpt><trkpt lat="44.87377492019214" lon="7.96053899404932"><ele>306.0</ele><time>2026-04-08T17:29:17Z</time></trkpt><trkpt lat="44.873930809332904" lon="7.960516522369143"><ele>306.0</ele><time>2026-04-08T17:29:18Z</time></trkpt><trkpt lat="44.87402650883169" lon="7.9604634493872"><ele>306.0</ele><time>2026-04-08T17:29:19Z</time></trkpt><trkpt lat="44.874152117408634" lon="7.960419486924247"><ele>305.25</ele><time>2026-04-08T17:29:20Z</time></trkpt><trkpt lat="44.874281164992894" lon="7.960378227526392"><ele>304.5</ele><time>2026-04-08T17:29:21Z</time></trkpt><trkpt lat="44.87440318687948" lon="7.960372635108264"><ele>303.75</ele><time>2026-04-08T17:29:22Z</time></trkpt><trkpt lat="44.874518827473715" lon="7.960427706057069"><ele>303.0</ele><time>2026-04-08T17:29:23Z</time></trkpt><trkpt lat="44.874629323950394" lon="7.960481531261999"><ele>303.0</ele><time>2026-04-08T17:29:24Z</time></trkpt><trkpt lat="44.87476123880541" lon="7.960562652955939"><ele>303.0</ele><time>2026-04-08T17:29:25Z</time></trkpt><trkpt lat="44.874885711406655" lon="7.9606293168742415"><ele>303.0</ele><time>2026-04-08T17:29:26Z</time></trkpt><trkpt lat="44.87500071086607" lon="7.96070966461676"><ele>303.0</ele><time>2026-04-08T17:29:27Z</time></trkpt><trkpt lat="44.875103337027916" lon="7.960784603405555"><ele>303.4</ele><time>2026-04-08T17:29:28Z</time></trkpt><trkpt lat="44.875191504156305" lon="7.9608545912011035"><ele>303.8</ele><time>2026-04-08T17:29:29Z</time></trkpt><trkpt lat="44.87526460969977" lon="7.960910240012099"><ele>304.2</ele><time>2026-04-08T17:29:30Z</time></trkpt><trkpt lat="44.87533431587715" lon="7.960953789817011"><ele>304.6</ele><time>2026-04-08T17:29:31Z</time></trkpt><trkpt lat="44.875428310958384" lon="7.960986312271087"><ele>305.0</ele><time>2026-04-08T17:29:33Z</time></trkpt><trkpt lat="44.875531283940965" lon="7.9609953918798135"><ele>305.0</ele><time>2026-04-08T17:29:35Z</time></trkpt><trkpt lat="44.87564386707905" lon="7.960993203890297"><ele>305.0</ele><time>2026-04-08T17:29:37Z</time></trkpt><trkpt lat="44.87577098733384" lon="7.960992648377568"><ele>305.0</ele><time>2026-04-08T17:29:39Z</time></trkpt><trkpt lat="44.87583650340651" lon="7.9609971901136"><ele>305.0</ele><time>2026-04-08T17:29:40Z</time></trkpt><trkpt lat="44.87590259800849" lon="7.960990559653088"><ele>305.0</ele><time>2026-04-08T17:29:41Z</time></trkpt><trkpt lat="44.87597610086279" lon="7.960984364541019"><ele>305.0</ele><time>2026-04-08T17:29:42Z</time></trkpt><trkpt lat="44.87605965703687" lon="7.960985034925208"><ele>304.8</ele><time>2026-04-08T17:29:43Z</time></trkpt><trkpt lat="44.87615763153452" lon="7.96099187613327"><ele>304.6</ele><time>2026-04-08T17:29:44Z</time></trkpt><trkpt lat="44.87626539354617" lon="7.9609935725021845"><ele>304.4</ele><time>2026-04-08T17:29:45Z</time></trkpt><trkpt lat="44.87638126631063" lon="7.960993605089388"><ele>304.2</ele><time>2026-04-08T17:29:46Z</time></trkpt><trkpt lat="44.876491849723116" lon="7.960991579248199"><ele>304.0</ele><time>2026-04-08T17:29:47Z</time></trkpt><trkpt lat="44.876598389409104" lon="7.960989851975637"><ele>304.0</ele><time>2026-04-08T17:29:48Z</time></trkpt><trkpt lat="44.87670446555681" lon="7.960976619414283"><ele>304.0</ele><time>2026-04-08T17:29:49Z</time></trkpt><trkpt lat="44.87680059053183" lon="7.960949213996704"><ele>304.0</ele><time>2026-04-08T17:29:50Z</time></trkpt><trkpt lat="44.87689511869803" lon="7.96089078416427"><ele>304.0</ele><time>2026-04-08T17:29:51Z</time></trkpt><trkpt lat="44.87698825314831" lon="7.960811566445186"><ele>304.0</ele><time>2026-04-08T17:29:52Z</time></trkpt><trkpt lat="44.877075470407256" lon="7.960712958408994"><ele>304.0</ele><time>2026-04-08T17:29:53Z</time></trkpt><trkpt lat="44.87715821942277" lon="7.960597964628602"><ele>304.0</ele><time>2026-04-08T17:29:54Z</time></trkpt><trkpt lat="44.8772582238589" lon="7.9604871544721485"><ele>304.0</ele><time>2026-04-08T17:29:55Z</time></trkpt><trkpt lat="44.87733509266872" lon="7.96036074940164"><ele>304.0</ele><time>2026-04-08T17:29:56Z</time></trkpt><trkpt lat="44.877425528913356" lon="7.960245728050595"><ele>304.0</ele><time>2026-04-08T17:29:57Z</time></trkpt><trkpt lat="44.8775139368778" lon="7.960137634464659"><ele>304.0</ele><time>2026-04-08T17:29:58Z</time></trkpt><trkpt lat="44.87760180786579" lon="7.96002370455582"><ele>304.0</ele><time>2026-04-08T17:29:59Z</time></trkpt><trkpt lat="44.87769230335468" lon="7.959907638984694"><ele>304.0</ele><time>2026-04-08T17:30:00Z</time></trkpt><trkpt lat="44.87777704237172" lon="7.959795749903942"><ele>303.4</ele><time>2026-04-08T17:30:01Z</time></trkpt><trkpt lat="44.877856079070035" lon="7.959690929462568"><ele>302.79999999999995</ele><time>2026-04-08T17:30:02Z</time></trkpt><trkpt lat="44.877922465216464" lon="7.959608859068818"><ele>302.20000000000005</ele><time>2026-04-08T17:30:03Z</time></trkpt><trkpt lat="44.87798821063944" lon="7.959525136066429"><ele>301.6</ele><time>2026-04-08T17:30:04Z</time></trkpt><trkpt lat="44.87806717302439" lon="7.959454232561425"><ele>301.0</ele><time>2026-04-08T17:30:05Z</time></trkpt><trkpt lat="44.87814426152288" lon="7.959357113573811"><ele>301.0</ele><time>2026-04-08T17:30:06Z</time></trkpt><trkpt lat="44.878225358251925" lon="7.9592549449373395"><ele>301.0</ele><time>2026-04-08T17:30:07Z</time></trkpt><trkpt lat="44.878294527430846" lon="7.959141393698099"><ele>301.0</ele><time>2026-04-08T17:30:08Z</time></trkpt><trkpt lat="44.878380238801" lon="7.9590598204890775"><ele>301.0</ele><time>2026-04-08T17:30:09Z</time></trkpt><trkpt lat="44.87844570695035" lon="7.958978187366499"><ele>301.0</ele><time>2026-04-08T17:30:10Z</time></trkpt><trkpt lat="44.87851724131619" lon="7.958891076384796"><ele>300.5</ele><time>2026-04-08T17:30:11Z</time></trkpt><trkpt lat="44.87858204414492" lon="7.95881690810731"><ele>300.0</ele><time>2026-04-08T17:30:12Z</time></trkpt><trkpt lat="44.87864277019044" lon="7.958730360829474"><ele>299.5</ele><time>2026-04-08T17:30:13Z</time></trkpt><trkpt lat="44.87871404427988" lon="7.958671513395732"><ele>299.0</ele><time>2026-04-08T17:30:14Z</time></trkpt><trkpt lat="44.87878787361483" lon="7.958652521755502"><ele>298.5</ele><time>2026-04-08T17:30:15Z</time></trkpt><trkpt lat="44.87886936881118" lon="7.958677455181598"><ele>298.0</ele><time>2026-04-08T17:30:16Z</time></trkpt><trkpt lat="44.878948131567974" lon="7.958722249685624"><ele>298.0</ele><time>2026-04-08T17:30:17Z</time></trkpt><trkpt lat="44.87903683536172" lon="7.958800613570002"><ele>298.0</ele><time>2026-04-08T17:30:18Z</time></trkpt><trkpt lat="44.8791321435772" lon="7.958899875402598"><ele>298.0</ele><time>2026-04-08T17:30:19Z</time></trkpt><trkpt lat="44.879236450301434" lon="7.959010875127943"><ele>298.0</ele><time>2026-04-08T17:30:20Z</time></trkpt><trkpt lat="44.87934923967438" lon="7.959124947556135"><ele>298.0</ele><time>2026-04-08T17:30:21Z</time></trkpt><trkpt lat="44.87947087023965" lon="7.959237665738812"><ele>298.0</ele><time>2026-04-08T17:30:22Z</time></trkpt><trkpt lat="44.8795938931966" lon="7.959360765688483"><ele>298.0</ele><time>2026-04-08T17:30:23Z</time></trkpt><trkpt lat="44.87969969340745" lon="7.959460561151729"><ele>298.0</ele><time>2026-04-08T17:30:24Z</time></trkpt><trkpt lat="44.87979762975417" lon="7.959550899805311"><ele>298.0</ele><time>2026-04-08T17:30:25Z</time></trkpt><trkpt lat="44.87989542208885" lon="7.959633970469398"><ele>298.0</ele><time>2026-04-08T17:30:26Z</time></trkpt><trkpt lat="44.87999121066407" lon="7.959716628732419"><ele>298.0</ele><time>2026-04-08T17:30:27Z</time></trkpt><trkpt lat="44.8800851081835" lon="7.95980318532004"><ele>298.0</ele><time>2026-04-08T17:30:28Z</time></trkpt><trkpt lat="44.88019924059361" lon="7.959872609857569"><ele>296.75</ele><time>2026-04-08T17:30:29Z</time></trkpt><trkpt lat="44.88031799312902" lon="7.959930157810833"><ele>295.5</ele><time>2026-04-08T17:30:30Z</time></trkpt><trkpt lat="44.88044183122898" lon="7.95997193634101"><ele>294.25</ele><time>2026-04-08T17:30:31Z</time></trkpt><trkpt lat="44.880566400908165" lon="7.9600065738266075"><ele>293.0</ele><time>2026-04-08T17:30:32Z</time></trkpt><trkpt lat="44.88069173837165" lon="7.96003706599642"><ele>293.0</ele><time>2026-04-08T17:30:33Z</time></trkpt><trkpt lat="44.8808098654506" lon="7.960074030077354"><ele>293.0</ele><time>2026-04-08T17:30:34Z</time></trkpt><trkpt lat="44.880929288440846" lon="7.960122908755544"><ele>293.0</ele><time>2026-04-08T17:30:35Z</time></trkpt><trkpt lat="44.88103602871915" lon="7.960176168623759"><ele>293.0</ele><time>2026-04-08T17:30:36Z</time></trkpt><trkpt lat="44.8811393585647" lon="7.960236950428093"><ele>293.0</ele><time>2026-04-08T17:30:37Z</time></trkpt><trkpt lat="44.881239882825554" lon="7.9603196289009635"><ele>293.0</ele><time>2026-04-08T17:30:38Z</time></trkpt><trkpt lat="44.881343276958226" lon="7.960410518436482"><ele>293.0</ele><time>2026-04-08T17:30:39Z</time></trkpt><trkpt lat="44.88145309560021" lon="7.960487580168902"><ele>293.0</ele><time>2026-04-08T17:30:40Z</time></trkpt><trkpt lat="44.88156875873245" lon="7.960548108386867"><ele>293.0</ele><time>2026-04-08T17:30:41Z</time></trkpt><trkpt lat="44.88169474975873" lon="7.960580373604331"><ele>293.0</ele><time>2026-04-08T17:30:42Z</time></trkpt><trkpt lat="44.88182665836191" lon="7.960590636006903"><ele>293.0</ele><time>2026-04-08T17:30:43Z</time></trkpt><trkpt lat="44.88195488935225" lon="7.960603757957841"><ele>293.0</ele><time>2026-04-08T17:30:44Z</time></trkpt><trkpt lat="44.88207814104332" lon="7.9606193525256765"><ele>293.25</ele><time>2026-04-08T17:30:45Z</time></trkpt><trkpt lat="44.8821960630277" lon="7.960635678566317"><ele>293.5</ele><time>2026-04-08T17:30:46Z</time></trkpt><trkpt lat="44.882320585986676" lon="7.960657159966495"><ele>293.75</ele><time>2026-04-08T17:30:47Z</time></trkpt><trkpt lat="44.88243783688523" lon="7.96066971342135"><ele>294.0</ele><time>2026-04-08T17:30:48Z</time></trkpt><trkpt lat="44.88255080983489" lon="7.960713621326744"><ele>294.0</ele><time>2026-04-08T17:30:49Z</time></trkpt><trkpt lat="44.88266828499634" lon="7.9607199271682285"><ele>294.0</ele><time>2026-04-08T17:30:50Z</time></trkpt><trkpt lat="44.88278526503021" lon="7.960740326544129"><ele>294.0</ele><time>2026-04-08T17:30:51Z</time></trkpt><trkpt lat="44.88290213983338" lon="7.960764252640512"><ele>294.0</ele><time>2026-04-08T17:30:52Z</time></trkpt><trkpt lat="44.883026815267925" lon="7.960779940827153"><ele>294.0</ele><time>2026-04-08T17:30:53Z</time></trkpt><trkpt lat="44.883137504796096" lon="7.96080972130858"><ele>294.0</ele><time>2026-04-08T17:30:54Z</time></trkpt><trkpt lat="44.88326836870345" lon="7.960820369989109"><ele>294.0</ele><time>2026-04-08T17:30:55Z</time></trkpt><trkpt lat="44.883398133199705" lon="7.960830042015433"><ele>294.0</ele><time>2026-04-08T17:30:56Z</time></trkpt><trkpt lat="44.88352584815623" lon="7.960832648216681"><ele>293.4</ele><time>2026-04-08T17:30:57Z</time></trkpt><trkpt lat="44.883642275954976" lon="7.960832024926757"><ele>292.79999999999995</ele><time>2026-04-08T17:30:58Z</time></trkpt><trkpt lat="44.883747015632196" lon="7.960829644608696"><ele>292.20000000000005</ele><time>2026-04-08T17:30:59Z</time></trkpt><trkpt lat="44.883850755292194" lon="7.960844399580294"><ele>291.6</ele><time>2026-04-08T17:31:00Z</time></trkpt><trkpt lat="44.88395156625013" lon="7.9608189320017795"><ele>291.0</ele><time>2026-04-08T17:31:01Z</time></trkpt><trkpt lat="44.88404137616001" lon="7.960807708718024"><ele>291.0</ele><time>2026-04-08T17:31:02Z</time></trkpt><trkpt lat="44.88412853448918" lon="7.960813888965609"><ele>291.0</ele><time>2026-04-08T17:31:03Z</time></trkpt><trkpt lat="44.88421807130075" lon="7.960795063840889"><ele>291.0</ele><time>2026-04-08T17:31:04Z</time></trkpt><trkpt lat="44.884313147978666" lon="7.960771169423425"><ele>291.0</ele><time>2026-04-08T17:31:05Z</time></trkpt><trkpt lat="44.88441177014732" lon="7.960738212247789"><ele>291.0</ele><time>2026-04-08T17:31:06Z</time></trkpt><trkpt lat="44.88451615660293" lon="7.960676614342924"><ele>290.6</ele><time>2026-04-08T17:31:07Z</time></trkpt><trkpt lat="44.884608377780324" lon="7.9605891498266"><ele>290.20000000000005</ele><time>2026-04-08T17:31:08Z</time></trkpt><trkpt lat="44.884701979703955" lon="7.9605093578875605"><ele>289.79999999999995</ele><time>2026-04-08T17:31:09Z</time></trkpt><trkpt lat="44.88479078870653" lon="7.96041760705894"><ele>289.4</ele><time>2026-04-08T17:31:10Z</time></trkpt><trkpt lat="44.884874231066576" lon="7.960310449944358"><ele>289.0</ele><time>2026-04-08T17:31:11Z</time></trkpt><trkpt lat="44.88495692893389" lon="7.960210981316766"><ele>289.0</ele><time>2026-04-08T17:31:12Z</time></trkpt><trkpt lat="44.88503662172572" lon="7.960130437859673"><ele>289.0</ele><time>2026-04-08T17:31:13Z</time></trkpt><trkpt lat="44.885127797454935" lon="7.960106318621424"><ele>289.0</ele><time>2026-04-08T17:31:14Z</time></trkpt><trkpt lat="44.885227960330354" lon="7.960125497175044"><ele>289.0</ele><time>2026-04-08T17:31:15Z</time></trkpt><trkpt lat="44.88532362169996" lon="7.960208859944541"><ele>289.0</ele><time>2026-04-08T17:31:16Z</time></trkpt><trkpt lat="44.885403972623834" lon="7.960281794273775"><ele>289.0</ele><time>2026-04-08T17:31:17Z</time></trkpt><trkpt lat="44.88550598097253" lon="7.960357270303795"><ele>289.0</ele><time>2026-04-08T17:31:18Z</time></trkpt><trkpt lat="44.88558770793246" lon="7.96045456967374"><ele>289.0</ele><time>2026-04-08T17:31:19Z</time></trkpt><trkpt lat="44.88566669455978" lon="7.960534524218578"><ele>289.0</ele><time>2026-04-08T17:31:20Z</time></trkpt><trkpt lat="44.885739545999385" lon="7.960607434257478"><ele>289.0</ele><time>2026-04-08T17:31:21Z</time></trkpt><trkpt lat="44.88582448292559" lon="7.960689352318653"><ele>289.0</ele><time>2026-04-08T17:31:22Z</time></trkpt><trkpt lat="44.88591943134453" lon="7.9607613831953765"><ele>289.0</ele><time>2026-04-08T17:31:23Z</time></trkpt><trkpt lat="44.88601404335918" lon="7.96080579341384"><ele>289.0</ele><time>2026-04-08T17:31:24Z</time></trkpt><trkpt lat="44.88610241633415" lon="7.960852913999292"><ele>289.0</ele><time>2026-04-08T17:31:25Z</time></trkpt><trkpt lat="44.886198059683224" lon="7.960893090410708"><ele>289.0</ele><time>2026-04-08T17:31:26Z</time></trkpt><trkpt lat="44.88630225904178" lon="7.960940818493319"><ele>287.25</ele><time>2026-04-08T17:31:27Z</time></trkpt><trkpt lat="44.88641925320436" lon="7.960979393462229"><ele>285.5</ele><time>2026-04-08T17:31:28Z</time></trkpt><trkpt lat="44.88653820356396" lon="7.96101197573822"><ele>283.75</ele><time>2026-04-08T17:31:29Z</time></trkpt><trkpt lat="44.886656376192896" lon="7.961040787410181"><ele>282.0</ele><time>2026-04-08T17:31:30Z</time></trkpt><trkpt lat="44.886776886428166" lon="7.9610478740117285"><ele>281.75</ele><time>2026-04-08T17:31:31Z</time></trkpt><trkpt lat="44.88690810101207" lon="7.961069383517422"><ele>281.5</ele><time>2026-04-08T17:31:32Z</time></trkpt><trkpt lat="44.88703590991104" lon="7.961086988519464"><ele>281.25</ele><time>2026-04-08T17:31:33Z</time></trkpt><trkpt lat="44.88716245720529" lon="7.961105395287373"><ele>281.0</ele><time>2026-04-08T17:31:34Z</time></trkpt><trkpt lat="44.88728079825927" lon="7.961122412958889"><ele>281.0</ele><time>2026-04-08T17:31:35Z</time></trkpt><trkpt lat="44.88739792301759" lon="7.961144693572615"><ele>281.0</ele><time>2026-04-08T17:31:36Z</time></trkpt><trkpt lat="44.88752080996652" lon="7.961154542118938"><ele>281.0</ele><time>2026-04-08T17:31:37Z</time></trkpt><trkpt lat="44.887648991148836" lon="7.961157337966354"><ele>281.0</ele><time>2026-04-08T17:31:38Z</time></trkpt><trkpt lat="44.887773907899664" lon="7.961151265898853"><ele>281.2</ele><time>2026-04-08T17:31:39Z</time></trkpt><trkpt lat="44.88789553771075" lon="7.961146085673152"><ele>281.40000000000003</ele><time>2026-04-08T17:31:40Z</time></trkpt><trkpt lat="44.888002043045404" lon="7.9611293038909885"><ele>281.6</ele><time>2026-04-08T17:31:41Z</time></trkpt><trkpt lat="44.888105338473856" lon="7.96114303552041"><ele>281.8</ele><time>2026-04-08T17:31:42Z</time></trkpt><trkpt lat="44.888193206697004" lon="7.961112004140506"><ele>282.0</ele><time>2026-04-08T17:31:43Z</time></trkpt><trkpt lat="44.888278296229956" lon="7.961107217169652"><ele>282.0</ele><time>2026-04-08T17:31:44Z</time></trkpt><trkpt lat="44.888359637891085" lon="7.961093268724079"><ele>282.0</ele><time>2026-04-08T17:31:45Z</time></trkpt><trkpt lat="44.88842890639966" lon="7.96108057738132"><ele>282.0</ele><time>2026-04-08T17:31:46Z</time></trkpt><trkpt lat="44.888514646167046" lon="7.961061051828754"><ele>282.0</ele><time>2026-04-08T17:31:48Z</time></trkpt><trkpt lat="44.888443430260295" lon="7.961283246430014"><ele>282.0</ele><time>2026-04-08T17:31:55Z</time></trkpt><trkpt lat="44.88838918186445" lon="7.961387376216063"><ele>282.0</ele><time>2026-04-08T17:31:57Z</time></trkpt><trkpt lat="44.888306428100925" lon="7.961497980088069"><ele>282.0</ele><time>2026-04-08T17:31:59Z</time></trkpt><trkpt lat="44.88821363104692" lon="7.961580680659205"><ele>282.0</ele><time>2026-04-08T17:32:01Z</time></trkpt><trkpt lat="44.888152470597205" lon="7.961614365680934"><ele>282.0</ele><time>2026-04-08T17:32:02Z</time></trkpt><trkpt lat="44.88807765219661" lon="7.961640784891536"><ele>282.0</ele><time>2026-04-08T17:32:03Z</time></trkpt><trkpt lat="44.88799969918006" lon="7.9616528312788555"><ele>282.0</ele><time>2026-04-08T17:32:04Z</time></trkpt><trkpt lat="44.8879331909169" lon="7.961687650824192"><ele>279.6666666666667</ele><time>2026-04-08T17:32:05Z</time></trkpt><trkpt lat="44.88785742654795" lon="7.961719329097377"><ele>277.3333333333333</ele><time>2026-04-08T17:32:06Z</time></trkpt><trkpt lat="44.88777717521632" lon="7.9617456854920965"><ele>275.0</ele><time>2026-04-08T17:32:07Z</time></trkpt><trkpt lat="44.887692600602016" lon="7.961771560464183"><ele>272.66666666666663</ele><time>2026-04-08T17:32:08Z</time></trkpt><trkpt lat="44.88761235615976" lon="7.961805316032828"><ele>270.3333333333333</ele><time>2026-04-08T17:32:09Z</time></trkpt><trkpt lat="44.88753508639306" lon="7.961842406879465"><ele>268.0</ele><time>2026-04-08T17:32:10Z</time></trkpt><trkpt lat="44.887430893244726" lon="7.961910154920564"><ele>267.5</ele><time>2026-04-08T17:32:12Z</time></trkpt><trkpt lat="44.88737648580865" lon="7.9620086048473455"><ele>267.0</ele><time>2026-04-08T17:32:15Z</time></trkpt><trkpt lat="44.887380774601326" lon="7.96210249338972"><ele>266.5</ele><time>2026-04-08T17:32:16Z</time></trkpt><trkpt lat="44.887378326532954" lon="7.962201459228914"><ele>266.0</ele><time>2026-04-08T17:32:17Z</time></trkpt><trkpt lat="44.88737495937708" lon="7.962291529704567"><ele>265.5</ele><time>2026-04-08T17:32:18Z</time></trkpt><trkpt lat="44.887367040432636" lon="7.962466818451136"><ele>265.0</ele><time>2026-04-08T17:32:20Z</time></trkpt><trkpt lat="44.887364381263765" lon="7.962626058354619"><ele>263.3333333333333</ele><time>2026-04-08T17:32:22Z</time></trkpt><trkpt lat="44.88734925695623" lon="7.9627198592000985"><ele>261.66666666666663</ele><time>2026-04-08T17:32:23Z</time></trkpt><trkpt lat="44.88736234463484" lon="7.962830584098314"><ele>260.0</ele><time>2026-04-08T17:32:25Z</time></trkpt><trkpt lat="44.8874074146163" lon="7.962901115654729"><ele>258.3333333333333</ele><time>2026-04-08T17:32:27Z</time></trkpt><trkpt lat="44.8874834360042" lon="7.962975850399632"><ele>256.6666666666667</ele><time>2026-04-08T17:32:29Z</time></trkpt><trkpt lat="44.887477836671145" lon="7.963099267718231"><ele>255.0</ele><time>2026-04-08T17:32:32Z</time></trkpt><trkpt lat="44.88747502918425" lon="7.963198713746171"><ele>255.0</ele><time>2026-04-08T17:32:36Z</time></trkpt><trkpt lat="44.88748459015325" lon="7.963287155328813"><ele>255.0</ele><time>2026-04-08T17:32:39Z</time></trkpt><trkpt lat="44.88752508013383" lon="7.963378659329017"><ele>255.0</ele><time>2026-04-08T17:32:43Z</time></trkpt><trkpt lat="44.88753648530092" lon="7.963472355468871"><ele>255.0</ele><time>2026-04-08T17:32:45Z</time></trkpt><trkpt lat="44.88758424699544" lon="7.963566639220764"><ele>255.0</ele><time>2026-04-08T17:32:47Z</time></trkpt><trkpt lat="44.8876624339912" lon="7.9635812151114"><ele>255.0</ele><time>2026-04-08T17:32:49Z</time></trkpt><trkpt lat="44.887881956139076" lon="7.963644888935061"><ele>253.5</ele><time>2026-04-08T17:32:57Z</time></trkpt><trkpt lat="44.887933588070055" lon="7.9637073000609915"><ele>252.0</ele><time>2026-04-08T17:33:00Z</time></trkpt><trkpt lat="44.88801979197653" lon="7.963782702805273"><ele>250.5</ele><time>2026-04-08T17:33:03Z</time></trkpt><trkpt lat="44.88809181495125" lon="7.963815811714752"><ele>249.0</ele><time>2026-04-08T17:33:05Z</time></trkpt><trkpt lat="44.88814926493792" lon="7.9639065614502496"><ele>247.5</ele><time>2026-04-08T17:33:08Z</time></trkpt><trkpt lat="44.888163222629615" lon="7.963993748148427"><ele>246.0</ele><time>2026-04-08T17:33:12Z</time></trkpt><trkpt lat="44.888222213460466" lon="7.964065432452841"><ele>246.00000000000003</ele><time>2026-04-08T17:33:16Z</time></trkpt><trkpt lat="44.88829651896072" lon="7.964127838298107"><ele>246.0</ele><time>2026-04-08T17:33:19Z</time></trkpt><trkpt lat="44.88832599316799" lon="7.964209312730185"><ele>246.00000000000003</ele><time>2026-04-08T17:33:23Z</time></trkpt><trkpt lat="44.88836493811928" lon="7.964288295441686"><ele>246.00000000000003</ele><time>2026-04-08T17:33:25Z</time></trkpt><trkpt lat="44.88840379470295" lon="7.96437795903662"><ele>246.0</ele><time>2026-04-08T17:33:29Z</time></trkpt><trkpt lat="44.88839634238503" lon="7.964494640280811"><ele>246.00000000000003</ele><time>2026-04-08T17:33:32Z</time></trkpt><trkpt lat="44.88840055264523" lon="7.964588106462874"><ele>246.00000000000003</ele><time>2026-04-08T17:33:34Z</time></trkpt><trkpt lat="44.88839664719073" lon="7.964704125639046"><ele>246.0</ele><time>2026-04-08T17:33:37Z</time></trkpt><trkpt lat="44.888376909916104" lon="7.964800542712879"><ele>246.00000000000003</ele><time>2026-04-08T17:33:40Z</time></trkpt><trkpt lat="44.88835215366047" lon="7.964890850006412"><ele>246.00000000000003</ele><time>2026-04-08T17:33:49Z</time></trkpt><trkpt lat="44.8884651034523" lon="7.965138960258885"><ele>246.0</ele><time>2026-04-08T17:36:54Z</time></trkpt><trkpt lat="44.888527780935824" lon="7.965190734454132"><ele>246.0</ele><time>2026-04-08T17:36:55Z</time></trkpt><trkpt lat="44.888620410468874" lon="7.96530653982802"><ele>246.0</ele><time>2026-04-08T17:36:57Z</time></trkpt><trkpt lat="44.888677753405" lon="7.965434573401596"><ele>246.00000000000003</ele><time>2026-04-08T17:36:59Z</time></trkpt><trkpt lat="44.88868436782354" lon="7.96557249870456"><ele>246.00000000000003</ele><time>2026-04-08T17:37:01Z</time></trkpt><trkpt lat="44.888678772812554" lon="7.965687285798147"><ele>246.0</ele><time>2026-04-08T17:37:03Z</time></trkpt><trkpt lat="44.88866370443757" lon="7.9657948393428075"><ele>246.0</ele><time>2026-04-08T17:37:06Z</time></trkpt><trkpt lat="44.888678801182735" lon="7.9659293424221085"><ele>246.0</ele><time>2026-04-08T17:37:08Z</time></trkpt><trkpt lat="44.888685436232365" lon="7.966020945416093"><ele>246.0</ele><time>2026-04-08T17:37:10Z</time></trkpt><trkpt lat="44.88868901786635" lon="7.96611348933102"><ele>246.0</ele><time>2026-04-08T17:37:11Z</time></trkpt><trkpt lat="44.888667120961465" lon="7.966248542528198"><ele>246.0</ele><time>2026-04-08T17:37:13Z</time></trkpt><trkpt lat="44.88864730298153" lon="7.966378575358099"><ele>246.0</ele><time>2026-04-08T17:37:15Z</time></trkpt><trkpt lat="44.88860350269315" lon="7.966493619395039"><ele>246.0</ele><time>2026-04-08T17:37:17Z</time></trkpt><trkpt lat="44.88854896367263" lon="7.966613412855016"><ele>248.0</ele><time>2026-04-08T17:37:19Z</time></trkpt><trkpt lat="44.88849590024122" lon="7.966725672965477"><ele>250.0</ele><time>2026-04-08T17:37:21Z</time></trkpt><trkpt lat="44.888444240797504" lon="7.966826931787048"><ele>252.0</ele><time>2026-04-08T17:37:23Z</time></trkpt><trkpt lat="44.88838151717125" lon="7.966927493415021"><ele>254.0</ele><time>2026-04-08T17:37:25Z</time></trkpt><trkpt lat="44.88832493476881" lon="7.967003963537198"><ele>256.0</ele><time>2026-04-08T17:37:27Z</time></trkpt><trkpt lat="44.88828848915032" lon="7.967103916275373"><ele>258.0</ele><time>2026-04-08T17:37:30Z</time></trkpt><trkpt lat="44.888338705419685" lon="7.967179043687089"><ele>258.0</ele><time>2026-04-08T17:37:32Z</time></trkpt><trkpt lat="44.888415192722654" lon="7.967229951891114"><ele>258.0</ele><time>2026-04-08T17:37:34Z</time></trkpt><trkpt lat="44.88848856628772" lon="7.9672549708538805"><ele>258.0</ele><time>2026-04-08T17:37:36Z</time></trkpt><trkpt lat="44.88856061772352" lon="7.967294593868878"><ele>258.0</ele><time>2026-04-08T17:37:40Z</time></trkpt><trkpt lat="44.888626302677125" lon="7.967367220726552"><ele>258.0</ele><time>2026-04-08T17:37:42Z</time></trkpt><trkpt lat="44.88866020054225" lon="7.9674585198738"><ele>258.0</ele><time>2026-04-08T17:37:44Z</time></trkpt><trkpt lat="44.888753333508014" lon="7.967538932507878"><ele>260.3333333333333</ele><time>2026-04-08T17:37:46Z</time></trkpt><trkpt lat="44.88881203637867" lon="7.967571560938355"><ele>262.6666666666667</ele><time>2026-04-08T17:37:47Z</time></trkpt><trkpt lat="44.888876002561794" lon="7.967609064757744"><ele>265.0</ele><time>2026-04-08T17:37:48Z</time></trkpt><trkpt lat="44.8889496588729" lon="7.967662599126136"><ele>267.33333333333337</ele><time>2026-04-08T17:37:49Z</time></trkpt><trkpt lat="44.88902494762109" lon="7.967711503183031"><ele>269.6666666666667</ele><time>2026-04-08T17:37:50Z</time></trkpt><trkpt lat="44.88909926438223" lon="7.967765850800242"><ele>272.0</ele><time>2026-04-08T17:37:51Z</time></trkpt><trkpt lat="44.88916213325675" lon="7.9678178557498915"><ele>272.0</ele><time>2026-04-08T17:37:52Z</time></trkpt><trkpt lat="44.88921973512646" lon="7.967864058440215"><ele>272.0</ele><time>2026-04-08T17:37:53Z</time></trkpt><trkpt lat="44.8893129446909" lon="7.967939919621242"><ele>272.0</ele><time>2026-04-08T17:37:55Z</time></trkpt><trkpt lat="44.88936796509267" lon="7.968015087998589"><ele>272.0</ele><time>2026-04-08T17:37:57Z</time></trkpt><trkpt lat="44.88940289820093" lon="7.968192733645424"><ele>272.0</ele><time>2026-04-08T17:37:59Z</time></trkpt><trkpt lat="44.88938295726299" lon="7.96830717985027"><ele>272.83333333333337</ele><time>2026-04-08T17:38:00Z</time></trkpt><trkpt lat="44.889344852748884" lon="7.968406226009335"><ele>273.6666666666667</ele><time>2026-04-08T17:38:01Z</time></trkpt><trkpt lat="44.889261960335915" lon="7.968435018849473"><ele>274.5</ele><time>2026-04-08T17:38:02Z</time></trkpt><trkpt lat="44.889196366981885" lon="7.968502969224191"><ele>275.3333333333333</ele><time>2026-04-08T17:38:03Z</time></trkpt><trkpt lat="44.889166147526566" lon="7.9685984904086595"><ele>276.16666666666663</ele><time>2026-04-08T17:38:04Z</time></trkpt><trkpt lat="44.88914376467702" lon="7.968714064154847"><ele>277.0</ele><time>2026-04-08T17:38:05Z</time></trkpt><trkpt lat="44.88912727194484" lon="7.968841268133111"><ele>277.4</ele><time>2026-04-08T17:38:06Z</time></trkpt><trkpt lat="44.88912490487947" lon="7.968953205558013"><ele>277.79999999999995</ele><time>2026-04-08T17:38:07Z</time></trkpt><trkpt lat="44.88913922393474" lon="7.969090977419944"><ele>278.2</ele><time>2026-04-08T17:38:08Z</time></trkpt><trkpt lat="44.88913086488214" lon="7.969217968808698"><ele>278.59999999999997</ele><time>2026-04-08T17:38:09Z</time></trkpt><trkpt lat="44.88913262952943" lon="7.96934901555565"><ele>279.0</ele><time>2026-04-08T17:38:10Z</time></trkpt><trkpt lat="44.88913863622188" lon="7.969483655725571"><ele>279.5</ele><time>2026-04-08T17:38:11Z</time></trkpt><trkpt lat="44.88914028834425" lon="7.9696145693443885"><ele>280.0</ele><time>2026-04-08T17:38:12Z</time></trkpt><trkpt lat="44.889143998903684" lon="7.969728261266184"><ele>280.5</ele><time>2026-04-08T17:38:13Z</time></trkpt><trkpt lat="44.889144197549804" lon="7.969836260941584"><ele>281.0</ele><time>2026-04-08T17:38:14Z</time></trkpt><trkpt lat="44.8891467834428" lon="7.969931627090385"><ele>281.5</ele><time>2026-04-08T17:38:15Z</time></trkpt><trkpt lat="44.889152376004546" lon="7.9700989083116225"><ele>282.0</ele><time>2026-04-08T17:38:17Z</time></trkpt><trkpt lat="44.88911009037867" lon="7.970200419439913"><ele>280.8</ele><time>2026-04-08T17:38:19Z</time></trkpt><trkpt lat="44.889054644816966" lon="7.970252711194176"><ele>279.6</ele><time>2026-04-08T17:38:20Z</time></trkpt><trkpt lat="44.88892170642562" lon="7.970338119433169"><ele>278.40000000000003</ele><time>2026-04-08T17:38:22Z</time></trkpt><trkpt lat="44.88884727005018" lon="7.970400375945941"><ele>277.2</ele><time>2026-04-08T17:38:23Z</time></trkpt><trkpt lat="44.88877934764263" lon="7.970462744163494"><ele>276.0</ele><time>2026-04-08T17:38:24Z</time></trkpt><trkpt lat="44.88871623118259" lon="7.9705168034788105"><ele>276.0</ele><time>2026-04-08T17:38:25Z</time></trkpt><trkpt lat="44.88864609698946" lon="7.970570405519714"><ele>276.0</ele><time>2026-04-08T17:38:26Z</time></trkpt><trkpt lat="44.88857347869045" lon="7.970620082871361"><ele>276.0</ele><time>2026-04-08T17:38:27Z</time></trkpt><trkpt lat="44.888511225968" lon="7.97067250058233"><ele>276.0</ele><time>2026-04-08T17:38:28Z</time></trkpt><trkpt lat="44.88841828994046" lon="7.970767328829278"><ele>276.0</ele><time>2026-04-08T17:38:30Z</time></trkpt><trkpt lat="44.88833862703457" lon="7.970795160071379"><ele>276.0</ele><time>2026-04-08T17:38:32Z</time></trkpt><trkpt lat="44.88830624803949" lon="7.9707057225948"><ele>277.5</ele><time>2026-04-08T17:38:34Z</time></trkpt><trkpt lat="44.888304304899144" lon="7.970613262597851"><ele>279.0</ele><time>2026-04-08T17:38:35Z</time></trkpt><trkpt lat="44.88829076464344" lon="7.970502586513695"><ele>280.5</ele><time>2026-04-08T17:38:36Z</time></trkpt><trkpt lat="44.88826902090918" lon="7.97038495741657"><ele>282.0</ele><time>2026-04-08T17:38:37Z</time></trkpt><trkpt lat="44.88823842269572" lon="7.970255052179813"><ele>283.5</ele><time>2026-04-08T17:38:38Z</time></trkpt><trkpt lat="44.88820566450231" lon="7.970119433799627"><ele>285.0</ele><time>2026-04-08T17:38:39Z</time></trkpt><trkpt lat="44.88818885524252" lon="7.969957301466863"><ele>285.2</ele><time>2026-04-08T17:38:40Z</time></trkpt><trkpt lat="44.88814035748103" lon="7.969820581005185"><ele>285.4</ele><time>2026-04-08T17:38:41Z</time></trkpt><trkpt lat="44.88810168724221" lon="7.969679132020299"><ele>285.6</ele><time>2026-04-08T17:38:42Z</time></trkpt><trkpt lat="44.888042325079155" lon="7.9695340031114075"><ele>285.8</ele><time>2026-04-08T17:38:43Z</time></trkpt><trkpt lat="44.88797481284855" lon="7.969405657142217"><ele>286.0</ele><time>2026-04-08T17:38:44Z</time></trkpt><trkpt lat="44.887899383672796" lon="7.969280268260714"><ele>285.75</ele><time>2026-04-08T17:38:45Z</time></trkpt><trkpt lat="44.88781516411735" lon="7.969156123758363"><ele>285.5</ele><time>2026-04-08T17:38:46Z</time></trkpt><trkpt lat="44.88772931736452" lon="7.969038301800202"><ele>285.25</ele><time>2026-04-08T17:38:47Z</time></trkpt><trkpt lat="44.88763886482694" lon="7.968931118943345"><ele>285.0</ele><time>2026-04-08T17:38:48Z</time></trkpt><trkpt lat="44.88754243312287" lon="7.968836233337629"><ele>283.75</ele><time>2026-04-08T17:38:49Z</time></trkpt><trkpt lat="44.88745471497725" lon="7.968728790246768"><ele>282.5</ele><time>2026-04-08T17:38:50Z</time></trkpt><trkpt lat="44.88735791584" lon="7.968635863099094"><ele>281.25</ele><time>2026-04-08T17:38:51Z</time></trkpt><trkpt lat="44.88726674692837" lon="7.968531824460559"><ele>280.0</ele><time>2026-04-08T17:38:52Z</time></trkpt><trkpt lat="44.887171154643816" lon="7.968467555148121"><ele>280.0</ele><time>2026-04-08T17:38:53Z</time></trkpt><trkpt lat="44.88708970630619" lon="7.9683760231719"><ele>280.0</ele><time>2026-04-08T17:38:54Z</time></trkpt><trkpt lat="44.88699598996537" lon="7.968315135419671"><ele>280.0</ele><time>2026-04-08T17:38:55Z</time></trkpt><trkpt lat="44.886890075369074" lon="7.96827331965768"><ele>280.0</ele><time>2026-04-08T17:38:56Z</time></trkpt><trkpt lat="44.88679049528796" lon="7.968217814650633"><ele>280.0</ele><time>2026-04-08T17:38:57Z</time></trkpt><trkpt lat="44.886685256845794" lon="7.968197669396019"><ele>281.16666666666663</ele><time>2026-04-08T17:38:58Z</time></trkpt><trkpt lat="44.88660512477235" lon="7.968158886972529"><ele>282.3333333333333</ele><time>2026-04-08T17:38:59Z</time></trkpt><trkpt lat="44.88654144630547" lon="7.968129529291503"><ele>283.5</ele><time>2026-04-08T17:39:00Z</time></trkpt><trkpt lat="44.886428571760426" lon="7.968063533465768"><ele>284.6666666666667</ele><time>2026-04-08T17:39:02Z</time></trkpt><trkpt lat="44.88636016646007" lon="7.96801831488984"><ele>285.83333333333337</ele><time>2026-04-08T17:39:03Z</time></trkpt><trkpt lat="44.88627451202966" lon="7.968006970688768"><ele>287.0</ele><time>2026-04-08T17:39:04Z</time></trkpt><trkpt lat="44.88618718086567" lon="7.967931612389457"><ele>287.0</ele><time>2026-04-08T17:39:05Z</time></trkpt><trkpt lat="44.88609254100468" lon="7.967884319042016"><ele>287.0</ele><time>2026-04-08T17:39:06Z</time></trkpt><trkpt lat="44.88602022861083" lon="7.9678080704393555"><ele>287.0</ele><time>2026-04-08T17:39:07Z</time></trkpt><trkpt lat="44.88596804478022" lon="7.967725160515458"><ele>287.0</ele><time>2026-04-08T17:39:08Z</time></trkpt><trkpt lat="44.885925732640835" lon="7.96763742325317"><ele>287.0</ele><time>2026-04-08T17:39:09Z</time></trkpt><trkpt lat="44.88591169360088" lon="7.967520480108614"><ele>287.0</ele><time>2026-04-08T17:39:10Z</time></trkpt><trkpt lat="44.88590030250081" lon="7.967405919086262"><ele>286.2</ele><time>2026-04-08T17:39:11Z</time></trkpt><trkpt lat="44.88588337672769" lon="7.967263401829904"><ele>285.4</ele><time>2026-04-08T17:39:12Z</time></trkpt><trkpt lat="44.885859722067885" lon="7.967126533025349"><ele>284.6</ele><time>2026-04-08T17:39:13Z</time></trkpt><trkpt lat="44.88581657074004" lon="7.966987083447176"><ele>283.8</ele><time>2026-04-08T17:39:14Z</time></trkpt><trkpt lat="44.88576133709591" lon="7.966850781217861"><ele>283.0</ele><time>2026-04-08T17:39:15Z</time></trkpt><trkpt lat="44.88568113765995" lon="7.966728627031808"><ele>283.5</ele><time>2026-04-08T17:39:16Z</time></trkpt><trkpt lat="44.885594646130116" lon="7.966646122082274"><ele>284.0</ele><time>2026-04-08T17:39:17Z</time></trkpt><trkpt lat="44.885558311087536" lon="7.966540559721775"><ele>284.5</ele><time>2026-04-08T17:39:18Z</time></trkpt><trkpt lat="44.8855192934229" lon="7.966453074422423"><ele>285.0</ele><time>2026-04-08T17:39:19Z</time></trkpt><trkpt lat="44.885497744445686" lon="7.966360321370249"><ele>285.5</ele><time>2026-04-08T17:39:20Z</time></trkpt><trkpt lat="44.88549956771214" lon="7.966264945193603"><ele>286.0</ele><time>2026-04-08T17:39:21Z</time></trkpt><trkpt lat="44.88550725108955" lon="7.966167809595312"><ele>286.0</ele><time>2026-04-08T17:39:22Z</time></trkpt><trkpt lat="44.88551699454668" lon="7.966052866606277"><ele>286.0</ele><time>2026-04-08T17:39:23Z</time></trkpt><trkpt lat="44.88551562932251" lon="7.965938771734417"><ele>286.0</ele><time>2026-04-08T17:39:24Z</time></trkpt><trkpt lat="44.88546638451026" lon="7.965776402673607"><ele>286.0</ele><time>2026-04-08T17:39:26Z</time></trkpt><trkpt lat="44.88539832085791" lon="7.965743148407866"><ele>286.0</ele><time>2026-04-08T17:39:27Z</time></trkpt><trkpt lat="44.88534257948279" lon="7.965675741862869"><ele>286.0</ele><time>2026-04-08T17:39:28Z</time></trkpt><trkpt lat="44.88526328767992" lon="7.965585733100633"><ele>284.40000000000003</ele><time>2026-04-08T17:39:29Z</time></trkpt><trkpt lat="44.8851783073223" lon="7.965498255735965"><ele>282.8</ele><time>2026-04-08T17:39:30Z</time></trkpt><trkpt lat="44.885099872532415" lon="7.9654244388476885"><ele>281.20000000000005</ele><time>2026-04-08T17:39:31Z</time></trkpt><trkpt lat="44.88499909325972" lon="7.965374000931617"><ele>279.6</ele><time>2026-04-08T17:39:32Z</time></trkpt><trkpt lat="44.884910862020575" lon="7.965366609587273"><ele>278.0</ele><time>2026-04-08T17:39:33Z</time></trkpt><trkpt lat="44.88477966715689" lon="7.965346436958195"><ele>278.0</ele><time>2026-04-08T17:39:34Z</time></trkpt><trkpt lat="44.884684607818286" lon="7.965355745260163"><ele>278.0</ele><time>2026-04-08T17:39:35Z</time></trkpt><trkpt lat="44.88458014763383" lon="7.965405410652554"><ele>278.0</ele><time>2026-04-08T17:39:36Z</time></trkpt><trkpt lat="44.88446504191657" lon="7.965453097105766"><ele>278.0</ele><time>2026-04-08T17:39:37Z</time></trkpt><trkpt lat="44.88435701227439" lon="7.965493676309372"><ele>278.0</ele><time>2026-04-08T17:39:38Z</time></trkpt><trkpt lat="44.88424177953189" lon="7.965516842492326"><ele>277.0</ele><time>2026-04-08T17:39:39Z</time></trkpt><trkpt lat="44.88414139474199" lon="7.965529582128469"><ele>276.0</ele><time>2026-04-08T17:39:40Z</time></trkpt><trkpt lat="44.88404125637013" lon="7.965503317878474"><ele>275.0</ele><time>2026-04-08T17:39:41Z</time></trkpt><trkpt lat="44.883917217513364" lon="7.96547216262505"><ele>274.0</ele><time>2026-04-08T17:39:42Z</time></trkpt><trkpt lat="44.88379288286193" lon="7.965452051958242"><ele>274.0</ele><time>2026-04-08T17:39:43Z</time></trkpt><trkpt lat="44.88366758239949" lon="7.965432037409875"><ele>274.0</ele><time>2026-04-08T17:39:44Z</time></trkpt><trkpt lat="44.88354427962618" lon="7.965415465314346"><ele>274.0</ele><time>2026-04-08T17:39:45Z</time></trkpt><trkpt lat="44.88341927903527" lon="7.965380295243256"><ele>274.0</ele><time>2026-04-08T17:39:46Z</time></trkpt><trkpt lat="44.88329166326505" lon="7.965355190598219"><ele>277.0</ele><time>2026-04-08T17:39:47Z</time></trkpt><trkpt lat="44.8831746977408" lon="7.965362683165965"><ele>280.0</ele><time>2026-04-08T17:39:48Z</time></trkpt><trkpt lat="44.88305315373575" lon="7.96536145260111"><ele>283.0</ele><time>2026-04-08T17:39:49Z</time></trkpt><trkpt lat="44.88293231988644" lon="7.965377218751377"><ele>286.0</ele><time>2026-04-08T17:39:50Z</time></trkpt><trkpt lat="44.88281732480569" lon="7.965365157770895"><ele>286.0</ele><time>2026-04-08T17:39:51Z</time></trkpt><trkpt lat="44.882717632818654" lon="7.9653703858651115"><ele>286.0</ele><time>2026-04-08T17:39:52Z</time></trkpt><trkpt lat="44.88261412555503" lon="7.965375831227841"><ele>286.0</ele><time>2026-04-08T17:39:53Z</time></trkpt><trkpt lat="44.882498445569354" lon="7.965403195831552"><ele>286.0</ele><time>2026-04-08T17:39:54Z</time></trkpt><trkpt lat="44.88237765907506" lon="7.965413941760119"><ele>286.0</ele><time>2026-04-08T17:39:55Z</time></trkpt><trkpt lat="44.88226029984158" lon="7.965417135522572"><ele>287.5</ele><time>2026-04-08T17:39:56Z</time></trkpt><trkpt lat="44.88216189123124" lon="7.965466125964318"><ele>289.0</ele><time>2026-04-08T17:39:57Z</time></trkpt><trkpt lat="44.882043282753486" lon="7.965479103476279"><ele>290.5</ele><time>2026-04-08T17:39:58Z</time></trkpt><trkpt lat="44.88192692360268" lon="7.965513940710138"><ele>292.0</ele><time>2026-04-08T17:39:59Z</time></trkpt><trkpt lat="44.88181222878962" lon="7.965542442255909"><ele>291.5</ele><time>2026-04-08T17:40:00Z</time></trkpt><trkpt lat="44.88170473736794" lon="7.965552719829497"><ele>291.0</ele><time>2026-04-08T17:40:01Z</time></trkpt><trkpt lat="44.88159754918055" lon="7.965546765356351"><ele>290.5</ele><time>2026-04-08T17:40:02Z</time></trkpt><trkpt lat="44.8814819504552" lon="7.965549207805278"><ele>290.0</ele><time>2026-04-08T17:40:03Z</time></trkpt><trkpt lat="44.88135952392817" lon="7.965556787701297"><ele>290.0</ele><time>2026-04-08T17:40:04Z</time></trkpt><trkpt lat="44.881233539505445" lon="7.9655678085442085"><ele>290.0</ele><time>2026-04-08T17:40:05Z</time></trkpt><trkpt lat="44.88111154710137" lon="7.9656018894724445"><ele>290.0</ele><time>2026-04-08T17:40:06Z</time></trkpt><trkpt lat="44.880989888361654" lon="7.965615806538142"><ele>290.0</ele><time>2026-04-08T17:40:07Z</time></trkpt><trkpt lat="44.88086178845566" lon="7.965641261035923"><ele>289.5</ele><time>2026-04-08T17:40:08Z</time></trkpt><trkpt lat="44.88073673228623" lon="7.965673162824446"><ele>289.0</ele><time>2026-04-08T17:40:09Z</time></trkpt><trkpt lat="44.88060330006797" lon="7.965671718618402"><ele>288.5</ele><time>2026-04-08T17:40:10Z</time></trkpt><trkpt lat="44.880479036389325" lon="7.965692520493419"><ele>288.0</ele><time>2026-04-08T17:40:11Z</time></trkpt><trkpt lat="44.880384696589175" lon="7.965728297628651"><ele>288.0</ele><time>2026-04-08T17:40:12Z</time></trkpt><trkpt lat="44.88028373007697" lon="7.965752700302394"><ele>288.0</ele><time>2026-04-08T17:40:13Z</time></trkpt><trkpt lat="44.8801898268124" lon="7.9658117165109585"><ele>288.0</ele><time>2026-04-08T17:40:14Z</time></trkpt><trkpt lat="44.88006714704461" lon="7.965873208924158"><ele>288.0</ele><time>2026-04-08T17:40:15Z</time></trkpt><trkpt lat="44.87994709129592" lon="7.9659519596309565"><ele>288.0</ele><time>2026-04-08T17:40:16Z</time></trkpt><trkpt lat="44.87981915661568" lon="7.965996907312383"><ele>288.0</ele><time>2026-04-08T17:40:17Z</time></trkpt><trkpt lat="44.8797086219528" lon="7.966047520397108"><ele>288.0</ele><time>2026-04-08T17:40:18Z</time></trkpt><trkpt lat="44.87961630769266" lon="7.966080054281813"><ele>288.0</ele><time>2026-04-08T17:40:19Z</time></trkpt><trkpt lat="44.87951500139345" lon="7.966108327188498"><ele>288.0</ele><time>2026-04-08T17:40:20Z</time></trkpt><trkpt lat="44.87941363943794" lon="7.966148926472013"><ele>288.0</ele><time>2026-04-08T17:40:21Z</time></trkpt><trkpt lat="44.87931026053261" lon="7.966209821091925"><ele>288.0</ele><time>2026-04-08T17:40:22Z</time></trkpt><trkpt lat="44.87923112670188" lon="7.966328466740855"><ele>288.0</ele><time>2026-04-08T17:40:23Z</time></trkpt><trkpt lat="44.879147026489626" lon="7.966437732589272"><ele>288.0</ele><time>2026-04-08T17:40:24Z</time></trkpt><trkpt lat="44.879070323961386" lon="7.9665115896663625"><ele>288.0</ele><time>2026-04-08T17:40:25Z</time></trkpt><trkpt lat="44.87896964923284" lon="7.966517628453057"><ele>289.25</ele><time>2026-04-08T17:40:26Z</time></trkpt><trkpt lat="44.878859716238935" lon="7.9665543725786865"><ele>290.5</ele><time>2026-04-08T17:40:27Z</time></trkpt><trkpt lat="44.878745518953835" lon="7.966590244727192"><ele>291.75</ele><time>2026-04-08T17:40:28Z</time></trkpt><trkpt lat="44.878625656706355" lon="7.966627896350887"><ele>293.0</ele><time>2026-04-08T17:40:29Z</time></trkpt><trkpt lat="44.878506574018054" lon="7.966665303049232"><ele>292.75</ele><time>2026-04-08T17:40:30Z</time></trkpt><trkpt lat="44.87837622365832" lon="7.966696819044473"><ele>292.5</ele><time>2026-04-08T17:40:31Z</time></trkpt><trkpt lat="44.87823849605893" lon="7.966722769630414"><ele>292.25</ele><time>2026-04-08T17:40:32Z</time></trkpt><trkpt lat="44.878108584206124" lon="7.9667654314143315"><ele>292.0</ele><time>2026-04-08T17:40:33Z</time></trkpt><trkpt lat="44.877984713972374" lon="7.966815714824652"><ele>292.0</ele><time>2026-04-08T17:40:34Z</time></trkpt><trkpt lat="44.87785873941846" lon="7.96686557839903"><ele>292.0</ele><time>2026-04-08T17:40:35Z</time></trkpt><trkpt lat="44.8777334973704" lon="7.96690002417855"><ele>292.0</ele><time>2026-04-08T17:40:36Z</time></trkpt><trkpt lat="44.877605470921495" lon="7.966919769402941"><ele>292.0</ele><time>2026-04-08T17:40:37Z</time></trkpt><trkpt lat="44.87747406971173" lon="7.966936150056158"><ele>293.5</ele><time>2026-04-08T17:40:38Z</time></trkpt><trkpt lat="44.8773470102984" lon="7.966949470149936"><ele>295.0</ele><time>2026-04-08T17:40:39Z</time></trkpt><trkpt lat="44.87721459818818" lon="7.966960480669366"><ele>296.5</ele><time>2026-04-08T17:40:40Z</time></trkpt><trkpt lat="44.87709606506171" lon="7.966968204102572"><ele>298.0</ele><time>2026-04-08T17:40:41Z</time></trkpt><trkpt lat="44.876990780455515" lon="7.966977046694303"><ele>298.0</ele><time>2026-04-08T17:40:42Z</time></trkpt><trkpt lat="44.876885979248826" lon="7.9669921266360895"><ele>298.0</ele><time>2026-04-08T17:40:43Z</time></trkpt><trkpt lat="44.87678649106966" lon="7.967025475226908"><ele>298.0</ele><time>2026-04-08T17:40:44Z</time></trkpt><trkpt lat="44.87667682213388" lon="7.967115999273693"><ele>298.0</ele><time>2026-04-08T17:40:45Z</time></trkpt><trkpt lat="44.876557067721656" lon="7.967176509732175"><ele>298.75</ele><time>2026-04-08T17:40:46Z</time></trkpt><trkpt lat="44.876438807223686" lon="7.967266070694007"><ele>299.5</ele><time>2026-04-08T17:40:47Z</time></trkpt><trkpt lat="44.87632451791264" lon="7.9673556947686714"><ele>300.25</ele><time>2026-04-08T17:40:48Z</time></trkpt><trkpt lat="44.876200963698146" lon="7.967458030834205"><ele>301.0</ele><time>2026-04-08T17:40:49Z</time></trkpt><trkpt lat="44.87608033036309" lon="7.967559456734894"><ele>302.0</ele><time>2026-04-08T17:40:50Z</time></trkpt><trkpt lat="44.87597371820828" lon="7.967649093467548"><ele>303.0</ele><time>2026-04-08T17:40:51Z</time></trkpt><trkpt lat="44.875882025609975" lon="7.967727609008488"><ele>304.0</ele><time>2026-04-08T17:40:52Z</time></trkpt><trkpt lat="44.87579429065307" lon="7.967802909846884"><ele>305.0</ele><time>2026-04-08T17:40:53Z</time></trkpt><trkpt lat="44.875719991027516" lon="7.967866038614844"><ele>306.0</ele><time>2026-04-08T17:40:54Z</time></trkpt><trkpt lat="44.8756381596387" lon="7.967935306007142"><ele>306.0</ele><time>2026-04-08T17:40:56Z</time></trkpt><trkpt lat="44.875572500038366" lon="7.968019952150286"><ele>306.0</ele><time>2026-04-08T17:40:59Z</time></trkpt><trkpt lat="44.875502677671975" lon="7.968069284854173"><ele>306.0</ele><time>2026-04-08T17:41:02Z</time></trkpt><trkpt lat="44.87542065885564" lon="7.9681766414325805"><ele>306.0</ele><time>2026-04-08T17:41:04Z</time></trkpt><trkpt lat="44.87535871175231" lon="7.9682510564717095"><ele>306.0</ele><time>2026-04-08T17:41:05Z</time></trkpt><trkpt lat="44.87527454028409" lon="7.968323273049901"><ele>306.0</ele><time>2026-04-08T17:41:06Z</time></trkpt><trkpt lat="44.87520185376858" lon="7.968435266888473"><ele>306.0</ele><time>2026-04-08T17:41:07Z</time></trkpt><trkpt lat="44.87511379125472" lon="7.96854422003528"><ele>306.0</ele><time>2026-04-08T17:41:08Z</time></trkpt><trkpt lat="44.87500577810053" lon="7.968657680037541"><ele>306.0</ele><time>2026-04-08T17:41:09Z</time></trkpt><trkpt lat="44.87492549252616" lon="7.968787335032341"><ele>306.0</ele><time>2026-04-08T17:41:10Z</time></trkpt><trkpt lat="44.87485431290006" lon="7.968908560865671"><ele>306.0</ele><time>2026-04-08T17:41:11Z</time></trkpt><trkpt lat="44.87477170377828" lon="7.96897972415163"><ele>306.0</ele><time>2026-04-08T17:41:12Z</time></trkpt><trkpt lat="44.87469631443364" lon="7.969053090040855"><ele>306.0</ele><time>2026-04-08T17:41:13Z</time></trkpt><trkpt lat="44.87462759567457" lon="7.96910799708877"><ele>306.0</ele><time>2026-04-08T17:41:14Z</time></trkpt><trkpt lat="44.87456838564384" lon="7.9691823514796605"><ele>306.0</ele><time>2026-04-08T17:41:15Z</time></trkpt><trkpt lat="44.87449373231593" lon="7.969213608876903"><ele>306.0</ele><time>2026-04-08T17:41:16Z</time></trkpt><trkpt lat="44.87443001199213" lon="7.969263258779477"><ele>306.0</ele><time>2026-04-08T17:41:17Z</time></trkpt><trkpt lat="44.874372498395445" lon="7.969319185139346"><ele>306.0</ele><time>2026-04-08T17:41:18Z</time></trkpt><trkpt lat="44.87431212002163" lon="7.969450290213143"><ele>306.0</ele><time>2026-04-08T17:41:20Z</time></trkpt><trkpt lat="44.8742407010662" lon="7.9695397271851895"><ele>306.0</ele><time>2026-04-08T17:42:25Z</time></trkpt><trkpt lat="44.87418738198485" lon="7.969653775190757"><ele>306.0</ele><time>2026-04-08T17:42:27Z</time></trkpt><trkpt lat="44.8741175131295" lon="7.969756478310112"><ele>306.0</ele><time>2026-04-08T17:42:29Z</time></trkpt><trkpt lat="44.874024342320524" lon="7.969845227481847"><ele>306.0</ele><time>2026-04-08T17:42:31Z</time></trkpt><trkpt lat="44.8739421409232" lon="7.96992351205671"><ele>306.0</ele><time>2026-04-08T17:42:33Z</time></trkpt><trkpt lat="44.87388960096384" lon="7.969974499093784"><ele>306.0</ele><time>2026-04-08T17:42:45Z</time></trkpt><trkpt lat="44.87382043340554" lon="7.970069442132679"><ele>305.2</ele><time>2026-04-08T17:42:48Z</time></trkpt><trkpt lat="44.873779923671655" lon="7.970194875552566"><ele>304.40000000000003</ele><time>2026-04-08T17:42:50Z</time></trkpt><trkpt lat="44.87374149872869" lon="7.970288922242333"><ele>303.6</ele><time>2026-04-08T17:42:53Z</time></trkpt><trkpt lat="44.873738057554604" lon="7.970389643402794"><ele>302.8</ele><time>2026-04-08T17:43:53Z</time></trkpt><trkpt lat="44.87362505352196" lon="7.9705454648162375"><ele>302.0</ele><time>2026-04-08T17:44:49Z</time></trkpt><trkpt lat="44.873549691318836" lon="7.970560127189422"><ele>302.0</ele><time>2026-04-08T17:44:50Z</time></trkpt><trkpt lat="44.873458307704865" lon="7.970568595209521"><ele>302.0</ele><time>2026-04-08T17:44:51Z</time></trkpt><trkpt lat="44.873343972299864" lon="7.970566856052424"><ele>302.0</ele><time>2026-04-08T17:44:52Z</time></trkpt><trkpt lat="44.873227638839005" lon="7.970573786017923"><ele>302.0</ele><time>2026-04-08T17:44:53Z</time></trkpt><trkpt lat="44.87311211560103" lon="7.9705789658322725"><ele>302.0</ele><time>2026-04-08T17:44:54Z</time></trkpt><trkpt lat="44.87300840121275" lon="7.9705800684183865"><ele>303.8</ele><time>2026-04-08T17:44:55Z</time></trkpt><trkpt lat="44.8729209178637" lon="7.970588309729295"><ele>305.6</ele><time>2026-04-08T17:44:56Z</time></trkpt><trkpt lat="44.87283159087669" lon="7.970579353860195"><ele>307.40000000000003</ele><time>2026-04-08T17:44:57Z</time></trkpt><trkpt lat="44.87273646050393" lon="7.970582276898329"><ele>309.2</ele><time>2026-04-08T17:44:58Z</time></trkpt><trkpt lat="44.87263377922612" lon="7.9705857795507935"><ele>311.0</ele><time>2026-04-08T17:44:59Z</time></trkpt><trkpt lat="44.87253487767065" lon="7.97058784822294"><ele>311.40000000000003</ele><time>2026-04-08T17:45:00Z</time></trkpt><trkpt lat="44.8724352332047" lon="7.970593081324391"><ele>311.8</ele><time>2026-04-08T17:45:01Z</time></trkpt><trkpt lat="44.87232045732328" lon="7.970594068367144"><ele>312.20000000000005</ele><time>2026-04-08T17:45:02Z</time></trkpt><trkpt lat="44.87220507326714" lon="7.970594810927051"><ele>312.6</ele><time>2026-04-08T17:45:03Z</time></trkpt><trkpt lat="44.872088797658016" lon="7.970599911552023"><ele>313.0</ele><time>2026-04-08T17:45:04Z</time></trkpt><trkpt lat="44.87197484841429" lon="7.970599539412843"><ele>313.0</ele><time>2026-04-08T17:45:05Z</time></trkpt><trkpt lat="44.87184294515623" lon="7.970603884970945"><ele>313.0</ele><time>2026-04-08T17:45:06Z</time></trkpt><trkpt lat="44.871737809576445" lon="7.9705974516715665"><ele>313.0</ele><time>2026-04-08T17:45:07Z</time></trkpt><trkpt lat="44.87163696672012" lon="7.970597977711025"><ele>313.0</ele><time>2026-04-08T17:45:08Z</time></trkpt><trkpt lat="44.871546484084774" lon="7.970588527135952"><ele>313.0</ele><time>2026-04-08T17:45:09Z</time></trkpt><trkpt lat="44.87143892211634" lon="7.970565365556848"><ele>313.25</ele><time>2026-04-08T17:45:10Z</time></trkpt><trkpt lat="44.87132167469109" lon="7.970522837373392"><ele>313.5</ele><time>2026-04-08T17:45:11Z</time></trkpt><trkpt lat="44.871197312561065" lon="7.970455087261585"><ele>313.75</ele><time>2026-04-08T17:45:12Z</time></trkpt><trkpt lat="44.8710886970197" lon="7.970392661726934"><ele>314.0</ele><time>2026-04-08T17:45:13Z</time></trkpt><trkpt lat="44.87097845915383" lon="7.97033395070236"><ele>313.0</ele><time>2026-04-08T17:45:14Z</time></trkpt><trkpt lat="44.8708643596885" lon="7.970300900433252"><ele>312.0</ele><time>2026-04-08T17:45:15Z</time></trkpt><trkpt lat="44.87074835198743" lon="7.970264736472101"><ele>311.0</ele><time>2026-04-08T17:45:16Z</time></trkpt><trkpt lat="44.87062546518679" lon="7.970238652245386"><ele>310.0</ele><time>2026-04-08T17:45:17Z</time></trkpt><trkpt lat="44.87050517302769" lon="7.970223520374409"><ele>310.0</ele><time>2026-04-08T17:45:18Z</time></trkpt><trkpt lat="44.870381215868186" lon="7.970206483424416"><ele>310.0</ele><time>2026-04-08T17:45:19Z</time></trkpt><trkpt lat="44.87025372108873" lon="7.970192286728699"><ele>310.0</ele><time>2026-04-08T17:45:20Z</time></trkpt><trkpt lat="44.87012997686218" lon="7.970170824358609"><ele>310.0</ele><time>2026-04-08T17:45:21Z</time></trkpt><trkpt lat="44.87000617754008" lon="7.97015369854548"><ele>312.0</ele><time>2026-04-08T17:45:22Z</time></trkpt><trkpt lat="44.86986684965764" lon="7.970111279848214"><ele>314.0</ele><time>2026-04-08T17:45:23Z</time></trkpt><trkpt lat="44.86973340990899" lon="7.970111859674366"><ele>316.0</ele><time>2026-04-08T17:45:24Z</time></trkpt><trkpt lat="44.86961701186024" lon="7.970096967972198"><ele>318.0</ele><time>2026-04-08T17:45:25Z</time></trkpt><trkpt lat="44.869487514765964" lon="7.970077808910269"><ele>318.0</ele><time>2026-04-08T17:45:26Z</time></trkpt><trkpt lat="44.86936291781883" lon="7.970048886397875"><ele>318.0</ele><time>2026-04-08T17:45:27Z</time></trkpt><trkpt lat="44.86924910869116" lon="7.970016412429261"><ele>318.0</ele><time>2026-04-08T17:45:28Z</time></trkpt><trkpt lat="44.86912978077289" lon="7.969990701722649"><ele>318.0</ele><time>2026-04-08T17:45:29Z</time></trkpt><trkpt lat="44.86905436317187" lon="7.969974452043731"><ele>318.0</ele><time>2026-04-08T17:45:30Z</time></trkpt><trkpt lat="44.86898488780442" lon="7.96996788713584"><ele>317.6</ele><time>2026-04-08T17:45:32Z</time></trkpt><trkpt lat="44.86891796221311" lon="7.969926789913562"><ele>317.20000000000005</ele><time>2026-04-08T17:45:36Z</time></trkpt><trkpt lat="44.86889723352822" lon="7.969758181501806"><ele>316.8</ele><time>2026-04-08T17:45:37Z</time></trkpt><trkpt lat="44.8688563862226" lon="7.969610379718366"><ele>316.40000000000003</ele><time>2026-04-08T17:45:38Z</time></trkpt><trkpt lat="44.868805898790136" lon="7.96946414845725"><ele>316.0</ele><time>2026-04-08T17:45:39Z</time></trkpt><trkpt lat="44.86875495737905" lon="7.969301896773909"><ele>316.25</ele><time>2026-04-08T17:45:40Z</time></trkpt><trkpt lat="44.86870629143351" lon="7.969115457471167"><ele>316.5</ele><time>2026-04-08T17:45:41Z</time></trkpt><trkpt lat="44.86869417896297" lon="7.968913782173095"><ele>316.75</ele><time>2026-04-08T17:45:42Z</time></trkpt><trkpt lat="44.86865758379105" lon="7.9687075206081746"><ele>317.0</ele><time>2026-04-08T17:45:43Z</time></trkpt><trkpt lat="44.86863191549443" lon="7.968501852287871"><ele>317.25</ele><time>2026-04-08T17:45:44Z</time></trkpt><trkpt lat="44.868599362237596" lon="7.968300312592189"><ele>317.5</ele><time>2026-04-08T17:45:45Z</time></trkpt><trkpt lat="44.868574581225054" lon="7.968117993619324"><ele>317.75</ele><time>2026-04-08T17:45:46Z</time></trkpt><trkpt lat="44.86856269247662" lon="7.967952937006145"><ele>318.0</ele><time>2026-04-08T17:45:47Z</time></trkpt><trkpt lat="44.868564562933024" lon="7.967823240565395"><ele>318.0</ele><time>2026-04-08T17:45:48Z</time></trkpt><trkpt lat="44.868572564188646" lon="7.967694179267117"><ele>318.0</ele><time>2026-04-08T17:45:49Z</time></trkpt><trkpt lat="44.868588733017596" lon="7.967550782684704"><ele>318.0</ele><time>2026-04-08T17:45:50Z</time></trkpt><trkpt lat="44.86861072839142" lon="7.967389065468033"><ele>318.0</ele><time>2026-04-08T17:45:51Z</time></trkpt><trkpt lat="44.86864085447649" lon="7.967229353106621"><ele>318.0</ele><time>2026-04-08T17:45:52Z</time></trkpt><trkpt lat="44.86867042303179" lon="7.967065673694905"><ele>317.25</ele><time>2026-04-08T17:45:53Z</time></trkpt><trkpt lat="44.868703117312066" lon="7.96690731063725"><ele>316.5</ele><time>2026-04-08T17:45:54Z</time></trkpt><trkpt lat="44.868735017535556" lon="7.966739794835098"><ele>315.75</ele><time>2026-04-08T17:45:55Z</time></trkpt><trkpt lat="44.868761756196946" lon="7.966573337904509"><ele>315.0</ele><time>2026-04-08T17:45:56Z</time></trkpt><trkpt lat="44.868784663449475" lon="7.966404925584023"><ele>315.0</ele><time>2026-04-08T17:45:57Z</time></trkpt><trkpt lat="44.86878088312783" lon="7.966250525385002"><ele>315.0</ele><time>2026-04-08T17:45:58Z</time></trkpt><trkpt lat="44.868756588086605" lon="7.966093181691111"><ele>315.0</ele><time>2026-04-08T17:45:59Z</time></trkpt><trkpt lat="44.8687017820043" lon="7.965943127380746"><ele>315.0</ele><time>2026-04-08T17:46:00Z</time></trkpt><trkpt lat="44.86863957229061" lon="7.9657966162101035"><ele>315.6</ele><time>2026-04-08T17:46:01Z</time></trkpt><trkpt lat="44.868574622945744" lon="7.965654117516735"><ele>316.2</ele><time>2026-04-08T17:46:02Z</time></trkpt><trkpt lat="44.86852687393876" lon="7.965511330783439"><ele>316.8</ele><time>2026-04-08T17:46:03Z</time></trkpt><trkpt lat="44.86848875276062" lon="7.9653952899136256"><ele>317.4</ele><time>2026-04-08T17:46:04Z</time></trkpt><trkpt lat="44.86847426563143" lon="7.965270225501543"><ele>318.0</ele><time>2026-04-08T17:46:05Z</time></trkpt><trkpt lat="44.86843943987936" lon="7.965131117071256"><ele>319.5</ele><time>2026-04-08T17:46:06Z</time></trkpt><trkpt lat="44.86842778919552" lon="7.964981669785526"><ele>321.0</ele><time>2026-04-08T17:46:07Z</time></trkpt><trkpt lat="44.86841884401168" lon="7.964825991403561"><ele>322.5</ele><time>2026-04-08T17:46:08Z</time></trkpt><trkpt lat="44.86841422748219" lon="7.96466183437848"><ele>324.0</ele><time>2026-04-08T17:46:09Z</time></trkpt><trkpt lat="44.86840727870403" lon="7.964492220758023"><ele>324.0</ele><time>2026-04-08T17:46:10Z</time></trkpt><trkpt lat="44.86840119298996" lon="7.964339578875505"><ele>324.0</ele><time>2026-04-08T17:46:11Z</time></trkpt><trkpt lat="44.868398389958365" lon="7.964215220496444"><ele>324.0</ele><time>2026-04-08T17:46:12Z</time></trkpt><trkpt lat="44.868383652580825" lon="7.964113420625431"><ele>324.0</ele><time>2026-04-08T17:46:15Z</time></trkpt><trkpt lat="44.86835997862807" lon="7.9639770637432346"><ele>324.0</ele><time>2026-04-08T17:46:20Z</time></trkpt><trkpt lat="44.86826737010485" lon="7.963873407262582"><ele>323.8333333333333</ele><time>2026-04-08T17:46:22Z</time></trkpt><trkpt lat="44.868204479629334" lon="7.963849211771556"><ele>323.6666666666667</ele><time>2026-04-08T17:46:23Z</time></trkpt><trkpt lat="44.86814161731258" lon="7.963812972762482"><ele>323.5</ele><time>2026-04-08T17:46:24Z</time></trkpt><trkpt lat="44.868061420723976" lon="7.963784239855153"><ele>323.33333333333337</ele><time>2026-04-08T17:46:25Z</time></trkpt><trkpt lat="44.867980762075724" lon="7.96374296696753"><ele>323.1666666666667</ele><time>2026-04-08T17:46:26Z</time></trkpt><trkpt lat="44.867877716659436" lon="7.963762364051175"><ele>323.0</ele><time>2026-04-08T17:46:27Z</time></trkpt><trkpt lat="44.86778328085793" lon="7.963786607470471"><ele>323.0</ele><time>2026-04-08T17:46:28Z</time></trkpt><trkpt lat="44.86767348948919" lon="7.963812095272961"><ele>323.0</ele><time>2026-04-08T17:46:29Z</time></trkpt><trkpt lat="44.867532504984034" lon="7.963866305022551"><ele>323.0</ele><time>2026-04-08T17:46:30Z</time></trkpt><trkpt lat="44.86737682902062" lon="7.963932414068328"><ele>323.0</ele><time>2026-04-08T17:46:31Z</time></trkpt><trkpt lat="44.867215464421655" lon="7.9640260168487655"><ele>322.33333333333337</ele><time>2026-04-08T17:46:32Z</time></trkpt><trkpt lat="44.86703762252986" lon="7.964093805604631"><ele>321.6666666666667</ele><time>2026-04-08T17:46:33Z</time></trkpt><trkpt lat="44.86687170694131" lon="7.964156903458891"><ele>321.0</ele><time>2026-04-08T17:46:34Z</time></trkpt><trkpt lat="44.86672015054914" lon="7.964214027716589"><ele>317.5</ele><time>2026-04-08T17:46:35Z</time></trkpt><trkpt lat="44.86657750612194" lon="7.964265501522379"><ele>314.0</ele><time>2026-04-08T17:46:36Z</time></trkpt><trkpt lat="44.86645032797332" lon="7.964273526150301"><ele>310.5</ele><time>2026-04-08T17:46:37Z</time></trkpt><trkpt lat="44.86634323058006" lon="7.964296288204375"><ele>307.0</ele><time>2026-04-08T17:46:38Z</time></trkpt><trkpt lat="44.866237520151806" lon="7.964321634537565"><ele>307.0</ele><time>2026-04-08T17:46:39Z</time></trkpt><trkpt lat="44.86612914495696" lon="7.964373860110253"><ele>307.0</ele><time>2026-04-08T17:46:40Z</time></trkpt><trkpt lat="44.866022360322624" lon="7.964417614984233"><ele>307.0</ele><time>2026-04-08T17:46:41Z</time></trkpt><trkpt lat="44.865922651219975" lon="7.96448934092948"><ele>307.0</ele><time>2026-04-08T17:46:42Z</time></trkpt><trkpt lat="44.86583213186043" lon="7.964565835044733"><ele>307.0</ele><time>2026-04-08T17:46:43Z</time></trkpt><trkpt lat="44.86575085054711" lon="7.9646236960917065"><ele>307.0</ele><time>2026-04-08T17:46:44Z</time></trkpt><trkpt lat="44.86568578650002" lon="7.964648239980218"><ele>307.0</ele><time>2026-04-08T17:46:46Z</time></trkpt><trkpt lat="44.86574077659233" lon="7.965076117664295"><ele>307.0</ele><time>2026-04-08T17:46:49Z</time></trkpt><trkpt lat="44.86574088245582" lon="7.965229093351075"><ele>306.0</ele><time>2026-04-08T17:46:50Z</time></trkpt><trkpt lat="44.86572530494253" lon="7.965346314104085"><ele>305.0</ele><time>2026-04-08T17:46:51Z</time></trkpt><trkpt lat="44.86569904495495" lon="7.965432725271113"><ele>304.0</ele><time>2026-04-08T17:46:52Z</time></trkpt><trkpt lat="44.8656655505937" lon="7.965548245511467"><ele>303.0</ele><time>2026-04-08T17:46:53Z</time></trkpt><trkpt lat="44.86561909280016" lon="7.965670910347704"><ele>302.0</ele><time>2026-04-08T17:46:54Z</time></trkpt><trkpt lat="44.865578682447435" lon="7.9657790686796845"><ele>301.0</ele><time>2026-04-08T17:46:55Z</time></trkpt><trkpt lat="44.865540007619465" lon="7.965891704446585"><ele>299.5</ele><time>2026-04-08T17:46:56Z</time></trkpt><trkpt lat="44.865519345364135" lon="7.966016616272137"><ele>298.0</ele><time>2026-04-08T17:46:57Z</time></trkpt><trkpt lat="44.86551560822688" lon="7.966150883846924"><ele>296.5</ele><time>2026-04-08T17:46:58Z</time></trkpt><trkpt lat="44.865512500088116" lon="7.9662520958877305"><ele>295.0</ele><time>2026-04-08T17:46:59Z</time></trkpt><trkpt lat="44.86550804917786" lon="7.9663808952601345"><ele>293.5</ele><time>2026-04-08T17:47:01Z</time></trkpt><trkpt lat="44.865500309194125" lon="7.966484049309545"><ele>292.0</ele><time>2026-04-08T17:47:03Z</time></trkpt><trkpt lat="44.86547610905652" lon="7.966621980229221"><ele>290.3333333333333</ele><time>2026-04-08T17:47:05Z</time></trkpt><trkpt lat="44.86552837959565" lon="7.966699106632583"><ele>288.66666666666663</ele><time>2026-04-08T17:47:07Z</time></trkpt><trkpt lat="44.865598244454596" lon="7.966772325957102"><ele>287.0</ele><time>2026-04-08T17:47:09Z</time></trkpt><trkpt lat="44.86564086490338" lon="7.966911731535262"><ele>285.3333333333333</ele><time>2026-04-08T17:47:12Z</time></trkpt><trkpt lat="44.86563475975264" lon="7.967017019143712"><ele>283.6666666666667</ele><time>2026-04-08T17:47:14Z</time></trkpt><trkpt lat="44.86560819398915" lon="7.9671430944876285"><ele>282.0</ele><time>2026-04-08T17:47:16Z</time></trkpt><trkpt lat="44.86555801675753" lon="7.967246252273603"><ele>282.0</ele><time>2026-04-08T17:47:18Z</time></trkpt><trkpt lat="44.865506643082256" lon="7.967303108445187"><ele>282.0</ele><time>2026-04-08T17:47:23Z</time></trkpt><trkpt lat="44.865469584983906" lon="7.967377991204971"><ele>282.0</ele><time>2026-04-08T17:47:26Z</time></trkpt><trkpt lat="44.86542977853132" lon="7.967461134551651"><ele>282.0</ele><time>2026-04-08T17:47:28Z</time></trkpt><trkpt lat="44.865366015481435" lon="7.967514674047246"><ele>282.0</ele><time>2026-04-08T17:47:30Z</time></trkpt><trkpt lat="44.86529256932412" lon="7.967626051817436"><ele>282.0</ele><time>2026-04-08T17:47:33Z</time></trkpt><trkpt lat="44.86523679679621" lon="7.967711161257872"><ele>279.3333333333333</ele><time>2026-04-08T17:47:34Z</time></trkpt><trkpt lat="44.86519873919151" lon="7.96778534493998"><ele>276.6666666666667</ele><time>2026-04-08T17:47:35Z</time></trkpt><trkpt lat="44.865234239220996" lon="7.967906432041268"><ele>274.0</ele><time>2026-04-08T17:47:37Z</time></trkpt><trkpt lat="44.86533516542988" lon="7.967856490016911"><ele>271.33333333333337</ele><time>2026-04-08T17:47:40Z</time></trkpt><trkpt lat="44.86541219656815" lon="7.967800055000183"><ele>268.6666666666667</ele><time>2026-04-08T17:47:44Z</time></trkpt><trkpt lat="44.86550169922421" lon="7.9677634082706525"><ele>266.0</ele><time>2026-04-08T17:47:48Z</time></trkpt><trkpt lat="44.865574244306366" lon="7.967727858351907"><ele>266.0</ele><time>2026-04-08T17:47:50Z</time></trkpt><trkpt lat="44.86563980712006" lon="7.967676338775012"><ele>266.0</ele><time>2026-04-08T17:47:51Z</time></trkpt><trkpt lat="44.865707249045556" lon="7.9675819334702425"><ele>266.0</ele><time>2026-04-08T17:47:55Z</time></trkpt><trkpt lat="44.865792175664716" lon="7.96752975481388"><ele>266.0</ele><time>2026-04-08T17:47:57Z</time></trkpt><trkpt lat="44.86585711817417" lon="7.967468126374633"><ele>266.0</ele><time>2026-04-08T17:47:58Z</time></trkpt><trkpt lat="44.86597069873995" lon="7.967380833934076"><ele>267.6</ele><time>2026-04-08T17:48:00Z</time></trkpt><trkpt lat="44.866103738321975" lon="7.967255072709032"><ele>269.20000000000005</ele><time>2026-04-08T17:48:02Z</time></trkpt><trkpt lat="44.86617977024559" lon="7.967241102765152"><ele>270.79999999999995</ele><time>2026-04-08T17:48:04Z</time></trkpt><trkpt lat="44.86619167944922" lon="7.967336181548009"><ele>272.4</ele><time>2026-04-08T17:48:06Z</time></trkpt><trkpt lat="44.86615738079279" lon="7.967424761432753"><ele>274.0</ele><time>2026-04-08T17:48:07Z</time></trkpt><trkpt lat="44.86609838994666" lon="7.967506186855233"><ele>273.3333333333333</ele><time>2026-04-08T17:48:08Z</time></trkpt><trkpt lat="44.866046177189084" lon="7.967568477718324"><ele>272.66666666666663</ele><time>2026-04-08T17:48:09Z</time></trkpt><trkpt lat="44.8659638070156" lon="7.967684611469241"><ele>272.0</ele><time>2026-04-08T17:48:11Z</time></trkpt><trkpt lat="44.86594263615249" lon="7.967777110111115"><ele>271.3333333333333</ele><time>2026-04-08T17:48:12Z</time></trkpt><trkpt lat="44.86591519292755" lon="7.967863383927537"><ele>270.6666666666667</ele><time>2026-04-08T17:48:13Z</time></trkpt><trkpt lat="44.86583774367715" lon="7.967957559720098"><ele>270.0</ele><time>2026-04-08T17:48:15Z</time></trkpt><trkpt lat="44.865761900442834" lon="7.967996172565208"><ele>269.2</ele><time>2026-04-08T17:48:16Z</time></trkpt><trkpt lat="44.865665752031724" lon="7.968058715767326"><ele>268.4</ele><time>2026-04-08T17:48:17Z</time></trkpt><trkpt lat="44.86559134955503" lon="7.9681370764280075"><ele>267.6</ele><time>2026-04-08T17:48:18Z</time></trkpt><trkpt lat="44.86553493001851" lon="7.968238812031347"><ele>266.8</ele><time>2026-04-08T17:48:19Z</time></trkpt><trkpt lat="44.865497303186565" lon="7.968355553053157"><ele>266.0</ele><time>2026-04-08T17:48:20Z</time></trkpt><trkpt lat="44.86547000523393" lon="7.968473147312689"><ele>264.40000000000003</ele><time>2026-04-08T17:48:21Z</time></trkpt><trkpt lat="44.86542377274749" lon="7.968579681397994"><ele>262.8</ele><time>2026-04-08T17:48:23Z</time></trkpt><trkpt lat="44.86529712649475" lon="7.968675976193246"><ele>261.20000000000005</ele><time>2026-04-08T17:48:25Z</time></trkpt><trkpt lat="44.86522260993189" lon="7.968716200556705"><ele>259.6</ele><time>2026-04-08T17:48:26Z</time></trkpt><trkpt lat="44.86515799518845" lon="7.968747515024853"><ele>258.0</ele><time>2026-04-08T17:48:27Z</time></trkpt><trkpt lat="44.86507469545327" lon="7.968880047595055"><ele>257.6666666666667</ele><time>2026-04-08T17:48:29Z</time></trkpt><trkpt lat="44.8650334931965" lon="7.968981464046307"><ele>257.3333333333333</ele><time>2026-04-08T17:48:31Z</time></trkpt><trkpt lat="44.86496376066753" lon="7.969019291139732"><ele>257.0</ele><time>2026-04-08T17:48:32Z</time></trkpt><trkpt lat="44.864847017262605" lon="7.969012161698853"><ele>256.66666666666663</ele><time>2026-04-08T17:48:34Z</time></trkpt><trkpt lat="44.86477059373091" lon="7.968981280801047"><ele>256.3333333333333</ele><time>2026-04-08T17:48:36Z</time></trkpt><trkpt lat="44.864711087610296" lon="7.9689490687747675"><ele>256.0</ele><time>2026-04-08T17:48:38Z</time></trkpt><trkpt lat="44.8646070094037" lon="7.968885353125037"><ele>255.99999999999997</ele><time>2026-04-08T17:48:40Z</time></trkpt><trkpt lat="44.864540520628296" lon="7.968849863723432"><ele>256.0</ele><time>2026-04-08T17:48:41Z</time></trkpt><trkpt lat="44.86447352163276" lon="7.968829300287929"><ele>256.0</ele><time>2026-04-08T17:48:42Z</time></trkpt><trkpt lat="44.86441070589328" lon="7.968838541699445"><ele>256.0</ele><time>2026-04-08T17:48:43Z</time></trkpt><trkpt lat="44.864300052445145" lon="7.968928640765045"><ele>255.99999999999997</ele><time>2026-04-08T17:48:45Z</time></trkpt><trkpt lat="44.86423661548091" lon="7.969024912426848"><ele>256.0</ele><time>2026-04-08T17:48:46Z</time></trkpt><trkpt lat="44.86418980160078" lon="7.9691304174314"><ele>254.4</ele><time>2026-04-08T17:48:47Z</time></trkpt><trkpt lat="44.86414201958642" lon="7.969258788241678"><ele>252.8</ele><time>2026-04-08T17:48:48Z</time></trkpt><trkpt lat="44.86409065789916" lon="7.969398549130732"><ele>251.20000000000002</ele><time>2026-04-08T17:48:49Z</time></trkpt><trkpt lat="44.86405387368172" lon="7.969508676292477"><ele>249.60000000000002</ele><time>2026-04-08T17:48:50Z</time></trkpt><trkpt lat="44.86400982352913" lon="7.969608110568971"><ele>248.0</ele><time>2026-04-08T17:48:51Z</time></trkpt><trkpt lat="44.86396186931636" lon="7.969699384422121"><ele>248.0</ele><time>2026-04-08T17:48:52Z</time></trkpt><trkpt lat="44.86391751878448" lon="7.96976460811472"><ele>248.0</ele><time>2026-04-08T17:48:53Z</time></trkpt><trkpt lat="44.86387129920001" lon="7.969895682786305"><ele>248.0</ele><time>2026-04-08T17:48:55Z</time></trkpt><trkpt lat="44.86384425460491" lon="7.969993642404202"><ele>248.0</ele><time>2026-04-08T17:48:59Z</time></trkpt><trkpt lat="44.86386287353604" lon="7.970084265439953"><ele>248.0</ele><time>2026-04-08T17:49:03Z</time></trkpt><trkpt lat="44.86404408260272" lon="7.970580062665367"><ele>248.0</ele><time>2026-04-08T17:49:04Z</time></trkpt><trkpt lat="44.864078958511655" lon="7.970662442767512"><ele>248.0</ele><time>2026-04-08T17:49:05Z</time></trkpt><trkpt lat="44.86411828784224" lon="7.970804706989463"><ele>248.0</ele><time>2026-04-08T17:49:06Z</time></trkpt><trkpt lat="44.864154114010475" lon="7.970944847361991"><ele>248.0</ele><time>2026-04-08T17:49:07Z</time></trkpt><trkpt lat="44.86419067535558" lon="7.971070226756836"><ele>248.0</ele><time>2026-04-08T17:49:08Z</time></trkpt><trkpt lat="44.86422713895049" lon="7.971168023253437"><ele>248.4</ele><time>2026-04-08T17:49:09Z</time></trkpt><trkpt lat="44.864279229714285" lon="7.971286054696553"><ele>248.8</ele><time>2026-04-08T17:49:10Z</time></trkpt><trkpt lat="44.864323516192165" lon="7.971413525816083"><ele>249.2</ele><time>2026-04-08T17:49:11Z</time></trkpt><trkpt lat="44.86435581312981" lon="7.971542551411736"><ele>249.6</ele><time>2026-04-08T17:49:12Z</time></trkpt><trkpt lat="44.86439838779845" lon="7.971666552397749"><ele>250.0</ele><time>2026-04-08T17:49:13Z</time></trkpt><trkpt lat="44.86443441117495" lon="7.971806765337197"><ele>248.0</ele><time>2026-04-08T17:49:14Z</time></trkpt><trkpt lat="44.86448093142056" lon="7.971928159940586"><ele>246.0</ele><time>2026-04-08T17:49:15Z</time></trkpt><trkpt lat="44.86453335853585" lon="7.972044778095608"><ele>244.0</ele><time>2026-04-08T17:49:16Z</time></trkpt><trkpt lat="44.86458042327432" lon="7.972156213012832"><ele>242.0</ele><time>2026-04-08T17:49:17Z</time></trkpt><trkpt lat="44.864632319313166" lon="7.972254617520255"><ele>240.0</ele><time>2026-04-08T17:49:18Z</time></trkpt><trkpt lat="44.86472600753121" lon="7.9723734956556465"><ele>240.0</ele><time>2026-04-08T17:49:19Z</time></trkpt><trkpt lat="44.86478193146405" lon="7.972490384874802"><ele>240.0</ele><time>2026-04-08T17:49:20Z</time></trkpt><trkpt lat="44.864825917985044" lon="7.972607335350666"><ele>240.0</ele><time>2026-04-08T17:49:21Z</time></trkpt><trkpt lat="44.864860991402914" lon="7.97274834942638"><ele>240.0</ele><time>2026-04-08T17:49:22Z</time></trkpt><trkpt lat="44.8649050191774" lon="7.9728794660156295"><ele>240.0</ele><time>2026-04-08T17:49:23Z</time></trkpt><trkpt lat="44.8649461093168" lon="7.972977059979103"><ele>239.66666666666666</ele><time>2026-04-08T17:49:24Z</time></trkpt><trkpt lat="44.864976605371204" lon="7.973108640826096"><ele>239.33333333333331</ele><time>2026-04-08T17:49:26Z</time></trkpt><trkpt lat="44.86492197737553" lon="7.97322311011121"><ele>239.0</ele><time>2026-04-08T17:49:28Z</time></trkpt><trkpt lat="44.86487158629258" lon="7.973292890996661"><ele>238.66666666666666</ele><time>2026-04-08T17:49:29Z</time></trkpt><trkpt lat="44.864817048234734" lon="7.973378254455833"><ele>238.33333333333331</ele><time>2026-04-08T17:49:30Z</time></trkpt><trkpt lat="44.86474258879027" lon="7.9734634652901"><ele>238.0</ele><time>2026-04-08T17:49:31Z</time></trkpt><trkpt lat="44.864658192298734" lon="7.973551879660067"><ele>238.0</ele><time>2026-04-08T17:49:32Z</time></trkpt><trkpt lat="44.8645569867022" lon="7.9736298649972435"><ele>238.0</ele><time>2026-04-08T17:49:33Z</time></trkpt><trkpt lat="44.86447987267358" lon="7.973683789796858"><ele>238.0</ele><time>2026-04-08T17:49:34Z</time></trkpt><trkpt lat="44.864397089738546" lon="7.973762494871704"><ele>238.0</ele><time>2026-04-08T17:49:36Z</time></trkpt><trkpt lat="44.86443211970568" lon="7.973870664758516"><ele>238.0</ele><time>2026-04-08T17:49:40Z</time></trkpt><trkpt lat="44.86451301223756" lon="7.973921328316579"><ele>238.0</ele><time>2026-04-08T17:49:41Z</time></trkpt><trkpt lat="44.86459809920471" lon="7.97397027658528"><ele>238.0</ele><time>2026-04-08T17:49:42Z</time></trkpt><trkpt lat="44.864710368030096" lon="7.974141093964851"><ele>238.0</ele><time>2026-04-08T17:49:43Z</time></trkpt><trkpt lat="44.86477494271309" lon="7.974319967239366"><ele>238.0</ele><time>2026-04-08T17:49:44Z</time></trkpt><trkpt lat="44.86485951273321" lon="7.974475594838545"><ele>238.0</ele><time>2026-04-08T17:49:45Z</time></trkpt><trkpt lat="44.86494613027474" lon="7.974620643842519"><ele>238.0</ele><time>2026-04-08T17:49:46Z</time></trkpt><trkpt lat="44.86500850495055" lon="7.97476336163133"><ele>238.0</ele><time>2026-04-08T17:49:47Z</time></trkpt><trkpt lat="44.86506076054161" lon="7.974895651130449"><ele>238.0</ele><time>2026-04-08T17:49:48Z</time></trkpt><trkpt lat="44.86509816005597" lon="7.975034453677261"><ele>237.60000000000002</ele><time>2026-04-08T17:49:49Z</time></trkpt><trkpt lat="44.86511522519349" lon="7.97519624638818"><ele>237.20000000000002</ele><time>2026-04-08T17:49:50Z</time></trkpt><trkpt lat="44.86511292635392" lon="7.975353664108059"><ele>236.8</ele><time>2026-04-08T17:49:51Z</time></trkpt><trkpt lat="44.865106903000495" lon="7.975493078096158"><ele>236.4</ele><time>2026-04-08T17:49:52Z</time></trkpt><trkpt lat="44.86509626896789" lon="7.975614688462242"><ele>236.0</ele><time>2026-04-08T17:49:53Z</time></trkpt><trkpt lat="44.8650843471467" lon="7.975718559078963"><ele>236.00000000000003</ele><time>2026-04-08T17:49:54Z</time></trkpt><trkpt lat="44.86505758944932" lon="7.9758241268793535"><ele>236.0</ele><time>2026-04-08T17:49:55Z</time></trkpt><trkpt lat="44.86504144964767" lon="7.975916670653333"><ele>236.0</ele><time>2026-04-08T17:49:56Z</time></trkpt><trkpt lat="44.86501208955111" lon="7.9760163392564944"><ele>236.0</ele><time>2026-04-08T17:49:57Z</time></trkpt><trkpt lat="44.8649800585099" lon="7.976166469806641"><ele>236.00000000000003</ele><time>2026-04-08T17:49:59Z</time></trkpt><trkpt lat="44.86493615923544" lon="7.976255066498072"><ele>236.0</ele><time>2026-04-08T17:50:01Z</time></trkpt><trkpt lat="44.86482825208058" lon="7.976200780874727"><ele>238.0</ele><time>2026-04-08T17:50:02Z</time></trkpt><trkpt lat="44.864746566190206" lon="7.976202644216956"><ele>240.0</ele><time>2026-04-08T17:50:03Z</time></trkpt><trkpt lat="44.86460249365977" lon="7.976186044077244"><ele>242.0</ele><time>2026-04-08T17:50:04Z</time></trkpt><trkpt lat="44.86445809014422" lon="7.9761856925598575"><ele>244.0</ele><time>2026-04-08T17:50:05Z</time></trkpt><trkpt lat="44.864309328507986" lon="7.976188562982261"><ele>247.33333333333331</ele><time>2026-04-08T17:50:06Z</time></trkpt><trkpt lat="44.86414325915955" lon="7.976179823978155"><ele>250.66666666666669</ele><time>2026-04-08T17:50:07Z</time></trkpt><trkpt lat="44.86397809887054" lon="7.976184248500062"><ele>254.0</ele><time>2026-04-08T17:50:08Z</time></trkpt><trkpt lat="44.863813650957596" lon="7.976161056017487"><ele>254.0</ele><time>2026-04-08T17:50:09Z</time></trkpt><trkpt lat="44.863643722862356" lon="7.97614435000602"><ele>254.0</ele><time>2026-04-08T17:50:10Z</time></trkpt><trkpt lat="44.86349095699799" lon="7.97613141889328"><ele>254.0</ele><time>2026-04-08T17:50:11Z</time></trkpt><trkpt lat="44.86335038889002" lon="7.9761393618239795"><ele>253.33333333333334</ele><time>2026-04-08T17:50:12Z</time></trkpt><trkpt lat="44.86320496359949" lon="7.9761627237938"><ele>252.66666666666669</ele><time>2026-04-08T17:50:13Z</time></trkpt><trkpt lat="44.86305291655357" lon="7.976222091807798"><ele>252.0</ele><time>2026-04-08T17:50:14Z</time></trkpt><trkpt lat="44.86290029540594" lon="7.97628692803698"><ele>252.0</ele><time>2026-04-08T17:50:15Z</time></trkpt><trkpt lat="44.862737269571674" lon="7.976362450486757"><ele>252.0</ele><time>2026-04-08T17:50:16Z</time></trkpt><trkpt lat="44.862572404996214" lon="7.976417549241615"><ele>252.0</ele><time>2026-04-08T17:50:17Z</time></trkpt><trkpt lat="44.862412971628004" lon="7.976455685699896"><ele>251.75</ele><time>2026-04-08T17:50:18Z</time></trkpt><trkpt lat="44.86225828606217" lon="7.976503498011718"><ele>251.5</ele><time>2026-04-08T17:50:19Z</time></trkpt><trkpt lat="44.862120022557725" lon="7.976539759380848"><ele>251.25</ele><time>2026-04-08T17:50:20Z</time></trkpt><trkpt lat="44.86198434978999" lon="7.976544646998387"><ele>251.0</ele><time>2026-04-08T17:50:21Z</time></trkpt><trkpt lat="44.86183721421729" lon="7.976523084197125"><ele>251.33333333333334</ele><time>2026-04-08T17:50:22Z</time></trkpt><trkpt lat="44.86169401123803" lon="7.976489011643035"><ele>251.66666666666669</ele><time>2026-04-08T17:50:23Z</time></trkpt><trkpt lat="44.861553288633225" lon="7.976435213152064"><ele>252.0</ele><time>2026-04-08T17:50:24Z</time></trkpt><trkpt lat="44.86140709460112" lon="7.97633298910321"><ele>252.0</ele><time>2026-04-08T17:50:25Z</time></trkpt><trkpt lat="44.86123432023963" lon="7.976230248337758"><ele>252.0</ele><time>2026-04-08T17:50:26Z</time></trkpt><trkpt lat="44.861077453488384" lon="7.976127694301002"><ele>252.0</ele><time>2026-04-08T17:50:27Z</time></trkpt><trkpt lat="44.860917109535876" lon="7.976013362225779"><ele>251.33333333333331</ele><time>2026-04-08T17:50:28Z</time></trkpt><trkpt lat="44.86077608872366" lon="7.975897941063855"><ele>250.66666666666666</ele><time>2026-04-08T17:50:29Z</time></trkpt><trkpt lat="44.8606376183251" lon="7.975787223361449"><ele>250.0</ele><time>2026-04-08T17:50:30Z</time></trkpt><trkpt lat="44.86051370154413" lon="7.975724181524541"><ele>250.0</ele><time>2026-04-08T17:50:31Z</time></trkpt><trkpt lat="44.860376267749345" lon="7.975672301583297"><ele>250.0</ele><time>2026-04-08T17:50:32Z</time></trkpt><trkpt lat="44.86027759233331" lon="7.975648961677166"><ele>250.0</ele><time>2026-04-08T17:50:33Z</time></trkpt><trkpt lat="44.860156683801215" lon="7.975634512622164"><ele>250.0</ele><time>2026-04-08T17:50:34Z</time></trkpt><trkpt lat="44.86004883336536" lon="7.975638277553288"><ele>252.0</ele><time>2026-04-08T17:50:35Z</time></trkpt><trkpt lat="44.85989069582188" lon="7.9756416929729435"><ele>254.0</ele><time>2026-04-08T17:50:36Z</time></trkpt><trkpt lat="44.85973659968667" lon="7.975618171641628"><ele>256.0</ele><time>2026-04-08T17:50:37Z</time></trkpt><trkpt lat="44.85957370129561" lon="7.975558774785159"><ele>256.0</ele><time>2026-04-08T17:50:38Z</time></trkpt><trkpt lat="44.8594187601394" lon="7.975487804582436"><ele>256.0</ele><time>2026-04-08T17:50:39Z</time></trkpt><trkpt lat="44.8592486431594" lon="7.975419592042955"><ele>256.0</ele><time>2026-04-08T17:50:40Z</time></trkpt><trkpt lat="44.85906248502478" lon="7.975365977358837"><ele>257.0</ele><time>2026-04-08T17:50:41Z</time></trkpt><trkpt lat="44.85888766772456" lon="7.975300455911872"><ele>258.0</ele><time>2026-04-08T17:50:42Z</time></trkpt><trkpt lat="44.858702682064326" lon="7.975232380957175"><ele>259.0</ele><time>2026-04-08T17:50:43Z</time></trkpt><trkpt lat="44.85851691829417" lon="7.97518158856266"><ele>262.3333333333333</ele><time>2026-04-08T17:50:44Z</time></trkpt><trkpt lat="44.85832650493338" lon="7.975125261340505"><ele>265.6666666666667</ele><time>2026-04-08T17:50:45Z</time></trkpt><trkpt lat="44.858143512809264" lon="7.975095500606111"><ele>269.0</ele><time>2026-04-08T17:50:46Z</time></trkpt><trkpt lat="44.857989235189194" lon="7.9750246340647"><ele>265.25</ele><time>2026-04-08T17:50:47Z</time></trkpt><trkpt lat="44.85786937923863" lon="7.974980526205856"><ele>261.5</ele><time>2026-04-08T17:50:48Z</time></trkpt><trkpt lat="44.85777298939995" lon="7.974936740224193"><ele>257.75</ele><time>2026-04-08T17:50:49Z</time></trkpt><trkpt lat="44.85766649911793" lon="7.9748934426842375"><ele>254.0</ele><time>2026-04-08T17:50:50Z</time></trkpt><trkpt lat="44.857545880619" lon="7.974791996644875"><ele>254.0</ele><time>2026-04-08T17:50:51Z</time></trkpt><trkpt lat="44.85741169076854" lon="7.974686473475206"><ele>254.0</ele><time>2026-04-08T17:50:52Z</time></trkpt><trkpt lat="44.85726790370863" lon="7.974572772630456"><ele>254.0</ele><time>2026-04-08T17:50:53Z</time></trkpt><trkpt lat="44.85712093052084" lon="7.974456552404234"><ele>254.0</ele><time>2026-04-08T17:50:54Z</time></trkpt><trkpt lat="44.85695085280311" lon="7.974347582718145"><ele>254.0</ele><time>2026-04-08T17:50:55Z</time></trkpt><trkpt lat="44.8568037166553" lon="7.974224813083651"><ele>254.0</ele><time>2026-04-08T17:50:56Z</time></trkpt><trkpt lat="44.85665216012151" lon="7.974101271969827"><ele>253.5</ele><time>2026-04-08T17:50:57Z</time></trkpt><trkpt lat="44.856512141574214" lon="7.973983490663308"><ele>253.0</ele><time>2026-04-08T17:50:58Z</time></trkpt><trkpt lat="44.856407124997695" lon="7.973896128750792"><ele>252.5</ele><time>2026-04-08T17:50:59Z</time></trkpt><trkpt lat="44.85633075609854" lon="7.973822851190326"><ele>252.0</ele><time>2026-04-08T17:51:00Z</time></trkpt><trkpt lat="44.85624527628587" lon="7.973733102313644"><ele>252.0</ele><time>2026-04-08T17:51:02Z</time></trkpt><trkpt lat="44.85615756843046" lon="7.973959062527613"><ele>252.0</ele><time>2026-04-08T17:51:07Z</time></trkpt><trkpt lat="44.85613990092317" lon="7.974076407193295"><ele>252.0</ele><time>2026-04-08T17:51:08Z</time></trkpt><trkpt lat="44.85610989665154" lon="7.9741626470659295"><ele>252.0</ele><time>2026-04-08T17:51:09Z</time></trkpt><trkpt lat="44.85607381364663" lon="7.974271462154181"><ele>252.0</ele><time>2026-04-08T17:51:10Z</time></trkpt><trkpt lat="44.856042609180655" lon="7.974371410588893"><ele>253.66666666666666</ele><time>2026-04-08T17:51:11Z</time></trkpt><trkpt lat="44.855991828334915" lon="7.974463711027036"><ele>255.33333333333331</ele><time>2026-04-08T17:51:12Z</time></trkpt><trkpt lat="44.85593665307483" lon="7.97456831932113"><ele>257.0</ele><time>2026-04-08T17:51:13Z</time></trkpt><trkpt lat="44.85587769017517" lon="7.974688434089759"><ele>258.66666666666663</ele><time>2026-04-08T17:51:14Z</time></trkpt><trkpt lat="44.85582182641031" lon="7.974786289865604"><ele>260.3333333333333</ele><time>2026-04-08T17:51:15Z</time></trkpt><trkpt lat="44.85577662572223" lon="7.974855171400586"><ele>262.0</ele><time>2026-04-08T17:51:16Z</time></trkpt><trkpt lat="44.85569779530397" lon="7.974929030403626"><ele>262.0</ele><time>2026-04-08T17:51:18Z</time></trkpt><trkpt lat="44.85564702463213" lon="7.974984733520244"><ele>262.0</ele><time>2026-04-08T17:51:21Z</time></trkpt><trkpt lat="44.85560186597425" lon="7.975053046223597"><ele>262.0</ele><time>2026-04-08T17:51:23Z</time></trkpt><trkpt lat="44.85554198445548" lon="7.9751254230474"><ele>262.0</ele><time>2026-04-08T17:51:25Z</time></trkpt><trkpt lat="44.85547071433196" lon="7.975203797002051"><ele>262.0</ele><time>2026-04-08T17:51:27Z</time></trkpt><trkpt lat="44.85542018585018" lon="7.975270422000625"><ele>262.0</ele><time>2026-04-08T17:51:29Z</time></trkpt><trkpt lat="44.85536597173877" lon="7.975342827279242"><ele>262.0</ele><time>2026-04-08T17:51:31Z</time></trkpt><trkpt lat="44.85533109678265" lon="7.9754190173569945"><ele>263.6</ele><time>2026-04-08T17:51:33Z</time></trkpt><trkpt lat="44.85528520411" lon="7.975481210861284"><ele>265.2</ele><time>2026-04-08T17:51:35Z</time></trkpt><trkpt lat="44.855207095979125" lon="7.975565023824372"><ele>266.8</ele><time>2026-04-08T17:51:37Z</time></trkpt><trkpt lat="44.855128654512264" lon="7.9756560664116245"><ele>268.4</ele><time>2026-04-08T17:51:39Z</time></trkpt><trkpt lat="44.85504009878978" lon="7.97570873440537"><ele>270.0</ele><time>2026-04-08T17:51:41Z</time></trkpt><trkpt lat="44.85495430163784" lon="7.975768875202375"><ele>270.0</ele><time>2026-04-08T17:51:43Z</time></trkpt><trkpt lat="44.854883002702245" lon="7.9757900912418895"><ele>270.0</ele><time>2026-04-08T17:58:49Z</time></trkpt><trkpt lat="44.85482613846676" lon="7.975859401119809"><ele>270.0</ele><time>2026-04-08T17:59:00Z</time></trkpt><trkpt lat="44.85480941727521" lon="7.97595734127519"><ele>270.0</ele><time>2026-04-08T17:59:02Z</time></trkpt><trkpt lat="44.85490418385448" lon="7.976231284802357"><ele>270.0</ele><time>2026-04-08T17:59:17Z</time></trkpt><trkpt lat="44.85495355716531" lon="7.976301894682433"><ele>270.7142857142857</ele><time>2026-04-08T17:59:18Z</time></trkpt><trkpt lat="44.85498926476778" lon="7.97639584549046"><ele>271.4285714285714</ele><time>2026-04-08T17:59:19Z</time></trkpt><trkpt lat="44.85501193658392" lon="7.976486028972353"><ele>272.1428571428571</ele><time>2026-04-08T17:59:20Z</time></trkpt><trkpt lat="44.85502445531008" lon="7.976596220551282"><ele>272.85714285714283</ele><time>2026-04-08T17:59:21Z</time></trkpt><trkpt lat="44.855029845689714" lon="7.976691526134255"><ele>273.57142857142856</ele><time>2026-04-08T17:59:22Z</time></trkpt><trkpt lat="44.855001855877106" lon="7.976782610236229"><ele>274.2857142857143</ele><time>2026-04-08T17:59:23Z</time></trkpt><trkpt lat="44.85496287820028" lon="7.9768637572843035"><ele>275.0</ele><time>2026-04-08T17:59:24Z</time></trkpt><trkpt lat="44.854925050214334" lon="7.976937615630227"><ele>277.8</ele><time>2026-04-08T17:59:25Z</time></trkpt><trkpt lat="44.85487605798162" lon="7.977011745451912"><ele>280.6</ele><time>2026-04-08T17:59:26Z</time></trkpt><trkpt lat="44.85479821668709" lon="7.977175732396746"><ele>283.4</ele><time>2026-04-08T17:59:28Z</time></trkpt><trkpt lat="44.85474916769255" lon="7.9772552380145765"><ele>286.2</ele><time>2026-04-08T17:59:29Z</time></trkpt><trkpt lat="44.85469153588415" lon="7.977309032892762"><ele>289.0</ele><time>2026-04-08T17:59:30Z</time></trkpt><trkpt lat="44.85460502986505" lon="7.977439932326676"><ele>289.0</ele><time>2026-04-08T17:59:32Z</time></trkpt><trkpt lat="44.85458375619068" lon="7.977565298023936"><ele>289.0</ele><time>2026-04-08T17:59:34Z</time></trkpt><trkpt lat="44.854526850496484" lon="7.977653286095698"><ele>289.0</ele><time>2026-04-08T17:59:36Z</time></trkpt><trkpt lat="44.854454219629666" lon="7.977682890179376"><ele>289.0</ele><time>2026-04-08T17:59:38Z</time></trkpt><trkpt lat="44.85438326627162" lon="7.977657012997162"><ele>289.0</ele><time>2026-04-08T17:59:40Z</time></trkpt><trkpt lat="44.854315543862626" lon="7.977604345075839"><ele>289.0</ele><time>2026-04-08T17:59:43Z</time></trkpt><trkpt lat="44.85419596104669" lon="7.977576708717193"><ele>292.59999999999997</ele><time>2026-04-08T17:59:45Z</time></trkpt><trkpt lat="44.8541202156933" lon="7.977581664993444"><ele>296.2</ele><time>2026-04-08T17:59:46Z</time></trkpt><trkpt lat="44.854045860839165" lon="7.977590773193842"><ele>299.79999999999995</ele><time>2026-04-08T17:59:47Z</time></trkpt><trkpt lat="44.85390646408604" lon="7.977683254677428"><ele>303.4</ele><time>2026-04-08T17:59:49Z</time></trkpt><trkpt lat="44.85383046572832" lon="7.977756490548058"><ele>307.0</ele><time>2026-04-08T17:59:50Z</time></trkpt><trkpt lat="44.853781584170775" lon="7.977815384298223"><ele>307.0</ele><time>2026-04-08T17:59:51Z</time></trkpt><trkpt lat="44.85365421430457" lon="7.977782296428759"><ele>307.0</ele><time>2026-04-08T17:59:53Z</time></trkpt><trkpt lat="44.8535894567909" lon="7.977779963219369"><ele>307.0</ele><time>2026-04-08T17:59:54Z</time></trkpt><trkpt lat="44.85352995662417" lon="7.977861686105548"><ele>307.0</ele><time>2026-04-08T17:59:56Z</time></trkpt><trkpt lat="44.85345949515606" lon="7.97804274471971"><ele>307.0</ele><time>2026-04-08T17:59:58Z</time></trkpt><trkpt lat="44.853421781259506" lon="7.97814836297527"><ele>306.0</ele><time>2026-04-08T17:59:59Z</time></trkpt><trkpt lat="44.85337317618747" lon="7.97822105340375"><ele>305.0</ele><time>2026-04-08T18:00:00Z</time></trkpt><trkpt lat="44.85332773273503" lon="7.978294246616588"><ele>304.0</ele><time>2026-04-08T18:00:01Z</time></trkpt><trkpt lat="44.85325585962027" lon="7.978356107098066"><ele>303.0</ele><time>2026-04-08T18:00:02Z</time></trkpt><trkpt lat="44.8531858292829" lon="7.97843082658971"><ele>302.0</ele><time>2026-04-08T18:00:03Z</time></trkpt><trkpt lat="44.8531356675121" lon="7.978514004851578"><ele>301.0</ele><time>2026-04-08T18:00:04Z</time></trkpt><trkpt lat="44.85305046701469" lon="7.978606843290361"><ele>301.0</ele><time>2026-04-08T18:00:06Z</time></trkpt><trkpt lat="44.85296364507357" lon="7.978519004468599"><ele>301.0</ele><time>2026-04-08T18:00:08Z</time></trkpt><trkpt lat="44.8528907162571" lon="7.978454843273805"><ele>301.0</ele><time>2026-04-08T18:00:09Z</time></trkpt><trkpt lat="44.85281083667406" lon="7.978387972758008"><ele>301.0</ele><time>2026-04-08T18:00:10Z</time></trkpt><trkpt lat="44.8527383245221" lon="7.9783419473987784"><ele>301.0</ele><time>2026-04-08T18:00:11Z</time></trkpt><trkpt lat="44.852681477062184" lon="7.978280345589502"><ele>301.0</ele><time>2026-04-08T18:00:12Z</time></trkpt><trkpt lat="44.85263808654398" lon="7.978201859750624"><ele>302.40000000000003</ele><time>2026-04-08T18:00:13Z</time></trkpt><trkpt lat="44.85253746155942" lon="7.9781206423826445"><ele>303.8</ele><time>2026-04-08T18:00:15Z</time></trkpt><trkpt lat="44.8524112807558" lon="7.978161610975263"><ele>305.20000000000005</ele><time>2026-04-08T18:00:17Z</time></trkpt><trkpt lat="44.85233461706703" lon="7.978201080081342"><ele>306.6</ele><time>2026-04-08T18:00:18Z</time></trkpt><trkpt lat="44.85226733375315" lon="7.978248493023962"><ele>308.0</ele><time>2026-04-08T18:00:19Z</time></trkpt><trkpt lat="44.852185736295766" lon="7.97825105992829"><ele>308.0</ele><time>2026-04-08T18:00:22Z</time></trkpt><trkpt lat="44.85208899329165" lon="7.978174619023861"><ele>308.0</ele><time>2026-04-08T18:00:24Z</time></trkpt><trkpt lat="44.85199726412578" lon="7.978117538048881"><ele>308.0</ele><time>2026-04-08T18:00:25Z</time></trkpt><trkpt lat="44.85188581995988" lon="7.978073258929975"><ele>308.0</ele><time>2026-04-08T18:00:26Z</time></trkpt><trkpt lat="44.85175609259284" lon="7.9779787146693515"><ele>305.75</ele><time>2026-04-08T18:00:27Z</time></trkpt><trkpt lat="44.851633454617485" lon="7.977907247614594"><ele>303.5</ele><time>2026-04-08T18:00:28Z</time></trkpt><trkpt lat="44.85151597359447" lon="7.977861364177933"><ele>301.25</ele><time>2026-04-08T18:00:29Z</time></trkpt><trkpt lat="44.8514131099041" lon="7.9778199306145865"><ele>299.0</ele><time>2026-04-08T18:00:30Z</time></trkpt><trkpt lat="44.85130518735494" lon="7.97778792442607"><ele>299.0</ele><time>2026-04-08T18:00:31Z</time></trkpt><trkpt lat="44.851191941273036" lon="7.977799361154085"><ele>299.0</ele><time>2026-04-08T18:00:32Z</time></trkpt><trkpt lat="44.85107382502299" lon="7.97784821181768"><ele>299.0</ele><time>2026-04-08T18:00:33Z</time></trkpt><trkpt lat="44.850956451110314" lon="7.977888673400421"><ele>299.0</ele><time>2026-04-08T18:00:34Z</time></trkpt><trkpt lat="44.85085166658787" lon="7.977941671175048"><ele>298.8</ele><time>2026-04-08T18:00:35Z</time></trkpt><trkpt lat="44.85073749085044" lon="7.978013854508643"><ele>298.59999999999997</ele><time>2026-04-08T18:00:36Z</time></trkpt><trkpt lat="44.85063973100295" lon="7.978089667709647"><ele>298.4</ele><time>2026-04-08T18:00:37Z</time></trkpt><trkpt lat="44.85054316694194" lon="7.978116567708331"><ele>298.2</ele><time>2026-04-08T18:00:38Z</time></trkpt><trkpt lat="44.85043650308486" lon="7.978143372906344"><ele>298.0</ele><time>2026-04-08T18:00:39Z</time></trkpt><trkpt lat="44.850343336093864" lon="7.978141897333513"><ele>298.0</ele><time>2026-04-08T18:00:40Z</time></trkpt><trkpt lat="44.85027748909891" lon="7.978089424562405"><ele>298.0</ele><time>2026-04-08T18:00:41Z</time></trkpt><trkpt lat="44.85022901565867" lon="7.978009877136108"><ele>298.0</ele><time>2026-04-08T18:00:42Z</time></trkpt><trkpt lat="44.85016498735377" lon="7.97792927698323"><ele>298.0</ele><time>2026-04-08T18:00:43Z</time></trkpt><trkpt lat="44.85007954637793" lon="7.977827568657649"><ele>298.0</ele><time>2026-04-08T18:00:44Z</time></trkpt><trkpt lat="44.84998716848348" lon="7.977717493203703"><ele>298.0</ele><time>2026-04-08T18:00:45Z</time></trkpt><trkpt lat="44.84989552884726" lon="7.977611420517804"><ele>298.0</ele><time>2026-04-08T18:00:46Z</time></trkpt><trkpt lat="44.84980582197192" lon="7.977520386504725"><ele>298.0</ele><time>2026-04-08T18:00:47Z</time></trkpt><trkpt lat="44.84971545301925" lon="7.977416583261069"><ele>298.0</ele><time>2026-04-08T18:00:48Z</time></trkpt><trkpt lat="44.84964783721698" lon="7.977289653580954"><ele>299.6</ele><time>2026-04-08T18:00:49Z</time></trkpt><trkpt lat="44.8495819639913" lon="7.977186209431831"><ele>301.20000000000005</ele><time>2026-04-08T18:00:50Z</time></trkpt><trkpt lat="44.84950147567087" lon="7.977080328089078"><ele>302.8</ele><time>2026-04-08T18:00:51Z</time></trkpt><trkpt lat="44.84941964714579" lon="7.976997555995962"><ele>304.40000000000003</ele><time>2026-04-08T18:00:52Z</time></trkpt><trkpt lat="44.849323174788026" lon="7.9769434975689295"><ele>306.0</ele><time>2026-04-08T18:00:53Z</time></trkpt><trkpt lat="44.84921789590912" lon="7.976890177541328"><ele>306.0</ele><time>2026-04-08T18:00:54Z</time></trkpt><trkpt lat="44.84908859822828" lon="7.9768524683196205"><ele>306.0</ele><time>2026-04-08T18:00:55Z</time></trkpt><trkpt lat="44.84898299691352" lon="7.9767585949145525"><ele>306.0</ele><time>2026-04-08T18:00:56Z</time></trkpt><trkpt lat="44.8488635689948" lon="7.976687642651788"><ele>306.0</ele><time>2026-04-08T18:00:57Z</time></trkpt><trkpt lat="44.848741862993876" lon="7.976573442097572"><ele>306.0</ele><time>2026-04-08T18:00:58Z</time></trkpt><trkpt lat="44.84861432774614" lon="7.976464479799038"><ele>306.0</ele><time>2026-04-08T18:00:59Z</time></trkpt><trkpt lat="44.8484904178437" lon="7.976348253407667"><ele>306.0</ele><time>2026-04-08T18:01:00Z</time></trkpt><trkpt lat="44.84834515291741" lon="7.976239002320149"><ele>307.6666666666667</ele><time>2026-04-08T18:01:01Z</time></trkpt><trkpt lat="44.848180297259" lon="7.9761523738326305"><ele>309.33333333333337</ele><time>2026-04-08T18:01:02Z</time></trkpt><trkpt lat="44.84803039761466" lon="7.9760519468593944"><ele>311.0</ele><time>2026-04-08T18:01:03Z</time></trkpt><trkpt lat="44.847860362521594" lon="7.975958203277079"><ele>311.0</ele><time>2026-04-08T18:01:04Z</time></trkpt><trkpt lat="44.84766367705532" lon="7.97587863193702"><ele>311.0</ele><time>2026-04-08T18:01:05Z</time></trkpt><trkpt lat="44.847482219474244" lon="7.975819427230589"><ele>311.0</ele><time>2026-04-08T18:01:06Z</time></trkpt><trkpt lat="44.847297566731555" lon="7.975774148457383"><ele>312.25</ele><time>2026-04-08T18:01:07Z</time></trkpt><trkpt lat="44.847151295415316" lon="7.975724466822624"><ele>313.5</ele><time>2026-04-08T18:01:08Z</time></trkpt><trkpt lat="44.84701788554601" lon="7.97566838186498"><ele>314.75</ele><time>2026-04-08T18:01:09Z</time></trkpt><trkpt lat="44.84690745571253" lon="7.975578981001886"><ele>316.0</ele><time>2026-04-08T18:01:10Z</time></trkpt><trkpt lat="44.84678401993538" lon="7.975518452597347"><ele>316.0</ele><time>2026-04-08T18:01:11Z</time></trkpt><trkpt lat="44.8466621091223" lon="7.975440929460469"><ele>316.0</ele><time>2026-04-08T18:01:12Z</time></trkpt><trkpt lat="44.846536082603095" lon="7.975367206138386"><ele>316.0</ele><time>2026-04-08T18:01:13Z</time></trkpt><trkpt lat="44.84641164093417" lon="7.975288639333826"><ele>316.0</ele><time>2026-04-08T18:01:14Z</time></trkpt><trkpt lat="44.84628846421228" lon="7.97521169019497"><ele>316.0</ele><time>2026-04-08T18:01:15Z</time></trkpt><trkpt lat="44.84616322259944" lon="7.975137792734988"><ele>316.0</ele><time>2026-04-08T18:01:16Z</time></trkpt><trkpt lat="44.846044303556084" lon="7.97506275957846"><ele>316.0</ele><time>2026-04-08T18:01:17Z</time></trkpt><trkpt lat="44.845914992959976" lon="7.974977911683126"><ele>316.0</ele><time>2026-04-08T18:01:18Z</time></trkpt><trkpt lat="44.84578578423622" lon="7.974924842886957"><ele>316.75</ele><time>2026-04-08T18:01:19Z</time></trkpt><trkpt lat="44.845646220859834" lon="7.974855025081108"><ele>317.5</ele><time>2026-04-08T18:01:20Z</time></trkpt><trkpt lat="44.84551302134677" lon="7.9747737261903335"><ele>318.25</ele><time>2026-04-08T18:01:21Z</time></trkpt><trkpt lat="44.84538062539857" lon="7.974690917904085"><ele>319.0</ele><time>2026-04-08T18:01:22Z</time></trkpt><trkpt lat="44.845246775189665" lon="7.974606978631447"><ele>316.0</ele><time>2026-04-08T18:01:23Z</time></trkpt><trkpt lat="44.84511363620445" lon="7.974530926656192"><ele>313.0</ele><time>2026-04-08T18:01:24Z</time></trkpt><trkpt lat="44.84497815401337" lon="7.974455673963971"><ele>310.0</ele><time>2026-04-08T18:01:25Z</time></trkpt><trkpt lat="44.84485583127256" lon="7.9743852119257745"><ele>307.0</ele><time>2026-04-08T18:01:26Z</time></trkpt><trkpt lat="44.84473622955765" lon="7.974319195007059"><ele>307.0</ele><time>2026-04-08T18:01:27Z</time></trkpt><trkpt lat="44.84462124725514" lon="7.974253054384673"><ele>307.0</ele><time>2026-04-08T18:01:28Z</time></trkpt><trkpt lat="44.8445128751353" lon="7.9741731981688275"><ele>307.0</ele><time>2026-04-08T18:01:29Z</time></trkpt><trkpt lat="44.844406708320854" lon="7.974083431699798"><ele>307.0</ele><time>2026-04-08T18:01:30Z</time></trkpt><trkpt lat="44.844301708141565" lon="7.973999425797611"><ele>308.75</ele><time>2026-04-08T18:01:31Z</time></trkpt><trkpt lat="44.84418959432722" lon="7.9738904426039525"><ele>310.5</ele><time>2026-04-08T18:01:32Z</time></trkpt><trkpt lat="44.84410339240802" lon="7.973774931812197"><ele>312.25</ele><time>2026-04-08T18:01:33Z</time></trkpt><trkpt lat="44.84403250000556" lon="7.9736673276976235"><ele>314.0</ele><time>2026-04-08T18:01:34Z</time></trkpt><trkpt lat="44.843976616776224" lon="7.973563032811557"><ele>314.0</ele><time>2026-04-08T18:01:35Z</time></trkpt><trkpt lat="44.84390357509006" lon="7.973425036156854"><ele>314.0</ele><time>2026-04-08T18:01:36Z</time></trkpt><trkpt lat="44.843817235243776" lon="7.9733038467110955"><ele>314.0</ele><time>2026-04-08T18:01:37Z</time></trkpt><trkpt lat="44.84374523122146" lon="7.973179599591813"><ele>314.0</ele><time>2026-04-08T18:01:38Z</time></trkpt><trkpt lat="44.84363978354596" lon="7.9731157009025475"><ele>314.59999999999997</ele><time>2026-04-08T18:01:39Z</time></trkpt><trkpt lat="44.84355215567352" lon="7.9730277232355515"><ele>315.2</ele><time>2026-04-08T18:01:40Z</time></trkpt><trkpt lat="44.84346951446678" lon="7.972951442897199"><ele>315.79999999999995</ele><time>2026-04-08T18:01:41Z</time></trkpt><trkpt lat="44.84338803470953" lon="7.972893687594762"><ele>316.4</ele><time>2026-04-08T18:01:42Z</time></trkpt><trkpt lat="44.84332946153304" lon="7.972823508388653"><ele>317.0</ele><time>2026-04-08T18:01:44Z</time></trkpt><trkpt lat="44.84337918410195" lon="7.972705704941255"><ele>317.0</ele><time>2026-04-08T18:01:48Z</time></trkpt><trkpt lat="44.84343582043502" lon="7.972650902452893"><ele>317.0</ele><time>2026-04-08T18:01:49Z</time></trkpt><trkpt lat="44.843507492134854" lon="7.972580817890495"><ele>317.0</ele><time>2026-04-08T18:01:50Z</time></trkpt><trkpt lat="44.843588125920505" lon="7.972506681559641"><ele>317.0</ele><time>2026-04-08T18:01:51Z</time></trkpt><trkpt lat="44.843695117109036" lon="7.972439583486081"><ele>317.0</ele><time>2026-04-08T18:01:52Z</time></trkpt><trkpt lat="44.84375861718828" lon="7.9722961285665646"><ele>316.0</ele><time>2026-04-08T18:01:53Z</time></trkpt><trkpt lat="44.843809328682646" lon="7.972119748564393"><ele>315.0</ele><time>2026-04-08T18:01:54Z</time></trkpt><trkpt lat="44.843838638100195" lon="7.971927353686216"><ele>314.0</ele><time>2026-04-08T18:01:55Z</time></trkpt><trkpt lat="44.84389049177916" lon="7.971708945241515"><ele>313.0</ele><time>2026-04-08T18:01:56Z</time></trkpt><trkpt lat="44.84392029824395" lon="7.971524994043106"><ele>312.5</ele><time>2026-04-08T18:01:57Z</time></trkpt><trkpt lat="44.84392757223729" lon="7.97137469692476"><ele>312.0</ele><time>2026-04-08T18:01:58Z</time></trkpt><trkpt lat="44.84392467562492" lon="7.971233539595306"><ele>311.5</ele><time>2026-04-08T18:01:59Z</time></trkpt><trkpt lat="44.84390171264126" lon="7.971066039441361"><ele>311.0</ele><time>2026-04-08T18:02:00Z</time></trkpt><trkpt lat="44.84381995087873" lon="7.970921507219008"><ele>310.0</ele><time>2026-04-08T18:02:01Z</time></trkpt><trkpt lat="44.843752973551865" lon="7.9707904039137585"><ele>309.0</ele><time>2026-04-08T18:02:02Z</time></trkpt><trkpt lat="44.84370500203943" lon="7.970697382970831"><ele>308.0</ele><time>2026-04-08T18:02:03Z</time></trkpt><trkpt lat="44.84364811328402" lon="7.970647142734789"><ele>307.0</ele><time>2026-04-08T18:02:04Z</time></trkpt><trkpt lat="44.84352625858615" lon="7.970671775499982"><ele>306.0</ele><time>2026-04-08T18:02:06Z</time></trkpt><trkpt lat="44.843484043025484" lon="7.970763605840136"><ele>307.0</ele><time>2026-04-08T18:02:07Z</time></trkpt><trkpt lat="44.84348459067998" lon="7.9708929076919235"><ele>308.0</ele><time>2026-04-08T18:02:08Z</time></trkpt><trkpt lat="44.84352645813809" lon="7.9710436003981"><ele>309.0</ele><time>2026-04-08T18:02:09Z</time></trkpt><trkpt lat="44.84357600042718" lon="7.971194798765252"><ele>310.0</ele><time>2026-04-08T18:02:10Z</time></trkpt><trkpt lat="44.843626947551655" lon="7.971339979505398"><ele>311.0</ele><time>2026-04-08T18:02:11Z</time></trkpt><trkpt lat="44.8436343912047" lon="7.971461374283926"><ele>311.0</ele><time>2026-04-08T18:02:13Z</time></trkpt><trkpt lat="44.843531009837264" lon="7.971450919456227"><ele>311.0</ele><time>2026-04-08T18:02:15Z</time></trkpt><trkpt lat="44.843475283045116" lon="7.971359463485719"><ele>311.0</ele><time>2026-04-08T18:02:16Z</time></trkpt><trkpt lat="44.84345588833087" lon="7.971204951392822"><ele>311.0</ele><time>2026-04-08T18:02:17Z</time></trkpt><trkpt lat="44.84339245812035" lon="7.971035332700891"><ele>311.0</ele><time>2026-04-08T18:02:18Z</time></trkpt><trkpt lat="44.84332920454692" lon="7.970859133482287"><ele>307.0</ele><time>2026-04-08T18:02:19Z</time></trkpt><trkpt lat="44.84326348012321" lon="7.9706706688957025"><ele>303.0</ele><time>2026-04-08T18:02:20Z</time></trkpt><trkpt lat="44.84320425106482" lon="7.970491635496688"><ele>299.0</ele><time>2026-04-08T18:02:21Z</time></trkpt><trkpt lat="44.843145283826146" lon="7.970328566524946"><ele>295.0</ele><time>2026-04-08T18:02:22Z</time></trkpt><trkpt lat="44.84308450006424" lon="7.9701812124336735"><ele>295.0</ele><time>2026-04-08T18:02:23Z</time></trkpt><trkpt lat="44.84304400946853" lon="7.970030398720311"><ele>295.0</ele><time>2026-04-08T18:02:24Z</time></trkpt><trkpt lat="44.842995157877034" lon="7.969897532410112"><ele>295.0</ele><time>2026-04-08T18:02:25Z</time></trkpt><trkpt lat="44.84294873582452" lon="7.969771273884924"><ele>295.0</ele><time>2026-04-08T18:02:26Z</time></trkpt><trkpt lat="44.84289714429024" lon="7.969673281349266"><ele>295.0</ele><time>2026-04-08T18:02:27Z</time></trkpt><trkpt lat="44.84286809345869" lon="7.969584391838402"><ele>294.0</ele><time>2026-04-08T18:02:28Z</time></trkpt><trkpt lat="44.84285232705627" lon="7.969493520049646"><ele>293.0</ele><time>2026-04-08T18:02:31Z</time></trkpt><trkpt lat="44.84272819107944" lon="7.969350795986056"><ele>292.0</ele><time>2026-04-08T18:02:34Z</time></trkpt><trkpt lat="44.84262753361933" lon="7.969363301115488"><ele>291.0</ele><time>2026-04-08T18:02:36Z</time></trkpt><trkpt lat="44.84254804740327" lon="7.969353221876087"><ele>290.0</ele><time>2026-04-08T18:02:37Z</time></trkpt><trkpt lat="44.84245096920456" lon="7.9693111260553025"><ele>287.4</ele><time>2026-04-08T18:02:39Z</time></trkpt><trkpt lat="44.84237078990595" lon="7.9692572946628895"><ele>284.8</ele><time>2026-04-08T18:02:41Z</time></trkpt><trkpt lat="44.84230118649872" lon="7.969184501781624"><ele>282.2</ele><time>2026-04-08T18:02:43Z</time></trkpt><trkpt lat="44.84222792748887" lon="7.969071458357851"><ele>279.6</ele><time>2026-04-08T18:02:45Z</time></trkpt><trkpt lat="44.842188282037945" lon="7.968977368281695"><ele>277.0</ele><time>2026-04-08T18:02:46Z</time></trkpt><trkpt lat="44.84214837920193" lon="7.968856307287419"><ele>277.0</ele><time>2026-04-08T18:02:47Z</time></trkpt><trkpt lat="44.842122579423744" lon="7.968745300295288"><ele>277.0</ele><time>2026-04-08T18:02:48Z</time></trkpt><trkpt lat="44.84210248135689" lon="7.968647035700903"><ele>277.0</ele><time>2026-04-08T18:02:49Z</time></trkpt><trkpt lat="44.842085156925314" lon="7.968560504746367"><ele>277.0</ele><time>2026-04-08T18:02:50Z</time></trkpt><trkpt lat="44.84205327719516" lon="7.9684012738815"><ele>277.0</ele><time>2026-04-08T18:02:52Z</time></trkpt><trkpt lat="44.84203290590791" lon="7.968298129428576"><ele>277.0</ele><time>2026-04-08T18:02:54Z</time></trkpt><trkpt lat="44.84185628283991" lon="7.9683714067565345"><ele>276.6</ele><time>2026-04-08T18:02:56Z</time></trkpt><trkpt lat="44.8417536726628" lon="7.968443968387997"><ele>276.2</ele><time>2026-04-08T18:02:58Z</time></trkpt><trkpt lat="44.8416752266917" lon="7.968478755222361"><ele>275.8</ele><time>2026-04-08T18:02:59Z</time></trkpt><trkpt lat="44.841562496173545" lon="7.968545386132047"><ele>275.4</ele><time>2026-04-08T18:03:01Z</time></trkpt><trkpt lat="44.84149129731625" lon="7.9685735856016"><ele>275.0</ele><time>2026-04-08T18:03:02Z</time></trkpt><trkpt lat="44.841410508380996" lon="7.9685895075687645"><ele>275.0</ele><time>2026-04-08T18:03:03Z</time></trkpt><trkpt lat="44.84133100521802" lon="7.968601367047708"><ele>275.0</ele><time>2026-04-08T18:03:04Z</time></trkpt><trkpt lat="44.84124254071955" lon="7.968601602295339"><ele>275.0</ele><time>2026-04-08T18:03:05Z</time></trkpt><trkpt lat="44.84116271912294" lon="7.968598538511638"><ele>275.0</ele><time>2026-04-08T18:03:06Z</time></trkpt><trkpt lat="44.841087933270295" lon="7.968624506743209"><ele>275.0</ele><time>2026-04-08T18:03:07Z</time></trkpt><trkpt lat="44.84100497839726" lon="7.9686740433849295"><ele>275.0</ele><time>2026-04-08T18:03:08Z</time></trkpt><trkpt lat="44.840925074414244" lon="7.968690907021299"><ele>275.1666666666667</ele><time>2026-04-08T18:03:09Z</time></trkpt><trkpt lat="44.840855700287285" lon="7.968715861875119"><ele>275.33333333333337</ele><time>2026-04-08T18:03:10Z</time></trkpt><trkpt lat="44.84078014575445" lon="7.968749253367084"><ele>275.5</ele><time>2026-04-08T18:03:12Z</time></trkpt><trkpt lat="44.840724798124874" lon="7.96879905106807"><ele>275.6666666666667</ele><time>2026-04-08T18:03:14Z</time></trkpt><trkpt lat="44.840601734765556" lon="7.96885508064765"><ele>275.8333333333333</ele><time>2026-04-08T18:03:16Z</time></trkpt><trkpt lat="44.84051305722289" lon="7.968895031946134"><ele>276.0</ele><time>2026-04-08T18:03:17Z</time></trkpt><trkpt lat="44.84042100938505" lon="7.968926656170211"><ele>276.0</ele><time>2026-04-08T18:03:18Z</time></trkpt><trkpt lat="44.84032745947278" lon="7.968962403302422"><ele>276.0</ele><time>2026-04-08T18:03:19Z</time></trkpt><trkpt lat="44.84024914117029" lon="7.968986520607026"><ele>276.0</ele><time>2026-04-08T18:03:20Z</time></trkpt><trkpt lat="44.84016865409641" lon="7.969010642439346"><ele>276.0</ele><time>2026-04-08T18:03:21Z</time></trkpt><trkpt lat="44.84008130960051" lon="7.969035695412491"><ele>276.0</ele><time>2026-04-08T18:03:22Z</time></trkpt><trkpt lat="44.839988030259065" lon="7.969051812303052"><ele>276.0</ele><time>2026-04-08T18:03:23Z</time></trkpt><trkpt lat="44.839892131439946" lon="7.969066041668196"><ele>277.40000000000003</ele><time>2026-04-08T18:03:24Z</time></trkpt><trkpt lat="44.839792881986675" lon="7.969093486999655"><ele>278.8</ele><time>2026-04-08T18:03:25Z</time></trkpt><trkpt lat="44.83970337377581" lon="7.969117908454607"><ele>280.20000000000005</ele><time>2026-04-08T18:03:26Z</time></trkpt><trkpt lat="44.839604264222444" lon="7.969163261808305"><ele>281.6</ele><time>2026-04-08T18:03:27Z</time></trkpt><trkpt lat="44.83950968284876" lon="7.969214513878591"><ele>283.0</ele><time>2026-04-08T18:03:28Z</time></trkpt><trkpt lat="44.83942228651418" lon="7.969260225774359"><ele>283.5</ele><time>2026-04-08T18:03:29Z</time></trkpt><trkpt lat="44.83935035710247" lon="7.969303197264689"><ele>284.0</ele><time>2026-04-08T18:03:30Z</time></trkpt><trkpt lat="44.83928362525943" lon="7.96933098976064"><ele>284.5</ele><time>2026-04-08T18:03:31Z</time></trkpt><trkpt lat="44.83922482099276" lon="7.969384352615985"><ele>285.0</ele><time>2026-04-08T18:03:33Z</time></trkpt><trkpt lat="44.839164731199325" lon="7.969352470503458"><ele>285.5</ele><time>2026-04-08T18:03:36Z</time></trkpt><trkpt lat="44.83902846035711" lon="7.969286403391991"><ele>286.0</ele><time>2026-04-08T18:03:38Z</time></trkpt><trkpt lat="44.83887052012817" lon="7.969205301491226"><ele>284.8</ele><time>2026-04-08T18:03:40Z</time></trkpt><trkpt lat="44.83877506331641" lon="7.969095869518942"><ele>283.6</ele><time>2026-04-08T18:03:42Z</time></trkpt><trkpt lat="44.83869506815867" lon="7.969046616513353"><ele>282.4</ele><time>2026-04-08T18:03:44Z</time></trkpt><trkpt lat="44.83862658477456" lon="7.968991820600825"><ele>281.2</ele><time>2026-04-08T18:03:45Z</time></trkpt><trkpt lat="44.838544262624374" lon="7.968941688111021"><ele>280.0</ele><time>2026-04-08T18:03:46Z</time></trkpt><trkpt lat="44.838455041545764" lon="7.968865248577808"><ele>280.0</ele><time>2026-04-08T18:03:47Z</time></trkpt><trkpt lat="44.83837844717345" lon="7.968807698656716"><ele>280.0</ele><time>2026-04-08T18:03:48Z</time></trkpt><trkpt lat="44.838315350577005" lon="7.96874880626552"><ele>280.0</ele><time>2026-04-08T18:03:49Z</time></trkpt><trkpt lat="44.838250036205636" lon="7.968683376231991"><ele>280.0</ele><time>2026-04-08T18:03:50Z</time></trkpt><trkpt lat="44.83817044120385" lon="7.968646803374524"><ele>280.0</ele><time>2026-04-08T18:03:51Z</time></trkpt><trkpt lat="44.838100684515226" lon="7.968619043915604"><ele>280.0</ele><time>2026-04-08T18:03:53Z</time></trkpt><trkpt lat="44.8379955402841" lon="7.968616580227226"><ele>280.0</ele><time>2026-04-08T18:04:07Z</time></trkpt><trkpt lat="44.83791452966855" lon="7.968637011142786"><ele>280.0</ele><time>2026-04-08T18:04:08Z</time></trkpt><trkpt lat="44.83783504492323" lon="7.968676194523698"><ele>280.0</ele><time>2026-04-08T18:04:09Z</time></trkpt><trkpt lat="44.837753671303254" lon="7.968735411791763"><ele>280.0</ele><time>2026-04-08T18:04:10Z</time></trkpt><trkpt lat="44.8376873120077" lon="7.968795632601188"><ele>280.0</ele><time>2026-04-08T18:04:11Z</time></trkpt><trkpt lat="44.837621073665765" lon="7.968840831646124"><ele>280.0</ele><time>2026-04-08T18:04:12Z</time></trkpt><trkpt lat="44.837558992674886" lon="7.968876929239067"><ele>282.0</ele><time>2026-04-08T18:04:13Z</time></trkpt><trkpt lat="44.83748392427758" lon="7.968933803073778"><ele>284.0</ele><time>2026-04-08T18:04:15Z</time></trkpt><trkpt lat="44.83738848467612" lon="7.968996449452763"><ele>286.0</ele><time>2026-04-08T18:04:17Z</time></trkpt><trkpt lat="44.83732536853912" lon="7.9690365077370835"><ele>288.0</ele><time>2026-04-08T18:04:18Z</time></trkpt><trkpt lat="44.837221334122916" lon="7.969111590090357"><ele>290.0</ele><time>2026-04-08T18:04:20Z</time></trkpt><trkpt lat="44.83712638783303" lon="7.969139298519341"><ele>290.0</ele><time>2026-04-08T18:04:21Z</time></trkpt><trkpt lat="44.837028767068006" lon="7.969163402401741"><ele>290.0</ele><time>2026-04-08T18:04:22Z</time></trkpt><trkpt lat="44.836950766386856" lon="7.969170358734247"><ele>290.0</ele><time>2026-04-08T18:04:23Z</time></trkpt><trkpt lat="44.836868550848585" lon="7.969163672373086"><ele>290.0</ele><time>2026-04-08T18:04:24Z</time></trkpt><trkpt lat="44.836795816804845" lon="7.969153227784829"><ele>290.0</ele><time>2026-04-08T18:04:27Z</time></trkpt><trkpt lat="44.83673391652378" lon="7.969133904817075"><ele>290.0</ele><time>2026-04-08T18:04:30Z</time></trkpt><trkpt lat="44.83664667193051" lon="7.969061867577138"><ele>291.2</ele><time>2026-04-08T18:04:33Z</time></trkpt><trkpt lat="44.836583569354815" lon="7.9690355736848675"><ele>292.4</ele><time>2026-04-08T18:04:35Z</time></trkpt><trkpt lat="44.83650879750816" lon="7.9690776877373075"><ele>293.6</ele><time>2026-04-08T18:04:37Z</time></trkpt><trkpt lat="44.836390572513665" lon="7.969124993028957"><ele>294.8</ele><time>2026-04-08T18:04:39Z</time></trkpt><trkpt lat="44.83630595160378" lon="7.969176694598696"><ele>296.0</ele><time>2026-04-08T18:04:41Z</time></trkpt><trkpt lat="44.83619868507013" lon="7.969219362386823"><ele>296.0</ele><time>2026-04-08T18:04:43Z</time></trkpt><trkpt lat="44.83611113714547" lon="7.969223589682527"><ele>296.0</ele><time>2026-04-08T18:04:46Z</time></trkpt><trkpt lat="44.83601287303401" lon="7.969235320921169"><ele>296.0</ele><time>2026-04-08T18:04:49Z</time></trkpt><trkpt lat="44.83594768793907" lon="7.969274257941218"><ele>296.0</ele><time>2026-04-08T18:04:50Z</time></trkpt><trkpt lat="44.83567739250889" lon="7.969416014811301"><ele>299.40000000000003</ele><time>2026-04-08T18:04:52Z</time></trkpt><trkpt lat="44.83555321181179" lon="7.969433574367713"><ele>302.8</ele><time>2026-04-08T18:04:54Z</time></trkpt><trkpt lat="44.83547988423136" lon="7.969461823064504"><ele>306.20000000000005</ele><time>2026-04-08T18:04:55Z</time></trkpt><trkpt lat="44.83537738726815" lon="7.969487543270912"><ele>309.6</ele><time>2026-04-08T18:04:57Z</time></trkpt><trkpt lat="44.83531399402808" lon="7.96947890214041"><ele>313.0</ele><time>2026-04-08T18:04:58Z</time></trkpt><trkpt lat="44.83523624781356" lon="7.969431076281475"><ele>313.0</ele><time>2026-04-08T18:04:59Z</time></trkpt><trkpt lat="44.835138535865255" lon="7.96938319891938"><ele>313.0</ele><time>2026-04-08T18:05:00Z</time></trkpt><trkpt lat="44.83504843537675" lon="7.969347957531723"><ele>313.0</ele><time>2026-04-08T18:05:01Z</time></trkpt><trkpt lat="44.83499199573967" lon="7.969291513571291"><ele>313.0</ele><time>2026-04-08T18:05:02Z</time></trkpt><trkpt lat="44.83485232800623" lon="7.969303744365821"><ele>313.0</ele><time>2026-04-08T18:05:04Z</time></trkpt><trkpt lat="44.83476443358723" lon="7.969365612628762"><ele>314.8</ele><time>2026-04-08T18:05:05Z</time></trkpt><trkpt lat="44.83465434407986" lon="7.969371092828832"><ele>316.6</ele><time>2026-04-08T18:05:07Z</time></trkpt><trkpt lat="44.83458235120818" lon="7.969374295316411"><ele>318.40000000000003</ele><time>2026-04-08T18:05:08Z</time></trkpt><trkpt lat="44.83449398530255" lon="7.9693510901336735"><ele>320.20000000000005</ele><time>2026-04-08T18:05:09Z</time></trkpt><trkpt lat="44.834380382894814" lon="7.9693288107222235"><ele>322.0</ele><time>2026-04-08T18:05:10Z</time></trkpt><trkpt lat="44.83429624854021" lon="7.9693186974536445"><ele>324.40000000000003</ele><time>2026-04-08T18:05:11Z</time></trkpt><trkpt lat="44.834217614608725" lon="7.969309801106296"><ele>326.8</ele><time>2026-04-08T18:05:12Z</time></trkpt><trkpt lat="44.83406435573634" lon="7.969420059991124"><ele>329.2</ele><time>2026-04-08T18:05:14Z</time></trkpt><trkpt lat="44.833970929457585" lon="7.969425179142857"><ele>331.6</ele><time>2026-04-08T18:05:15Z</time></trkpt><trkpt lat="44.833902287716896" lon="7.969420922804664"><ele>334.0</ele><time>2026-04-08T18:05:16Z</time></trkpt><trkpt lat="44.83380964976611" lon="7.969425696966347"><ele>334.0</ele><time>2026-04-08T18:05:18Z</time></trkpt><trkpt lat="44.83374703341233" lon="7.969440117566359"><ele>334.0</ele><time>2026-04-08T18:05:19Z</time></trkpt><trkpt lat="44.83366680676249" lon="7.96947901186975"><ele>334.0</ele><time>2026-04-08T18:05:20Z</time></trkpt><trkpt lat="44.83357825647976" lon="7.9695448029355065"><ele>334.0</ele><time>2026-04-08T18:05:21Z</time></trkpt><trkpt lat="44.83350232184265" lon="7.969607208320754"><ele>334.0</ele><time>2026-04-08T18:05:22Z</time></trkpt><trkpt lat="44.83342808156046" lon="7.96965767275027"><ele>334.0</ele><time>2026-04-08T18:05:23Z</time></trkpt><trkpt lat="44.83335447997394" lon="7.9696862705305"><ele>336.0</ele><time>2026-04-08T18:05:24Z</time></trkpt><trkpt lat="44.83328292941926" lon="7.969680065892097"><ele>338.0</ele><time>2026-04-08T18:05:25Z</time></trkpt><trkpt lat="44.83318861302282" lon="7.969660515349228"><ele>340.0</ele><time>2026-04-08T18:05:26Z</time></trkpt><trkpt lat="44.83310416442393" lon="7.969649487254401"><ele>342.0</ele><time>2026-04-08T18:05:27Z</time></trkpt><trkpt lat="44.83302477485481" lon="7.969639512350734"><ele>344.0</ele><time>2026-04-08T18:05:28Z</time></trkpt><trkpt lat="44.832947955895236" lon="7.969618234697296"><ele>346.0</ele><time>2026-04-08T18:05:29Z</time></trkpt><trkpt lat="44.832868327566096" lon="7.9695816128580095"><ele>346.0</ele><time>2026-04-08T18:05:30Z</time></trkpt><trkpt lat="44.83280000520651" lon="7.969538479206993"><ele>346.0</ele><time>2026-04-08T18:05:31Z</time></trkpt><trkpt lat="44.832729263909776" lon="7.969497035217104"><ele>346.0</ele><time>2026-04-08T18:05:32Z</time></trkpt><trkpt lat="44.83263775588514" lon="7.969466597556788"><ele>346.0</ele><time>2026-04-08T18:05:33Z</time></trkpt><trkpt lat="44.83253685152364" lon="7.9694587307170455"><ele>346.0</ele><time>2026-04-08T18:05:34Z</time></trkpt><trkpt lat="44.83243938749082" lon="7.969470691846869"><ele>346.0</ele><time>2026-04-08T18:05:35Z</time></trkpt><trkpt lat="44.832341261979025" lon="7.969499414707957"><ele>346.8333333333333</ele><time>2026-04-08T18:05:36Z</time></trkpt><trkpt lat="44.83226196087068" lon="7.969510406974477"><ele>347.66666666666663</ele><time>2026-04-08T18:05:37Z</time></trkpt><trkpt lat="44.83214632918522" lon="7.969456713601986"><ele>348.5</ele><time>2026-04-08T18:05:39Z</time></trkpt><trkpt lat="44.832076967623046" lon="7.969416705023015"><ele>349.3333333333333</ele><time>2026-04-08T18:05:40Z</time></trkpt><trkpt lat="44.8319997619667" lon="7.969379524840629"><ele>350.1666666666667</ele><time>2026-04-08T18:05:41Z</time></trkpt><trkpt lat="44.83193121145559" lon="7.96932783067468"><ele>351.0</ele><time>2026-04-08T18:05:42Z</time></trkpt><trkpt lat="44.83188012338713" lon="7.969271981437047"><ele>353.4</ele><time>2026-04-08T18:05:43Z</time></trkpt><trkpt lat="44.831800374855476" lon="7.9691316648172865"><ele>355.8</ele><time>2026-04-08T18:05:45Z</time></trkpt><trkpt lat="44.83178167126846" lon="7.969003566304317"><ele>358.2</ele><time>2026-04-08T18:05:46Z</time></trkpt><trkpt lat="44.83176649524383" lon="7.968884647049713"><ele>360.59999999999997</ele><time>2026-04-08T18:05:47Z</time></trkpt><trkpt lat="44.831737703902974" lon="7.9687815270508535"><ele>363.0</ele><time>2026-04-08T18:05:48Z</time></trkpt><trkpt lat="44.8316195780013" lon="7.968702108428531"><ele>363.0</ele><time>2026-04-08T18:05:50Z</time></trkpt><trkpt lat="44.83151859597354" lon="7.9686941775295645"><ele>363.0</ele><time>2026-04-08T18:05:51Z</time></trkpt><trkpt lat="44.8314120022978" lon="7.96867508104048"><ele>363.0</ele><time>2026-04-08T18:05:52Z</time></trkpt><trkpt lat="44.83133043420913" lon="7.968666837877219"><ele>363.0</ele><time>2026-04-08T18:05:53Z</time></trkpt><trkpt lat="44.83126761874186" lon="7.968656738472578"><ele>363.0</ele><time>2026-04-08T18:05:54Z</time></trkpt><trkpt lat="44.83116880145542" lon="7.968614620286369"><ele>363.0</ele><time>2026-04-08T18:05:56Z</time></trkpt><trkpt lat="44.83112949110485" lon="7.968521316845519"><ele>363.0</ele><time>2026-04-08T18:05:57Z</time></trkpt><trkpt lat="44.83109938565345" lon="7.968402612176881"><ele>363.0</ele><time>2026-04-08T18:05:58Z</time></trkpt><trkpt lat="44.831059471469736" lon="7.968291434736227"><ele>363.0</ele><time>2026-04-08T18:05:59Z</time></trkpt><trkpt lat="44.83099362168173" lon="7.968196740204354"><ele>363.0</ele><time>2026-04-08T18:06:01Z</time></trkpt><trkpt lat="44.83102893812818" lon="7.968054096786379"><ele>359.25</ele><time>2026-04-08T18:06:08Z</time></trkpt><trkpt lat="44.831108770710294" lon="7.967985143748197"><ele>355.5</ele><time>2026-04-08T18:06:09Z</time></trkpt><trkpt lat="44.83116445540745" lon="7.967872794140613"><ele>351.75</ele><time>2026-04-08T18:06:10Z</time></trkpt><trkpt lat="44.83125021246239" lon="7.967715528106273"><ele>348.0</ele><time>2026-04-08T18:06:11Z</time></trkpt><trkpt lat="44.8312985548822" lon="7.967531042230957"><ele>347.59999999999997</ele><time>2026-04-08T18:06:12Z</time></trkpt><trkpt lat="44.8313434458395" lon="7.967412050074368"><ele>347.2</ele><time>2026-04-08T18:06:13Z</time></trkpt><trkpt lat="44.831392118645134" lon="7.9673312724429"><ele>346.8</ele><time>2026-04-08T18:06:14Z</time></trkpt><trkpt lat="44.83147996426253" lon="7.967256985441937"><ele>346.4</ele><time>2026-04-08T18:06:15Z</time></trkpt><trkpt lat="44.831543940100964" lon="7.96713914530855"><ele>346.0</ele><time>2026-04-08T18:06:16Z</time></trkpt><trkpt lat="44.83161241012565" lon="7.967036785025305"><ele>346.0</ele><time>2026-04-08T18:06:17Z</time></trkpt><trkpt lat="44.83162736553837" lon="7.966908401289316"><ele>346.0</ele><time>2026-04-08T18:06:18Z</time></trkpt><trkpt lat="44.83163825632919" lon="7.966776841591334"><ele>346.0</ele><time>2026-04-08T18:06:19Z</time></trkpt><trkpt lat="44.83165116621807" lon="7.966615874885178"><ele>346.0</ele><time>2026-04-08T18:06:20Z</time></trkpt><trkpt lat="44.83165938215866" lon="7.966444514523939"><ele>346.0</ele><time>2026-04-08T18:06:21Z</time></trkpt><trkpt lat="44.83167072190315" lon="7.966257075222913"><ele>347.0</ele><time>2026-04-08T18:06:22Z</time></trkpt><trkpt lat="44.83168152447833" lon="7.9660785150308975"><ele>348.0</ele><time>2026-04-08T18:06:23Z</time></trkpt><trkpt lat="44.83168826631447" lon="7.965925446053124"><ele>349.0</ele><time>2026-04-08T18:06:24Z</time></trkpt><trkpt lat="44.8316890802403" lon="7.9657731260278695"><ele>350.0</ele><time>2026-04-08T18:06:25Z</time></trkpt><trkpt lat="44.831676264096096" lon="7.965644024040804"><ele>351.0</ele><time>2026-04-08T18:06:26Z</time></trkpt><trkpt lat="44.8316656921564" lon="7.965529955580805"><ele>351.5</ele><time>2026-04-08T18:06:27Z</time></trkpt><trkpt lat="44.83165878796638" lon="7.9654222295740125"><ele>352.0</ele><time>2026-04-08T18:06:28Z</time></trkpt><trkpt lat="44.83163925693971" lon="7.965325378123965"><ele>352.5</ele><time>2026-04-08T18:06:29Z</time></trkpt><trkpt lat="44.83161163489193" lon="7.965216972692556"><ele>353.0</ele><time>2026-04-08T18:06:30Z</time></trkpt><trkpt lat="44.83158588149703" lon="7.965090341876099"><ele>353.5</ele><time>2026-04-08T18:06:31Z</time></trkpt><trkpt lat="44.83155412087105" lon="7.964947119578629"><ele>354.0</ele><time>2026-04-08T18:06:32Z</time></trkpt><trkpt lat="44.831521787301526" lon="7.964820173176972"><ele>354.0</ele><time>2026-04-08T18:06:33Z</time></trkpt><trkpt lat="44.8314978883958" lon="7.9646976424411955"><ele>354.0</ele><time>2026-04-08T18:06:34Z</time></trkpt><trkpt lat="44.83149158931155" lon="7.964579950621414"><ele>354.0</ele><time>2026-04-08T18:06:35Z</time></trkpt><trkpt lat="44.831495556646686" lon="7.964443083778321"><ele>354.0</ele><time>2026-04-08T18:06:36Z</time></trkpt><trkpt lat="44.83153941359278" lon="7.964325339315394"><ele>354.0</ele><time>2026-04-08T18:06:37Z</time></trkpt><trkpt lat="44.83157481617994" lon="7.964180614381931"><ele>354.0</ele><time>2026-04-08T18:06:38Z</time></trkpt><trkpt lat="44.83159660227574" lon="7.964051026273718"><ele>354.0</ele><time>2026-04-08T18:06:39Z</time></trkpt><trkpt lat="44.831634701246735" lon="7.963961696363213"><ele>354.0</ele><time>2026-04-08T18:06:40Z</time></trkpt><trkpt lat="44.83167036187161" lon="7.963866341908804"><ele>354.0</ele><time>2026-04-08T18:06:41Z</time></trkpt><trkpt lat="44.83173429542997" lon="7.9637559959165465"><ele>354.0</ele><time>2026-04-08T18:06:42Z</time></trkpt><trkpt lat="44.8318019589236" lon="7.96360807956342"><ele>352.0</ele><time>2026-04-08T18:06:43Z</time></trkpt><trkpt lat="44.83186340414836" lon="7.963421277566408"><ele>350.0</ele><time>2026-04-08T18:06:44Z</time></trkpt><trkpt lat="44.83191546437842" lon="7.963240051617759"><ele>348.0</ele><time>2026-04-08T18:06:45Z</time></trkpt><trkpt lat="44.83196855866847" lon="7.963054975921991"><ele>346.0</ele><time>2026-04-08T18:06:46Z</time></trkpt><trkpt lat="44.8320173761006" lon="7.962856950531755"><ele>346.0</ele><time>2026-04-08T18:06:47Z</time></trkpt><trkpt lat="44.8320451196324" lon="7.962639139373856"><ele>346.0</ele><time>2026-04-08T18:06:48Z</time></trkpt><trkpt lat="44.83206757956915" lon="7.962451961678995"><ele>346.0</ele><time>2026-04-08T18:06:49Z</time></trkpt><trkpt lat="44.8320863541297" lon="7.962295497342987"><ele>346.0</ele><time>2026-04-08T18:06:50Z</time></trkpt><trkpt lat="44.83210632869329" lon="7.962148315913516"><ele>346.0</ele><time>2026-04-08T18:06:51Z</time></trkpt><trkpt lat="44.8321349508502" lon="7.9620085735279975"><ele>346.0</ele><time>2026-04-08T18:06:52Z</time></trkpt><trkpt lat="44.8321624827686" lon="7.961866932916425"><ele>346.0</ele><time>2026-04-08T18:06:53Z</time></trkpt><trkpt lat="44.832188709038164" lon="7.961722704336506"><ele>346.0</ele><time>2026-04-08T18:06:54Z</time></trkpt><trkpt lat="44.83220990039396" lon="7.961589621924421"><ele>346.0</ele><time>2026-04-08T18:06:55Z</time></trkpt><trkpt lat="44.83221425078801" lon="7.961452855340155"><ele>346.0</ele><time>2026-04-08T18:06:56Z</time></trkpt><trkpt lat="44.832234034279224" lon="7.961331200941464"><ele>346.0</ele><time>2026-04-08T18:06:57Z</time></trkpt><trkpt lat="44.83226657005697" lon="7.961215723327643"><ele>346.0</ele><time>2026-04-08T18:06:58Z</time></trkpt><trkpt lat="44.83228903786348" lon="7.9610919765138854"><ele>346.0</ele><time>2026-04-08T18:06:59Z</time></trkpt><trkpt lat="44.83231367746761" lon="7.960990435371313"><ele>346.0</ele><time>2026-04-08T18:07:00Z</time></trkpt><trkpt lat="44.832341267532826" lon="7.960897910421894"><ele>346.0</ele><time>2026-04-08T18:07:01Z</time></trkpt><trkpt lat="44.83238265301032" lon="7.960795626552933"><ele>346.0</ele><time>2026-04-08T18:07:02Z</time></trkpt><trkpt lat="44.83243334503811" lon="7.960692705220398"><ele>346.0</ele><time>2026-04-08T18:07:03Z</time></trkpt><trkpt lat="44.83247657604325" lon="7.96057144258041"><ele>346.0</ele><time>2026-04-08T18:07:04Z</time></trkpt><trkpt lat="44.83252191748855" lon="7.960483759921786"><ele>346.0</ele><time>2026-04-08T18:07:05Z</time></trkpt><trkpt lat="44.83257407458934" lon="7.960425645142184"><ele>346.0</ele><time>2026-04-08T18:07:07Z</time></trkpt><trkpt lat="44.832627973863296" lon="7.960347250626299"><ele>346.0</ele><time>2026-04-08T18:07:09Z</time></trkpt><trkpt lat="44.832689832384794" lon="7.960298659225806"><ele>343.8</ele><time>2026-04-08T18:07:10Z</time></trkpt><trkpt lat="44.83277344956824" lon="7.960243949052526"><ele>341.6</ele><time>2026-04-08T18:07:11Z</time></trkpt><trkpt lat="44.83287226238908" lon="7.960208409322904"><ele>339.4</ele><time>2026-04-08T18:07:12Z</time></trkpt><trkpt lat="44.83295271524802" lon="7.9601793478943454"><ele>337.2</ele><time>2026-04-08T18:07:13Z</time></trkpt><trkpt lat="44.83306431176078" lon="7.960142494851478"><ele>335.0</ele><time>2026-04-08T18:07:15Z</time></trkpt><trkpt lat="44.83314011919011" lon="7.960152304658789"><ele>337.75</ele><time>2026-04-08T18:07:17Z</time></trkpt><trkpt lat="44.83325383901625" lon="7.959946581435987"><ele>340.5</ele><time>2026-04-08T18:07:19Z</time></trkpt><trkpt lat="44.83330429994808" lon="7.959813062484709"><ele>343.25</ele><time>2026-04-08T18:07:20Z</time></trkpt><trkpt lat="44.83337476520147" lon="7.959663736213192"><ele>346.0</ele><time>2026-04-08T18:07:21Z</time></trkpt><trkpt lat="44.83345330240578" lon="7.959491926558064"><ele>346.0</ele><time>2026-04-08T18:07:22Z</time></trkpt><trkpt lat="44.83354164593595" lon="7.959295670277461"><ele>346.0</ele><time>2026-04-08T18:07:23Z</time></trkpt><trkpt lat="44.833617738387154" lon="7.959121550235055"><ele>346.0</ele><time>2026-04-08T18:07:24Z</time></trkpt><trkpt lat="44.83369846033139" lon="7.9589368366812145"><ele>346.3333333333333</ele><time>2026-04-08T18:07:25Z</time></trkpt><trkpt lat="44.833787326871935" lon="7.9587334861430925"><ele>346.6666666666667</ele><time>2026-04-08T18:07:26Z</time></trkpt><trkpt lat="44.833882546135875" lon="7.958550026671855"><ele>347.0</ele><time>2026-04-08T18:07:27Z</time></trkpt><trkpt lat="44.83398028704111" lon="7.958386392403698"><ele>348.0</ele><time>2026-04-08T18:07:28Z</time></trkpt><trkpt lat="44.8340843778807" lon="7.958239349287403"><ele>349.0</ele><time>2026-04-08T18:07:29Z</time></trkpt><trkpt lat="44.834180853379195" lon="7.958075096285072"><ele>350.0</ele><time>2026-04-08T18:07:30Z</time></trkpt><trkpt lat="44.8342787253861" lon="7.957867217918211"><ele>347.0</ele><time>2026-04-08T18:07:31Z</time></trkpt><trkpt lat="44.8343649906319" lon="7.957641072085646"><ele>344.0</ele><time>2026-04-08T18:07:32Z</time></trkpt><trkpt lat="44.83443420521153" lon="7.957446866513811"><ele>341.0</ele><time>2026-04-08T18:07:33Z</time></trkpt><trkpt lat="44.83450046465734" lon="7.957287222310201"><ele>341.0</ele><time>2026-04-08T18:07:34Z</time></trkpt><trkpt lat="44.83456973590659" lon="7.957147338505594"><ele>341.0</ele><time>2026-04-08T18:07:35Z</time></trkpt><trkpt lat="44.834653410117134" lon="7.957019830936623"><ele>341.0</ele><time>2026-04-08T18:07:36Z</time></trkpt><trkpt lat="44.834748267561295" lon="7.956919588274492"><ele>341.0</ele><time>2026-04-08T18:07:37Z</time></trkpt><trkpt lat="44.83485813395794" lon="7.956823297758113"><ele>341.0</ele><time>2026-04-08T18:07:38Z</time></trkpt><trkpt lat="44.83497298900134" lon="7.956730376424788"><ele>341.0</ele><time>2026-04-08T18:07:39Z</time></trkpt><trkpt lat="44.83509268688104" lon="7.956633537073217"><ele>341.0</ele><time>2026-04-08T18:07:40Z</time></trkpt><trkpt lat="44.83521490430263" lon="7.956541502934405"><ele>341.0</ele><time>2026-04-08T18:07:41Z</time></trkpt><trkpt lat="44.8353364989451" lon="7.956461262146908"><ele>343.5</ele><time>2026-04-08T18:07:42Z</time></trkpt><trkpt lat="44.8354562772884" lon="7.956414463400779"><ele>346.0</ele><time>2026-04-08T18:07:43Z</time></trkpt><trkpt lat="44.83560061704196" lon="7.956397701301669"><ele>348.5</ele><time>2026-04-08T18:07:44Z</time></trkpt><trkpt lat="44.83574982237308" lon="7.956384857498088"><ele>351.0</ele><time>2026-04-08T18:07:45Z</time></trkpt><trkpt lat="44.835900082325416" lon="7.956371922916566"><ele>352.0</ele><time>2026-04-08T18:07:46Z</time></trkpt><trkpt lat="44.83603701845854" lon="7.956360173684981"><ele>353.0</ele><time>2026-04-08T18:07:47Z</time></trkpt><trkpt lat="44.836169806154295" lon="7.956348949795377"><ele>354.0</ele><time>2026-04-08T18:07:48Z</time></trkpt><trkpt lat="44.83629389976491" lon="7.9563363925144"><ele>355.0</ele><time>2026-04-08T18:07:49Z</time></trkpt><trkpt lat="44.83640325454457" lon="7.956316558883212"><ele>355.0</ele><time>2026-04-08T18:07:50Z</time></trkpt><trkpt lat="44.83647230627215" lon="7.956280464938328"><ele>355.0</ele><time>2026-04-08T18:07:51Z</time></trkpt><trkpt lat="44.83655242708997" lon="7.956278552316326"><ele>355.0</ele><time>2026-04-08T18:09:18Z</time></trkpt><trkpt lat="44.83666522342822" lon="7.956249114659024"><ele>355.0</ele><time>2026-04-08T18:09:20Z</time></trkpt><trkpt lat="44.83673863663804" lon="7.956250365611486"><ele>355.0</ele><time>2026-04-08T18:09:21Z</time></trkpt><trkpt lat="44.836832662719516" lon="7.956255229121315"><ele>355.0</ele><time>2026-04-08T18:09:22Z</time></trkpt><trkpt lat="44.836930209400656" lon="7.95625871108604"><ele>356.4</ele><time>2026-04-08T18:09:23Z</time></trkpt><trkpt lat="44.83703799392698" lon="7.956262678795912"><ele>357.8</ele><time>2026-04-08T18:09:24Z</time></trkpt><trkpt lat="44.83714651278306" lon="7.956263999700505"><ele>359.20000000000005</ele><time>2026-04-08T18:09:25Z</time></trkpt><trkpt lat="44.837252301176484" lon="7.9562685357587215"><ele>360.6</ele><time>2026-04-08T18:09:26Z</time></trkpt><trkpt lat="44.837355150784674" lon="7.956274555784887"><ele>362.0</ele><time>2026-04-08T18:09:27Z</time></trkpt><trkpt lat="44.837449066427254" lon="7.956284046381533"><ele>362.0</ele><time>2026-04-08T18:09:28Z</time></trkpt><trkpt lat="44.83755252533047" lon="7.956284740062542"><ele>362.0</ele><time>2026-04-08T18:09:29Z</time></trkpt><trkpt lat="44.83765777239431" lon="7.95627259624902"><ele>362.0</ele><time>2026-04-08T18:09:30Z</time></trkpt><trkpt lat="44.83776266741687" lon="7.9562351980872315"><ele>362.0</ele><time>2026-04-08T18:09:31Z</time></trkpt><trkpt lat="44.83787436733094" lon="7.956159905811365"><ele>362.0</ele><time>2026-04-08T18:09:32Z</time></trkpt><trkpt lat="44.83798641563474" lon="7.956053238038577"><ele>361.33333333333337</ele><time>2026-04-08T18:09:33Z</time></trkpt><trkpt lat="44.8381224092391" lon="7.955931591202073"><ele>360.6666666666667</ele><time>2026-04-08T18:09:34Z</time></trkpt><trkpt lat="44.83824366730165" lon="7.955773551661314"><ele>360.0</ele><time>2026-04-08T18:09:35Z</time></trkpt><trkpt lat="44.838354147588525" lon="7.955618281385594"><ele>361.0</ele><time>2026-04-08T18:09:36Z</time></trkpt><trkpt lat="44.838473213572584" lon="7.955450386981376"><ele>362.0</ele><time>2026-04-08T18:09:37Z</time></trkpt><trkpt lat="44.83859167927456" lon="7.955283398374675"><ele>363.0</ele><time>2026-04-08T18:09:38Z</time></trkpt><trkpt lat="44.838704100547396" lon="7.9551300615118885"><ele>364.0</ele><time>2026-04-08T18:09:39Z</time></trkpt><trkpt lat="44.8388037906706" lon="7.954994406497143"><ele>365.0</ele><time>2026-04-08T18:09:40Z</time></trkpt><trkpt lat="44.838896449692136" lon="7.9548709731289025"><ele>366.0</ele><time>2026-04-08T18:09:41Z</time></trkpt><trkpt lat="44.83898996830985" lon="7.954750242874033"><ele>367.0</ele><time>2026-04-08T18:09:42Z</time></trkpt><trkpt lat="44.83908346735187" lon="7.954631844432951"><ele>367.0</ele><time>2026-04-08T18:09:43Z</time></trkpt><trkpt lat="44.83918247990565" lon="7.954514873513746"><ele>367.0</ele><time>2026-04-08T18:09:44Z</time></trkpt><trkpt lat="44.83928382816685" lon="7.954398131680342"><ele>367.0</ele><time>2026-04-08T18:09:45Z</time></trkpt><trkpt lat="44.839377793689586" lon="7.954268836303762"><ele>367.0</ele><time>2026-04-08T18:09:46Z</time></trkpt><trkpt lat="44.839489861585655" lon="7.954178261822193"><ele>366.8</ele><time>2026-04-08T18:09:47Z</time></trkpt><trkpt lat="44.83957155384812" lon="7.954064554702049"><ele>366.6</ele><time>2026-04-08T18:09:48Z</time></trkpt><trkpt lat="44.83965930720598" lon="7.953979286840925"><ele>366.40000000000003</ele><time>2026-04-08T18:09:49Z</time></trkpt><trkpt lat="44.83973818796768" lon="7.953894163273612"><ele>366.20000000000005</ele><time>2026-04-08T18:09:50Z</time></trkpt><trkpt lat="44.83981587228391" lon="7.9538393490952295"><ele>366.0</ele><time>2026-04-08T18:09:51Z</time></trkpt><trkpt lat="44.83987436910762" lon="7.953782981598437"><ele>366.0</ele><time>2026-04-08T18:09:52Z</time></trkpt><trkpt lat="44.839951567486" lon="7.9537143562531085"><ele>366.0</ele><time>2026-04-08T18:09:54Z</time></trkpt><trkpt lat="44.83988885068235" lon="7.953478233370599"><ele>366.0</ele><time>2026-04-08T18:09:56Z</time></trkpt><trkpt lat="44.839820792126375" lon="7.953371594054556"><ele>366.0</ele><time>2026-04-08T18:09:57Z</time></trkpt><trkpt lat="44.83975138782452" lon="7.953225648502513"><ele>365.75</ele><time>2026-04-08T18:09:58Z</time></trkpt><trkpt lat="44.83967302316197" lon="7.953068030376764"><ele>365.5</ele><time>2026-04-08T18:09:59Z</time></trkpt><trkpt lat="44.83959569374224" lon="7.95290686536318"><ele>365.25</ele><time>2026-04-08T18:10:00Z</time></trkpt><trkpt lat="44.839547502569225" lon="7.95275214696699"><ele>365.0</ele><time>2026-04-08T18:10:01Z</time></trkpt><trkpt lat="44.839516108584036" lon="7.952574997377533"><ele>364.5</ele><time>2026-04-08T18:10:02Z</time></trkpt><trkpt lat="44.83949643152887" lon="7.95238926983086"><ele>364.0</ele><time>2026-04-08T18:10:03Z</time></trkpt><trkpt lat="44.83949314642733" lon="7.952207091856853"><ele>363.5</ele><time>2026-04-08T18:10:04Z</time></trkpt><trkpt lat="44.83947341569968" lon="7.952042088379594"><ele>363.0</ele><time>2026-04-08T18:10:05Z</time></trkpt><trkpt lat="44.839457592144356" lon="7.951895844115257"><ele>363.0</ele><time>2026-04-08T18:10:06Z</time></trkpt><trkpt lat="44.83941269131226" lon="7.951778668886649"><ele>363.0</ele><time>2026-04-08T18:10:07Z</time></trkpt><trkpt lat="44.83933895100326" lon="7.951689229055783"><ele>363.0</ele><time>2026-04-08T18:10:08Z</time></trkpt><trkpt lat="44.83923014840345" lon="7.951595580535493"><ele>363.0</ele><time>2026-04-08T18:10:09Z</time></trkpt><trkpt lat="44.839125834340216" lon="7.951465959906083"><ele>362.25</ele><time>2026-04-08T18:10:10Z</time></trkpt><trkpt lat="44.8390400916515" lon="7.9513135184315065"><ele>361.5</ele><time>2026-04-08T18:10:11Z</time></trkpt><trkpt lat="44.83898420771071" lon="7.9511659784345"><ele>360.75</ele><time>2026-04-08T18:10:12Z</time></trkpt><trkpt lat="44.83895909069933" lon="7.951006346594144"><ele>360.0</ele><time>2026-04-08T18:10:13Z</time></trkpt><trkpt lat="44.838970717724564" lon="7.950815859777298"><ele>360.25</ele><time>2026-04-08T18:10:14Z</time></trkpt><trkpt lat="44.838946033558685" lon="7.950614726210395"><ele>360.5</ele><time>2026-04-08T18:10:15Z</time></trkpt><trkpt lat="44.83893090524902" lon="7.950410912713076"><ele>360.75</ele><time>2026-04-08T18:10:16Z</time></trkpt><trkpt lat="44.83889815657419" lon="7.950220052449826"><ele>361.0</ele><time>2026-04-08T18:10:17Z</time></trkpt><trkpt lat="44.83883639283185" lon="7.950026459476939"><ele>361.0</ele><time>2026-04-08T18:10:18Z</time></trkpt><trkpt lat="44.83876394949148" lon="7.949822774281485"><ele>361.0</ele><time>2026-04-08T18:10:19Z</time></trkpt><trkpt lat="44.8386703644834" lon="7.94962956879216"><ele>361.0</ele><time>2026-04-08T18:10:20Z</time></trkpt><trkpt lat="44.83859506486964" lon="7.949458361583717"><ele>361.0</ele><time>2026-04-08T18:10:21Z</time></trkpt><trkpt lat="44.83847605362818" lon="7.949243383983989"><ele>361.0</ele><time>2026-04-08T18:10:22Z</time></trkpt><trkpt lat="44.83839705909469" lon="7.949032755748121"><ele>361.0</ele><time>2026-04-08T18:10:23Z</time></trkpt><trkpt lat="44.83831685144633" lon="7.948827235854498"><ele>360.3333333333333</ele><time>2026-04-08T18:10:24Z</time></trkpt><trkpt lat="44.83824344489302" lon="7.948613433082632"><ele>359.6666666666667</ele><time>2026-04-08T18:10:25Z</time></trkpt><trkpt lat="44.8381590321615" lon="7.948404818343054"><ele>359.0</ele><time>2026-04-08T18:10:26Z</time></trkpt><trkpt lat="44.83810421666716" lon="7.948183504836847"><ele>358.25</ele><time>2026-04-08T18:10:27Z</time></trkpt><trkpt lat="44.83804728800051" lon="7.947993809569321"><ele>357.5</ele><time>2026-04-08T18:10:28Z</time></trkpt><trkpt lat="44.8380145049979" lon="7.94781085770073"><ele>356.75</ele><time>2026-04-08T18:10:29Z</time></trkpt><trkpt lat="44.83799342058899" lon="7.947633708603304"><ele>356.0</ele><time>2026-04-08T18:10:30Z</time></trkpt><trkpt lat="44.837995896723065" lon="7.947453882790179"><ele>355.5</ele><time>2026-04-08T18:10:31Z</time></trkpt><trkpt lat="44.83803034629095" lon="7.947274726282997"><ele>355.0</ele><time>2026-04-08T18:10:32Z</time></trkpt><trkpt lat="44.83807839647063" lon="7.947097169186197"><ele>354.5</ele><time>2026-04-08T18:10:33Z</time></trkpt><trkpt lat="44.83814462680025" lon="7.94691970822036"><ele>354.0</ele><time>2026-04-08T18:10:34Z</time></trkpt><trkpt lat="44.838234317229926" lon="7.946752255004596"><ele>354.6666666666667</ele><time>2026-04-08T18:10:35Z</time></trkpt><trkpt lat="44.838342530599895" lon="7.946586542677195"><ele>355.33333333333337</ele><time>2026-04-08T18:10:36Z</time></trkpt><trkpt lat="44.83846946428796" lon="7.946415792537152"><ele>356.0</ele><time>2026-04-08T18:10:37Z</time></trkpt><trkpt lat="44.83860308982238" lon="7.946239247817724"><ele>356.0</ele><time>2026-04-08T18:10:38Z</time></trkpt><trkpt lat="44.838725309306675" lon="7.9460857474061575"><ele>356.0</ele><time>2026-04-08T18:10:39Z</time></trkpt><trkpt lat="44.83883419190926" lon="7.94594929216991"><ele>356.0</ele><time>2026-04-08T18:10:40Z</time></trkpt><trkpt lat="44.838923102216974" lon="7.945843154391503"><ele>356.0</ele><time>2026-04-08T18:10:41Z</time></trkpt><trkpt lat="44.83901378901949" lon="7.945746009181382"><ele>356.0</ele><time>2026-04-08T18:10:42Z</time></trkpt><trkpt lat="44.83909185817012" lon="7.945654416236379"><ele>356.0</ele><time>2026-04-08T18:10:43Z</time></trkpt><trkpt lat="44.83916621679274" lon="7.9455840656019445"><ele>356.0</ele><time>2026-04-08T18:10:44Z</time></trkpt><trkpt lat="44.839287603285314" lon="7.945581692414346"><ele>356.0</ele><time>2026-04-08T18:10:45Z</time></trkpt><trkpt lat="44.83939125121583" lon="7.9455748193366205"><ele>356.0</ele><time>2026-04-08T18:10:46Z</time></trkpt><trkpt lat="44.839486818044264" lon="7.945558503211251"><ele>355.5</ele><time>2026-04-08T18:10:47Z</time></trkpt><trkpt lat="44.83958088818541" lon="7.945480239906078"><ele>355.0</ele><time>2026-04-08T18:10:48Z</time></trkpt><trkpt lat="44.83965547834085" lon="7.94536991642638"><ele>354.5</ele><time>2026-04-08T18:10:48.999Z</time></trkpt><trkpt lat="44.8397353671602" lon="7.94525295023455"><ele>354.0</ele><time>2026-04-08T18:10:49.999Z</time></trkpt><trkpt lat="44.839810688295216" lon="7.945102513637718"><ele>354.0</ele><time>2026-04-08T18:10:50.999Z</time></trkpt><trkpt lat="44.839900711370376" lon="7.944955018548284"><ele>354.0</ele><time>2026-04-08T18:10:51.999Z</time></trkpt><trkpt lat="44.83998675966522" lon="7.944796622206129"><ele>354.0</ele><time>2026-04-08T18:10:52.999Z</time></trkpt><trkpt lat="44.84007239203669" lon="7.944636506020946"><ele>354.0</ele><time>2026-04-08T18:10:53.999Z</time></trkpt><trkpt lat="44.84015048796259" lon="7.944451147502659"><ele>352.6666666666667</ele><time>2026-04-08T18:10:54.999Z</time></trkpt><trkpt lat="44.840245721790986" lon="7.94427336265727"><ele>351.33333333333337</ele><time>2026-04-08T18:10:55.999Z</time></trkpt><trkpt lat="44.84033723647164" lon="7.9440809536624135"><ele>350.0</ele><time>2026-04-08T18:10:56.999Z</time></trkpt><trkpt lat="44.840421047054484" lon="7.943922515903742"><ele>349.6</ele><time>2026-04-08T18:10:57.999Z</time></trkpt><trkpt lat="44.84048876513158" lon="7.943773222249512"><ele>349.2</ele><time>2026-04-08T18:10:59Z</time></trkpt><trkpt lat="44.84055528604826" lon="7.943668540818366"><ele>348.79999999999995</ele><time>2026-04-08T18:11:00Z</time></trkpt><trkpt lat="44.8406277090265" lon="7.943588648993337"><ele>348.4</ele><time>2026-04-08T18:11:01Z</time></trkpt><trkpt lat="44.840707182564714" lon="7.943528940509436"><ele>348.0</ele><time>2026-04-08T18:11:02Z</time></trkpt><trkpt lat="44.84080956328318" lon="7.9434591804581824"><ele>348.0</ele><time>2026-04-08T18:11:03Z</time></trkpt><trkpt lat="44.8409248669615" lon="7.94339888018674"><ele>348.0</ele><time>2026-04-08T18:11:04Z</time></trkpt><trkpt lat="44.84105112999244" lon="7.943341611586425"><ele>348.0</ele><time>2026-04-08T18:11:05Z</time></trkpt><trkpt lat="44.84117382222775" lon="7.943265813025713"><ele>348.0</ele><time>2026-04-08T18:11:06Z</time></trkpt><trkpt lat="44.841280939962715" lon="7.943206007883642"><ele>348.0</ele><time>2026-04-08T18:11:07Z</time></trkpt><trkpt lat="44.84136459480231" lon="7.943117868961573"><ele>348.0</ele><time>2026-04-08T18:11:08Z</time></trkpt><trkpt lat="44.84144052483545" lon="7.943001290892467"><ele>348.0</ele><time>2026-04-08T18:11:09Z</time></trkpt><trkpt lat="44.84149241539288" lon="7.942849008477457"><ele>348.0</ele><time>2026-04-08T18:11:10Z</time></trkpt><trkpt lat="44.84152534031437" lon="7.942666528780399"><ele>348.0</ele><time>2026-04-08T18:11:11Z</time></trkpt><trkpt lat="44.84158551851389" lon="7.942515786504429"><ele>348.0</ele><time>2026-04-08T18:11:12Z</time></trkpt><trkpt lat="44.84164636747883" lon="7.94240273506804"><ele>348.0</ele><time>2026-04-08T18:11:13Z</time></trkpt><trkpt lat="44.84172526330409" lon="7.942305299278668"><ele>348.0</ele><time>2026-04-08T18:11:14Z</time></trkpt><trkpt lat="44.84181270565338" lon="7.942258405331845"><ele>348.0</ele><time>2026-04-08T18:11:15Z</time></trkpt><trkpt lat="44.84193042142727" lon="7.942209410202724"><ele>347.5</ele><time>2026-04-08T18:11:16Z</time></trkpt><trkpt lat="44.84205783126791" lon="7.942159114319779"><ele>347.0</ele><time>2026-04-08T18:11:17Z</time></trkpt><trkpt lat="44.84217154431635" lon="7.94210132047049"><ele>346.5</ele><time>2026-04-08T18:11:18Z</time></trkpt><trkpt lat="44.84228732855341" lon="7.942022864994891"><ele>346.0</ele><time>2026-04-08T18:11:19Z</time></trkpt><trkpt lat="44.84239508114835" lon="7.9419196411056365"><ele>346.0</ele><time>2026-04-08T18:11:20Z</time></trkpt><trkpt lat="44.84251146520202" lon="7.941777915028624"><ele>346.0</ele><time>2026-04-08T18:11:21Z</time></trkpt><trkpt lat="44.8426188180205" lon="7.9416605956504975"><ele>346.0</ele><time>2026-04-08T18:11:22Z</time></trkpt><trkpt lat="44.84272986467714" lon="7.941539699923848"><ele>346.0</ele><time>2026-04-08T18:11:23Z</time></trkpt><trkpt lat="44.842851872884026" lon="7.941413212935697"><ele>347.0</ele><time>2026-04-08T18:11:24Z</time></trkpt><trkpt lat="44.84299198302917" lon="7.941301490479681"><ele>348.0</ele><time>2026-04-08T18:11:25Z</time></trkpt><trkpt lat="44.843121765269544" lon="7.941214858756082"><ele>349.0</ele><time>2026-04-08T18:11:26Z</time></trkpt><trkpt lat="44.84323309379542" lon="7.941138534705696"><ele>350.0</ele><time>2026-04-08T18:11:27Z</time></trkpt><trkpt lat="44.84331608327587" lon="7.941049241463978"><ele>350.0</ele><time>2026-04-08T18:11:28Z</time></trkpt><trkpt lat="44.843388617808465" lon="7.940979681877047"><ele>350.0</ele><time>2026-04-08T18:11:29Z</time></trkpt><trkpt lat="44.84345751645413" lon="7.940905627523913"><ele>350.0</ele><time>2026-04-08T18:11:30Z</time></trkpt><trkpt lat="44.843491302215455" lon="7.9408013716108705"><ele>350.0</ele><time>2026-04-08T18:11:31Z</time></trkpt><trkpt lat="44.84354162132116" lon="7.940705067322116"><ele>350.0</ele><time>2026-04-08T18:11:32Z</time></trkpt><trkpt lat="44.84356190625288" lon="7.940580795862477"><ele>350.0</ele><time>2026-04-08T18:11:33Z</time></trkpt><trkpt lat="44.843554701546225" lon="7.940458078795224"><ele>349.8</ele><time>2026-04-08T18:11:34Z</time></trkpt><trkpt lat="44.84349785348689" lon="7.940341095367858"><ele>349.6</ele><time>2026-04-08T18:11:35Z</time></trkpt><trkpt lat="44.843398290465515" lon="7.940237968656879"><ele>349.4</ele><time>2026-04-08T18:11:36Z</time></trkpt><trkpt lat="44.843301271610386" lon="7.940138269183818"><ele>349.2</ele><time>2026-04-08T18:11:37Z</time></trkpt><trkpt lat="44.843250062963996" lon="7.940017676605745"><ele>349.0</ele><time>2026-04-08T18:11:38Z</time></trkpt><trkpt lat="44.843219040245195" lon="7.939882786754696"><ele>348.5</ele><time>2026-04-08T18:11:39Z</time></trkpt><trkpt lat="44.84321634967268" lon="7.939715998231754"><ele>348.0</ele><time>2026-04-08T18:11:40Z</time></trkpt><trkpt lat="44.84320924141064" lon="7.939541540855515"><ele>347.5</ele><time>2026-04-08T18:11:41Z</time></trkpt><trkpt lat="44.84319798200101" lon="7.939326330813005"><ele>347.0</ele><time>2026-04-08T18:11:42Z</time></trkpt><trkpt lat="44.8431573732995" lon="7.939122611770782"><ele>347.0</ele><time>2026-04-08T18:11:43Z</time></trkpt><trkpt lat="44.843119574670155" lon="7.938946848180092"><ele>347.0</ele><time>2026-04-08T18:11:44Z</time></trkpt><trkpt lat="44.84306028102118" lon="7.93876428410439"><ele>347.0</ele><time>2026-04-08T18:11:45Z</time></trkpt><trkpt lat="44.84299638139078" lon="7.9385545676119635"><ele>347.0</ele><time>2026-04-08T18:11:46Z</time></trkpt><trkpt lat="44.84293137654466" lon="7.938350029013588"><ele>347.75</ele><time>2026-04-08T18:11:47Z</time></trkpt><trkpt lat="44.84288594273216" lon="7.938156612723637"><ele>348.5</ele><time>2026-04-08T18:11:48Z</time></trkpt><trkpt lat="44.8428500686604" lon="7.937982819024925"><ele>349.25</ele><time>2026-04-08T18:11:49Z</time></trkpt><trkpt lat="44.84282649746481" lon="7.9378554714845535"><ele>350.0</ele><time>2026-04-08T18:11:50Z</time></trkpt><trkpt lat="44.84280925649667" lon="7.937726049572272"><ele>350.0</ele><time>2026-04-08T18:11:51Z</time></trkpt><trkpt lat="44.84281095344286" lon="7.937587758015957"><ele>350.0</ele><time>2026-04-08T18:11:52Z</time></trkpt><trkpt lat="44.84284009254165" lon="7.937430202843284"><ele>350.0</ele><time>2026-04-08T18:11:53Z</time></trkpt><trkpt lat="44.842878411414134" lon="7.937256816436685"><ele>350.0</ele><time>2026-04-08T18:11:54Z</time></trkpt><trkpt lat="44.84286938537914" lon="7.93708118612313"><ele>349.0</ele><time>2026-04-08T18:11:55Z</time></trkpt><trkpt lat="44.842875828668696" lon="7.936726848800182"><ele>348.0</ele><time>2026-04-08T18:11:57Z</time></trkpt><trkpt lat="44.84287254498213" lon="7.936543338713996"><ele>347.0</ele><time>2026-04-08T18:11:58Z</time></trkpt><trkpt lat="44.842869567120026" lon="7.936376919697922"><ele>347.0</ele><time>2026-04-08T18:11:59Z</time></trkpt><trkpt lat="44.84286719044467" lon="7.936241921924171"><ele>347.0</ele><time>2026-04-08T18:12:00Z</time></trkpt><trkpt lat="44.84286479482131" lon="7.936087305204814"><ele>347.0</ele><time>2026-04-08T18:12:01Z</time></trkpt><trkpt lat="44.84284640251032" lon="7.935920686743689"><ele>347.0</ele><time>2026-04-08T18:12:02Z</time></trkpt><trkpt lat="44.842845924968074" lon="7.9357196768081835"><ele>346.75</ele><time>2026-04-08T18:12:03Z</time></trkpt><trkpt lat="44.84285592421016" lon="7.935514783702299"><ele>346.5</ele><time>2026-04-08T18:12:04Z</time></trkpt><trkpt lat="44.842852374716934" lon="7.935335740839978"><ele>346.25</ele><time>2026-04-08T18:12:05Z</time></trkpt><trkpt lat="44.84284806659353" lon="7.935179865145045"><ele>346.0</ele><time>2026-04-08T18:12:06Z</time></trkpt><trkpt lat="44.842823924665595" lon="7.935041570849607"><ele>346.0</ele><time>2026-04-08T18:12:07Z</time></trkpt><trkpt lat="44.84281815087476" lon="7.9349189241250775"><ele>346.0</ele><time>2026-04-08T18:12:08Z</time></trkpt><trkpt lat="44.842751392786894" lon="7.93479874962629"><ele>346.0</ele><time>2026-04-08T18:12:09Z</time></trkpt><trkpt lat="44.842672758370355" lon="7.934658769845668"><ele>346.0</ele><time>2026-04-08T18:12:10Z</time></trkpt><trkpt lat="44.84261008413098" lon="7.9345280655665595"><ele>346.0</ele><time>2026-04-08T18:12:11Z</time></trkpt><trkpt lat="44.84255935175918" lon="7.934425083926397"><ele>345.8333333333333</ele><time>2026-04-08T18:12:12Z</time></trkpt><trkpt lat="44.84252843789987" lon="7.9343273923093065"><ele>345.66666666666663</ele><time>2026-04-08T18:12:13Z</time></trkpt><trkpt lat="44.84252360425327" lon="7.93422938701853"><ele>345.5</ele><time>2026-04-08T18:12:14Z</time></trkpt><trkpt lat="44.84252653812207" lon="7.9341125119271405"><ele>345.3333333333333</ele><time>2026-04-08T18:12:15Z</time></trkpt><trkpt lat="44.84254921606648" lon="7.933976271561426"><ele>345.1666666666667</ele><time>2026-04-08T18:12:16Z</time></trkpt><trkpt lat="44.8425919650819" lon="7.933829767112603"><ele>345.0</ele><time>2026-04-08T18:12:17Z</time></trkpt><trkpt lat="44.84265994101789" lon="7.933692412184067"><ele>345.0</ele><time>2026-04-08T18:12:18Z</time></trkpt><trkpt lat="44.84274233494583" lon="7.933557516700332"><ele>345.0</ele><time>2026-04-08T18:12:19Z</time></trkpt><trkpt lat="44.842837759809385" lon="7.933410966153082"><ele>345.0</ele><time>2026-04-08T18:12:20Z</time></trkpt><trkpt lat="44.84293832834844" lon="7.933263277356655"><ele>345.0</ele><time>2026-04-08T18:12:21Z</time></trkpt><trkpt lat="44.843043199199265" lon="7.9331201018456685"><ele>345.0</ele><time>2026-04-08T18:12:22Z</time></trkpt><trkpt lat="44.84315528260829" lon="7.9329741451053675"><ele>345.0</ele><time>2026-04-08T18:12:23Z</time></trkpt><trkpt lat="44.84327262277154" lon="7.9328263653573465"><ele>345.0</ele><time>2026-04-08T18:12:24Z</time></trkpt><trkpt lat="44.84339189489793" lon="7.9326795103252925"><ele>343.6666666666667</ele><time>2026-04-08T18:12:25Z</time></trkpt><trkpt lat="44.84351901703643" lon="7.932524758897544"><ele>342.33333333333337</ele><time>2026-04-08T18:12:26Z</time></trkpt><trkpt lat="44.843644789768895" lon="7.932372534934708"><ele>341.0</ele><time>2026-04-08T18:12:27Z</time></trkpt><trkpt lat="44.84376777342509" lon="7.932229124818214"><ele>341.0</ele><time>2026-04-08T18:12:28Z</time></trkpt><trkpt lat="44.8438938466048" lon="7.932085595770666"><ele>341.0</ele><time>2026-04-08T18:12:29Z</time></trkpt><trkpt lat="44.84402075480894" lon="7.931938525231707"><ele>341.0</ele><time>2026-04-08T18:12:30Z</time></trkpt><trkpt lat="44.844144462579514" lon="7.931786266906181"><ele>341.6666666666667</ele><time>2026-04-08T18:12:31Z</time></trkpt><trkpt lat="44.844267921768626" lon="7.931632751937231"><ele>342.3333333333333</ele><time>2026-04-08T18:12:32Z</time></trkpt><trkpt lat="44.8443869423216" lon="7.931485053496396"><ele>343.0</ele><time>2026-04-08T18:12:33Z</time></trkpt><trkpt lat="44.84449485340911" lon="7.93135258263564"><ele>342.59999999999997</ele><time>2026-04-08T18:12:34Z</time></trkpt><trkpt lat="44.84459574408625" lon="7.9312292981675"><ele>342.2</ele><time>2026-04-08T18:12:35Z</time></trkpt><trkpt lat="44.84468855233877" lon="7.931119467387188"><ele>341.8</ele><time>2026-04-08T18:12:36Z</time></trkpt><trkpt lat="44.844765465271614" lon="7.931031567012516"><ele>341.4</ele><time>2026-04-08T18:12:37Z</time></trkpt><trkpt lat="44.84482995756761" lon="7.930974114735395"><ele>341.0</ele><time>2026-04-08T18:12:38Z</time></trkpt><trkpt lat="44.84492648318548" lon="7.930885169631149"><ele>341.0</ele><time>2026-04-08T18:12:40Z</time></trkpt><trkpt lat="44.84498878704538" lon="7.930759888239075"><ele>341.0</ele><time>2026-04-08T18:12:42Z</time></trkpt><trkpt lat="44.84504502067251" lon="7.930623431828582"><ele>341.0</ele><time>2026-04-08T18:12:44Z</time></trkpt><trkpt lat="44.84505109007907" lon="7.930505146998288"><ele>341.0</ele><time>2026-04-08T18:12:46Z</time></trkpt><trkpt lat="44.84511941992446" lon="7.930403110423155"><ele>341.0</ele><time>2026-04-08T18:12:48Z</time></trkpt><trkpt lat="44.845328854532546" lon="7.9304385381726"><ele>341.1428571428571</ele><time>2026-04-08T18:12:50Z</time></trkpt><trkpt lat="44.845399195429934" lon="7.93044498219938"><ele>341.2857142857143</ele><time>2026-04-08T18:12:51Z</time></trkpt><trkpt lat="44.84546523931551" lon="7.930440217742611"><ele>341.42857142857144</ele><time>2026-04-08T18:12:52Z</time></trkpt><trkpt lat="44.84553882033489" lon="7.930452892637155"><ele>341.57142857142856</ele><time>2026-04-08T18:12:53Z</time></trkpt><trkpt lat="44.845602363943385" lon="7.930445647617319"><ele>341.7142857142857</ele><time>2026-04-08T18:12:54Z</time></trkpt><trkpt lat="44.84566537960819" lon="7.9304249327893395"><ele>341.85714285714283</ele><time>2026-04-08T18:12:55Z</time></trkpt><trkpt lat="44.84573604848182" lon="7.9304487728393935"><ele>342.0</ele><time>2026-04-08T18:12:58Z</time></trkpt><trkpt lat="44.84576297944552" lon="7.930530584497289"><ele>342.0</ele><time>2026-04-08T18:13:02Z</time></trkpt><trkpt lat="44.84582135924942" lon="7.930486391867636"><ele>342.0</ele><time>2026-04-08T18:13:08Z</time></trkpt><trkpt lat="44.845853751148304" lon="7.93039923238334"><ele>342.0</ele><time>2026-04-08T18:13:12Z</time></trkpt><trkpt lat="44.84595489071164" lon="7.930417919368962"><ele>342.0</ele><time>2026-04-08T18:13:14Z</time></trkpt><trkpt lat="44.846046028584944" lon="7.930396452530039"><ele>342.0</ele><time>2026-04-08T18:13:23Z</time></trkpt><trkpt lat="44.84619371428158" lon="7.930376670611688"><ele>341.6666666666667</ele><time>2026-04-08T18:13:25Z</time></trkpt><trkpt lat="44.846260951897186" lon="7.930367459607379"><ele>341.3333333333333</ele><time>2026-04-08T18:13:26Z</time></trkpt><trkpt lat="44.84633108467239" lon="7.930392808571569"><ele>341.0</ele><time>2026-04-08T18:13:27Z</time></trkpt><trkpt lat="44.84640659115372" lon="7.9304035582405685"><ele>340.66666666666663</ele><time>2026-04-08T18:13:28Z</time></trkpt><trkpt lat="44.84647890236773" lon="7.930389315321107"><ele>340.3333333333333</ele><time>2026-04-08T18:13:29Z</time></trkpt><trkpt lat="44.84654005454827" lon="7.930423064226884"><ele>340.0</ele><time>2026-04-08T18:13:31Z</time></trkpt><trkpt lat="44.84661415497788" lon="7.930606582011237"><ele>340.0</ele><time>2026-04-08T18:13:33Z</time></trkpt><trkpt lat="44.846676250899144" lon="7.93069444212769"><ele>340.0</ele><time>2026-04-08T18:13:34Z</time></trkpt><trkpt lat="44.84678612275998" lon="7.930733806677644"><ele>340.0</ele><time>2026-04-08T18:13:36Z</time></trkpt><trkpt lat="44.84684893427377" lon="7.930718336766806"><ele>340.0</ele><time>2026-04-08T18:13:37Z</time></trkpt><trkpt lat="44.846960387984296" lon="7.93069064784874"><ele>340.0</ele><time>2026-04-08T18:13:39Z</time></trkpt><trkpt lat="44.84706985031769" lon="7.9307553697771604"><ele>338.4</ele><time>2026-04-08T18:13:41Z</time></trkpt><trkpt lat="44.84717584407799" lon="7.930804980214417"><ele>336.8</ele><time>2026-04-08T18:13:43Z</time></trkpt><trkpt lat="44.847250028453516" lon="7.930820956802166"><ele>335.20000000000005</ele><time>2026-04-08T18:13:44Z</time></trkpt><trkpt lat="44.8473144478492" lon="7.930817420597626"><ele>333.6</ele><time>2026-04-08T18:13:45Z</time></trkpt><trkpt lat="44.847412041172696" lon="7.930812227752811"><ele>332.0</ele><time>2026-04-08T18:13:47Z</time></trkpt><trkpt lat="44.84751671994788" lon="7.930839401086485"><ele>332.0</ele><time>2026-04-08T18:13:49Z</time></trkpt><trkpt lat="44.84761752884843" lon="7.930779854376402"><ele>332.0</ele><time>2026-04-08T18:13:51Z</time></trkpt><trkpt lat="44.84766788813279" lon="7.930685591964965"><ele>332.0</ele><time>2026-04-08T18:13:52Z</time></trkpt><trkpt lat="44.84768783219685" lon="7.930593640772445"><ele>332.0</ele><time>2026-04-08T18:13:53Z</time></trkpt><trkpt lat="44.84774845800603" lon="7.930502863906314"><ele>332.0</ele><time>2026-04-08T18:13:55Z</time></trkpt><trkpt lat="44.847812278853105" lon="7.930486035682819"><ele>332.0</ele><time>2026-04-08T18:13:58Z</time></trkpt><trkpt lat="44.84789069944509" lon="7.930436192334248"><ele>330.33333333333337</ele><time>2026-04-08T18:14:01Z</time></trkpt><trkpt lat="44.84797692573141" lon="7.93039197417082"><ele>328.6666666666667</ele><time>2026-04-08T18:14:02Z</time></trkpt><trkpt lat="44.84803998392529" lon="7.930376900037519"><ele>327.0</ele><time>2026-04-08T18:14:03Z</time></trkpt><trkpt lat="44.84811846609546" lon="7.9303806868582045"><ele>325.3333333333333</ele><time>2026-04-08T18:14:04Z</time></trkpt><trkpt lat="44.84817250864775" lon="7.93045764651967"><ele>323.66666666666663</ele><time>2026-04-08T18:14:06Z</time></trkpt><trkpt lat="44.848222151731754" lon="7.930513279694498"><ele>322.0</ele><time>2026-04-08T18:14:10Z</time></trkpt><trkpt lat="44.84831313480923" lon="7.9306452214841405"><ele>322.0</ele><time>2026-04-08T18:14:12Z</time></trkpt><trkpt lat="44.848356007096925" lon="7.930728212077783"><ele>322.0</ele><time>2026-04-08T18:14:13Z</time></trkpt><trkpt lat="44.848377859682415" lon="7.930867185571687"><ele>322.0</ele><time>2026-04-08T18:14:15Z</time></trkpt><trkpt lat="44.84836045964271" lon="7.930955965333779"><ele>322.0</ele><time>2026-04-08T18:14:16Z</time></trkpt><trkpt lat="44.84832283688509" lon="7.931076372168384"><ele>322.0</ele><time>2026-04-08T18:14:18Z</time></trkpt><trkpt lat="44.84821957769167" lon="7.931215971900536"><ele>321.0</ele><time>2026-04-08T18:14:20Z</time></trkpt><trkpt lat="44.84816819506024" lon="7.931290999668584"><ele>320.0</ele><time>2026-04-08T18:14:21Z</time></trkpt><trkpt lat="44.848116851858734" lon="7.931388233815977"><ele>319.0</ele><time>2026-04-08T18:14:23Z</time></trkpt><trkpt lat="44.84816581842455" lon="7.931495336859874"><ele>318.0</ele><time>2026-04-08T18:14:25Z</time></trkpt><trkpt lat="44.84828583676321" lon="7.931548981503393"><ele>317.0</ele><time>2026-04-08T18:14:27Z</time></trkpt><trkpt lat="44.84835437479638" lon="7.931582170645585"><ele>316.0</ele><time>2026-04-08T18:14:28Z</time></trkpt><trkpt lat="44.84844982059675" lon="7.931626015567717"><ele>316.0</ele><time>2026-04-08T18:14:30Z</time></trkpt><trkpt lat="44.84851750158025" lon="7.931637355144075"><ele>316.0</ele><time>2026-04-08T18:14:33Z</time></trkpt><trkpt lat="44.848930159700245" lon="7.931039356414209"><ele>316.0</ele><time>2026-04-08T18:14:40Z</time></trkpt><trkpt lat="44.84895591675702" lon="7.930913450156758"><ele>316.0</ele><time>2026-04-08T18:14:41Z</time></trkpt><trkpt lat="44.848937617839965" lon="7.9307636444661025"><ele>316.0</ele><time>2026-04-08T18:14:42Z</time></trkpt><trkpt lat="44.848972352997734" lon="7.9306326653872"><ele>316.0</ele><time>2026-04-08T18:14:43Z</time></trkpt><trkpt lat="44.84899099782722" lon="7.930546310310099"><ele>316.0</ele><time>2026-04-08T18:14:44Z</time></trkpt><trkpt lat="44.848981332467815" lon="7.930442027423127"><ele>316.0</ele><time>2026-04-08T18:14:45Z</time></trkpt><trkpt lat="44.84899223145004" lon="7.93030689989305"><ele>316.0</ele><time>2026-04-08T18:14:47Z</time></trkpt><trkpt lat="44.84899670352709" lon="7.930157128232254"><ele>316.0</ele><time>2026-04-08T18:14:49Z</time></trkpt><trkpt lat="44.8489604950787" lon="7.930060825286303"><ele>316.0</ele><time>2026-04-08T18:14:50Z</time></trkpt><trkpt lat="44.848893856364505" lon="7.9299262015119485"><ele>316.0</ele><time>2026-04-08T18:14:51Z</time></trkpt><trkpt lat="44.84886974146805" lon="7.92982027139287"><ele>316.0</ele><time>2026-04-08T18:14:52Z</time></trkpt><trkpt lat="44.84886199866448" lon="7.929677146098574"><ele>316.0</ele><time>2026-04-08T18:14:54Z</time></trkpt><trkpt lat="44.84896982460325" lon="7.929540429784512"><ele>316.0</ele><time>2026-04-08T18:14:56Z</time></trkpt><trkpt lat="44.84901162276697" lon="7.929409622359066"><ele>316.0</ele><time>2026-04-08T18:14:57Z</time></trkpt><trkpt lat="44.84896207025836" lon="7.929334699204166"><ele>316.0</ele><time>2026-04-08T18:14:58Z</time></trkpt><trkpt lat="44.84894861439208" lon="7.929245698359031"><ele>316.0</ele><time>2026-04-08T18:14:59Z</time></trkpt><trkpt lat="44.84901043570852" lon="7.929116082493335"><ele>315.40000000000003</ele><time>2026-04-08T18:15:01Z</time></trkpt><trkpt lat="44.84891308583089" lon="7.928930846238854"><ele>314.8</ele><time>2026-04-08T18:15:03Z</time></trkpt><trkpt lat="44.84897315539763" lon="7.928836293521278"><ele>314.20000000000005</ele><time>2026-04-08T18:15:05Z</time></trkpt><trkpt lat="44.84900854162505" lon="7.928751160075413"><ele>313.6</ele><time>2026-04-08T18:15:06Z</time></trkpt><trkpt lat="44.84898976964048" lon="7.928609882807915"><ele>313.0</ele><time>2026-04-08T18:15:08Z</time></trkpt><trkpt lat="44.84894091535207" lon="7.928500312853917"><ele>313.5</ele><time>2026-04-08T18:15:09Z</time></trkpt><trkpt lat="44.848924956448535" lon="7.928391514625588"><ele>314.0</ele><time>2026-04-08T18:15:10Z</time></trkpt><trkpt lat="44.84887058391101" lon="7.928275390089895"><ele>314.5</ele><time>2026-04-08T18:15:11Z</time></trkpt><trkpt lat="44.84884617627044" lon="7.928185421498943"><ele>315.0</ele><time>2026-04-08T18:15:12Z</time></trkpt><trkpt lat="44.84877570272215" lon="7.9280849063678405"><ele>315.5</ele><time>2026-04-08T18:15:14Z</time></trkpt><trkpt lat="44.848748299179086" lon="7.927974900875588"><ele>316.0</ele><time>2026-04-08T18:15:15Z</time></trkpt><trkpt lat="44.848739302841295" lon="7.927804649563571"><ele>316.0</ele><time>2026-04-08T18:15:16Z</time></trkpt><trkpt lat="44.84870169559954" lon="7.927690340368875"><ele>316.0</ele><time>2026-04-08T18:15:17Z</time></trkpt><trkpt lat="44.8486723929156" lon="7.927551804992498"><ele>316.0</ele><time>2026-04-08T18:15:18Z</time></trkpt><trkpt lat="44.84861335367748" lon="7.927447781668244"><ele>316.0</ele><time>2026-04-08T18:15:19Z</time></trkpt><trkpt lat="44.84854594444199" lon="7.927342567789245"><ele>316.0</ele><time>2026-04-08T18:15:20Z</time></trkpt><trkpt lat="44.84847720096209" lon="7.92724032451884"><ele>315.0</ele><time>2026-04-08T18:15:21Z</time></trkpt><trkpt lat="44.84842932544882" lon="7.927117572067198"><ele>314.0</ele><time>2026-04-08T18:15:22Z</time></trkpt><trkpt lat="44.8484028248331" lon="7.92700204094131"><ele>313.0</ele><time>2026-04-08T18:15:23Z</time></trkpt><trkpt lat="44.84839595615376" lon="7.9268825645132015"><ele>312.0</ele><time>2026-04-08T18:15:24Z</time></trkpt><trkpt lat="44.84837786802577" lon="7.926790562366689"><ele>311.0</ele><time>2026-04-08T18:15:25Z</time></trkpt><trkpt lat="44.84834116713069" lon="7.926705973471003"><ele>310.0</ele><time>2026-04-08T18:15:26Z</time></trkpt><trkpt lat="44.84829202284751" lon="7.926609675853625"><ele>309.2</ele><time>2026-04-08T18:15:27Z</time></trkpt><trkpt lat="44.8482035583964" lon="7.926519735045849"><ele>308.4</ele><time>2026-04-08T18:15:28Z</time></trkpt><trkpt lat="44.84812629485418" lon="7.9264598452936825"><ele>307.6</ele><time>2026-04-08T18:15:29Z</time></trkpt><trkpt lat="44.84806999071548" lon="7.9263926950281185"><ele>306.8</ele><time>2026-04-08T18:15:30Z</time></trkpt><trkpt lat="44.847983130468506" lon="7.92630510452985"><ele>306.0</ele><time>2026-04-08T18:15:31Z</time></trkpt><trkpt lat="44.847905124934165" lon="7.9261646551589005"><ele>306.0</ele><time>2026-04-08T18:15:32Z</time></trkpt><trkpt lat="44.847822173266" lon="7.926035813912183"><ele>306.0</ele><time>2026-04-08T18:15:33Z</time></trkpt><trkpt lat="44.84773987271537" lon="7.925920335218849"><ele>306.0</ele><time>2026-04-08T18:15:34Z</time></trkpt><trkpt lat="44.847671267888074" lon="7.925841436294912"><ele>306.0</ele><time>2026-04-08T18:15:35Z</time></trkpt><trkpt lat="44.8476301853675" lon="7.925758641748483"><ele>306.0</ele><time>2026-04-08T18:15:36Z</time></trkpt><trkpt lat="44.84762985783151" lon="7.9256088043742725"><ele>306.8</ele><time>2026-04-08T18:15:38Z</time></trkpt><trkpt lat="44.84769529824618" lon="7.925460328310751"><ele>307.6</ele><time>2026-04-08T18:15:40Z</time></trkpt><trkpt lat="44.84768648804572" lon="7.925339355687762"><ele>308.4</ele><time>2026-04-08T18:15:41Z</time></trkpt><trkpt lat="44.84768258624332" lon="7.925188033422809"><ele>309.2</ele><time>2026-04-08T18:15:42Z</time></trkpt><trkpt lat="44.84767380080081" lon="7.925011487829417"><ele>310.0</ele><time>2026-04-08T18:15:43Z</time></trkpt><trkpt lat="44.847659915306345" lon="7.924812780654929"><ele>312.0</ele><time>2026-04-08T18:15:44Z</time></trkpt><trkpt lat="44.847642142359106" lon="7.924645784921537"><ele>314.0</ele><time>2026-04-08T18:15:45Z</time></trkpt><trkpt lat="44.84759615416085" lon="7.9244729357173735"><ele>316.0</ele><time>2026-04-08T18:15:46Z</time></trkpt><trkpt lat="44.847566339796835" lon="7.924283751240537"><ele>318.0</ele><time>2026-04-08T18:15:47Z</time></trkpt><trkpt lat="44.847538951196995" lon="7.924077834335634"><ele>314.4</ele><time>2026-04-08T18:15:48Z</time></trkpt><trkpt lat="44.84751224940221" lon="7.923895910482379"><ele>310.8</ele><time>2026-04-08T18:15:49Z</time></trkpt><trkpt lat="44.84748553972355" lon="7.923755245231762"><ele>307.2</ele><time>2026-04-08T18:15:50Z</time></trkpt><trkpt lat="44.84748134254355" lon="7.923653123723696"><ele>303.6</ele><time>2026-04-08T18:15:51Z</time></trkpt><trkpt lat="44.84750192092924" lon="7.9234701513136105"><ele>300.0</ele><time>2026-04-08T18:15:53Z</time></trkpt><trkpt lat="44.84756422256525" lon="7.923319829722225"><ele>300.0</ele><time>2026-04-08T18:15:54Z</time></trkpt><trkpt lat="44.84761237548215" lon="7.923185162242822"><ele>300.0</ele><time>2026-04-08T18:15:55Z</time></trkpt><trkpt lat="44.847684287499035" lon="7.9230429504679565"><ele>300.0</ele><time>2026-04-08T18:15:56Z</time></trkpt><trkpt lat="44.84775041143525" lon="7.9229071726361315"><ele>300.0</ele><time>2026-04-08T18:15:57Z</time></trkpt><trkpt lat="44.84779279307028" lon="7.922759604426377"><ele>302.75</ele><time>2026-04-08T18:15:58Z</time></trkpt><trkpt lat="44.847844592609455" lon="7.9226030308283075"><ele>305.5</ele><time>2026-04-08T18:15:59Z</time></trkpt><trkpt lat="44.84791794128356" lon="7.922435422651133"><ele>308.25</ele><time>2026-04-08T18:16:00Z</time></trkpt><trkpt lat="44.84799022927527" lon="7.922266501927466"><ele>311.0</ele><time>2026-04-08T18:16:01Z</time></trkpt><trkpt lat="44.84804824881964" lon="7.9221201425204075"><ele>311.0</ele><time>2026-04-08T18:16:02Z</time></trkpt><trkpt lat="44.848088255003056" lon="7.9219802309221246"><ele>311.0</ele><time>2026-04-08T18:16:03Z</time></trkpt><trkpt lat="44.84810134455478" lon="7.921824532175642"><ele>311.0</ele><time>2026-04-08T18:16:04Z</time></trkpt><trkpt lat="44.848111872785786" lon="7.92165527705234"><ele>311.0</ele><time>2026-04-08T18:16:05Z</time></trkpt><trkpt lat="44.848130345697946" lon="7.921497396163336"><ele>309.0</ele><time>2026-04-08T18:16:06Z</time></trkpt><trkpt lat="44.84814299593774" lon="7.921372562113698"><ele>307.0</ele><time>2026-04-08T18:16:07Z</time></trkpt><trkpt lat="44.848205008489565" lon="7.92124306845625"><ele>305.0</ele><time>2026-04-08T18:16:08Z</time></trkpt><trkpt lat="44.848256394065245" lon="7.921078661447182"><ele>303.0</ele><time>2026-04-08T18:16:09Z</time></trkpt><trkpt lat="44.84830850756662" lon="7.920904522951425"><ele>302.8</ele><time>2026-04-08T18:16:10Z</time></trkpt><trkpt lat="44.84833953603541" lon="7.920777106270991"><ele>302.6</ele><time>2026-04-08T18:16:11Z</time></trkpt><trkpt lat="44.84843640499975" lon="7.920657326434097"><ele>302.4</ele><time>2026-04-08T18:16:13Z</time></trkpt><trkpt lat="44.84851070200832" lon="7.920604399787115"><ele>302.2</ele><time>2026-04-08T18:16:14Z</time></trkpt><trkpt lat="44.84861932223823" lon="7.920537561923488"><ele>302.0</ele><time>2026-04-08T18:16:15Z</time></trkpt><trkpt lat="44.84871556366816" lon="7.920466659400271"><ele>302.0</ele><time>2026-04-08T18:16:16Z</time></trkpt><trkpt lat="44.84881912859786" lon="7.920371454438141"><ele>302.0</ele><time>2026-04-08T18:16:17Z</time></trkpt><trkpt lat="44.848913084252615" lon="7.9202613722876345"><ele>302.0</ele><time>2026-04-08T18:16:18Z</time></trkpt><trkpt lat="44.84899147209071" lon="7.9201939603504306"><ele>302.0</ele><time>2026-04-08T18:16:19Z</time></trkpt><trkpt lat="44.84905548173401" lon="7.92015476753129"><ele>302.0</ele><time>2026-04-08T18:16:20Z</time></trkpt><trkpt lat="44.84913536999214" lon="7.920132883953914"><ele>302.0</ele><time>2026-04-08T18:16:21Z</time></trkpt><trkpt lat="44.84923771417435" lon="7.920126269215833"><ele>302.0</ele><time>2026-04-08T18:16:22Z</time></trkpt><trkpt lat="44.84931801303912" lon="7.920136542672867"><ele>302.0</ele><time>2026-04-08T18:16:23Z</time></trkpt><trkpt lat="44.84938753698044" lon="7.9201750259353565"><ele>302.0</ele><time>2026-04-08T18:16:24Z</time></trkpt><trkpt lat="44.849443495319925" lon="7.920251565482156"><ele>302.0</ele><time>2026-04-08T18:16:25Z</time></trkpt><trkpt lat="44.84946637506412" lon="7.920353458313559"><ele>302.0</ele><time>2026-04-08T18:16:26Z</time></trkpt><trkpt lat="44.84946891132001" lon="7.920458456184318"><ele>303.2</ele><time>2026-04-08T18:16:27Z</time></trkpt><trkpt lat="44.84944039035676" lon="7.920576699080619"><ele>304.4</ele><time>2026-04-08T18:16:28Z</time></trkpt><trkpt lat="44.84938065679395" lon="7.920707217075029"><ele>305.6</ele><time>2026-04-08T18:16:29Z</time></trkpt><trkpt lat="44.849302537871246" lon="7.920818433758488"><ele>306.8</ele><time>2026-04-08T18:16:30Z</time></trkpt><trkpt lat="44.84924346115616" lon="7.9209409215677535"><ele>308.0</ele><time>2026-04-08T18:16:31Z</time></trkpt><trkpt lat="44.849177546660194" lon="7.921024765892881"><ele>308.0</ele><time>2026-04-08T18:16:32Z</time></trkpt><trkpt lat="44.849122206535455" lon="7.921132105950085"><ele>308.0</ele><time>2026-04-08T18:16:33Z</time></trkpt><trkpt lat="44.849084275923865" lon="7.92121948951135"><ele>308.0</ele><time>2026-04-08T18:16:34Z</time></trkpt><trkpt lat="44.849108963707515" lon="7.921331340886416"><ele>308.0</ele><time>2026-04-08T18:16:36Z</time></trkpt><trkpt lat="44.84917062711816" lon="7.9213547557345265"><ele>308.0</ele><time>2026-04-08T18:16:37Z</time></trkpt><trkpt lat="44.8492649435944" lon="7.921311334164058"><ele>308.0</ele><time>2026-04-08T18:16:38Z</time></trkpt><trkpt lat="44.84938442329373" lon="7.9212591088756215"><ele>308.0</ele><time>2026-04-08T18:16:39Z</time></trkpt><trkpt lat="44.84951839045552" lon="7.921214350628057"><ele>308.0</ele><time>2026-04-08T18:16:40Z</time></trkpt><trkpt lat="44.849651225976125" lon="7.921150809769029"><ele>308.0</ele><time>2026-04-08T18:16:41Z</time></trkpt><trkpt lat="44.8497591035915" lon="7.921083126081643"><ele>308.0</ele><time>2026-04-08T18:16:42Z</time></trkpt><trkpt lat="44.849825988304204" lon="7.921037565194109"><ele>308.0</ele><time>2026-04-08T18:16:43Z</time></trkpt><trkpt lat="44.84990761901147" lon="7.921010514148869"><ele>308.0</ele><time>2026-04-08T18:16:44Z</time></trkpt><trkpt lat="44.84997194481294" lon="7.921039691848553"><ele>308.0</ele><time>2026-04-08T18:16:45Z</time></trkpt><trkpt lat="44.85006106268992" lon="7.921094718275297"><ele>308.0</ele><time>2026-04-08T18:16:46Z</time></trkpt><trkpt lat="44.85016967176384" lon="7.9211662354657095"><ele>308.0</ele><time>2026-04-08T18:16:47Z</time></trkpt><trkpt lat="44.85027724091622" lon="7.92125021105687"><ele>305.75</ele><time>2026-04-08T18:16:48Z</time></trkpt><trkpt lat="44.85038072677878" lon="7.921361298547783"><ele>303.5</ele><time>2026-04-08T18:16:49Z</time></trkpt><trkpt lat="44.850501425987005" lon="7.921436464272592"><ele>301.25</ele><time>2026-04-08T18:16:50Z</time></trkpt><trkpt lat="44.850610272778624" lon="7.921497049187784"><ele>299.0</ele><time>2026-04-08T18:16:51Z</time></trkpt><trkpt lat="44.85068606927718" lon="7.9215669974956935"><ele>299.0</ele><time>2026-04-08T18:16:52Z</time></trkpt><trkpt lat="44.85078029238928" lon="7.921643611230243"><ele>299.0</ele><time>2026-04-08T18:16:54Z</time></trkpt><trkpt lat="44.85085813880904" lon="7.921660696502699"><ele>299.0</ele><time>2026-04-08T18:16:55Z</time></trkpt><trkpt lat="44.85096430033523" lon="7.921658107947702"><ele>299.0</ele><time>2026-04-08T18:16:56Z</time></trkpt><trkpt lat="44.8510877788635" lon="7.921690320326238"><ele>299.0</ele><time>2026-04-08T18:16:57Z</time></trkpt><trkpt lat="44.851209977003045" lon="7.921751113043408"><ele>300.0</ele><time>2026-04-08T18:16:58Z</time></trkpt><trkpt lat="44.851270051067516" lon="7.9218100010200665"><ele>301.0</ele><time>2026-04-08T18:16:59Z</time></trkpt><trkpt lat="44.85133150981868" lon="7.921923867092057"><ele>302.0</ele><time>2026-04-08T18:17:01Z</time></trkpt><trkpt lat="44.85144677420113" lon="7.921946168919596"><ele>303.0</ele><time>2026-04-08T18:17:03Z</time></trkpt><trkpt lat="44.8515907096079" lon="7.9220056220850275"><ele>304.0</ele><time>2026-04-08T18:17:05Z</time></trkpt><trkpt lat="44.85165572542698" lon="7.92205340670925"><ele>304.0</ele><time>2026-04-08T18:17:06Z</time></trkpt><trkpt lat="44.85173019916918" lon="7.922119491897137"><ele>304.0</ele><time>2026-04-08T18:17:07Z</time></trkpt><trkpt lat="44.85180875393614" lon="7.922163005013897"><ele>304.0</ele><time>2026-04-08T18:17:08Z</time></trkpt><trkpt lat="44.85189812896839" lon="7.92220949052559"><ele>304.0</ele><time>2026-04-08T18:17:09Z</time></trkpt><trkpt lat="44.85198061701328" lon="7.922274560342949"><ele>304.0</ele><time>2026-04-08T18:17:10Z</time></trkpt><trkpt lat="44.85206808380888" lon="7.922337788744231"><ele>304.8</ele><time>2026-04-08T18:17:11Z</time></trkpt><trkpt lat="44.85214560794597" lon="7.922384113360989"><ele>305.59999999999997</ele><time>2026-04-08T18:17:12Z</time></trkpt><trkpt lat="44.85220420302298" lon="7.9224540915587465"><ele>306.4</ele><time>2026-04-08T18:17:13Z</time></trkpt><trkpt lat="44.85230257122515" lon="7.922542114776498"><ele>307.2</ele><time>2026-04-08T18:17:14Z</time></trkpt><trkpt lat="44.85239770558042" lon="7.922633580086841"><ele>308.0</ele><time>2026-04-08T18:17:15Z</time></trkpt><trkpt lat="44.85247684044191" lon="7.922714005995222"><ele>308.0</ele><time>2026-04-08T18:17:16Z</time></trkpt><trkpt lat="44.85259900712571" lon="7.922766088348057"><ele>308.0</ele><time>2026-04-08T18:17:18Z</time></trkpt><trkpt lat="44.852715664792505" lon="7.922732932468922"><ele>308.0</ele><time>2026-04-08T18:17:20Z</time></trkpt><trkpt lat="44.85273324240749" lon="7.922627170209733"><ele>308.0</ele><time>2026-04-08T18:17:22Z</time></trkpt><trkpt lat="44.85273618011257" lon="7.922485412561317"><ele>308.0</ele><time>2026-04-08T18:17:23Z</time></trkpt><trkpt lat="44.852708371355355" lon="7.922350463256359"><ele>308.2</ele><time>2026-04-08T18:17:24Z</time></trkpt><trkpt lat="44.8526681051918" lon="7.922242822189806"><ele>308.4</ele><time>2026-04-08T18:17:25Z</time></trkpt><trkpt lat="44.852590591818824" lon="7.922135628993799"><ele>308.59999999999997</ele><time>2026-04-08T18:17:26Z</time></trkpt><trkpt lat="44.852523691130074" lon="7.922049064886461"><ele>308.8</ele><time>2026-04-08T18:17:27Z</time></trkpt><trkpt lat="44.85243083233349" lon="7.921946132851375"><ele>309.0</ele><time>2026-04-08T18:17:28Z</time></trkpt><trkpt lat="44.85234757173607" lon="7.92184615713428"><ele>308.0</ele><time>2026-04-08T18:17:29Z</time></trkpt><trkpt lat="44.85225507698494" lon="7.921741832993946"><ele>307.0</ele><time>2026-04-08T18:17:30Z</time></trkpt><trkpt lat="44.852180945051465" lon="7.921652042030284"><ele>306.0</ele><time>2026-04-08T18:17:31Z</time></trkpt><trkpt lat="44.852120649096214" lon="7.921559104704901"><ele>305.0</ele><time>2026-04-08T18:17:32Z</time></trkpt><trkpt lat="44.852027381339106" lon="7.921492138806919"><ele>304.0</ele><time>2026-04-08T18:17:33Z</time></trkpt><trkpt lat="44.851951525052016" lon="7.921455694530607"><ele>304.0</ele><time>2026-04-08T18:17:34Z</time></trkpt><trkpt lat="44.851868565540975" lon="7.921397582637844"><ele>304.0</ele><time>2026-04-08T18:17:36Z</time></trkpt><trkpt lat="44.85194085851973" lon="7.921465449037756"><ele>304.0</ele><time>2026-04-08T18:17:41Z</time></trkpt><trkpt lat="44.85186830970924" lon="7.921421761267888"><ele>304.0</ele><time>2026-04-08T18:17:58Z</time></trkpt><trkpt lat="44.85181148391813" lon="7.921339621073872"><ele>304.0</ele><time>2026-04-08T18:18:00Z</time></trkpt><trkpt lat="44.85176212996429" lon="7.921272422068961"><ele>304.0</ele><time>2026-04-08T18:18:02Z</time></trkpt><trkpt lat="44.85171240597236" lon="7.921206136975889"><ele>303.4</ele><time>2026-04-08T18:18:04Z</time></trkpt><trkpt lat="44.85164138287577" lon="7.921098604199506"><ele>302.79999999999995</ele><time>2026-04-08T18:18:06Z</time></trkpt><trkpt lat="44.851549627422145" lon="7.92101023173326"><ele>302.20000000000005</ele><time>2026-04-08T18:18:08Z</time></trkpt><trkpt lat="44.85144495793127" lon="7.920941703534536"><ele>301.6</ele><time>2026-04-08T18:18:10Z</time></trkpt><trkpt lat="44.85135857144459" lon="7.920919700579258"><ele>301.0</ele><time>2026-04-08T18:18:12Z</time></trkpt><trkpt lat="44.8512622435709" lon="7.920844635271565"><ele>301.0</ele><time>2026-04-08T18:18:14Z</time></trkpt><trkpt lat="44.85116737048783" lon="7.9207750781305055"><ele>301.0</ele><time>2026-04-08T18:18:16Z</time></trkpt><trkpt lat="44.85106346858052" lon="7.920690654997992"><ele>301.0</ele><time>2026-04-08T18:18:18Z</time></trkpt><trkpt lat="44.850956740536844" lon="7.92058819657421"><ele>301.0</ele><time>2026-04-08T18:18:20Z</time></trkpt><trkpt lat="44.850891632950294" lon="7.920524024162428"><ele>301.0</ele><time>2026-04-08T18:18:21Z</time></trkpt><trkpt lat="44.85083545841519" lon="7.9204708033279445"><ele>298.75</ele><time>2026-04-08T18:18:22Z</time></trkpt><trkpt lat="44.8507691438531" lon="7.920402253192236"><ele>296.5</ele><time>2026-04-08T18:18:25Z</time></trkpt><trkpt lat="44.850589523495074" lon="7.920280715466105"><ele>294.25</ele><time>2026-04-08T18:20:29Z</time></trkpt><trkpt lat="44.85051833092999" lon="7.920188014631128"><ele>292.0</ele><time>2026-04-08T18:20:30Z</time></trkpt><trkpt lat="44.850465117141894" lon="7.9200941511748315"><ele>293.6</ele><time>2026-04-08T18:20:31Z</time></trkpt><trkpt lat="44.85042928385487" lon="7.919973370186636"><ele>295.2</ele><time>2026-04-08T18:20:32Z</time></trkpt><trkpt lat="44.8504106736611" lon="7.919841222280602"><ele>296.8</ele><time>2026-04-08T18:20:33Z</time></trkpt><trkpt lat="44.85040278994126" lon="7.919686379665405"><ele>298.4</ele><time>2026-04-08T18:20:34Z</time></trkpt><trkpt lat="44.850410450948864" lon="7.919545616370135"><ele>300.0</ele><time>2026-04-08T18:20:35Z</time></trkpt><trkpt lat="44.85043558613823" lon="7.919400519279456"><ele>300.75</ele><time>2026-04-08T18:20:36Z</time></trkpt><trkpt lat="44.850485681007825" lon="7.919232323640026"><ele>301.5</ele><time>2026-04-08T18:20:37Z</time></trkpt><trkpt lat="44.850548562449994" lon="7.919071038522909"><ele>302.25</ele><time>2026-04-08T18:20:38Z</time></trkpt><trkpt lat="44.85062044776252" lon="7.91890453904012"><ele>303.0</ele><time>2026-04-08T18:20:39Z</time></trkpt><trkpt lat="44.85068262699716" lon="7.918765928469721"><ele>303.0</ele><time>2026-04-08T18:20:40Z</time></trkpt><trkpt lat="44.850746740082364" lon="7.918617608085648"><ele>303.0</ele><time>2026-04-08T18:20:41Z</time></trkpt><trkpt lat="44.85081832484602" lon="7.918463167477877"><ele>303.0</ele><time>2026-04-08T18:20:42Z</time></trkpt><trkpt lat="44.85088963698894" lon="7.918310255731056"><ele>303.0</ele><time>2026-04-08T18:20:43Z</time></trkpt><trkpt lat="44.850963181966044" lon="7.918149492884283"><ele>303.0</ele><time>2026-04-08T18:20:44Z</time></trkpt><trkpt lat="44.851020800174986" lon="7.918002704678646"><ele>303.0</ele><time>2026-04-08T18:20:45Z</time></trkpt><trkpt lat="44.85107850484768" lon="7.917889623530038"><ele>303.0</ele><time>2026-04-08T18:20:46Z</time></trkpt><trkpt lat="44.851134920393804" lon="7.9178018052566"><ele>303.0</ele><time>2026-04-08T18:20:47Z</time></trkpt><trkpt lat="44.85119018639027" lon="7.917747864069637"><ele>303.0</ele><time>2026-04-08T18:20:48Z</time></trkpt><trkpt lat="44.85125827129858" lon="7.917723811652823"><ele>303.0</ele><time>2026-04-08T18:20:49Z</time></trkpt><trkpt lat="44.85134062882685" lon="7.917719655436021"><ele>303.0</ele><time>2026-04-08T18:20:50Z</time></trkpt><trkpt lat="44.851425437425625" lon="7.917750469883727"><ele>303.0</ele><time>2026-04-08T18:20:51Z</time></trkpt><trkpt lat="44.85151794533125" lon="7.917812834428235"><ele>303.0</ele><time>2026-04-08T18:20:52Z</time></trkpt><trkpt lat="44.85160323320299" lon="7.917859031088972"><ele>303.0</ele><time>2026-04-08T18:20:53Z</time></trkpt><trkpt lat="44.851687758687525" lon="7.9177719654943575"><ele>303.0</ele><time>2026-04-08T18:20:55Z</time></trkpt><trkpt lat="44.85170316378836" lon="7.917670547106034"><ele>301.6</ele><time>2026-04-08T18:20:56Z</time></trkpt><trkpt lat="44.851720214347175" lon="7.9175462117673705"><ele>300.20000000000005</ele><time>2026-04-08T18:20:57Z</time></trkpt><trkpt lat="44.851704779662775" lon="7.917420473055586"><ele>298.8</ele><time>2026-04-08T18:20:58Z</time></trkpt><trkpt lat="44.85163259993514" lon="7.917287250207999"><ele>297.40000000000003</ele><time>2026-04-08T18:20:59Z</time></trkpt><trkpt lat="44.85156269830475" lon="7.91711883394114"><ele>296.0</ele><time>2026-04-08T18:21:00Z</time></trkpt><trkpt lat="44.85153102427405" lon="7.916984242756689"><ele>296.0</ele><time>2026-04-08T18:21:01Z</time></trkpt><trkpt lat="44.85152929218559" lon="7.9168198812767026"><ele>296.0</ele><time>2026-04-08T18:21:02Z</time></trkpt><trkpt lat="44.851566816437625" lon="7.916651174668166"><ele>296.0</ele><time>2026-04-08T18:21:03Z</time></trkpt><trkpt lat="44.851621154985615" lon="7.916461599925646"><ele>296.0</ele><time>2026-04-08T18:21:04Z</time></trkpt><trkpt lat="44.85168096103558" lon="7.916246570055456"><ele>296.0</ele><time>2026-04-08T18:21:05Z</time></trkpt><trkpt lat="44.851738803796465" lon="7.916069459016378"><ele>296.0</ele><time>2026-04-08T18:21:06Z</time></trkpt><trkpt lat="44.851798851167274" lon="7.9159931508735655"><ele>296.0</ele><time>2026-04-08T18:21:07Z</time></trkpt><trkpt lat="44.85189481930635" lon="7.915920691015109"><ele>296.0</ele><time>2026-04-08T18:21:08Z</time></trkpt><trkpt lat="44.85201166530196" lon="7.91584568224132"><ele>297.75</ele><time>2026-04-08T18:21:09Z</time></trkpt><trkpt lat="44.85212699006923" lon="7.915731827352788"><ele>299.5</ele><time>2026-04-08T18:21:10Z</time></trkpt><trkpt lat="44.85223848093873" lon="7.915584594759928"><ele>301.25</ele><time>2026-04-08T18:21:11Z</time></trkpt><trkpt lat="44.85234647841938" lon="7.915453790886038"><ele>303.0</ele><time>2026-04-08T18:21:12Z</time></trkpt><trkpt lat="44.85245596541389" lon="7.915297042435511"><ele>303.0</ele><time>2026-04-08T18:21:13Z</time></trkpt><trkpt lat="44.85255589493376" lon="7.915165535745818"><ele>303.0</ele><time>2026-04-08T18:21:14Z</time></trkpt><trkpt lat="44.852623354502185" lon="7.915043547881968"><ele>303.0</ele><time>2026-04-08T18:21:15Z</time></trkpt><trkpt lat="44.85267691109872" lon="7.914907676111442"><ele>303.0</ele><time>2026-04-08T18:21:16Z</time></trkpt><trkpt lat="44.85271391507596" lon="7.9147609953749285"><ele>302.8</ele><time>2026-04-08T18:21:17Z</time></trkpt><trkpt lat="44.85278874945695" lon="7.914627711722046"><ele>302.6</ele><time>2026-04-08T18:21:18Z</time></trkpt><trkpt lat="44.85286892281576" lon="7.914531961568479"><ele>302.4</ele><time>2026-04-08T18:21:20Z</time></trkpt><trkpt lat="44.85292632111071" lon="7.914434321428237"><ele>302.2</ele><time>2026-04-08T18:21:24Z</time></trkpt><trkpt lat="44.85297912753319" lon="7.914339807097629"><ele>302.0</ele><time>2026-04-08T18:21:25Z</time></trkpt><trkpt lat="44.853051077361314" lon="7.914206504427023"><ele>300.6</ele><time>2026-04-08T18:21:26Z</time></trkpt><trkpt lat="44.85312015629341" lon="7.914085070331063"><ele>299.2</ele><time>2026-04-08T18:21:27Z</time></trkpt><trkpt lat="44.85316577710823" lon="7.913993121986711"><ele>297.8</ele><time>2026-04-08T18:21:28Z</time></trkpt><trkpt lat="44.853176340956736" lon="7.91387249305598"><ele>296.4</ele><time>2026-04-08T18:21:29Z</time></trkpt><trkpt lat="44.85318057095545" lon="7.913698218288977"><ele>295.0</ele><time>2026-04-08T18:21:30Z</time></trkpt><trkpt lat="44.8531727434138" lon="7.91349908226236"><ele>294.5</ele><time>2026-04-08T18:21:31Z</time></trkpt><trkpt lat="44.85317037370053" lon="7.913290799234687"><ele>294.0</ele><time>2026-04-08T18:21:32Z</time></trkpt><trkpt lat="44.85317155278472" lon="7.91310968265917"><ele>293.5</ele><time>2026-04-08T18:21:33Z</time></trkpt><trkpt lat="44.853174998759194" lon="7.91295480793438"><ele>293.0</ele><time>2026-04-08T18:21:34Z</time></trkpt><trkpt lat="44.85318022084078" lon="7.912820583329368"><ele>293.0</ele><time>2026-04-08T18:21:35Z</time></trkpt><trkpt lat="44.85317848348049" lon="7.912706397708713"><ele>293.0</ele><time>2026-04-08T18:21:36Z</time></trkpt><trkpt lat="44.8531663346602" lon="7.912588435674275"><ele>293.0</ele><time>2026-04-08T18:21:37Z</time></trkpt><trkpt lat="44.853146604641715" lon="7.912489878715166"><ele>293.0</ele><time>2026-04-08T18:21:38Z</time></trkpt><trkpt lat="44.853112948986926" lon="7.912390547583102"><ele>293.0</ele><time>2026-04-08T18:21:39Z</time></trkpt><trkpt lat="44.8530736474804" lon="7.912280283129027"><ele>293.0</ele><time>2026-04-08T18:21:40Z</time></trkpt><trkpt lat="44.85301576269225" lon="7.912192339666756"><ele>292.8</ele><time>2026-04-08T18:21:41Z</time></trkpt><trkpt lat="44.852946254141834" lon="7.912122855781722"><ele>292.6</ele><time>2026-04-08T18:21:42Z</time></trkpt><trkpt lat="44.852868494599825" lon="7.912061229282433"><ele>292.4</ele><time>2026-04-08T18:21:43Z</time></trkpt><trkpt lat="44.85278197604242" lon="7.912017978101261"><ele>292.2</ele><time>2026-04-08T18:21:44Z</time></trkpt><trkpt lat="44.852686543499395" lon="7.911985873245489"><ele>292.0</ele><time>2026-04-08T18:21:45Z</time></trkpt><trkpt lat="44.8525809863043" lon="7.911969237536344"><ele>290.75</ele><time>2026-04-08T18:21:46Z</time></trkpt><trkpt lat="44.85247297031024" lon="7.911958065672826"><ele>289.5</ele><time>2026-04-08T18:21:47Z</time></trkpt><trkpt lat="44.85235718885245" lon="7.911935797333838"><ele>288.25</ele><time>2026-04-08T18:21:48Z</time></trkpt><trkpt lat="44.85224052735607" lon="7.911915419902605"><ele>287.0</ele><time>2026-04-08T18:21:49Z</time></trkpt><trkpt lat="44.85212750106422" lon="7.911891490529189"><ele>287.0</ele><time>2026-04-08T18:21:50Z</time></trkpt><trkpt lat="44.852013386287595" lon="7.911866125540291"><ele>287.0</ele><time>2026-04-08T18:21:51Z</time></trkpt><trkpt lat="44.85189522936575" lon="7.9118435610024616"><ele>287.0</ele><time>2026-04-08T18:21:52Z</time></trkpt><trkpt lat="44.851783645070306" lon="7.911820111535677"><ele>287.0</ele><time>2026-04-08T18:21:53Z</time></trkpt><trkpt lat="44.85167385907641" lon="7.911801005736209"><ele>286.8</ele><time>2026-04-08T18:21:54Z</time></trkpt><trkpt lat="44.85157109727546" lon="7.9117576554183"><ele>286.6</ele><time>2026-04-08T18:21:55Z</time></trkpt><trkpt lat="44.85147422930695" lon="7.911738150485706"><ele>286.40000000000003</ele><time>2026-04-08T18:21:56Z</time></trkpt><trkpt lat="44.851390243463584" lon="7.911721239452473"><ele>286.2</ele><time>2026-04-08T18:21:57Z</time></trkpt><trkpt lat="44.85130353552191" lon="7.9117269655804074"><ele>286.0</ele><time>2026-04-08T18:21:58Z</time></trkpt><trkpt lat="44.851223499274866" lon="7.911709315078044"><ele>285.66666666666663</ele><time>2026-04-08T18:21:59Z</time></trkpt><trkpt lat="44.85114641061192" lon="7.911690172197668"><ele>285.3333333333333</ele><time>2026-04-08T18:22:00Z</time></trkpt><trkpt lat="44.851076050475484" lon="7.911672201265302"><ele>285.0</ele><time>2026-04-08T18:22:01Z</time></trkpt><trkpt lat="44.850968971814886" lon="7.911625884428438"><ele>284.6666666666667</ele><time>2026-04-08T18:22:03Z</time></trkpt><trkpt lat="44.85090178514342" lon="7.911569998258869"><ele>284.33333333333337</ele><time>2026-04-08T18:22:05Z</time></trkpt><trkpt lat="44.85082674132773" lon="7.911518114079647"><ele>284.0</ele><time>2026-04-08T18:22:07Z</time></trkpt><trkpt lat="44.85073778821121" lon="7.911521828156608"><ele>287.33333333333337</ele><time>2026-04-08T18:22:09Z</time></trkpt><trkpt lat="44.85062798843134" lon="7.91151704883958"><ele>290.6666666666667</ele><time>2026-04-08T18:22:11Z</time></trkpt><trkpt lat="44.85049325519031" lon="7.91150567063088"><ele>294.0</ele><time>2026-04-08T18:22:13Z</time></trkpt><trkpt lat="44.85022325351913" lon="7.911581686258762"><ele>294.0</ele><time>2026-04-08T18:22:15Z</time></trkpt><trkpt lat="44.8501703723592" lon="7.911647422519906"><ele>294.0</ele><time>2026-04-08T18:22:16Z</time></trkpt><trkpt lat="44.850618249988536" lon="7.911891796567158"><ele>294.0</ele><time>2026-04-08T18:22:19Z</time></trkpt><trkpt lat="44.85065768359841" lon="7.911812269137527"><ele>294.0</ele><time>2026-04-08T18:22:20Z</time></trkpt><trkpt lat="44.850746309279444" lon="7.91172714955516"><ele>294.0</ele><time>2026-04-08T18:22:22Z</time></trkpt><trkpt lat="44.8508056025191" lon="7.911690996954007"><ele>294.0</ele><time>2026-04-08T18:22:23Z</time></trkpt><trkpt lat="44.85089910190796" lon="7.911629478426405"><ele>294.0</ele><time>2026-04-08T18:22:25Z</time></trkpt><trkpt lat="44.85098022690226" lon="7.91157442112899"><ele>294.0</ele><time>2026-04-08T18:22:27Z</time></trkpt><trkpt lat="44.851032054710736" lon="7.911517738905647"><ele>294.0</ele><time>2026-04-08T18:22:28Z</time></trkpt><trkpt lat="44.851068426920804" lon="7.911421075038789"><ele>294.0</ele><time>2026-04-08T18:22:29Z</time></trkpt><trkpt lat="44.85107260956405" lon="7.911294577903866"><ele>294.0</ele><time>2026-04-08T18:22:30Z</time></trkpt><trkpt lat="44.851046278910964" lon="7.911164532666752"><ele>294.0</ele><time>2026-04-08T18:22:31Z</time></trkpt><trkpt lat="44.850999702232436" lon="7.911081934821459"><ele>294.0</ele><time>2026-04-08T18:22:32Z</time></trkpt><trkpt lat="44.850941445162974" lon="7.911005142387945"><ele>294.0</ele><time>2026-04-08T18:22:34Z</time></trkpt><trkpt lat="44.851010842959546" lon="7.910979464793364"><ele>292.0</ele><time>2026-04-08T18:22:39Z</time></trkpt><trkpt lat="44.851127512374745" lon="7.910987449046094"><ele>290.0</ele><time>2026-04-08T18:22:41Z</time></trkpt><trkpt lat="44.8512198416002" lon="7.911059058878724"><ele>288.0</ele><time>2026-04-08T18:22:43Z</time></trkpt><trkpt lat="44.851222129136104" lon="7.9111716816698685"><ele>286.0</ele><time>2026-04-08T18:22:45Z</time></trkpt><trkpt lat="44.85121853423525" lon="7.911268162684314"><ele>284.0</ele><time>2026-04-08T18:22:52Z</time></trkpt><trkpt lat="44.85118609131183" lon="7.911370076878072"><ele>284.0</ele><time>2026-04-08T18:22:56Z</time></trkpt><trkpt lat="44.851293316101454" lon="7.911314449354261"><ele>284.0</ele><time>2026-04-08T18:23:06Z</time></trkpt><trkpt lat="44.85121827401124" lon="7.911325514308839"><ele>284.0</ele><time>2026-04-08T18:23:35Z</time></trkpt><trkpt lat="44.8511542452068" lon="7.911290547470763"><ele>284.0</ele><time>2026-04-08T18:23:38Z</time></trkpt></trkseg></trk></gpx>